<?xml version="1.0" encoding="UTF-8" standalone="no" ?>
<gpx xmlns="http://www.topografix.com/GPX/1/1" xmlns:xsi="http://www.w3.org/2001/XMLSchema-instance" xsi:schemaLocation="http://www.topografix.com/GPX/1/1 http://www.topografix.com/GPX/1/1/gpx.xsd" version="1.1" creator="VisuGPX - https://www.visugpx.com">
  <metadata>
    <name>bouclette sympathique</name>
    <desc><![CDATA[toute petite sortie pour prendre l'air]]></desc>
  </metadata>
  <wpt lat="47.51805" lon="6.77496">
    <ele>388</ele>
    <name><![CDATA[Point de cheminement 1]]></name>
    <desc><![CDATA[]]></desc>
  </wpt>
  <wpt lat="47.49014" lon="6.76777">
    <ele>312</ele>
    <name><![CDATA[Point de cheminement 2]]></name>
    <desc><![CDATA[]]></desc>
  </wpt>
  <wpt lat="47.48733" lon="6.7752">
    <ele>335</ele>
    <name><![CDATA[Point de cheminement 3]]></name>
    <desc><![CDATA[]]></desc>
  </wpt>
  <wpt lat="47.48256" lon="6.7712">
    <ele>321</ele>
    <name><![CDATA[Point de cheminement 4]]></name>
    <desc><![CDATA[]]></desc>
  </wpt>
  <wpt lat="47.49575" lon="6.75765">
    <ele>335</ele>
    <name><![CDATA[Point de cheminement 5]]></name>
    <desc><![CDATA[]]></desc>
  </wpt>
  <wpt lat="47.51717" lon="6.77549">
    <ele>390</ele>
    <name><![CDATA[Point de cheminement 6]]></name>
    <desc><![CDATA[]]></desc>
  </wpt>
  <trk>
    <name><![CDATA[02/11/2016 14:42]]></name>
    <desc><![CDATA[]]></desc>
    <trkseg>
      <trkpt lat="47.518" lon="6.77465">
        <ele>388</ele>
        <time>2016-11-02T13:42:28.195Z</time>
      </trkpt>
      <trkpt lat="47.51798" lon="6.77462">
        <ele>388</ele>
        <time>2016-11-02T13:42:29.198Z</time>
      </trkpt>
      <trkpt lat="47.51796" lon="6.7746">
        <ele>388</ele>
        <time>2016-11-02T13:42:30.200Z</time>
      </trkpt>
      <trkpt lat="47.51793" lon="6.77459">
        <ele>388</ele>
        <time>2016-11-02T13:42:31.201Z</time>
      </trkpt>
      <trkpt lat="47.518" lon="6.77449">
        <ele>388</ele>
        <time>2016-11-02T13:42:32.197Z</time>
      </trkpt>
      <trkpt lat="47.51804" lon="6.77454">
        <ele>388</ele>
        <time>2016-11-02T13:42:33.000Z</time>
      </trkpt>
      <trkpt lat="47.51802" lon="6.77458">
        <ele>388</ele>
        <time>2016-11-02T13:42:38.000Z</time>
      </trkpt>
      <trkpt lat="47.518" lon="6.77462">
        <ele>388</ele>
        <time>2016-11-02T13:42:39.000Z</time>
      </trkpt>
      <trkpt lat="47.51801" lon="6.77468">
        <ele>388</ele>
        <time>2016-11-02T13:51:23.000Z</time>
      </trkpt>
      <trkpt lat="47.51801" lon="6.77469">
        <ele>388</ele>
        <time>2016-11-02T13:51:24.000Z</time>
      </trkpt>
      <trkpt lat="47.518" lon="6.77475">
        <ele>388</ele>
        <time>2016-11-02T13:51:57.000Z</time>
      </trkpt>
      <trkpt lat="47.518" lon="6.77476">
        <ele>388</ele>
        <time>2016-11-02T13:51:58.000Z</time>
      </trkpt>
      <trkpt lat="47.51804" lon="6.77478">
        <ele>388</ele>
        <time>2016-11-02T13:52:21.000Z</time>
      </trkpt>
      <trkpt lat="47.51805" lon="6.77479">
        <ele>388</ele>
        <time>2016-11-02T13:52:22.000Z</time>
      </trkpt>
      <trkpt lat="47.51807" lon="6.77483">
        <ele>388</ele>
        <time>2016-11-02T13:52:24.000Z</time>
      </trkpt>
      <trkpt lat="47.51807" lon="6.77487">
        <ele>388</ele>
        <time>2016-11-02T13:52:25.000Z</time>
      </trkpt>
      <trkpt lat="47.51806" lon="6.7749">
        <ele>388</ele>
        <time>2016-11-02T13:52:26.000Z</time>
      </trkpt>
      <trkpt lat="47.51803" lon="6.77493">
        <ele>388</ele>
        <time>2016-11-02T13:52:27.000Z</time>
      </trkpt>
      <trkpt lat="47.518" lon="6.77494">
        <ele>388</ele>
        <time>2016-11-02T13:52:28.000Z</time>
      </trkpt>
      <trkpt lat="47.51796" lon="6.77493">
        <ele>388</ele>
        <time>2016-11-02T13:52:29.000Z</time>
      </trkpt>
      <trkpt lat="47.51792" lon="6.77492">
        <ele>388</ele>
        <time>2016-11-02T13:52:30.000Z</time>
      </trkpt>
      <trkpt lat="47.51788" lon="6.77491">
        <ele>388</ele>
        <time>2016-11-02T13:52:31.000Z</time>
      </trkpt>
      <trkpt lat="47.51784" lon="6.77489">
        <ele>388</ele>
        <time>2016-11-02T13:52:32.000Z</time>
      </trkpt>
      <trkpt lat="47.51781" lon="6.77488">
        <ele>388</ele>
        <time>2016-11-02T13:52:33.000Z</time>
      </trkpt>
      <trkpt lat="47.51777" lon="6.77487">
        <ele>388</ele>
        <time>2016-11-02T13:52:34.000Z</time>
      </trkpt>
      <trkpt lat="47.51773" lon="6.77486">
        <ele>388</ele>
        <time>2016-11-02T13:52:35.000Z</time>
      </trkpt>
      <trkpt lat="47.51769" lon="6.77485">
        <ele>389</ele>
        <time>2016-11-02T13:52:36.000Z</time>
      </trkpt>
      <trkpt lat="47.51765" lon="6.77484">
        <ele>389</ele>
        <time>2016-11-02T13:52:37.000Z</time>
      </trkpt>
      <trkpt lat="47.51761" lon="6.77483">
        <ele>389</ele>
        <time>2016-11-02T13:52:38.000Z</time>
      </trkpt>
      <trkpt lat="47.51756" lon="6.77482">
        <ele>389</ele>
        <time>2016-11-02T13:52:39.000Z</time>
      </trkpt>
      <trkpt lat="47.51752" lon="6.77481">
        <ele>389</ele>
        <time>2016-11-02T13:52:40.000Z</time>
      </trkpt>
      <trkpt lat="47.51748" lon="6.7748">
        <ele>389</ele>
        <time>2016-11-02T13:52:41.000Z</time>
      </trkpt>
      <trkpt lat="47.51744" lon="6.77479">
        <ele>389</ele>
        <time>2016-11-02T13:52:42.000Z</time>
      </trkpt>
      <trkpt lat="47.5174" lon="6.77478">
        <ele>389</ele>
        <time>2016-11-02T13:52:43.000Z</time>
      </trkpt>
      <trkpt lat="47.51736" lon="6.77477">
        <ele>389</ele>
        <time>2016-11-02T13:52:44.000Z</time>
      </trkpt>
      <trkpt lat="47.51732" lon="6.77478">
        <ele>389</ele>
        <time>2016-11-02T13:52:45.000Z</time>
      </trkpt>
      <trkpt lat="47.51729" lon="6.7748">
        <ele>389</ele>
        <time>2016-11-02T13:52:46.000Z</time>
      </trkpt>
      <trkpt lat="47.51726" lon="6.77485">
        <ele>389</ele>
        <time>2016-11-02T13:52:47.000Z</time>
      </trkpt>
      <trkpt lat="47.51727" lon="6.77499">
        <ele>389</ele>
        <time>2016-11-02T13:52:48.000Z</time>
      </trkpt>
      <trkpt lat="47.51725" lon="6.77506">
        <ele>390</ele>
        <time>2016-11-02T13:52:49.000Z</time>
      </trkpt>
      <trkpt lat="47.51722" lon="6.77512">
        <ele>390</ele>
        <time>2016-11-02T13:52:50.000Z</time>
      </trkpt>
      <trkpt lat="47.5172" lon="6.77518">
        <ele>390</ele>
        <time>2016-11-02T13:52:51.000Z</time>
      </trkpt>
      <trkpt lat="47.51718" lon="6.77524">
        <ele>390</ele>
        <time>2016-11-02T13:52:52.000Z</time>
      </trkpt>
      <trkpt lat="47.51715" lon="6.77529">
        <ele>390</ele>
        <time>2016-11-02T13:52:53.000Z</time>
      </trkpt>
      <trkpt lat="47.51715" lon="6.77535">
        <ele>390</ele>
        <time>2016-11-02T13:52:54.000Z</time>
      </trkpt>
      <trkpt lat="47.51713" lon="6.7754">
        <ele>390</ele>
        <time>2016-11-02T13:52:55.000Z</time>
      </trkpt>
      <trkpt lat="47.51712" lon="6.77546">
        <ele>390</ele>
        <time>2016-11-02T13:52:56.000Z</time>
      </trkpt>
      <trkpt lat="47.51708" lon="6.77549">
        <ele>390</ele>
        <time>2016-11-02T13:52:57.000Z</time>
      </trkpt>
      <trkpt lat="47.51704" lon="6.77549">
        <ele>390</ele>
        <time>2016-11-02T13:52:58.000Z</time>
      </trkpt>
      <trkpt lat="47.51699" lon="6.77549">
        <ele>390</ele>
        <time>2016-11-02T13:52:59.000Z</time>
      </trkpt>
      <trkpt lat="47.51695" lon="6.77544">
        <ele>390</ele>
        <time>2016-11-02T13:53:00.000Z</time>
      </trkpt>
      <trkpt lat="47.51692" lon="6.7754">
        <ele>390</ele>
        <time>2016-11-02T13:53:01.000Z</time>
      </trkpt>
      <trkpt lat="47.51688" lon="6.77535">
        <ele>390</ele>
        <time>2016-11-02T13:53:02.000Z</time>
      </trkpt>
      <trkpt lat="47.51683" lon="6.77531">
        <ele>390</ele>
        <time>2016-11-02T13:53:03.000Z</time>
      </trkpt>
      <trkpt lat="47.51679" lon="6.77526">
        <ele>390</ele>
        <time>2016-11-02T13:53:04.000Z</time>
      </trkpt>
      <trkpt lat="47.51675" lon="6.77521">
        <ele>390</ele>
        <time>2016-11-02T13:53:05.000Z</time>
      </trkpt>
      <trkpt lat="47.51671" lon="6.77516">
        <ele>389</ele>
        <time>2016-11-02T13:53:06.000Z</time>
      </trkpt>
      <trkpt lat="47.51666" lon="6.7751">
        <ele>388</ele>
        <time>2016-11-02T13:53:07.000Z</time>
      </trkpt>
      <trkpt lat="47.51662" lon="6.77505">
        <ele>389</ele>
        <time>2016-11-02T13:53:08.000Z</time>
      </trkpt>
      <trkpt lat="47.51657" lon="6.77499">
        <ele>388</ele>
        <time>2016-11-02T13:53:09.000Z</time>
      </trkpt>
      <trkpt lat="47.51653" lon="6.77493">
        <ele>388</ele>
        <time>2016-11-02T13:53:10.000Z</time>
      </trkpt>
      <trkpt lat="47.51648" lon="6.77488">
        <ele>387</ele>
        <time>2016-11-02T13:53:11.000Z</time>
      </trkpt>
      <trkpt lat="47.51643" lon="6.77482">
        <ele>387</ele>
        <time>2016-11-02T13:53:12.000Z</time>
      </trkpt>
      <trkpt lat="47.51638" lon="6.77477">
        <ele>386</ele>
        <time>2016-11-02T13:53:13.000Z</time>
      </trkpt>
      <trkpt lat="47.51633" lon="6.77472">
        <ele>386</ele>
        <time>2016-11-02T13:53:14.000Z</time>
      </trkpt>
      <trkpt lat="47.51629" lon="6.77467">
        <ele>386</ele>
        <time>2016-11-02T13:53:15.000Z</time>
      </trkpt>
      <trkpt lat="47.51625" lon="6.77462">
        <ele>386</ele>
        <time>2016-11-02T13:53:16.000Z</time>
      </trkpt>
      <trkpt lat="47.51623" lon="6.7746">
        <ele>386</ele>
        <time>2016-11-02T13:53:17.000Z</time>
      </trkpt>
      <trkpt lat="47.51621" lon="6.77459">
        <ele>386</ele>
        <time>2016-11-02T13:53:18.000Z</time>
      </trkpt>
      <trkpt lat="47.51621" lon="6.77465">
        <ele>386</ele>
        <time>2016-11-02T13:53:20.000Z</time>
      </trkpt>
      <trkpt lat="47.51623" lon="6.77468">
        <ele>386</ele>
        <time>2016-11-02T13:53:21.000Z</time>
      </trkpt>
      <trkpt lat="47.51627" lon="6.77471">
        <ele>386</ele>
        <time>2016-11-02T13:53:22.000Z</time>
      </trkpt>
      <trkpt lat="47.51631" lon="6.77475">
        <ele>386</ele>
        <time>2016-11-02T13:53:23.000Z</time>
      </trkpt>
      <trkpt lat="47.51634" lon="6.77479">
        <ele>386</ele>
        <time>2016-11-02T13:53:24.000Z</time>
      </trkpt>
      <trkpt lat="47.51638" lon="6.77483">
        <ele>386</ele>
        <time>2016-11-02T13:53:25.000Z</time>
      </trkpt>
      <trkpt lat="47.51641" lon="6.77487">
        <ele>387</ele>
        <time>2016-11-02T13:53:26.000Z</time>
      </trkpt>
      <trkpt lat="47.51645" lon="6.77492">
        <ele>387</ele>
        <time>2016-11-02T13:53:27.000Z</time>
      </trkpt>
      <trkpt lat="47.51648" lon="6.77496">
        <ele>387</ele>
        <time>2016-11-02T13:53:28.000Z</time>
      </trkpt>
      <trkpt lat="47.51652" lon="6.77501">
        <ele>388</ele>
        <time>2016-11-02T13:53:29.000Z</time>
      </trkpt>
      <trkpt lat="47.51656" lon="6.77505">
        <ele>388</ele>
        <time>2016-11-02T13:53:30.000Z</time>
      </trkpt>
      <trkpt lat="47.51659" lon="6.7751">
        <ele>388</ele>
        <time>2016-11-02T13:53:31.000Z</time>
      </trkpt>
      <trkpt lat="47.51663" lon="6.77514">
        <ele>388</ele>
        <time>2016-11-02T13:53:32.000Z</time>
      </trkpt>
      <trkpt lat="47.51666" lon="6.77519">
        <ele>388</ele>
        <time>2016-11-02T13:53:33.000Z</time>
      </trkpt>
      <trkpt lat="47.5167" lon="6.77522">
        <ele>389</ele>
        <time>2016-11-02T13:53:34.000Z</time>
      </trkpt>
      <trkpt lat="47.51674" lon="6.77524">
        <ele>390</ele>
        <time>2016-11-02T13:53:35.000Z</time>
      </trkpt>
      <trkpt lat="47.51678" lon="6.77526">
        <ele>390</ele>
        <time>2016-11-02T13:53:36.000Z</time>
      </trkpt>
      <trkpt lat="47.51682" lon="6.77528">
        <ele>390</ele>
        <time>2016-11-02T13:53:37.000Z</time>
      </trkpt>
      <trkpt lat="47.51686" lon="6.7753">
        <ele>390</ele>
        <time>2016-11-02T13:53:38.000Z</time>
      </trkpt>
      <trkpt lat="47.5169" lon="6.77535">
        <ele>390</ele>
        <time>2016-11-02T13:53:39.000Z</time>
      </trkpt>
      <trkpt lat="47.51694" lon="6.7754">
        <ele>390</ele>
        <time>2016-11-02T13:53:40.000Z</time>
      </trkpt>
      <trkpt lat="47.51697" lon="6.77545">
        <ele>390</ele>
        <time>2016-11-02T13:53:41.000Z</time>
      </trkpt>
      <trkpt lat="47.517" lon="6.77551">
        <ele>390</ele>
        <time>2016-11-02T13:53:42.000Z</time>
      </trkpt>
      <trkpt lat="47.51703" lon="6.77555">
        <ele>390</ele>
        <time>2016-11-02T13:53:43.000Z</time>
      </trkpt>
      <trkpt lat="47.51707" lon="6.77553">
        <ele>390</ele>
        <time>2016-11-02T13:53:44.000Z</time>
      </trkpt>
      <trkpt lat="47.51711" lon="6.77553">
        <ele>390</ele>
        <time>2016-11-02T13:53:45.000Z</time>
      </trkpt>
      <trkpt lat="47.51713" lon="6.77546">
        <ele>390</ele>
        <time>2016-11-02T13:53:46.000Z</time>
      </trkpt>
      <trkpt lat="47.51715" lon="6.7754">
        <ele>390</ele>
        <time>2016-11-02T13:53:47.000Z</time>
      </trkpt>
      <trkpt lat="47.51717" lon="6.77535">
        <ele>390</ele>
        <time>2016-11-02T13:53:48.000Z</time>
      </trkpt>
      <trkpt lat="47.51719" lon="6.77529">
        <ele>390</ele>
        <time>2016-11-02T13:53:49.000Z</time>
      </trkpt>
      <trkpt lat="47.51722" lon="6.77522">
        <ele>390</ele>
        <time>2016-11-02T13:53:50.000Z</time>
      </trkpt>
      <trkpt lat="47.51724" lon="6.77515">
        <ele>390</ele>
        <time>2016-11-02T13:53:51.000Z</time>
      </trkpt>
      <trkpt lat="47.51726" lon="6.77508">
        <ele>390</ele>
        <time>2016-11-02T13:53:52.000Z</time>
      </trkpt>
      <trkpt lat="47.51727" lon="6.77501">
        <ele>390</ele>
        <time>2016-11-02T13:53:53.000Z</time>
      </trkpt>
      <trkpt lat="47.51729" lon="6.77494">
        <ele>389</ele>
        <time>2016-11-02T13:53:54.000Z</time>
      </trkpt>
      <trkpt lat="47.5173" lon="6.77486">
        <ele>389</ele>
        <time>2016-11-02T13:53:55.000Z</time>
      </trkpt>
      <trkpt lat="47.51734" lon="6.77483">
        <ele>389</ele>
        <time>2016-11-02T13:53:56.000Z</time>
      </trkpt>
      <trkpt lat="47.51738" lon="6.77482">
        <ele>389</ele>
        <time>2016-11-02T13:53:57.000Z</time>
      </trkpt>
      <trkpt lat="47.51743" lon="6.77483">
        <ele>389</ele>
        <time>2016-11-02T13:53:58.000Z</time>
      </trkpt>
      <trkpt lat="47.51747" lon="6.77484">
        <ele>389</ele>
        <time>2016-11-02T13:53:59.000Z</time>
      </trkpt>
      <trkpt lat="47.51751" lon="6.77485">
        <ele>389</ele>
        <time>2016-11-02T13:54:00.000Z</time>
      </trkpt>
      <trkpt lat="47.51756" lon="6.77485">
        <ele>389</ele>
        <time>2016-11-02T13:54:01.000Z</time>
      </trkpt>
      <trkpt lat="47.51759" lon="6.77484">
        <ele>389</ele>
        <time>2016-11-02T13:54:02.000Z</time>
      </trkpt>
      <trkpt lat="47.51765" lon="6.77485">
        <ele>389</ele>
        <time>2016-11-02T13:54:03.000Z</time>
      </trkpt>
      <trkpt lat="47.51769" lon="6.77486">
        <ele>389</ele>
        <time>2016-11-02T13:54:04.000Z</time>
      </trkpt>
      <trkpt lat="47.51775" lon="6.77487">
        <ele>388</ele>
        <time>2016-11-02T13:54:05.000Z</time>
      </trkpt>
      <trkpt lat="47.5178" lon="6.77489">
        <ele>388</ele>
        <time>2016-11-02T13:54:06.000Z</time>
      </trkpt>
      <trkpt lat="47.51786" lon="6.7749">
        <ele>388</ele>
        <time>2016-11-02T13:54:07.000Z</time>
      </trkpt>
      <trkpt lat="47.51791" lon="6.77492">
        <ele>388</ele>
        <time>2016-11-02T13:54:08.000Z</time>
      </trkpt>
      <trkpt lat="47.51796" lon="6.77493">
        <ele>388</ele>
        <time>2016-11-02T13:54:09.000Z</time>
      </trkpt>
      <trkpt lat="47.51801" lon="6.77494">
        <ele>388</ele>
        <time>2016-11-02T13:54:10.000Z</time>
      </trkpt>
      <trkpt lat="47.51805" lon="6.77494">
        <ele>388</ele>
        <time>2016-11-02T13:54:11.000Z</time>
      </trkpt>
      <trkpt lat="47.51808" lon="6.77493">
        <ele>388</ele>
        <time>2016-11-02T13:54:12.000Z</time>
      </trkpt>
      <trkpt lat="47.51807" lon="6.77489">
        <ele>388</ele>
        <time>2016-11-02T13:54:13.000Z</time>
      </trkpt>
      <trkpt lat="47.51807" lon="6.77485">
        <ele>388</ele>
        <time>2016-11-02T13:54:14.000Z</time>
      </trkpt>
      <trkpt lat="47.51804" lon="6.77482">
        <ele>388</ele>
        <time>2016-11-02T13:54:16.000Z</time>
      </trkpt>
      <trkpt lat="47.51802" lon="6.77481">
        <ele>388</ele>
        <time>2016-11-02T13:54:17.000Z</time>
      </trkpt>
      <trkpt lat="47.51804" lon="6.77486">
        <ele>388</ele>
        <time>2016-11-02T13:57:17.000Z</time>
      </trkpt>
      <trkpt lat="47.51806" lon="6.77488">
        <ele>388</ele>
        <time>2016-11-02T13:57:18.000Z</time>
      </trkpt>
      <trkpt lat="47.51807" lon="6.77494">
        <ele>388</ele>
        <time>2016-11-02T13:57:20.000Z</time>
      </trkpt>
      <trkpt lat="47.51805" lon="6.77496">
        <ele>388</ele>
        <time>2016-11-02T13:57:21.000Z</time>
      </trkpt>
      <trkpt lat="47.51802" lon="6.77497">
        <ele>388</ele>
        <time>2016-11-02T13:57:22.000Z</time>
      </trkpt>
      <trkpt lat="47.51798" lon="6.77497">
        <ele>388</ele>
        <time>2016-11-02T13:57:23.000Z</time>
      </trkpt>
      <trkpt lat="47.51794" lon="6.77496">
        <ele>388</ele>
        <time>2016-11-02T13:57:24.000Z</time>
      </trkpt>
      <trkpt lat="47.5179" lon="6.77495">
        <ele>388</ele>
        <time>2016-11-02T13:57:25.000Z</time>
      </trkpt>
      <trkpt lat="47.51787" lon="6.77493">
        <ele>388</ele>
        <time>2016-11-02T13:57:26.000Z</time>
      </trkpt>
      <trkpt lat="47.51783" lon="6.77491">
        <ele>388</ele>
        <time>2016-11-02T13:57:27.000Z</time>
      </trkpt>
      <trkpt lat="47.5178" lon="6.77489">
        <ele>388</ele>
        <time>2016-11-02T13:57:28.000Z</time>
      </trkpt>
      <trkpt lat="47.51776" lon="6.77486">
        <ele>388</ele>
        <time>2016-11-02T13:57:29.000Z</time>
      </trkpt>
      <trkpt lat="47.51772" lon="6.77484">
        <ele>388</ele>
        <time>2016-11-02T13:57:30.000Z</time>
      </trkpt>
      <trkpt lat="47.51768" lon="6.77482">
        <ele>389</ele>
        <time>2016-11-02T13:57:31.000Z</time>
      </trkpt>
      <trkpt lat="47.51764" lon="6.77481">
        <ele>389</ele>
        <time>2016-11-02T13:57:32.000Z</time>
      </trkpt>
      <trkpt lat="47.51759" lon="6.7748">
        <ele>389</ele>
        <time>2016-11-02T13:57:33.000Z</time>
      </trkpt>
      <trkpt lat="47.51755" lon="6.77479">
        <ele>389</ele>
        <time>2016-11-02T13:57:34.000Z</time>
      </trkpt>
      <trkpt lat="47.51749" lon="6.77478">
        <ele>389</ele>
        <time>2016-11-02T13:57:35.000Z</time>
      </trkpt>
      <trkpt lat="47.51744" lon="6.77477">
        <ele>389</ele>
        <time>2016-11-02T13:57:36.000Z</time>
      </trkpt>
      <trkpt lat="47.5174" lon="6.77478">
        <ele>389</ele>
        <time>2016-11-02T13:57:37.000Z</time>
      </trkpt>
      <trkpt lat="47.51735" lon="6.77478">
        <ele>389</ele>
        <time>2016-11-02T13:57:38.000Z</time>
      </trkpt>
      <trkpt lat="47.51732" lon="6.77481">
        <ele>389</ele>
        <time>2016-11-02T13:57:39.000Z</time>
      </trkpt>
      <trkpt lat="47.51731" lon="6.77492">
        <ele>389</ele>
        <time>2016-11-02T13:57:40.000Z</time>
      </trkpt>
      <trkpt lat="47.51729" lon="6.77499">
        <ele>389</ele>
        <time>2016-11-02T13:57:41.000Z</time>
      </trkpt>
      <trkpt lat="47.51726" lon="6.77507">
        <ele>390</ele>
        <time>2016-11-02T13:57:42.000Z</time>
      </trkpt>
      <trkpt lat="47.51723" lon="6.77515">
        <ele>390</ele>
        <time>2016-11-02T13:57:43.000Z</time>
      </trkpt>
      <trkpt lat="47.51721" lon="6.77521">
        <ele>390</ele>
        <time>2016-11-02T13:57:44.000Z</time>
      </trkpt>
      <trkpt lat="47.51718" lon="6.77529">
        <ele>390</ele>
        <time>2016-11-02T13:57:45.000Z</time>
      </trkpt>
      <trkpt lat="47.51716" lon="6.77536">
        <ele>390</ele>
        <time>2016-11-02T13:57:46.000Z</time>
      </trkpt>
      <trkpt lat="47.51714" lon="6.77544">
        <ele>390</ele>
        <time>2016-11-02T13:57:47.000Z</time>
      </trkpt>
      <trkpt lat="47.51712" lon="6.77549">
        <ele>390</ele>
        <time>2016-11-02T13:57:48.000Z</time>
      </trkpt>
      <trkpt lat="47.51707" lon="6.77551">
        <ele>390</ele>
        <time>2016-11-02T13:57:49.000Z</time>
      </trkpt>
      <trkpt lat="47.51702" lon="6.77547">
        <ele>390</ele>
        <time>2016-11-02T13:57:50.000Z</time>
      </trkpt>
      <trkpt lat="47.51697" lon="6.77543">
        <ele>390</ele>
        <time>2016-11-02T13:57:51.000Z</time>
      </trkpt>
      <trkpt lat="47.51693" lon="6.77539">
        <ele>390</ele>
        <time>2016-11-02T13:57:52.000Z</time>
      </trkpt>
      <trkpt lat="47.51688" lon="6.77535">
        <ele>390</ele>
        <time>2016-11-02T13:57:53.000Z</time>
      </trkpt>
      <trkpt lat="47.51684" lon="6.7753">
        <ele>390</ele>
        <time>2016-11-02T13:57:54.000Z</time>
      </trkpt>
      <trkpt lat="47.51678" lon="6.77525">
        <ele>390</ele>
        <time>2016-11-02T13:57:55.000Z</time>
      </trkpt>
      <trkpt lat="47.51673" lon="6.77519">
        <ele>389</ele>
        <time>2016-11-02T13:57:56.000Z</time>
      </trkpt>
      <trkpt lat="47.51668" lon="6.77513">
        <ele>389</ele>
        <time>2016-11-02T13:57:57.000Z</time>
      </trkpt>
      <trkpt lat="47.51663" lon="6.77507">
        <ele>388</ele>
        <time>2016-11-02T13:57:58.000Z</time>
      </trkpt>
      <trkpt lat="47.51658" lon="6.77501">
        <ele>388</ele>
        <time>2016-11-02T13:57:59.000Z</time>
      </trkpt>
      <trkpt lat="47.51653" lon="6.77495">
        <ele>388</ele>
        <time>2016-11-02T13:58:00.000Z</time>
      </trkpt>
      <trkpt lat="47.51648" lon="6.7749">
        <ele>387</ele>
        <time>2016-11-02T13:58:01.000Z</time>
      </trkpt>
      <trkpt lat="47.51643" lon="6.77484">
        <ele>387</ele>
        <time>2016-11-02T13:58:02.000Z</time>
      </trkpt>
      <trkpt lat="47.51637" lon="6.77476">
        <ele>386</ele>
        <time>2016-11-02T13:58:03.000Z</time>
      </trkpt>
      <trkpt lat="47.51632" lon="6.7747">
        <ele>386</ele>
        <time>2016-11-02T13:58:04.000Z</time>
      </trkpt>
      <trkpt lat="47.51627" lon="6.77465">
        <ele>386</ele>
        <time>2016-11-02T13:58:05.000Z</time>
      </trkpt>
      <trkpt lat="47.51621" lon="6.77458">
        <ele>386</ele>
        <time>2016-11-02T13:58:06.000Z</time>
      </trkpt>
      <trkpt lat="47.51615" lon="6.77451">
        <ele>385</ele>
        <time>2016-11-02T13:58:07.000Z</time>
      </trkpt>
      <trkpt lat="47.5161" lon="6.77444">
        <ele>385</ele>
        <time>2016-11-02T13:58:08.000Z</time>
      </trkpt>
      <trkpt lat="47.51604" lon="6.77438">
        <ele>385</ele>
        <time>2016-11-02T13:58:09.000Z</time>
      </trkpt>
      <trkpt lat="47.51598" lon="6.7743">
        <ele>384</ele>
        <time>2016-11-02T13:58:10.000Z</time>
      </trkpt>
      <trkpt lat="47.51592" lon="6.77423">
        <ele>384</ele>
        <time>2016-11-02T13:58:11.000Z</time>
      </trkpt>
      <trkpt lat="47.51586" lon="6.77416">
        <ele>383</ele>
        <time>2016-11-02T13:58:12.000Z</time>
      </trkpt>
      <trkpt lat="47.5158" lon="6.77409">
        <ele>382</ele>
        <time>2016-11-02T13:58:13.000Z</time>
      </trkpt>
      <trkpt lat="47.51573" lon="6.77401">
        <ele>382</ele>
        <time>2016-11-02T13:58:14.000Z</time>
      </trkpt>
      <trkpt lat="47.51566" lon="6.77393">
        <ele>381</ele>
        <time>2016-11-02T13:58:15.000Z</time>
      </trkpt>
      <trkpt lat="47.5156" lon="6.77385">
        <ele>381</ele>
        <time>2016-11-02T13:58:16.000Z</time>
      </trkpt>
      <trkpt lat="47.51553" lon="6.77377">
        <ele>381</ele>
        <time>2016-11-02T13:58:17.000Z</time>
      </trkpt>
      <trkpt lat="47.51546" lon="6.7737">
        <ele>381</ele>
        <time>2016-11-02T13:58:18.000Z</time>
      </trkpt>
      <trkpt lat="47.51539" lon="6.77361">
        <ele>380</ele>
        <time>2016-11-02T13:58:19.000Z</time>
      </trkpt>
      <trkpt lat="47.51532" lon="6.77353">
        <ele>380</ele>
        <time>2016-11-02T13:58:20.000Z</time>
      </trkpt>
      <trkpt lat="47.51525" lon="6.77345">
        <ele>380</ele>
        <time>2016-11-02T13:58:21.000Z</time>
      </trkpt>
      <trkpt lat="47.51519" lon="6.77337">
        <ele>379</ele>
        <time>2016-11-02T13:58:22.000Z</time>
      </trkpt>
      <trkpt lat="47.51512" lon="6.77328">
        <ele>378</ele>
        <time>2016-11-02T13:58:23.000Z</time>
      </trkpt>
      <trkpt lat="47.51506" lon="6.77321">
        <ele>378</ele>
        <time>2016-11-02T13:58:24.000Z</time>
      </trkpt>
      <trkpt lat="47.51501" lon="6.77314">
        <ele>378</ele>
        <time>2016-11-02T13:58:25.000Z</time>
      </trkpt>
      <trkpt lat="47.51498" lon="6.77308">
        <ele>377</ele>
        <time>2016-11-02T13:58:26.000Z</time>
      </trkpt>
      <trkpt lat="47.51496" lon="6.77303">
        <ele>377</ele>
        <time>2016-11-02T13:58:27.000Z</time>
      </trkpt>
      <trkpt lat="47.51494" lon="6.77297">
        <ele>377</ele>
        <time>2016-11-02T13:58:28.000Z</time>
      </trkpt>
      <trkpt lat="47.51492" lon="6.77291">
        <ele>377</ele>
        <time>2016-11-02T13:58:29.000Z</time>
      </trkpt>
      <trkpt lat="47.51491" lon="6.77285">
        <ele>377</ele>
        <time>2016-11-02T13:58:30.000Z</time>
      </trkpt>
      <trkpt lat="47.5149" lon="6.77278">
        <ele>377</ele>
        <time>2016-11-02T13:58:31.000Z</time>
      </trkpt>
      <trkpt lat="47.51489" lon="6.7727">
        <ele>376</ele>
        <time>2016-11-02T13:58:32.000Z</time>
      </trkpt>
      <trkpt lat="47.51488" lon="6.77262">
        <ele>376</ele>
        <time>2016-11-02T13:58:33.000Z</time>
      </trkpt>
      <trkpt lat="47.51488" lon="6.77253">
        <ele>376</ele>
        <time>2016-11-02T13:58:34.000Z</time>
      </trkpt>
      <trkpt lat="47.51487" lon="6.77244">
        <ele>376</ele>
        <time>2016-11-02T13:58:35.000Z</time>
      </trkpt>
      <trkpt lat="47.51486" lon="6.77235">
        <ele>375</ele>
        <time>2016-11-02T13:58:36.000Z</time>
      </trkpt>
      <trkpt lat="47.51485" lon="6.77226">
        <ele>375</ele>
        <time>2016-11-02T13:58:37.000Z</time>
      </trkpt>
      <trkpt lat="47.51484" lon="6.77218">
        <ele>375</ele>
        <time>2016-11-02T13:58:38.000Z</time>
      </trkpt>
      <trkpt lat="47.51481" lon="6.77209">
        <ele>375</ele>
        <time>2016-11-02T13:58:39.000Z</time>
      </trkpt>
      <trkpt lat="47.51478" lon="6.77202">
        <ele>375</ele>
        <time>2016-11-02T13:58:40.000Z</time>
      </trkpt>
      <trkpt lat="47.51471" lon="6.772">
        <ele>375</ele>
        <time>2016-11-02T13:58:41.000Z</time>
      </trkpt>
      <trkpt lat="47.51464" lon="6.77202">
        <ele>375</ele>
        <time>2016-11-02T13:58:42.000Z</time>
      </trkpt>
      <trkpt lat="47.51457" lon="6.77206">
        <ele>375</ele>
        <time>2016-11-02T13:58:43.000Z</time>
      </trkpt>
      <trkpt lat="47.51449" lon="6.77209">
        <ele>375</ele>
        <time>2016-11-02T13:58:44.000Z</time>
      </trkpt>
      <trkpt lat="47.51441" lon="6.77213">
        <ele>375</ele>
        <time>2016-11-02T13:58:45.000Z</time>
      </trkpt>
      <trkpt lat="47.51434" lon="6.77216">
        <ele>375</ele>
        <time>2016-11-02T13:58:46.000Z</time>
      </trkpt>
      <trkpt lat="47.51426" lon="6.77221">
        <ele>375</ele>
        <time>2016-11-02T13:58:47.000Z</time>
      </trkpt>
      <trkpt lat="47.5142" lon="6.77224">
        <ele>375</ele>
        <time>2016-11-02T13:58:48.000Z</time>
      </trkpt>
      <trkpt lat="47.51413" lon="6.77227">
        <ele>376</ele>
        <time>2016-11-02T13:58:49.000Z</time>
      </trkpt>
      <trkpt lat="47.51407" lon="6.77231">
        <ele>376</ele>
        <time>2016-11-02T13:58:50.000Z</time>
      </trkpt>
      <trkpt lat="47.51401" lon="6.77234">
        <ele>376</ele>
        <time>2016-11-02T13:58:51.000Z</time>
      </trkpt>
      <trkpt lat="47.51395" lon="6.77238">
        <ele>376</ele>
        <time>2016-11-02T13:58:52.000Z</time>
      </trkpt>
      <trkpt lat="47.5139" lon="6.77241">
        <ele>376</ele>
        <time>2016-11-02T13:58:53.000Z</time>
      </trkpt>
      <trkpt lat="47.51385" lon="6.77244">
        <ele>376</ele>
        <time>2016-11-02T13:58:54.000Z</time>
      </trkpt>
      <trkpt lat="47.5138" lon="6.77247">
        <ele>376</ele>
        <time>2016-11-02T13:58:55.000Z</time>
      </trkpt>
      <trkpt lat="47.51376" lon="6.7725">
        <ele>377</ele>
        <time>2016-11-02T13:58:56.000Z</time>
      </trkpt>
      <trkpt lat="47.51372" lon="6.77253">
        <ele>377</ele>
        <time>2016-11-02T13:58:57.000Z</time>
      </trkpt>
      <trkpt lat="47.51368" lon="6.77256">
        <ele>378</ele>
        <time>2016-11-02T13:58:58.000Z</time>
      </trkpt>
      <trkpt lat="47.51364" lon="6.77259">
        <ele>378</ele>
        <time>2016-11-02T13:58:59.000Z</time>
      </trkpt>
      <trkpt lat="47.5136" lon="6.77261">
        <ele>378</ele>
        <time>2016-11-02T13:59:00.000Z</time>
      </trkpt>
      <trkpt lat="47.51357" lon="6.77264">
        <ele>378</ele>
        <time>2016-11-02T13:59:01.000Z</time>
      </trkpt>
      <trkpt lat="47.51354" lon="6.77267">
        <ele>378</ele>
        <time>2016-11-02T13:59:02.000Z</time>
      </trkpt>
      <trkpt lat="47.51351" lon="6.7727">
        <ele>378</ele>
        <time>2016-11-02T13:59:03.000Z</time>
      </trkpt>
      <trkpt lat="47.51347" lon="6.77272">
        <ele>378</ele>
        <time>2016-11-02T13:59:04.000Z</time>
      </trkpt>
      <trkpt lat="47.51345" lon="6.77275">
        <ele>378</ele>
        <time>2016-11-02T13:59:05.000Z</time>
      </trkpt>
      <trkpt lat="47.51342" lon="6.77277">
        <ele>378</ele>
        <time>2016-11-02T13:59:06.000Z</time>
      </trkpt>
      <trkpt lat="47.51339" lon="6.77278">
        <ele>378</ele>
        <time>2016-11-02T13:59:07.000Z</time>
      </trkpt>
      <trkpt lat="47.51336" lon="6.77281">
        <ele>378</ele>
        <time>2016-11-02T13:59:08.000Z</time>
      </trkpt>
      <trkpt lat="47.51333" lon="6.77282">
        <ele>378</ele>
        <time>2016-11-02T13:59:09.000Z</time>
      </trkpt>
      <trkpt lat="47.5133" lon="6.77284">
        <ele>378</ele>
        <time>2016-11-02T13:59:10.000Z</time>
      </trkpt>
      <trkpt lat="47.51327" lon="6.77285">
        <ele>378</ele>
        <time>2016-11-02T13:59:11.000Z</time>
      </trkpt>
      <trkpt lat="47.51323" lon="6.77285">
        <ele>377</ele>
        <time>2016-11-02T13:59:12.000Z</time>
      </trkpt>
      <trkpt lat="47.5132" lon="6.77284">
        <ele>377</ele>
        <time>2016-11-02T13:59:13.000Z</time>
      </trkpt>
      <trkpt lat="47.51316" lon="6.77283">
        <ele>377</ele>
        <time>2016-11-02T13:59:14.000Z</time>
      </trkpt>
      <trkpt lat="47.51312" lon="6.77281">
        <ele>377</ele>
        <time>2016-11-02T13:59:15.000Z</time>
      </trkpt>
      <trkpt lat="47.51308" lon="6.77279">
        <ele>377</ele>
        <time>2016-11-02T13:59:16.000Z</time>
      </trkpt>
      <trkpt lat="47.51304" lon="6.77278">
        <ele>377</ele>
        <time>2016-11-02T13:59:17.000Z</time>
      </trkpt>
      <trkpt lat="47.513" lon="6.77276">
        <ele>377</ele>
        <time>2016-11-02T13:59:18.000Z</time>
      </trkpt>
      <trkpt lat="47.51294" lon="6.77273">
        <ele>377</ele>
        <time>2016-11-02T13:59:19.000Z</time>
      </trkpt>
      <trkpt lat="47.5129" lon="6.7727">
        <ele>377</ele>
        <time>2016-11-02T13:59:20.000Z</time>
      </trkpt>
      <trkpt lat="47.51286" lon="6.77268">
        <ele>377</ele>
        <time>2016-11-02T13:59:21.000Z</time>
      </trkpt>
      <trkpt lat="47.51282" lon="6.77266">
        <ele>377</ele>
        <time>2016-11-02T13:59:22.000Z</time>
      </trkpt>
      <trkpt lat="47.51278" lon="6.77263">
        <ele>377</ele>
        <time>2016-11-02T13:59:23.000Z</time>
      </trkpt>
      <trkpt lat="47.51274" lon="6.77261">
        <ele>377</ele>
        <time>2016-11-02T13:59:24.000Z</time>
      </trkpt>
      <trkpt lat="47.51269" lon="6.7726">
        <ele>377</ele>
        <time>2016-11-02T13:59:25.000Z</time>
      </trkpt>
      <trkpt lat="47.51265" lon="6.77256">
        <ele>378</ele>
        <time>2016-11-02T13:59:26.000Z</time>
      </trkpt>
      <trkpt lat="47.51262" lon="6.77252">
        <ele>378</ele>
        <time>2016-11-02T13:59:27.000Z</time>
      </trkpt>
      <trkpt lat="47.51258" lon="6.77247">
        <ele>379</ele>
        <time>2016-11-02T13:59:28.000Z</time>
      </trkpt>
      <trkpt lat="47.51255" lon="6.77243">
        <ele>379</ele>
        <time>2016-11-02T13:59:29.000Z</time>
      </trkpt>
      <trkpt lat="47.51251" lon="6.77237">
        <ele>378</ele>
        <time>2016-11-02T13:59:30.000Z</time>
      </trkpt>
      <trkpt lat="47.51247" lon="6.7723">
        <ele>377</ele>
        <time>2016-11-02T13:59:31.000Z</time>
      </trkpt>
      <trkpt lat="47.51244" lon="6.77223">
        <ele>376</ele>
        <time>2016-11-02T13:59:32.000Z</time>
      </trkpt>
      <trkpt lat="47.5124" lon="6.77216">
        <ele>376</ele>
        <time>2016-11-02T13:59:33.000Z</time>
      </trkpt>
      <trkpt lat="47.51237" lon="6.7721">
        <ele>376</ele>
        <time>2016-11-02T13:59:34.000Z</time>
      </trkpt>
      <trkpt lat="47.51233" lon="6.77202">
        <ele>376</ele>
        <time>2016-11-02T13:59:35.000Z</time>
      </trkpt>
      <trkpt lat="47.5123" lon="6.77195">
        <ele>376</ele>
        <time>2016-11-02T13:59:36.000Z</time>
      </trkpt>
      <trkpt lat="47.51226" lon="6.77187">
        <ele>376</ele>
        <time>2016-11-02T13:59:37.000Z</time>
      </trkpt>
      <trkpt lat="47.51222" lon="6.7718">
        <ele>376</ele>
        <time>2016-11-02T13:59:38.000Z</time>
      </trkpt>
      <trkpt lat="47.51219" lon="6.77173">
        <ele>376</ele>
        <time>2016-11-02T13:59:39.000Z</time>
      </trkpt>
      <trkpt lat="47.51215" lon="6.77165">
        <ele>378</ele>
        <time>2016-11-02T13:59:40.000Z</time>
      </trkpt>
      <trkpt lat="47.51211" lon="6.77158">
        <ele>378</ele>
        <time>2016-11-02T13:59:41.000Z</time>
      </trkpt>
      <trkpt lat="47.51207" lon="6.77151">
        <ele>378</ele>
        <time>2016-11-02T13:59:42.000Z</time>
      </trkpt>
      <trkpt lat="47.51202" lon="6.77142">
        <ele>378</ele>
        <time>2016-11-02T13:59:43.000Z</time>
      </trkpt>
      <trkpt lat="47.51198" lon="6.77133">
        <ele>378</ele>
        <time>2016-11-02T13:59:44.000Z</time>
      </trkpt>
      <trkpt lat="47.51194" lon="6.77125">
        <ele>378</ele>
        <time>2016-11-02T13:59:45.000Z</time>
      </trkpt>
      <trkpt lat="47.51189" lon="6.77116">
        <ele>378</ele>
        <time>2016-11-02T13:59:46.000Z</time>
      </trkpt>
      <trkpt lat="47.51185" lon="6.77107">
        <ele>378</ele>
        <time>2016-11-02T13:59:47.000Z</time>
      </trkpt>
      <trkpt lat="47.5118" lon="6.77099">
        <ele>378</ele>
        <time>2016-11-02T13:59:48.000Z</time>
      </trkpt>
      <trkpt lat="47.51176" lon="6.77091">
        <ele>378</ele>
        <time>2016-11-02T13:59:49.000Z</time>
      </trkpt>
      <trkpt lat="47.51171" lon="6.77081">
        <ele>377</ele>
        <time>2016-11-02T13:59:50.000Z</time>
      </trkpt>
      <trkpt lat="47.51165" lon="6.77073">
        <ele>377</ele>
        <time>2016-11-02T13:59:51.000Z</time>
      </trkpt>
      <trkpt lat="47.5116" lon="6.77066">
        <ele>376</ele>
        <time>2016-11-02T13:59:52.000Z</time>
      </trkpt>
      <trkpt lat="47.51154" lon="6.77059">
        <ele>376</ele>
        <time>2016-11-02T13:59:53.000Z</time>
      </trkpt>
      <trkpt lat="47.51147" lon="6.77053">
        <ele>376</ele>
        <time>2016-11-02T13:59:54.000Z</time>
      </trkpt>
      <trkpt lat="47.51141" lon="6.77048">
        <ele>376</ele>
        <time>2016-11-02T13:59:55.000Z</time>
      </trkpt>
      <trkpt lat="47.51134" lon="6.77042">
        <ele>375</ele>
        <time>2016-11-02T13:59:56.000Z</time>
      </trkpt>
      <trkpt lat="47.51127" lon="6.77036">
        <ele>375</ele>
        <time>2016-11-02T13:59:57.000Z</time>
      </trkpt>
      <trkpt lat="47.51121" lon="6.7703">
        <ele>375</ele>
        <time>2016-11-02T13:59:58.000Z</time>
      </trkpt>
      <trkpt lat="47.51114" lon="6.77024">
        <ele>375</ele>
        <time>2016-11-02T13:59:59.000Z</time>
      </trkpt>
      <trkpt lat="47.51108" lon="6.77018">
        <ele>375</ele>
        <time>2016-11-02T14:00:00.000Z</time>
      </trkpt>
      <trkpt lat="47.51102" lon="6.77013">
        <ele>375</ele>
        <time>2016-11-02T14:00:01.000Z</time>
      </trkpt>
      <trkpt lat="47.51095" lon="6.77007">
        <ele>375</ele>
        <time>2016-11-02T14:00:02.000Z</time>
      </trkpt>
      <trkpt lat="47.5109" lon="6.77001">
        <ele>375</ele>
        <time>2016-11-02T14:00:03.000Z</time>
      </trkpt>
      <trkpt lat="47.51083" lon="6.76997">
        <ele>375</ele>
        <time>2016-11-02T14:00:04.000Z</time>
      </trkpt>
      <trkpt lat="47.51077" lon="6.76992">
        <ele>375</ele>
        <time>2016-11-02T14:00:05.000Z</time>
      </trkpt>
      <trkpt lat="47.51071" lon="6.76986">
        <ele>375</ele>
        <time>2016-11-02T14:00:06.000Z</time>
      </trkpt>
      <trkpt lat="47.51064" lon="6.76981">
        <ele>375</ele>
        <time>2016-11-02T14:00:07.000Z</time>
      </trkpt>
      <trkpt lat="47.51058" lon="6.76977">
        <ele>375</ele>
        <time>2016-11-02T14:00:08.000Z</time>
      </trkpt>
      <trkpt lat="47.51052" lon="6.76972">
        <ele>375</ele>
        <time>2016-11-02T14:00:09.000Z</time>
      </trkpt>
      <trkpt lat="47.51047" lon="6.76967">
        <ele>375</ele>
        <time>2016-11-02T14:00:10.000Z</time>
      </trkpt>
      <trkpt lat="47.51041" lon="6.76961">
        <ele>375</ele>
        <time>2016-11-02T14:00:11.000Z</time>
      </trkpt>
      <trkpt lat="47.51036" lon="6.76955">
        <ele>375</ele>
        <time>2016-11-02T14:00:12.000Z</time>
      </trkpt>
      <trkpt lat="47.5103" lon="6.7695">
        <ele>375</ele>
        <time>2016-11-02T14:00:13.000Z</time>
      </trkpt>
      <trkpt lat="47.51025" lon="6.76945">
        <ele>375</ele>
        <time>2016-11-02T14:00:14.000Z</time>
      </trkpt>
      <trkpt lat="47.5102" lon="6.7694">
        <ele>375</ele>
        <time>2016-11-02T14:00:15.000Z</time>
      </trkpt>
      <trkpt lat="47.51015" lon="6.76934">
        <ele>375</ele>
        <time>2016-11-02T14:00:16.000Z</time>
      </trkpt>
      <trkpt lat="47.51009" lon="6.76929">
        <ele>375</ele>
        <time>2016-11-02T14:00:17.000Z</time>
      </trkpt>
      <trkpt lat="47.51003" lon="6.76926">
        <ele>376</ele>
        <time>2016-11-02T14:00:18.000Z</time>
      </trkpt>
      <trkpt lat="47.50998" lon="6.7692">
        <ele>376</ele>
        <time>2016-11-02T14:00:19.000Z</time>
      </trkpt>
      <trkpt lat="47.50993" lon="6.76913">
        <ele>376</ele>
        <time>2016-11-02T14:00:20.000Z</time>
      </trkpt>
      <trkpt lat="47.50989" lon="6.76906">
        <ele>377</ele>
        <time>2016-11-02T14:00:21.000Z</time>
      </trkpt>
      <trkpt lat="47.50983" lon="6.76901">
        <ele>377</ele>
        <time>2016-11-02T14:00:22.000Z</time>
      </trkpt>
      <trkpt lat="47.50978" lon="6.76899">
        <ele>377</ele>
        <time>2016-11-02T14:00:23.000Z</time>
      </trkpt>
      <trkpt lat="47.50972" lon="6.76898">
        <ele>377</ele>
        <time>2016-11-02T14:00:24.000Z</time>
      </trkpt>
      <trkpt lat="47.50967" lon="6.76897">
        <ele>377</ele>
        <time>2016-11-02T14:00:25.000Z</time>
      </trkpt>
      <trkpt lat="47.50962" lon="6.76895">
        <ele>377</ele>
        <time>2016-11-02T14:00:26.000Z</time>
      </trkpt>
      <trkpt lat="47.50957" lon="6.76892">
        <ele>377</ele>
        <time>2016-11-02T14:00:27.000Z</time>
      </trkpt>
      <trkpt lat="47.50953" lon="6.76889">
        <ele>378</ele>
        <time>2016-11-02T14:00:28.000Z</time>
      </trkpt>
      <trkpt lat="47.50948" lon="6.76885">
        <ele>378</ele>
        <time>2016-11-02T14:00:29.000Z</time>
      </trkpt>
      <trkpt lat="47.50944" lon="6.76881">
        <ele>378</ele>
        <time>2016-11-02T14:00:30.000Z</time>
      </trkpt>
      <trkpt lat="47.5094" lon="6.76877">
        <ele>378</ele>
        <time>2016-11-02T14:00:31.000Z</time>
      </trkpt>
      <trkpt lat="47.50936" lon="6.76872">
        <ele>378</ele>
        <time>2016-11-02T14:00:32.000Z</time>
      </trkpt>
      <trkpt lat="47.50932" lon="6.76867">
        <ele>378</ele>
        <time>2016-11-02T14:00:33.000Z</time>
      </trkpt>
      <trkpt lat="47.5093" lon="6.76861">
        <ele>378</ele>
        <time>2016-11-02T14:00:34.000Z</time>
      </trkpt>
      <trkpt lat="47.50927" lon="6.76855">
        <ele>378</ele>
        <time>2016-11-02T14:00:35.000Z</time>
      </trkpt>
      <trkpt lat="47.50924" lon="6.7685">
        <ele>379</ele>
        <time>2016-11-02T14:00:36.000Z</time>
      </trkpt>
      <trkpt lat="47.50921" lon="6.76845">
        <ele>379</ele>
        <time>2016-11-02T14:00:37.000Z</time>
      </trkpt>
      <trkpt lat="47.50918" lon="6.7684">
        <ele>379</ele>
        <time>2016-11-02T14:00:38.000Z</time>
      </trkpt>
      <trkpt lat="47.50914" lon="6.76834">
        <ele>380</ele>
        <time>2016-11-02T14:00:39.000Z</time>
      </trkpt>
      <trkpt lat="47.50911" lon="6.76828">
        <ele>380</ele>
        <time>2016-11-02T14:00:40.000Z</time>
      </trkpt>
      <trkpt lat="47.5091" lon="6.76823">
        <ele>381</ele>
        <time>2016-11-02T14:00:41.000Z</time>
      </trkpt>
      <trkpt lat="47.50908" lon="6.76817">
        <ele>381</ele>
        <time>2016-11-02T14:00:42.000Z</time>
      </trkpt>
      <trkpt lat="47.50906" lon="6.76812">
        <ele>381</ele>
        <time>2016-11-02T14:00:43.000Z</time>
      </trkpt>
      <trkpt lat="47.50903" lon="6.76807">
        <ele>381</ele>
        <time>2016-11-02T14:00:44.000Z</time>
      </trkpt>
      <trkpt lat="47.50901" lon="6.76801">
        <ele>381</ele>
        <time>2016-11-02T14:00:45.000Z</time>
      </trkpt>
      <trkpt lat="47.50899" lon="6.76796">
        <ele>381</ele>
        <time>2016-11-02T14:00:46.000Z</time>
      </trkpt>
      <trkpt lat="47.50896" lon="6.7679">
        <ele>381</ele>
        <time>2016-11-02T14:00:47.000Z</time>
      </trkpt>
      <trkpt lat="47.50894" lon="6.76785">
        <ele>381</ele>
        <time>2016-11-02T14:00:48.000Z</time>
      </trkpt>
      <trkpt lat="47.50892" lon="6.7678">
        <ele>381</ele>
        <time>2016-11-02T14:00:49.000Z</time>
      </trkpt>
      <trkpt lat="47.5089" lon="6.76775">
        <ele>381</ele>
        <time>2016-11-02T14:00:50.000Z</time>
      </trkpt>
      <trkpt lat="47.50889" lon="6.76769">
        <ele>381</ele>
        <time>2016-11-02T14:00:51.000Z</time>
      </trkpt>
      <trkpt lat="47.50887" lon="6.76765">
        <ele>381</ele>
        <time>2016-11-02T14:00:52.000Z</time>
      </trkpt>
      <trkpt lat="47.50885" lon="6.76761">
        <ele>381</ele>
        <time>2016-11-02T14:00:53.000Z</time>
      </trkpt>
      <trkpt lat="47.50884" lon="6.76756">
        <ele>381</ele>
        <time>2016-11-02T14:00:54.000Z</time>
      </trkpt>
      <trkpt lat="47.50882" lon="6.76752">
        <ele>381</ele>
        <time>2016-11-02T14:00:55.000Z</time>
      </trkpt>
      <trkpt lat="47.5088" lon="6.76746">
        <ele>382</ele>
        <time>2016-11-02T14:00:56.000Z</time>
      </trkpt>
      <trkpt lat="47.50879" lon="6.76741">
        <ele>383</ele>
        <time>2016-11-02T14:00:57.000Z</time>
      </trkpt>
      <trkpt lat="47.50877" lon="6.76736">
        <ele>383</ele>
        <time>2016-11-02T14:00:58.000Z</time>
      </trkpt>
      <trkpt lat="47.50876" lon="6.76731">
        <ele>383</ele>
        <time>2016-11-02T14:00:59.000Z</time>
      </trkpt>
      <trkpt lat="47.50874" lon="6.76727">
        <ele>383</ele>
        <time>2016-11-02T14:01:00.000Z</time>
      </trkpt>
      <trkpt lat="47.50872" lon="6.76722">
        <ele>383</ele>
        <time>2016-11-02T14:01:01.000Z</time>
      </trkpt>
      <trkpt lat="47.50871" lon="6.76717">
        <ele>383</ele>
        <time>2016-11-02T14:01:02.000Z</time>
      </trkpt>
      <trkpt lat="47.50869" lon="6.76712">
        <ele>383</ele>
        <time>2016-11-02T14:01:03.000Z</time>
      </trkpt>
      <trkpt lat="47.50867" lon="6.76708">
        <ele>384</ele>
        <time>2016-11-02T14:01:04.000Z</time>
      </trkpt>
      <trkpt lat="47.50866" lon="6.76704">
        <ele>384</ele>
        <time>2016-11-02T14:01:05.000Z</time>
      </trkpt>
      <trkpt lat="47.50864" lon="6.76699">
        <ele>384</ele>
        <time>2016-11-02T14:01:06.000Z</time>
      </trkpt>
      <trkpt lat="47.50862" lon="6.76695">
        <ele>384</ele>
        <time>2016-11-02T14:01:07.000Z</time>
      </trkpt>
      <trkpt lat="47.5086" lon="6.7669">
        <ele>384</ele>
        <time>2016-11-02T14:01:08.000Z</time>
      </trkpt>
      <trkpt lat="47.50859" lon="6.76685">
        <ele>385</ele>
        <time>2016-11-02T14:01:09.000Z</time>
      </trkpt>
      <trkpt lat="47.50857" lon="6.76681">
        <ele>385</ele>
        <time>2016-11-02T14:01:10.000Z</time>
      </trkpt>
      <trkpt lat="47.50856" lon="6.76676">
        <ele>385</ele>
        <time>2016-11-02T14:01:11.000Z</time>
      </trkpt>
      <trkpt lat="47.50854" lon="6.76672">
        <ele>386</ele>
        <time>2016-11-02T14:01:12.000Z</time>
      </trkpt>
      <trkpt lat="47.50852" lon="6.76668">
        <ele>386</ele>
        <time>2016-11-02T14:01:13.000Z</time>
      </trkpt>
      <trkpt lat="47.50851" lon="6.76664">
        <ele>387</ele>
        <time>2016-11-02T14:01:14.000Z</time>
      </trkpt>
      <trkpt lat="47.50849" lon="6.76659">
        <ele>387</ele>
        <time>2016-11-02T14:01:15.000Z</time>
      </trkpt>
      <trkpt lat="47.50847" lon="6.76656">
        <ele>387</ele>
        <time>2016-11-02T14:01:16.000Z</time>
      </trkpt>
      <trkpt lat="47.50845" lon="6.76652">
        <ele>387</ele>
        <time>2016-11-02T14:01:17.000Z</time>
      </trkpt>
      <trkpt lat="47.50844" lon="6.76648">
        <ele>387</ele>
        <time>2016-11-02T14:01:18.000Z</time>
      </trkpt>
      <trkpt lat="47.50842" lon="6.76644">
        <ele>387</ele>
        <time>2016-11-02T14:01:19.000Z</time>
      </trkpt>
      <trkpt lat="47.5084" lon="6.7664">
        <ele>387</ele>
        <time>2016-11-02T14:01:20.000Z</time>
      </trkpt>
      <trkpt lat="47.50839" lon="6.76637">
        <ele>387</ele>
        <time>2016-11-02T14:01:21.000Z</time>
      </trkpt>
      <trkpt lat="47.50837" lon="6.76633">
        <ele>387</ele>
        <time>2016-11-02T14:01:22.000Z</time>
      </trkpt>
      <trkpt lat="47.50835" lon="6.76629">
        <ele>387</ele>
        <time>2016-11-02T14:01:23.000Z</time>
      </trkpt>
      <trkpt lat="47.50833" lon="6.76626">
        <ele>390</ele>
        <time>2016-11-02T14:01:24.000Z</time>
      </trkpt>
      <trkpt lat="47.50832" lon="6.76622">
        <ele>390</ele>
        <time>2016-11-02T14:01:25.000Z</time>
      </trkpt>
      <trkpt lat="47.5083" lon="6.76619">
        <ele>390</ele>
        <time>2016-11-02T14:01:26.000Z</time>
      </trkpt>
      <trkpt lat="47.50828" lon="6.76615">
        <ele>390</ele>
        <time>2016-11-02T14:01:27.000Z</time>
      </trkpt>
      <trkpt lat="47.50827" lon="6.76611">
        <ele>390</ele>
        <time>2016-11-02T14:01:28.000Z</time>
      </trkpt>
      <trkpt lat="47.50826" lon="6.76607">
        <ele>390</ele>
        <time>2016-11-02T14:01:29.000Z</time>
      </trkpt>
      <trkpt lat="47.50824" lon="6.76602">
        <ele>390</ele>
        <time>2016-11-02T14:01:30.000Z</time>
      </trkpt>
      <trkpt lat="47.50823" lon="6.76598">
        <ele>390</ele>
        <time>2016-11-02T14:01:31.000Z</time>
      </trkpt>
      <trkpt lat="47.50822" lon="6.76594">
        <ele>390</ele>
        <time>2016-11-02T14:01:32.000Z</time>
      </trkpt>
      <trkpt lat="47.5082" lon="6.76592">
        <ele>390</ele>
        <time>2016-11-02T14:01:33.000Z</time>
      </trkpt>
      <trkpt lat="47.50816" lon="6.76593">
        <ele>390</ele>
        <time>2016-11-02T14:01:35.000Z</time>
      </trkpt>
      <trkpt lat="47.50813" lon="6.76595">
        <ele>390</ele>
        <time>2016-11-02T14:01:36.000Z</time>
      </trkpt>
      <trkpt lat="47.5081" lon="6.76597">
        <ele>390</ele>
        <time>2016-11-02T14:01:37.000Z</time>
      </trkpt>
      <trkpt lat="47.50807" lon="6.76597">
        <ele>390</ele>
        <time>2016-11-02T14:01:38.000Z</time>
      </trkpt>
      <trkpt lat="47.50804" lon="6.76596">
        <ele>391</ele>
        <time>2016-11-02T14:01:39.000Z</time>
      </trkpt>
      <trkpt lat="47.50802" lon="6.76593">
        <ele>391</ele>
        <time>2016-11-02T14:01:40.000Z</time>
      </trkpt>
      <trkpt lat="47.508" lon="6.76593">
        <ele>391</ele>
        <time>2016-11-02T14:01:41.000Z</time>
      </trkpt>
      <trkpt lat="47.50797" lon="6.76592">
        <ele>391</ele>
        <time>2016-11-02T14:01:42.000Z</time>
      </trkpt>
      <trkpt lat="47.50794" lon="6.76593">
        <ele>391</ele>
        <time>2016-11-02T14:01:43.000Z</time>
      </trkpt>
      <trkpt lat="47.50792" lon="6.76594">
        <ele>391</ele>
        <time>2016-11-02T14:01:44.000Z</time>
      </trkpt>
      <trkpt lat="47.50788" lon="6.76595">
        <ele>391</ele>
        <time>2016-11-02T14:01:58.000Z</time>
      </trkpt>
      <trkpt lat="47.50787" lon="6.76596">
        <ele>391</ele>
        <time>2016-11-02T14:01:59.000Z</time>
      </trkpt>
      <trkpt lat="47.50783" lon="6.76596">
        <ele>391</ele>
        <time>2016-11-02T14:02:06.000Z</time>
      </trkpt>
      <trkpt lat="47.50783" lon="6.76595">
        <ele>391</ele>
        <time>2016-11-02T14:02:07.000Z</time>
      </trkpt>
      <trkpt lat="47.50779" lon="6.76592">
        <ele>392</ele>
        <time>2016-11-02T14:02:16.000Z</time>
      </trkpt>
      <trkpt lat="47.50778" lon="6.76593">
        <ele>392</ele>
        <time>2016-11-02T14:02:17.000Z</time>
      </trkpt>
      <trkpt lat="47.50776" lon="6.76595">
        <ele>392</ele>
        <time>2016-11-02T14:02:18.000Z</time>
      </trkpt>
      <trkpt lat="47.50773" lon="6.76597">
        <ele>392</ele>
        <time>2016-11-02T14:02:19.000Z</time>
      </trkpt>
      <trkpt lat="47.5077" lon="6.76598">
        <ele>392</ele>
        <time>2016-11-02T14:02:20.000Z</time>
      </trkpt>
      <trkpt lat="47.50766" lon="6.76599">
        <ele>392</ele>
        <time>2016-11-02T14:02:21.000Z</time>
      </trkpt>
      <trkpt lat="47.50763" lon="6.766">
        <ele>392</ele>
        <time>2016-11-02T14:02:22.000Z</time>
      </trkpt>
      <trkpt lat="47.5076" lon="6.766">
        <ele>392</ele>
        <time>2016-11-02T14:02:23.000Z</time>
      </trkpt>
      <trkpt lat="47.50757" lon="6.766">
        <ele>392</ele>
        <time>2016-11-02T14:02:24.000Z</time>
      </trkpt>
      <trkpt lat="47.50754" lon="6.766">
        <ele>392</ele>
        <time>2016-11-02T14:02:25.000Z</time>
      </trkpt>
      <trkpt lat="47.50751" lon="6.76599">
        <ele>393</ele>
        <time>2016-11-02T14:02:26.000Z</time>
      </trkpt>
      <trkpt lat="47.50747" lon="6.76598">
        <ele>394</ele>
        <time>2016-11-02T14:02:27.000Z</time>
      </trkpt>
      <trkpt lat="47.50744" lon="6.76598">
        <ele>394</ele>
        <time>2016-11-02T14:02:28.000Z</time>
      </trkpt>
      <trkpt lat="47.5074" lon="6.76598">
        <ele>394</ele>
        <time>2016-11-02T14:02:29.000Z</time>
      </trkpt>
      <trkpt lat="47.50737" lon="6.76599">
        <ele>394</ele>
        <time>2016-11-02T14:02:30.000Z</time>
      </trkpt>
      <trkpt lat="47.50733" lon="6.76599">
        <ele>394</ele>
        <time>2016-11-02T14:02:31.000Z</time>
      </trkpt>
      <trkpt lat="47.50729" lon="6.76598">
        <ele>394</ele>
        <time>2016-11-02T14:02:32.000Z</time>
      </trkpt>
      <trkpt lat="47.50725" lon="6.76597">
        <ele>394</ele>
        <time>2016-11-02T14:02:33.000Z</time>
      </trkpt>
      <trkpt lat="47.50721" lon="6.76597">
        <ele>394</ele>
        <time>2016-11-02T14:02:34.000Z</time>
      </trkpt>
      <trkpt lat="47.50718" lon="6.76596">
        <ele>394</ele>
        <time>2016-11-02T14:02:35.000Z</time>
      </trkpt>
      <trkpt lat="47.50714" lon="6.76595">
        <ele>395</ele>
        <time>2016-11-02T14:02:36.000Z</time>
      </trkpt>
      <trkpt lat="47.5071" lon="6.76595">
        <ele>395</ele>
        <time>2016-11-02T14:02:37.000Z</time>
      </trkpt>
      <trkpt lat="47.50706" lon="6.76594">
        <ele>395</ele>
        <time>2016-11-02T14:02:38.000Z</time>
      </trkpt>
      <trkpt lat="47.50702" lon="6.76594">
        <ele>395</ele>
        <time>2016-11-02T14:02:39.000Z</time>
      </trkpt>
      <trkpt lat="47.50698" lon="6.76593">
        <ele>395</ele>
        <time>2016-11-02T14:02:40.000Z</time>
      </trkpt>
      <trkpt lat="47.50695" lon="6.76593">
        <ele>395</ele>
        <time>2016-11-02T14:02:41.000Z</time>
      </trkpt>
      <trkpt lat="47.50692" lon="6.76593">
        <ele>395</ele>
        <time>2016-11-02T14:02:42.000Z</time>
      </trkpt>
      <trkpt lat="47.50688" lon="6.76593">
        <ele>395</ele>
        <time>2016-11-02T14:02:43.000Z</time>
      </trkpt>
      <trkpt lat="47.50685" lon="6.76593">
        <ele>395</ele>
        <time>2016-11-02T14:02:44.000Z</time>
      </trkpt>
      <trkpt lat="47.50681" lon="6.76594">
        <ele>396</ele>
        <time>2016-11-02T14:02:45.000Z</time>
      </trkpt>
      <trkpt lat="47.50678" lon="6.76594">
        <ele>396</ele>
        <time>2016-11-02T14:02:46.000Z</time>
      </trkpt>
      <trkpt lat="47.50675" lon="6.76594">
        <ele>396</ele>
        <time>2016-11-02T14:02:47.000Z</time>
      </trkpt>
      <trkpt lat="47.50671" lon="6.76595">
        <ele>396</ele>
        <time>2016-11-02T14:02:48.000Z</time>
      </trkpt>
      <trkpt lat="47.50668" lon="6.76595">
        <ele>396</ele>
        <time>2016-11-02T14:02:49.000Z</time>
      </trkpt>
      <trkpt lat="47.50665" lon="6.76596">
        <ele>397</ele>
        <time>2016-11-02T14:02:50.000Z</time>
      </trkpt>
      <trkpt lat="47.50662" lon="6.76597">
        <ele>397</ele>
        <time>2016-11-02T14:02:51.000Z</time>
      </trkpt>
      <trkpt lat="47.50659" lon="6.76598">
        <ele>397</ele>
        <time>2016-11-02T14:02:52.000Z</time>
      </trkpt>
      <trkpt lat="47.50656" lon="6.76599">
        <ele>397</ele>
        <time>2016-11-02T14:02:53.000Z</time>
      </trkpt>
      <trkpt lat="47.50653" lon="6.766">
        <ele>397</ele>
        <time>2016-11-02T14:02:54.000Z</time>
      </trkpt>
      <trkpt lat="47.50649" lon="6.766">
        <ele>397</ele>
        <time>2016-11-02T14:02:55.000Z</time>
      </trkpt>
      <trkpt lat="47.50646" lon="6.76601">
        <ele>397</ele>
        <time>2016-11-02T14:02:56.000Z</time>
      </trkpt>
      <trkpt lat="47.50643" lon="6.76603">
        <ele>397</ele>
        <time>2016-11-02T14:02:57.000Z</time>
      </trkpt>
      <trkpt lat="47.5064" lon="6.76604">
        <ele>397</ele>
        <time>2016-11-02T14:02:58.000Z</time>
      </trkpt>
      <trkpt lat="47.50637" lon="6.76606">
        <ele>397</ele>
        <time>2016-11-02T14:02:59.000Z</time>
      </trkpt>
      <trkpt lat="47.50634" lon="6.76608">
        <ele>397</ele>
        <time>2016-11-02T14:03:00.000Z</time>
      </trkpt>
      <trkpt lat="47.50631" lon="6.7661">
        <ele>397</ele>
        <time>2016-11-02T14:03:01.000Z</time>
      </trkpt>
      <trkpt lat="47.50628" lon="6.76611">
        <ele>397</ele>
        <time>2016-11-02T14:03:02.000Z</time>
      </trkpt>
      <trkpt lat="47.50625" lon="6.76613">
        <ele>397</ele>
        <time>2016-11-02T14:03:03.000Z</time>
      </trkpt>
      <trkpt lat="47.50622" lon="6.76615">
        <ele>397</ele>
        <time>2016-11-02T14:03:04.000Z</time>
      </trkpt>
      <trkpt lat="47.50619" lon="6.76617">
        <ele>397</ele>
        <time>2016-11-02T14:03:05.000Z</time>
      </trkpt>
      <trkpt lat="47.50616" lon="6.76619">
        <ele>397</ele>
        <time>2016-11-02T14:03:06.000Z</time>
      </trkpt>
      <trkpt lat="47.50613" lon="6.76621">
        <ele>397</ele>
        <time>2016-11-02T14:03:07.000Z</time>
      </trkpt>
      <trkpt lat="47.5061" lon="6.76623">
        <ele>397</ele>
        <time>2016-11-02T14:03:08.000Z</time>
      </trkpt>
      <trkpt lat="47.50607" lon="6.76624">
        <ele>398</ele>
        <time>2016-11-02T14:03:09.000Z</time>
      </trkpt>
      <trkpt lat="47.50603" lon="6.76626">
        <ele>398</ele>
        <time>2016-11-02T14:03:10.000Z</time>
      </trkpt>
      <trkpt lat="47.506" lon="6.76628">
        <ele>398</ele>
        <time>2016-11-02T14:03:11.000Z</time>
      </trkpt>
      <trkpt lat="47.50596" lon="6.76629">
        <ele>398</ele>
        <time>2016-11-02T14:03:12.000Z</time>
      </trkpt>
      <trkpt lat="47.50593" lon="6.7663">
        <ele>398</ele>
        <time>2016-11-02T14:03:13.000Z</time>
      </trkpt>
      <trkpt lat="47.5059" lon="6.76631">
        <ele>398</ele>
        <time>2016-11-02T14:03:14.000Z</time>
      </trkpt>
      <trkpt lat="47.50587" lon="6.76632">
        <ele>398</ele>
        <time>2016-11-02T14:03:15.000Z</time>
      </trkpt>
      <trkpt lat="47.50584" lon="6.76632">
        <ele>398</ele>
        <time>2016-11-02T14:03:16.000Z</time>
      </trkpt>
      <trkpt lat="47.50581" lon="6.76633">
        <ele>399</ele>
        <time>2016-11-02T14:03:17.000Z</time>
      </trkpt>
      <trkpt lat="47.50577" lon="6.76634">
        <ele>399</ele>
        <time>2016-11-02T14:03:18.000Z</time>
      </trkpt>
      <trkpt lat="47.50574" lon="6.76636">
        <ele>399</ele>
        <time>2016-11-02T14:03:19.000Z</time>
      </trkpt>
      <trkpt lat="47.5057" lon="6.76637">
        <ele>399</ele>
        <time>2016-11-02T14:03:20.000Z</time>
      </trkpt>
      <trkpt lat="47.50567" lon="6.76638">
        <ele>399</ele>
        <time>2016-11-02T14:03:21.000Z</time>
      </trkpt>
      <trkpt lat="47.50564" lon="6.76638">
        <ele>399</ele>
        <time>2016-11-02T14:03:22.000Z</time>
      </trkpt>
      <trkpt lat="47.50561" lon="6.76639">
        <ele>399</ele>
        <time>2016-11-02T14:03:23.000Z</time>
      </trkpt>
      <trkpt lat="47.50558" lon="6.7664">
        <ele>399</ele>
        <time>2016-11-02T14:03:24.000Z</time>
      </trkpt>
      <trkpt lat="47.50555" lon="6.76641">
        <ele>399</ele>
        <time>2016-11-02T14:03:25.000Z</time>
      </trkpt>
      <trkpt lat="47.50552" lon="6.76642">
        <ele>399</ele>
        <time>2016-11-02T14:03:26.000Z</time>
      </trkpt>
      <trkpt lat="47.50548" lon="6.76643">
        <ele>399</ele>
        <time>2016-11-02T14:03:27.000Z</time>
      </trkpt>
      <trkpt lat="47.50545" lon="6.76644">
        <ele>399</ele>
        <time>2016-11-02T14:03:28.000Z</time>
      </trkpt>
      <trkpt lat="47.50541" lon="6.76645">
        <ele>399</ele>
        <time>2016-11-02T14:03:29.000Z</time>
      </trkpt>
      <trkpt lat="47.50538" lon="6.76646">
        <ele>399</ele>
        <time>2016-11-02T14:03:30.000Z</time>
      </trkpt>
      <trkpt lat="47.50534" lon="6.76646">
        <ele>399</ele>
        <time>2016-11-02T14:03:31.000Z</time>
      </trkpt>
      <trkpt lat="47.5053" lon="6.76647">
        <ele>399</ele>
        <time>2016-11-02T14:03:32.000Z</time>
      </trkpt>
      <trkpt lat="47.50526" lon="6.76649">
        <ele>399</ele>
        <time>2016-11-02T14:03:33.000Z</time>
      </trkpt>
      <trkpt lat="47.50522" lon="6.7665">
        <ele>399</ele>
        <time>2016-11-02T14:03:34.000Z</time>
      </trkpt>
      <trkpt lat="47.50517" lon="6.76652">
        <ele>399</ele>
        <time>2016-11-02T14:03:35.000Z</time>
      </trkpt>
      <trkpt lat="47.50513" lon="6.76653">
        <ele>399</ele>
        <time>2016-11-02T14:03:36.000Z</time>
      </trkpt>
      <trkpt lat="47.50508" lon="6.76655">
        <ele>399</ele>
        <time>2016-11-02T14:03:37.000Z</time>
      </trkpt>
      <trkpt lat="47.50503" lon="6.76657">
        <ele>399</ele>
        <time>2016-11-02T14:03:38.000Z</time>
      </trkpt>
      <trkpt lat="47.50498" lon="6.76657">
        <ele>399</ele>
        <time>2016-11-02T14:03:39.000Z</time>
      </trkpt>
      <trkpt lat="47.50494" lon="6.76659">
        <ele>399</ele>
        <time>2016-11-02T14:03:40.000Z</time>
      </trkpt>
      <trkpt lat="47.50489" lon="6.7666">
        <ele>399</ele>
        <time>2016-11-02T14:03:41.000Z</time>
      </trkpt>
      <trkpt lat="47.50484" lon="6.76662">
        <ele>399</ele>
        <time>2016-11-02T14:03:42.000Z</time>
      </trkpt>
      <trkpt lat="47.50479" lon="6.76663">
        <ele>399</ele>
        <time>2016-11-02T14:03:43.000Z</time>
      </trkpt>
      <trkpt lat="47.50475" lon="6.76665">
        <ele>398</ele>
        <time>2016-11-02T14:03:44.000Z</time>
      </trkpt>
      <trkpt lat="47.50471" lon="6.76666">
        <ele>398</ele>
        <time>2016-11-02T14:03:45.000Z</time>
      </trkpt>
      <trkpt lat="47.50468" lon="6.76668">
        <ele>397</ele>
        <time>2016-11-02T14:03:46.000Z</time>
      </trkpt>
      <trkpt lat="47.50464" lon="6.7667">
        <ele>397</ele>
        <time>2016-11-02T14:03:47.000Z</time>
      </trkpt>
      <trkpt lat="47.5046" lon="6.76672">
        <ele>397</ele>
        <time>2016-11-02T14:03:48.000Z</time>
      </trkpt>
      <trkpt lat="47.50457" lon="6.76674">
        <ele>397</ele>
        <time>2016-11-02T14:03:49.000Z</time>
      </trkpt>
      <trkpt lat="47.50453" lon="6.76676">
        <ele>397</ele>
        <time>2016-11-02T14:03:50.000Z</time>
      </trkpt>
      <trkpt lat="47.50449" lon="6.76678">
        <ele>397</ele>
        <time>2016-11-02T14:03:51.000Z</time>
      </trkpt>
      <trkpt lat="47.50445" lon="6.7668">
        <ele>397</ele>
        <time>2016-11-02T14:03:52.000Z</time>
      </trkpt>
      <trkpt lat="47.50441" lon="6.76682">
        <ele>397</ele>
        <time>2016-11-02T14:03:53.000Z</time>
      </trkpt>
      <trkpt lat="47.50438" lon="6.76684">
        <ele>397</ele>
        <time>2016-11-02T14:03:54.000Z</time>
      </trkpt>
      <trkpt lat="47.50434" lon="6.76687">
        <ele>397</ele>
        <time>2016-11-02T14:03:55.000Z</time>
      </trkpt>
      <trkpt lat="47.5043" lon="6.76689">
        <ele>397</ele>
        <time>2016-11-02T14:03:56.000Z</time>
      </trkpt>
      <trkpt lat="47.50426" lon="6.76691">
        <ele>397</ele>
        <time>2016-11-02T14:03:57.000Z</time>
      </trkpt>
      <trkpt lat="47.50421" lon="6.76693">
        <ele>397</ele>
        <time>2016-11-02T14:03:58.000Z</time>
      </trkpt>
      <trkpt lat="47.50417" lon="6.76695">
        <ele>397</ele>
        <time>2016-11-02T14:03:59.000Z</time>
      </trkpt>
      <trkpt lat="47.50413" lon="6.76698">
        <ele>397</ele>
        <time>2016-11-02T14:04:00.000Z</time>
      </trkpt>
      <trkpt lat="47.50408" lon="6.767">
        <ele>397</ele>
        <time>2016-11-02T14:04:01.000Z</time>
      </trkpt>
      <trkpt lat="47.50404" lon="6.76702">
        <ele>397</ele>
        <time>2016-11-02T14:04:02.000Z</time>
      </trkpt>
      <trkpt lat="47.50399" lon="6.76703">
        <ele>397</ele>
        <time>2016-11-02T14:04:03.000Z</time>
      </trkpt>
      <trkpt lat="47.50395" lon="6.76706">
        <ele>397</ele>
        <time>2016-11-02T14:04:04.000Z</time>
      </trkpt>
      <trkpt lat="47.50391" lon="6.76708">
        <ele>397</ele>
        <time>2016-11-02T14:04:05.000Z</time>
      </trkpt>
      <trkpt lat="47.50387" lon="6.7671">
        <ele>398</ele>
        <time>2016-11-02T14:04:06.000Z</time>
      </trkpt>
      <trkpt lat="47.50383" lon="6.7671">
        <ele>398</ele>
        <time>2016-11-02T14:04:07.000Z</time>
      </trkpt>
      <trkpt lat="47.50379" lon="6.76712">
        <ele>398</ele>
        <time>2016-11-02T14:04:08.000Z</time>
      </trkpt>
      <trkpt lat="47.50374" lon="6.76711">
        <ele>398</ele>
        <time>2016-11-02T14:04:09.000Z</time>
      </trkpt>
      <trkpt lat="47.5037" lon="6.76712">
        <ele>398</ele>
        <time>2016-11-02T14:04:10.000Z</time>
      </trkpt>
      <trkpt lat="47.50366" lon="6.76714">
        <ele>398</ele>
        <time>2016-11-02T14:04:11.000Z</time>
      </trkpt>
      <trkpt lat="47.50362" lon="6.76716">
        <ele>398</ele>
        <time>2016-11-02T14:04:12.000Z</time>
      </trkpt>
      <trkpt lat="47.50359" lon="6.76717">
        <ele>398</ele>
        <time>2016-11-02T14:04:13.000Z</time>
      </trkpt>
      <trkpt lat="47.50355" lon="6.76718">
        <ele>398</ele>
        <time>2016-11-02T14:04:14.000Z</time>
      </trkpt>
      <trkpt lat="47.5035" lon="6.7672">
        <ele>398</ele>
        <time>2016-11-02T14:04:15.000Z</time>
      </trkpt>
      <trkpt lat="47.50347" lon="6.76722">
        <ele>398</ele>
        <time>2016-11-02T14:04:16.000Z</time>
      </trkpt>
      <trkpt lat="47.50343" lon="6.76724">
        <ele>398</ele>
        <time>2016-11-02T14:04:17.000Z</time>
      </trkpt>
      <trkpt lat="47.50339" lon="6.76725">
        <ele>398</ele>
        <time>2016-11-02T14:04:18.000Z</time>
      </trkpt>
      <trkpt lat="47.50335" lon="6.76727">
        <ele>398</ele>
        <time>2016-11-02T14:04:19.000Z</time>
      </trkpt>
      <trkpt lat="47.50332" lon="6.76728">
        <ele>398</ele>
        <time>2016-11-02T14:04:20.000Z</time>
      </trkpt>
      <trkpt lat="47.50328" lon="6.76729">
        <ele>398</ele>
        <time>2016-11-02T14:04:21.000Z</time>
      </trkpt>
      <trkpt lat="47.50324" lon="6.7673">
        <ele>398</ele>
        <time>2016-11-02T14:04:22.000Z</time>
      </trkpt>
      <trkpt lat="47.5032" lon="6.76732">
        <ele>398</ele>
        <time>2016-11-02T14:04:23.000Z</time>
      </trkpt>
      <trkpt lat="47.50316" lon="6.76734">
        <ele>398</ele>
        <time>2016-11-02T14:04:24.000Z</time>
      </trkpt>
      <trkpt lat="47.50312" lon="6.76736">
        <ele>398</ele>
        <time>2016-11-02T14:04:25.000Z</time>
      </trkpt>
      <trkpt lat="47.50308" lon="6.76738">
        <ele>398</ele>
        <time>2016-11-02T14:04:26.000Z</time>
      </trkpt>
      <trkpt lat="47.50304" lon="6.7674">
        <ele>398</ele>
        <time>2016-11-02T14:04:27.000Z</time>
      </trkpt>
      <trkpt lat="47.503" lon="6.76741">
        <ele>399</ele>
        <time>2016-11-02T14:04:28.000Z</time>
      </trkpt>
      <trkpt lat="47.50296" lon="6.76742">
        <ele>399</ele>
        <time>2016-11-02T14:04:29.000Z</time>
      </trkpt>
      <trkpt lat="47.50291" lon="6.76743">
        <ele>399</ele>
        <time>2016-11-02T14:04:30.000Z</time>
      </trkpt>
      <trkpt lat="47.50287" lon="6.76744">
        <ele>399</ele>
        <time>2016-11-02T14:04:31.000Z</time>
      </trkpt>
      <trkpt lat="47.50283" lon="6.76745">
        <ele>399</ele>
        <time>2016-11-02T14:04:32.000Z</time>
      </trkpt>
      <trkpt lat="47.50279" lon="6.76746">
        <ele>399</ele>
        <time>2016-11-02T14:04:33.000Z</time>
      </trkpt>
      <trkpt lat="47.50275" lon="6.76747">
        <ele>399</ele>
        <time>2016-11-02T14:04:34.000Z</time>
      </trkpt>
      <trkpt lat="47.50271" lon="6.76748">
        <ele>399</ele>
        <time>2016-11-02T14:04:35.000Z</time>
      </trkpt>
      <trkpt lat="47.50267" lon="6.76749">
        <ele>399</ele>
        <time>2016-11-02T14:04:36.000Z</time>
      </trkpt>
      <trkpt lat="47.50263" lon="6.7675">
        <ele>398</ele>
        <time>2016-11-02T14:04:37.000Z</time>
      </trkpt>
      <trkpt lat="47.50259" lon="6.76752">
        <ele>399</ele>
        <time>2016-11-02T14:04:38.000Z</time>
      </trkpt>
      <trkpt lat="47.50256" lon="6.76753">
        <ele>399</ele>
        <time>2016-11-02T14:04:39.000Z</time>
      </trkpt>
      <trkpt lat="47.50252" lon="6.76754">
        <ele>399</ele>
        <time>2016-11-02T14:04:40.000Z</time>
      </trkpt>
      <trkpt lat="47.50249" lon="6.76754">
        <ele>400</ele>
        <time>2016-11-02T14:04:41.000Z</time>
      </trkpt>
      <trkpt lat="47.50245" lon="6.76754">
        <ele>400</ele>
        <time>2016-11-02T14:04:42.000Z</time>
      </trkpt>
      <trkpt lat="47.50242" lon="6.76753">
        <ele>401</ele>
        <time>2016-11-02T14:04:43.000Z</time>
      </trkpt>
      <trkpt lat="47.5024" lon="6.76751">
        <ele>401</ele>
        <time>2016-11-02T14:04:44.000Z</time>
      </trkpt>
      <trkpt lat="47.50238" lon="6.76749">
        <ele>401</ele>
        <time>2016-11-02T14:04:45.000Z</time>
      </trkpt>
      <trkpt lat="47.50236" lon="6.76745">
        <ele>401</ele>
        <time>2016-11-02T14:04:46.000Z</time>
      </trkpt>
      <trkpt lat="47.50234" lon="6.76741">
        <ele>401</ele>
        <time>2016-11-02T14:04:47.000Z</time>
      </trkpt>
      <trkpt lat="47.50233" lon="6.76736">
        <ele>401</ele>
        <time>2016-11-02T14:04:48.000Z</time>
      </trkpt>
      <trkpt lat="47.50232" lon="6.76731">
        <ele>402</ele>
        <time>2016-11-02T14:04:49.000Z</time>
      </trkpt>
      <trkpt lat="47.5023" lon="6.76726">
        <ele>402</ele>
        <time>2016-11-02T14:04:50.000Z</time>
      </trkpt>
      <trkpt lat="47.50229" lon="6.76721">
        <ele>402</ele>
        <time>2016-11-02T14:04:51.000Z</time>
      </trkpt>
      <trkpt lat="47.50228" lon="6.76717">
        <ele>402</ele>
        <time>2016-11-02T14:04:52.000Z</time>
      </trkpt>
      <trkpt lat="47.50226" lon="6.76712">
        <ele>402</ele>
        <time>2016-11-02T14:04:53.000Z</time>
      </trkpt>
      <trkpt lat="47.50225" lon="6.76708">
        <ele>402</ele>
        <time>2016-11-02T14:04:54.000Z</time>
      </trkpt>
      <trkpt lat="47.50223" lon="6.76703">
        <ele>402</ele>
        <time>2016-11-02T14:04:55.000Z</time>
      </trkpt>
      <trkpt lat="47.50222" lon="6.76698">
        <ele>402</ele>
        <time>2016-11-02T14:04:56.000Z</time>
      </trkpt>
      <trkpt lat="47.5022" lon="6.76694">
        <ele>402</ele>
        <time>2016-11-02T14:04:57.000Z</time>
      </trkpt>
      <trkpt lat="47.50219" lon="6.76689">
        <ele>402</ele>
        <time>2016-11-02T14:04:58.000Z</time>
      </trkpt>
      <trkpt lat="47.50217" lon="6.76684">
        <ele>402</ele>
        <time>2016-11-02T14:04:59.000Z</time>
      </trkpt>
      <trkpt lat="47.50216" lon="6.76679">
        <ele>402</ele>
        <time>2016-11-02T14:05:00.000Z</time>
      </trkpt>
      <trkpt lat="47.50215" lon="6.76674">
        <ele>402</ele>
        <time>2016-11-02T14:05:01.000Z</time>
      </trkpt>
      <trkpt lat="47.50213" lon="6.76669">
        <ele>402</ele>
        <time>2016-11-02T14:05:02.000Z</time>
      </trkpt>
      <trkpt lat="47.50212" lon="6.76664">
        <ele>402</ele>
        <time>2016-11-02T14:05:03.000Z</time>
      </trkpt>
      <trkpt lat="47.50211" lon="6.76659">
        <ele>402</ele>
        <time>2016-11-02T14:05:04.000Z</time>
      </trkpt>
      <trkpt lat="47.50209" lon="6.76654">
        <ele>402</ele>
        <time>2016-11-02T14:05:05.000Z</time>
      </trkpt>
      <trkpt lat="47.50208" lon="6.7665">
        <ele>402</ele>
        <time>2016-11-02T14:05:06.000Z</time>
      </trkpt>
      <trkpt lat="47.50206" lon="6.76645">
        <ele>402</ele>
        <time>2016-11-02T14:05:07.000Z</time>
      </trkpt>
      <trkpt lat="47.50204" lon="6.7664">
        <ele>402</ele>
        <time>2016-11-02T14:05:08.000Z</time>
      </trkpt>
      <trkpt lat="47.50203" lon="6.76634">
        <ele>402</ele>
        <time>2016-11-02T14:05:09.000Z</time>
      </trkpt>
      <trkpt lat="47.50201" lon="6.76629">
        <ele>402</ele>
        <time>2016-11-02T14:05:10.000Z</time>
      </trkpt>
      <trkpt lat="47.50199" lon="6.76624">
        <ele>402</ele>
        <time>2016-11-02T14:05:11.000Z</time>
      </trkpt>
      <trkpt lat="47.50197" lon="6.76618">
        <ele>403</ele>
        <time>2016-11-02T14:05:12.000Z</time>
      </trkpt>
      <trkpt lat="47.50196" lon="6.76613">
        <ele>403</ele>
        <time>2016-11-02T14:05:13.000Z</time>
      </trkpt>
      <trkpt lat="47.50194" lon="6.76608">
        <ele>403</ele>
        <time>2016-11-02T14:05:14.000Z</time>
      </trkpt>
      <trkpt lat="47.50192" lon="6.76603">
        <ele>403</ele>
        <time>2016-11-02T14:05:15.000Z</time>
      </trkpt>
      <trkpt lat="47.50192" lon="6.76598">
        <ele>403</ele>
        <time>2016-11-02T14:05:16.000Z</time>
      </trkpt>
      <trkpt lat="47.50191" lon="6.76594">
        <ele>403</ele>
        <time>2016-11-02T14:05:17.000Z</time>
      </trkpt>
      <trkpt lat="47.50191" lon="6.76589">
        <ele>404</ele>
        <time>2016-11-02T14:05:18.000Z</time>
      </trkpt>
      <trkpt lat="47.5019" lon="6.76585">
        <ele>404</ele>
        <time>2016-11-02T14:05:19.000Z</time>
      </trkpt>
      <trkpt lat="47.50189" lon="6.76581">
        <ele>403</ele>
        <time>2016-11-02T14:05:20.000Z</time>
      </trkpt>
      <trkpt lat="47.50189" lon="6.76578">
        <ele>403</ele>
        <time>2016-11-02T14:05:21.000Z</time>
      </trkpt>
      <trkpt lat="47.50191" lon="6.76574">
        <ele>403</ele>
        <time>2016-11-02T14:05:22.000Z</time>
      </trkpt>
      <trkpt lat="47.50194" lon="6.76572">
        <ele>403</ele>
        <time>2016-11-02T14:05:23.000Z</time>
      </trkpt>
      <trkpt lat="47.50198" lon="6.76571">
        <ele>402</ele>
        <time>2016-11-02T14:05:24.000Z</time>
      </trkpt>
      <trkpt lat="47.50203" lon="6.7657">
        <ele>402</ele>
        <time>2016-11-02T14:05:25.000Z</time>
      </trkpt>
      <trkpt lat="47.50207" lon="6.76569">
        <ele>401</ele>
        <time>2016-11-02T14:05:26.000Z</time>
      </trkpt>
      <trkpt lat="47.50211" lon="6.76568">
        <ele>401</ele>
        <time>2016-11-02T14:05:27.000Z</time>
      </trkpt>
      <trkpt lat="47.50214" lon="6.76566">
        <ele>401</ele>
        <time>2016-11-02T14:05:28.000Z</time>
      </trkpt>
      <trkpt lat="47.50217" lon="6.76562">
        <ele>401</ele>
        <time>2016-11-02T14:05:29.000Z</time>
      </trkpt>
      <trkpt lat="47.50219" lon="6.76557">
        <ele>400</ele>
        <time>2016-11-02T14:05:30.000Z</time>
      </trkpt>
      <trkpt lat="47.50221" lon="6.7655">
        <ele>400</ele>
        <time>2016-11-02T14:05:31.000Z</time>
      </trkpt>
      <trkpt lat="47.50222" lon="6.76543">
        <ele>400</ele>
        <time>2016-11-02T14:05:32.000Z</time>
      </trkpt>
      <trkpt lat="47.50221" lon="6.76537">
        <ele>400</ele>
        <time>2016-11-02T14:05:33.000Z</time>
      </trkpt>
      <trkpt lat="47.5022" lon="6.7653">
        <ele>400</ele>
        <time>2016-11-02T14:05:34.000Z</time>
      </trkpt>
      <trkpt lat="47.50219" lon="6.76523">
        <ele>399</ele>
        <time>2016-11-02T14:05:35.000Z</time>
      </trkpt>
      <trkpt lat="47.50213" lon="6.76511">
        <ele>400</ele>
        <time>2016-11-02T14:05:36.000Z</time>
      </trkpt>
      <trkpt lat="47.50208" lon="6.76503">
        <ele>400</ele>
        <time>2016-11-02T14:05:37.000Z</time>
      </trkpt>
      <trkpt lat="47.50205" lon="6.76495">
        <ele>397</ele>
        <time>2016-11-02T14:05:38.000Z</time>
      </trkpt>
      <trkpt lat="47.50201" lon="6.76485">
        <ele>397</ele>
        <time>2016-11-02T14:05:39.000Z</time>
      </trkpt>
      <trkpt lat="47.50198" lon="6.76476">
        <ele>397</ele>
        <time>2016-11-02T14:05:40.000Z</time>
      </trkpt>
      <trkpt lat="47.50194" lon="6.76467">
        <ele>397</ele>
        <time>2016-11-02T14:05:41.000Z</time>
      </trkpt>
      <trkpt lat="47.50191" lon="6.76458">
        <ele>397</ele>
        <time>2016-11-02T14:05:42.000Z</time>
      </trkpt>
      <trkpt lat="47.50189" lon="6.76449">
        <ele>396</ele>
        <time>2016-11-02T14:05:43.000Z</time>
      </trkpt>
      <trkpt lat="47.50186" lon="6.7644">
        <ele>396</ele>
        <time>2016-11-02T14:05:44.000Z</time>
      </trkpt>
      <trkpt lat="47.50183" lon="6.76429">
        <ele>397</ele>
        <time>2016-11-02T14:05:45.000Z</time>
      </trkpt>
      <trkpt lat="47.50179" lon="6.76419">
        <ele>397</ele>
        <time>2016-11-02T14:05:46.000Z</time>
      </trkpt>
      <trkpt lat="47.50177" lon="6.76409">
        <ele>395</ele>
        <time>2016-11-02T14:05:47.000Z</time>
      </trkpt>
      <trkpt lat="47.50174" lon="6.76399">
        <ele>394</ele>
        <time>2016-11-02T14:05:48.000Z</time>
      </trkpt>
      <trkpt lat="47.50172" lon="6.7639">
        <ele>393</ele>
        <time>2016-11-02T14:05:49.000Z</time>
      </trkpt>
      <trkpt lat="47.50168" lon="6.7638">
        <ele>392</ele>
        <time>2016-11-02T14:05:50.000Z</time>
      </trkpt>
      <trkpt lat="47.50164" lon="6.7637">
        <ele>400</ele>
        <time>2016-11-02T14:05:51.000Z</time>
      </trkpt>
      <trkpt lat="47.50161" lon="6.7636">
        <ele>398</ele>
        <time>2016-11-02T14:05:52.000Z</time>
      </trkpt>
      <trkpt lat="47.50157" lon="6.76351">
        <ele>397</ele>
        <time>2016-11-02T14:05:53.000Z</time>
      </trkpt>
      <trkpt lat="47.50154" lon="6.76342">
        <ele>396</ele>
        <time>2016-11-02T14:05:54.000Z</time>
      </trkpt>
      <trkpt lat="47.50153" lon="6.76332">
        <ele>394</ele>
        <time>2016-11-02T14:05:55.000Z</time>
      </trkpt>
      <trkpt lat="47.5015" lon="6.76324">
        <ele>395</ele>
        <time>2016-11-02T14:05:56.000Z</time>
      </trkpt>
      <trkpt lat="47.50148" lon="6.76314">
        <ele>395</ele>
        <time>2016-11-02T14:05:57.000Z</time>
      </trkpt>
      <trkpt lat="47.50146" lon="6.76305">
        <ele>395</ele>
        <time>2016-11-02T14:05:58.000Z</time>
      </trkpt>
      <trkpt lat="47.50145" lon="6.76296">
        <ele>395</ele>
        <time>2016-11-02T14:05:59.000Z</time>
      </trkpt>
      <trkpt lat="47.50141" lon="6.76287">
        <ele>395</ele>
        <time>2016-11-02T14:06:00.000Z</time>
      </trkpt>
      <trkpt lat="47.50139" lon="6.76277">
        <ele>395</ele>
        <time>2016-11-02T14:06:01.000Z</time>
      </trkpt>
      <trkpt lat="47.50138" lon="6.76267">
        <ele>395</ele>
        <time>2016-11-02T14:06:02.000Z</time>
      </trkpt>
      <trkpt lat="47.50137" lon="6.76257">
        <ele>394</ele>
        <time>2016-11-02T14:06:03.000Z</time>
      </trkpt>
      <trkpt lat="47.50136" lon="6.76247">
        <ele>390</ele>
        <time>2016-11-02T14:06:04.000Z</time>
      </trkpt>
      <trkpt lat="47.50135" lon="6.76236">
        <ele>390</ele>
        <time>2016-11-02T14:06:05.000Z</time>
      </trkpt>
      <trkpt lat="47.50133" lon="6.76224">
        <ele>390</ele>
        <time>2016-11-02T14:06:06.000Z</time>
      </trkpt>
      <trkpt lat="47.50131" lon="6.76212">
        <ele>390</ele>
        <time>2016-11-02T14:06:07.000Z</time>
      </trkpt>
      <trkpt lat="47.50127" lon="6.762">
        <ele>390</ele>
        <time>2016-11-02T14:06:08.000Z</time>
      </trkpt>
      <trkpt lat="47.50124" lon="6.76188">
        <ele>390</ele>
        <time>2016-11-02T14:06:09.000Z</time>
      </trkpt>
      <trkpt lat="47.50122" lon="6.76178">
        <ele>390</ele>
        <time>2016-11-02T14:06:10.000Z</time>
      </trkpt>
      <trkpt lat="47.50119" lon="6.76168">
        <ele>390</ele>
        <time>2016-11-02T14:06:11.000Z</time>
      </trkpt>
      <trkpt lat="47.50117" lon="6.76158">
        <ele>386</ele>
        <time>2016-11-02T14:06:12.000Z</time>
      </trkpt>
      <trkpt lat="47.50116" lon="6.76148">
        <ele>386</ele>
        <time>2016-11-02T14:06:13.000Z</time>
      </trkpt>
      <trkpt lat="47.50115" lon="6.76136">
        <ele>386</ele>
        <time>2016-11-02T14:06:14.000Z</time>
      </trkpt>
      <trkpt lat="47.50112" lon="6.76126">
        <ele>385</ele>
        <time>2016-11-02T14:06:15.000Z</time>
      </trkpt>
      <trkpt lat="47.50112" lon="6.76112">
        <ele>385</ele>
        <time>2016-11-02T14:06:16.000Z</time>
      </trkpt>
      <trkpt lat="47.50106" lon="6.76103">
        <ele>385</ele>
        <time>2016-11-02T14:06:17.000Z</time>
      </trkpt>
      <trkpt lat="47.50105" lon="6.76093">
        <ele>386</ele>
        <time>2016-11-02T14:06:18.000Z</time>
      </trkpt>
      <trkpt lat="47.50103" lon="6.76084">
        <ele>386</ele>
        <time>2016-11-02T14:06:19.000Z</time>
      </trkpt>
      <trkpt lat="47.501" lon="6.76071">
        <ele>383</ele>
        <time>2016-11-02T14:06:20.000Z</time>
      </trkpt>
      <trkpt lat="47.50099" lon="6.76059">
        <ele>382</ele>
        <time>2016-11-02T14:06:21.000Z</time>
      </trkpt>
      <trkpt lat="47.50097" lon="6.76047">
        <ele>381</ele>
        <time>2016-11-02T14:06:22.000Z</time>
      </trkpt>
      <trkpt lat="47.50096" lon="6.76033">
        <ele>380</ele>
        <time>2016-11-02T14:06:23.000Z</time>
      </trkpt>
      <trkpt lat="47.50094" lon="6.76023">
        <ele>380</ele>
        <time>2016-11-02T14:06:24.000Z</time>
      </trkpt>
      <trkpt lat="47.50092" lon="6.76013">
        <ele>379</ele>
        <time>2016-11-02T14:06:25.000Z</time>
      </trkpt>
      <trkpt lat="47.5009" lon="6.76001">
        <ele>380</ele>
        <time>2016-11-02T14:06:26.000Z</time>
      </trkpt>
      <trkpt lat="47.50087" lon="6.75994">
        <ele>378</ele>
        <time>2016-11-02T14:06:27.000Z</time>
      </trkpt>
      <trkpt lat="47.50082" lon="6.75987">
        <ele>379</ele>
        <time>2016-11-02T14:06:28.000Z</time>
      </trkpt>
      <trkpt lat="47.50077" lon="6.7598">
        <ele>379</ele>
        <time>2016-11-02T14:06:29.000Z</time>
      </trkpt>
      <trkpt lat="47.50073" lon="6.75972">
        <ele>379</ele>
        <time>2016-11-02T14:06:30.000Z</time>
      </trkpt>
      <trkpt lat="47.50067" lon="6.75962">
        <ele>378</ele>
        <time>2016-11-02T14:06:31.000Z</time>
      </trkpt>
      <trkpt lat="47.50062" lon="6.75953">
        <ele>378</ele>
        <time>2016-11-02T14:06:32.000Z</time>
      </trkpt>
      <trkpt lat="47.50056" lon="6.75943">
        <ele>378</ele>
        <time>2016-11-02T14:06:33.000Z</time>
      </trkpt>
      <trkpt lat="47.50049" lon="6.75934">
        <ele>378</ele>
        <time>2016-11-02T14:06:34.000Z</time>
      </trkpt>
      <trkpt lat="47.50043" lon="6.75925">
        <ele>378</ele>
        <time>2016-11-02T14:06:35.000Z</time>
      </trkpt>
      <trkpt lat="47.5004" lon="6.75915">
        <ele>376</ele>
        <time>2016-11-02T14:06:36.000Z</time>
      </trkpt>
      <trkpt lat="47.50034" lon="6.75907">
        <ele>376</ele>
        <time>2016-11-02T14:06:37.000Z</time>
      </trkpt>
      <trkpt lat="47.5003" lon="6.75899">
        <ele>376</ele>
        <time>2016-11-02T14:06:38.000Z</time>
      </trkpt>
      <trkpt lat="47.50024" lon="6.7589">
        <ele>377</ele>
        <time>2016-11-02T14:06:39.000Z</time>
      </trkpt>
      <trkpt lat="47.50018" lon="6.75881">
        <ele>377</ele>
        <time>2016-11-02T14:06:40.000Z</time>
      </trkpt>
      <trkpt lat="47.50012" lon="6.75872">
        <ele>377</ele>
        <time>2016-11-02T14:06:41.000Z</time>
      </trkpt>
      <trkpt lat="47.50005" lon="6.75863">
        <ele>377</ele>
        <time>2016-11-02T14:06:42.000Z</time>
      </trkpt>
      <trkpt lat="47.5" lon="6.75854">
        <ele>377</ele>
        <time>2016-11-02T14:06:43.000Z</time>
      </trkpt>
      <trkpt lat="47.49996" lon="6.75844">
        <ele>378</ele>
        <time>2016-11-02T14:06:44.000Z</time>
      </trkpt>
      <trkpt lat="47.49991" lon="6.75834">
        <ele>378</ele>
        <time>2016-11-02T14:06:45.000Z</time>
      </trkpt>
      <trkpt lat="47.49987" lon="6.75825">
        <ele>376</ele>
        <time>2016-11-02T14:06:46.000Z</time>
      </trkpt>
      <trkpt lat="47.49983" lon="6.75815">
        <ele>376</ele>
        <time>2016-11-02T14:06:47.000Z</time>
      </trkpt>
      <trkpt lat="47.49978" lon="6.75804">
        <ele>375</ele>
        <time>2016-11-02T14:06:48.000Z</time>
      </trkpt>
      <trkpt lat="47.49975" lon="6.75795">
        <ele>375</ele>
        <time>2016-11-02T14:06:49.000Z</time>
      </trkpt>
      <trkpt lat="47.49969" lon="6.75788">
        <ele>374</ele>
        <time>2016-11-02T14:06:50.000Z</time>
      </trkpt>
      <trkpt lat="47.49963" lon="6.75783">
        <ele>374</ele>
        <time>2016-11-02T14:06:51.000Z</time>
      </trkpt>
      <trkpt lat="47.49957" lon="6.75774">
        <ele>374</ele>
        <time>2016-11-02T14:06:52.000Z</time>
      </trkpt>
      <trkpt lat="47.49951" lon="6.75766">
        <ele>373</ele>
        <time>2016-11-02T14:06:53.000Z</time>
      </trkpt>
      <trkpt lat="47.49943" lon="6.75758">
        <ele>372</ele>
        <time>2016-11-02T14:06:54.000Z</time>
      </trkpt>
      <trkpt lat="47.49936" lon="6.75748">
        <ele>370</ele>
        <time>2016-11-02T14:06:55.000Z</time>
      </trkpt>
      <trkpt lat="47.49929" lon="6.75742">
        <ele>370</ele>
        <time>2016-11-02T14:06:56.000Z</time>
      </trkpt>
      <trkpt lat="47.49922" lon="6.75736">
        <ele>370</ele>
        <time>2016-11-02T14:06:57.000Z</time>
      </trkpt>
      <trkpt lat="47.49915" lon="6.75729">
        <ele>366</ele>
        <time>2016-11-02T14:06:58.000Z</time>
      </trkpt>
      <trkpt lat="47.49909" lon="6.75723">
        <ele>365</ele>
        <time>2016-11-02T14:06:59.000Z</time>
      </trkpt>
      <trkpt lat="47.49902" lon="6.75723">
        <ele>365</ele>
        <time>2016-11-02T14:07:00.000Z</time>
      </trkpt>
      <trkpt lat="47.49896" lon="6.75723">
        <ele>364</ele>
        <time>2016-11-02T14:07:01.000Z</time>
      </trkpt>
      <trkpt lat="47.49889" lon="6.75724">
        <ele>364</ele>
        <time>2016-11-02T14:07:02.000Z</time>
      </trkpt>
      <trkpt lat="47.49882" lon="6.75723">
        <ele>363</ele>
        <time>2016-11-02T14:07:03.000Z</time>
      </trkpt>
      <trkpt lat="47.49872" lon="6.75726">
        <ele>363</ele>
        <time>2016-11-02T14:07:04.000Z</time>
      </trkpt>
      <trkpt lat="47.49862" lon="6.7573">
        <ele>362</ele>
        <time>2016-11-02T14:07:05.000Z</time>
      </trkpt>
      <trkpt lat="47.49852" lon="6.75732">
        <ele>361</ele>
        <time>2016-11-02T14:07:06.000Z</time>
      </trkpt>
      <trkpt lat="47.49843" lon="6.75733">
        <ele>361</ele>
        <time>2016-11-02T14:07:07.000Z</time>
      </trkpt>
      <trkpt lat="47.49833" lon="6.75736">
        <ele>356</ele>
        <time>2016-11-02T14:07:08.000Z</time>
      </trkpt>
      <trkpt lat="47.49823" lon="6.75741">
        <ele>356</ele>
        <time>2016-11-02T14:07:09.000Z</time>
      </trkpt>
      <trkpt lat="47.49814" lon="6.75742">
        <ele>354</ele>
        <time>2016-11-02T14:07:10.000Z</time>
      </trkpt>
      <trkpt lat="47.49804" lon="6.75745">
        <ele>353</ele>
        <time>2016-11-02T14:07:11.000Z</time>
      </trkpt>
      <trkpt lat="47.49795" lon="6.75747">
        <ele>352</ele>
        <time>2016-11-02T14:07:12.000Z</time>
      </trkpt>
      <trkpt lat="47.49787" lon="6.7575">
        <ele>358</ele>
        <time>2016-11-02T14:07:13.000Z</time>
      </trkpt>
      <trkpt lat="47.49779" lon="6.75754">
        <ele>358</ele>
        <time>2016-11-02T14:07:14.000Z</time>
      </trkpt>
      <trkpt lat="47.49768" lon="6.75758">
        <ele>356</ele>
        <time>2016-11-02T14:07:15.000Z</time>
      </trkpt>
      <trkpt lat="47.49758" lon="6.75761">
        <ele>355</ele>
        <time>2016-11-02T14:07:16.000Z</time>
      </trkpt>
      <trkpt lat="47.49749" lon="6.75764">
        <ele>353</ele>
        <time>2016-11-02T14:07:17.000Z</time>
      </trkpt>
      <trkpt lat="47.49741" lon="6.75766">
        <ele>353</ele>
        <time>2016-11-02T14:07:18.000Z</time>
      </trkpt>
      <trkpt lat="47.49732" lon="6.75771">
        <ele>354</ele>
        <time>2016-11-02T14:07:19.000Z</time>
      </trkpt>
      <trkpt lat="47.49723" lon="6.75773">
        <ele>354</ele>
        <time>2016-11-02T14:07:20.000Z</time>
      </trkpt>
      <trkpt lat="47.49715" lon="6.75776">
        <ele>354</ele>
        <time>2016-11-02T14:07:21.000Z</time>
      </trkpt>
      <trkpt lat="47.49709" lon="6.75778">
        <ele>354</ele>
        <time>2016-11-02T14:07:22.000Z</time>
      </trkpt>
      <trkpt lat="47.49701" lon="6.7578">
        <ele>353</ele>
        <time>2016-11-02T14:07:23.000Z</time>
      </trkpt>
      <trkpt lat="47.49695" lon="6.75782">
        <ele>353</ele>
        <time>2016-11-02T14:07:24.000Z</time>
      </trkpt>
      <trkpt lat="47.49688" lon="6.75784">
        <ele>353</ele>
        <time>2016-11-02T14:07:25.000Z</time>
      </trkpt>
      <trkpt lat="47.49681" lon="6.75785">
        <ele>353</ele>
        <time>2016-11-02T14:07:26.000Z</time>
      </trkpt>
      <trkpt lat="47.49674" lon="6.75785">
        <ele>353</ele>
        <time>2016-11-02T14:07:27.000Z</time>
      </trkpt>
      <trkpt lat="47.49667" lon="6.75786">
        <ele>353</ele>
        <time>2016-11-02T14:07:28.000Z</time>
      </trkpt>
      <trkpt lat="47.4966" lon="6.75786">
        <ele>347</ele>
        <time>2016-11-02T14:07:29.000Z</time>
      </trkpt>
      <trkpt lat="47.49653" lon="6.75788">
        <ele>347</ele>
        <time>2016-11-02T14:07:30.000Z</time>
      </trkpt>
      <trkpt lat="47.49648" lon="6.75787">
        <ele>347</ele>
        <time>2016-11-02T14:07:31.000Z</time>
      </trkpt>
      <trkpt lat="47.49643" lon="6.75787">
        <ele>347</ele>
        <time>2016-11-02T14:07:32.000Z</time>
      </trkpt>
      <trkpt lat="47.49636" lon="6.75786">
        <ele>346</ele>
        <time>2016-11-02T14:07:33.000Z</time>
      </trkpt>
      <trkpt lat="47.4963" lon="6.75786">
        <ele>346</ele>
        <time>2016-11-02T14:07:34.000Z</time>
      </trkpt>
      <trkpt lat="47.49626" lon="6.75787">
        <ele>346</ele>
        <time>2016-11-02T14:07:35.000Z</time>
      </trkpt>
      <trkpt lat="47.49621" lon="6.75787">
        <ele>346</ele>
        <time>2016-11-02T14:07:36.000Z</time>
      </trkpt>
      <trkpt lat="47.49617" lon="6.75786">
        <ele>345</ele>
        <time>2016-11-02T14:07:37.000Z</time>
      </trkpt>
      <trkpt lat="47.49614" lon="6.75789">
        <ele>345</ele>
        <time>2016-11-02T14:07:38.000Z</time>
      </trkpt>
      <trkpt lat="47.4961" lon="6.75789">
        <ele>345</ele>
        <time>2016-11-02T14:07:39.000Z</time>
      </trkpt>
      <trkpt lat="47.49606" lon="6.75789">
        <ele>345</ele>
        <time>2016-11-02T14:07:40.000Z</time>
      </trkpt>
      <trkpt lat="47.49603" lon="6.75788">
        <ele>345</ele>
        <time>2016-11-02T14:07:41.000Z</time>
      </trkpt>
      <trkpt lat="47.49601" lon="6.75786">
        <ele>344</ele>
        <time>2016-11-02T14:07:42.000Z</time>
      </trkpt>
      <trkpt lat="47.49598" lon="6.75785">
        <ele>344</ele>
        <time>2016-11-02T14:07:43.000Z</time>
      </trkpt>
      <trkpt lat="47.49596" lon="6.75784">
        <ele>344</ele>
        <time>2016-11-02T14:07:47.000Z</time>
      </trkpt>
      <trkpt lat="47.49594" lon="6.75783">
        <ele>344</ele>
        <time>2016-11-02T14:07:48.000Z</time>
      </trkpt>
      <trkpt lat="47.49592" lon="6.75783">
        <ele>343</ele>
        <time>2016-11-02T14:07:49.000Z</time>
      </trkpt>
      <trkpt lat="47.49589" lon="6.75783">
        <ele>343</ele>
        <time>2016-11-02T14:07:50.000Z</time>
      </trkpt>
      <trkpt lat="47.49586" lon="6.75782">
        <ele>343</ele>
        <time>2016-11-02T14:07:51.000Z</time>
      </trkpt>
      <trkpt lat="47.49583" lon="6.75782">
        <ele>337</ele>
        <time>2016-11-02T14:07:52.000Z</time>
      </trkpt>
      <trkpt lat="47.49581" lon="6.75782">
        <ele>337</ele>
        <time>2016-11-02T14:07:53.000Z</time>
      </trkpt>
      <trkpt lat="47.49578" lon="6.75782">
        <ele>337</ele>
        <time>2016-11-02T14:07:54.000Z</time>
      </trkpt>
      <trkpt lat="47.49575" lon="6.75782">
        <ele>337</ele>
        <time>2016-11-02T14:07:55.000Z</time>
      </trkpt>
      <trkpt lat="47.49573" lon="6.75782">
        <ele>337</ele>
        <time>2016-11-02T14:07:56.000Z</time>
      </trkpt>
      <trkpt lat="47.49571" lon="6.75781">
        <ele>337</ele>
        <time>2016-11-02T14:07:57.000Z</time>
      </trkpt>
      <trkpt lat="47.49568" lon="6.7578">
        <ele>337</ele>
        <time>2016-11-02T14:07:58.000Z</time>
      </trkpt>
      <trkpt lat="47.49566" lon="6.75778">
        <ele>336</ele>
        <time>2016-11-02T14:07:59.000Z</time>
      </trkpt>
      <trkpt lat="47.49563" lon="6.75776">
        <ele>336</ele>
        <time>2016-11-02T14:08:00.000Z</time>
      </trkpt>
      <trkpt lat="47.49561" lon="6.75773">
        <ele>336</ele>
        <time>2016-11-02T14:08:01.000Z</time>
      </trkpt>
      <trkpt lat="47.49559" lon="6.75771">
        <ele>336</ele>
        <time>2016-11-02T14:08:02.000Z</time>
      </trkpt>
      <trkpt lat="47.49556" lon="6.75767">
        <ele>335</ele>
        <time>2016-11-02T14:08:04.000Z</time>
      </trkpt>
      <trkpt lat="47.49555" lon="6.75763">
        <ele>335</ele>
        <time>2016-11-02T14:08:05.000Z</time>
      </trkpt>
      <trkpt lat="47.49555" lon="6.75759">
        <ele>335</ele>
        <time>2016-11-02T14:08:06.000Z</time>
      </trkpt>
      <trkpt lat="47.49557" lon="6.75754">
        <ele>335</ele>
        <time>2016-11-02T14:08:07.000Z</time>
      </trkpt>
      <trkpt lat="47.4956" lon="6.75751">
        <ele>335</ele>
        <time>2016-11-02T14:08:08.000Z</time>
      </trkpt>
      <trkpt lat="47.49564" lon="6.75748">
        <ele>329</ele>
        <time>2016-11-02T14:08:09.000Z</time>
      </trkpt>
      <trkpt lat="47.49568" lon="6.75745">
        <ele>330</ele>
        <time>2016-11-02T14:08:10.000Z</time>
      </trkpt>
      <trkpt lat="47.49572" lon="6.75741">
        <ele>330</ele>
        <time>2016-11-02T14:08:11.000Z</time>
      </trkpt>
      <trkpt lat="47.49579" lon="6.75734">
        <ele>330</ele>
        <time>2016-11-02T14:08:12.000Z</time>
      </trkpt>
      <trkpt lat="47.49583" lon="6.7573">
        <ele>329</ele>
        <time>2016-11-02T14:08:13.000Z</time>
      </trkpt>
      <trkpt lat="47.49587" lon="6.75724">
        <ele>332</ele>
        <time>2016-11-02T14:08:14.000Z</time>
      </trkpt>
      <trkpt lat="47.49591" lon="6.75718">
        <ele>331</ele>
        <time>2016-11-02T14:08:15.000Z</time>
      </trkpt>
      <trkpt lat="47.49594" lon="6.75712">
        <ele>331</ele>
        <time>2016-11-02T14:08:16.000Z</time>
      </trkpt>
      <trkpt lat="47.49596" lon="6.75706">
        <ele>330</ele>
        <time>2016-11-02T14:08:17.000Z</time>
      </trkpt>
      <trkpt lat="47.49596" lon="6.75698">
        <ele>329</ele>
        <time>2016-11-02T14:08:18.000Z</time>
      </trkpt>
      <trkpt lat="47.49595" lon="6.75691">
        <ele>328</ele>
        <time>2016-11-02T14:08:19.000Z</time>
      </trkpt>
      <trkpt lat="47.49592" lon="6.75685">
        <ele>327</ele>
        <time>2016-11-02T14:08:20.000Z</time>
      </trkpt>
      <trkpt lat="47.49587" lon="6.7568">
        <ele>325</ele>
        <time>2016-11-02T14:08:21.000Z</time>
      </trkpt>
      <trkpt lat="47.49582" lon="6.75673">
        <ele>322</ele>
        <time>2016-11-02T14:08:22.000Z</time>
      </trkpt>
      <trkpt lat="47.49577" lon="6.75669">
        <ele>322</ele>
        <time>2016-11-02T14:08:23.000Z</time>
      </trkpt>
      <trkpt lat="47.49571" lon="6.7567">
        <ele>323</ele>
        <time>2016-11-02T14:08:24.000Z</time>
      </trkpt>
      <trkpt lat="47.49567" lon="6.75675">
        <ele>323</ele>
        <time>2016-11-02T14:08:25.000Z</time>
      </trkpt>
      <trkpt lat="47.49562" lon="6.7568">
        <ele>324</ele>
        <time>2016-11-02T14:08:26.000Z</time>
      </trkpt>
      <trkpt lat="47.49558" lon="6.75686">
        <ele>324</ele>
        <time>2016-11-02T14:08:27.000Z</time>
      </trkpt>
      <trkpt lat="47.49554" lon="6.75692">
        <ele>324</ele>
        <time>2016-11-02T14:08:28.000Z</time>
      </trkpt>
      <trkpt lat="47.4955" lon="6.75698">
        <ele>325</ele>
        <time>2016-11-02T14:08:29.000Z</time>
      </trkpt>
      <trkpt lat="47.49546" lon="6.75704">
        <ele>325</ele>
        <time>2016-11-02T14:08:30.000Z</time>
      </trkpt>
      <trkpt lat="47.49542" lon="6.75709">
        <ele>325</ele>
        <time>2016-11-02T14:08:31.000Z</time>
      </trkpt>
      <trkpt lat="47.49538" lon="6.75715">
        <ele>325</ele>
        <time>2016-11-02T14:08:32.000Z</time>
      </trkpt>
      <trkpt lat="47.49532" lon="6.75719">
        <ele>325</ele>
        <time>2016-11-02T14:08:33.000Z</time>
      </trkpt>
      <trkpt lat="47.49528" lon="6.75724">
        <ele>325</ele>
        <time>2016-11-02T14:08:34.000Z</time>
      </trkpt>
      <trkpt lat="47.49522" lon="6.75728">
        <ele>325</ele>
        <time>2016-11-02T14:08:35.000Z</time>
      </trkpt>
      <trkpt lat="47.49517" lon="6.75732">
        <ele>325</ele>
        <time>2016-11-02T14:08:36.000Z</time>
      </trkpt>
      <trkpt lat="47.49512" lon="6.75735">
        <ele>325</ele>
        <time>2016-11-02T14:08:37.000Z</time>
      </trkpt>
      <trkpt lat="47.49507" lon="6.75738">
        <ele>325</ele>
        <time>2016-11-02T14:08:38.000Z</time>
      </trkpt>
      <trkpt lat="47.49501" lon="6.7574">
        <ele>324</ele>
        <time>2016-11-02T14:08:39.000Z</time>
      </trkpt>
      <trkpt lat="47.49496" lon="6.75743">
        <ele>323</ele>
        <time>2016-11-02T14:08:40.000Z</time>
      </trkpt>
      <trkpt lat="47.49491" lon="6.75744">
        <ele>323</ele>
        <time>2016-11-02T14:08:41.000Z</time>
      </trkpt>
      <trkpt lat="47.49485" lon="6.75743">
        <ele>323</ele>
        <time>2016-11-02T14:08:42.000Z</time>
      </trkpt>
      <trkpt lat="47.49481" lon="6.75739">
        <ele>322</ele>
        <time>2016-11-02T14:08:43.000Z</time>
      </trkpt>
      <trkpt lat="47.49478" lon="6.75734">
        <ele>322</ele>
        <time>2016-11-02T14:08:44.000Z</time>
      </trkpt>
      <trkpt lat="47.49475" lon="6.75728">
        <ele>322</ele>
        <time>2016-11-02T14:08:45.000Z</time>
      </trkpt>
      <trkpt lat="47.49473" lon="6.75721">
        <ele>321</ele>
        <time>2016-11-02T14:08:46.000Z</time>
      </trkpt>
      <trkpt lat="47.49471" lon="6.75714">
        <ele>321</ele>
        <time>2016-11-02T14:08:47.000Z</time>
      </trkpt>
      <trkpt lat="47.4947" lon="6.75708">
        <ele>321</ele>
        <time>2016-11-02T14:08:48.000Z</time>
      </trkpt>
      <trkpt lat="47.49468" lon="6.75703">
        <ele>321</ele>
        <time>2016-11-02T14:08:49.000Z</time>
      </trkpt>
      <trkpt lat="47.49465" lon="6.75698">
        <ele>321</ele>
        <time>2016-11-02T14:08:50.000Z</time>
      </trkpt>
      <trkpt lat="47.49461" lon="6.75694">
        <ele>321</ele>
        <time>2016-11-02T14:08:51.000Z</time>
      </trkpt>
      <trkpt lat="47.49457" lon="6.75695">
        <ele>321</ele>
        <time>2016-11-02T14:08:52.000Z</time>
      </trkpt>
      <trkpt lat="47.49453" lon="6.75699">
        <ele>321</ele>
        <time>2016-11-02T14:08:53.000Z</time>
      </trkpt>
      <trkpt lat="47.49449" lon="6.75702">
        <ele>321</ele>
        <time>2016-11-02T14:08:54.000Z</time>
      </trkpt>
      <trkpt lat="47.49445" lon="6.757">
        <ele>321</ele>
        <time>2016-11-02T14:08:55.000Z</time>
      </trkpt>
      <trkpt lat="47.49441" lon="6.75695">
        <ele>321</ele>
        <time>2016-11-02T14:08:56.000Z</time>
      </trkpt>
      <trkpt lat="47.4944" lon="6.75689">
        <ele>320</ele>
        <time>2016-11-02T14:08:57.000Z</time>
      </trkpt>
      <trkpt lat="47.49438" lon="6.75682">
        <ele>320</ele>
        <time>2016-11-02T14:08:58.000Z</time>
      </trkpt>
      <trkpt lat="47.49435" lon="6.75676">
        <ele>320</ele>
        <time>2016-11-02T14:08:59.000Z</time>
      </trkpt>
      <trkpt lat="47.49434" lon="6.7567">
        <ele>320</ele>
        <time>2016-11-02T14:09:00.000Z</time>
      </trkpt>
      <trkpt lat="47.49432" lon="6.75665">
        <ele>320</ele>
        <time>2016-11-02T14:09:01.000Z</time>
      </trkpt>
      <trkpt lat="47.49427" lon="6.75668">
        <ele>320</ele>
        <time>2016-11-02T14:09:02.000Z</time>
      </trkpt>
      <trkpt lat="47.49423" lon="6.75672">
        <ele>320</ele>
        <time>2016-11-02T14:09:03.000Z</time>
      </trkpt>
      <trkpt lat="47.49419" lon="6.75676">
        <ele>320</ele>
        <time>2016-11-02T14:09:04.000Z</time>
      </trkpt>
      <trkpt lat="47.49415" lon="6.75679">
        <ele>319</ele>
        <time>2016-11-02T14:09:05.000Z</time>
      </trkpt>
      <trkpt lat="47.4941" lon="6.75682">
        <ele>319</ele>
        <time>2016-11-02T14:09:06.000Z</time>
      </trkpt>
      <trkpt lat="47.49406" lon="6.75685">
        <ele>319</ele>
        <time>2016-11-02T14:09:07.000Z</time>
      </trkpt>
      <trkpt lat="47.49401" lon="6.75688">
        <ele>319</ele>
        <time>2016-11-02T14:09:08.000Z</time>
      </trkpt>
      <trkpt lat="47.49397" lon="6.75692">
        <ele>319</ele>
        <time>2016-11-02T14:09:09.000Z</time>
      </trkpt>
      <trkpt lat="47.49393" lon="6.75695">
        <ele>319</ele>
        <time>2016-11-02T14:09:10.000Z</time>
      </trkpt>
      <trkpt lat="47.49388" lon="6.75699">
        <ele>319</ele>
        <time>2016-11-02T14:09:11.000Z</time>
      </trkpt>
      <trkpt lat="47.49384" lon="6.75702">
        <ele>319</ele>
        <time>2016-11-02T14:09:12.000Z</time>
      </trkpt>
      <trkpt lat="47.4938" lon="6.75706">
        <ele>319</ele>
        <time>2016-11-02T14:09:13.000Z</time>
      </trkpt>
      <trkpt lat="47.49375" lon="6.75709">
        <ele>319</ele>
        <time>2016-11-02T14:09:14.000Z</time>
      </trkpt>
      <trkpt lat="47.49371" lon="6.75712">
        <ele>319</ele>
        <time>2016-11-02T14:09:15.000Z</time>
      </trkpt>
      <trkpt lat="47.49367" lon="6.75714">
        <ele>319</ele>
        <time>2016-11-02T14:09:16.000Z</time>
      </trkpt>
      <trkpt lat="47.49364" lon="6.75717">
        <ele>319</ele>
        <time>2016-11-02T14:09:17.000Z</time>
      </trkpt>
      <trkpt lat="47.49362" lon="6.75719">
        <ele>319</ele>
        <time>2016-11-02T14:09:18.000Z</time>
      </trkpt>
      <trkpt lat="47.4936" lon="6.75721">
        <ele>319</ele>
        <time>2016-11-02T14:09:19.000Z</time>
      </trkpt>
      <trkpt lat="47.49358" lon="6.75723">
        <ele>319</ele>
        <time>2016-11-02T14:09:20.000Z</time>
      </trkpt>
      <trkpt lat="47.49355" lon="6.75725">
        <ele>319</ele>
        <time>2016-11-02T14:09:21.000Z</time>
      </trkpt>
      <trkpt lat="47.49348" lon="6.75727">
        <ele>318</ele>
        <time>2016-11-02T14:09:22.000Z</time>
      </trkpt>
      <trkpt lat="47.49343" lon="6.75729">
        <ele>318</ele>
        <time>2016-11-02T14:09:23.000Z</time>
      </trkpt>
      <trkpt lat="47.49338" lon="6.75732">
        <ele>318</ele>
        <time>2016-11-02T14:09:24.000Z</time>
      </trkpt>
      <trkpt lat="47.49333" lon="6.75736">
        <ele>319</ele>
        <time>2016-11-02T14:09:25.000Z</time>
      </trkpt>
      <trkpt lat="47.49328" lon="6.75741">
        <ele>318</ele>
        <time>2016-11-02T14:09:26.000Z</time>
      </trkpt>
      <trkpt lat="47.49322" lon="6.75745">
        <ele>319</ele>
        <time>2016-11-02T14:09:27.000Z</time>
      </trkpt>
      <trkpt lat="47.49317" lon="6.75749">
        <ele>319</ele>
        <time>2016-11-02T14:09:28.000Z</time>
      </trkpt>
      <trkpt lat="47.49313" lon="6.75751">
        <ele>318</ele>
        <time>2016-11-02T14:09:29.000Z</time>
      </trkpt>
      <trkpt lat="47.49308" lon="6.75753">
        <ele>318</ele>
        <time>2016-11-02T14:09:30.000Z</time>
      </trkpt>
      <trkpt lat="47.49303" lon="6.75756">
        <ele>318</ele>
        <time>2016-11-02T14:09:31.000Z</time>
      </trkpt>
      <trkpt lat="47.49299" lon="6.75767">
        <ele>318</ele>
        <time>2016-11-02T14:09:32.000Z</time>
      </trkpt>
      <trkpt lat="47.49295" lon="6.75772">
        <ele>318</ele>
        <time>2016-11-02T14:09:33.000Z</time>
      </trkpt>
      <trkpt lat="47.4929" lon="6.75778">
        <ele>318</ele>
        <time>2016-11-02T14:09:34.000Z</time>
      </trkpt>
      <trkpt lat="47.49286" lon="6.75784">
        <ele>318</ele>
        <time>2016-11-02T14:09:35.000Z</time>
      </trkpt>
      <trkpt lat="47.49281" lon="6.7579">
        <ele>318</ele>
        <time>2016-11-02T14:09:36.000Z</time>
      </trkpt>
      <trkpt lat="47.49278" lon="6.75796">
        <ele>318</ele>
        <time>2016-11-02T14:09:37.000Z</time>
      </trkpt>
      <trkpt lat="47.49274" lon="6.75803">
        <ele>317</ele>
        <time>2016-11-02T14:09:38.000Z</time>
      </trkpt>
      <trkpt lat="47.4927" lon="6.75809">
        <ele>317</ele>
        <time>2016-11-02T14:09:39.000Z</time>
      </trkpt>
      <trkpt lat="47.49266" lon="6.75818">
        <ele>316</ele>
        <time>2016-11-02T14:09:40.000Z</time>
      </trkpt>
      <trkpt lat="47.49262" lon="6.75825">
        <ele>315</ele>
        <time>2016-11-02T14:09:41.000Z</time>
      </trkpt>
      <trkpt lat="47.49258" lon="6.75831">
        <ele>315</ele>
        <time>2016-11-02T14:09:42.000Z</time>
      </trkpt>
      <trkpt lat="47.49255" lon="6.75839">
        <ele>315</ele>
        <time>2016-11-02T14:09:43.000Z</time>
      </trkpt>
      <trkpt lat="47.49252" lon="6.75846">
        <ele>316</ele>
        <time>2016-11-02T14:09:44.000Z</time>
      </trkpt>
      <trkpt lat="47.49248" lon="6.75853">
        <ele>316</ele>
        <time>2016-11-02T14:09:45.000Z</time>
      </trkpt>
      <trkpt lat="47.49245" lon="6.7586">
        <ele>317</ele>
        <time>2016-11-02T14:09:46.000Z</time>
      </trkpt>
      <trkpt lat="47.49241" lon="6.75867">
        <ele>318</ele>
        <time>2016-11-02T14:09:47.000Z</time>
      </trkpt>
      <trkpt lat="47.49238" lon="6.75874">
        <ele>318</ele>
        <time>2016-11-02T14:09:48.000Z</time>
      </trkpt>
      <trkpt lat="47.49235" lon="6.7588">
        <ele>318</ele>
        <time>2016-11-02T14:09:49.000Z</time>
      </trkpt>
      <trkpt lat="47.49232" lon="6.75887">
        <ele>318</ele>
        <time>2016-11-02T14:09:50.000Z</time>
      </trkpt>
      <trkpt lat="47.49228" lon="6.75894">
        <ele>318</ele>
        <time>2016-11-02T14:09:51.000Z</time>
      </trkpt>
      <trkpt lat="47.49225" lon="6.75899">
        <ele>318</ele>
        <time>2016-11-02T14:09:52.000Z</time>
      </trkpt>
      <trkpt lat="47.49221" lon="6.75903">
        <ele>319</ele>
        <time>2016-11-02T14:09:53.000Z</time>
      </trkpt>
      <trkpt lat="47.49218" lon="6.7591">
        <ele>319</ele>
        <time>2016-11-02T14:09:54.000Z</time>
      </trkpt>
      <trkpt lat="47.49214" lon="6.75916">
        <ele>319</ele>
        <time>2016-11-02T14:09:55.000Z</time>
      </trkpt>
      <trkpt lat="47.49211" lon="6.75922">
        <ele>320</ele>
        <time>2016-11-02T14:09:56.000Z</time>
      </trkpt>
      <trkpt lat="47.4921" lon="6.75926">
        <ele>320</ele>
        <time>2016-11-02T14:09:57.000Z</time>
      </trkpt>
      <trkpt lat="47.49208" lon="6.75934">
        <ele>320</ele>
        <time>2016-11-02T14:09:58.000Z</time>
      </trkpt>
      <trkpt lat="47.49207" lon="6.75941">
        <ele>320</ele>
        <time>2016-11-02T14:09:59.000Z</time>
      </trkpt>
      <trkpt lat="47.49203" lon="6.75947">
        <ele>320</ele>
        <time>2016-11-02T14:10:00.000Z</time>
      </trkpt>
      <trkpt lat="47.49199" lon="6.75954">
        <ele>320</ele>
        <time>2016-11-02T14:10:01.000Z</time>
      </trkpt>
      <trkpt lat="47.49196" lon="6.75962">
        <ele>320</ele>
        <time>2016-11-02T14:10:02.000Z</time>
      </trkpt>
      <trkpt lat="47.49193" lon="6.75967">
        <ele>320</ele>
        <time>2016-11-02T14:10:03.000Z</time>
      </trkpt>
      <trkpt lat="47.4919" lon="6.75974">
        <ele>320</ele>
        <time>2016-11-02T14:10:04.000Z</time>
      </trkpt>
      <trkpt lat="47.49186" lon="6.75982">
        <ele>320</ele>
        <time>2016-11-02T14:10:05.000Z</time>
      </trkpt>
      <trkpt lat="47.49183" lon="6.7599">
        <ele>320</ele>
        <time>2016-11-02T14:10:06.000Z</time>
      </trkpt>
      <trkpt lat="47.4918" lon="6.76">
        <ele>320</ele>
        <time>2016-11-02T14:10:07.000Z</time>
      </trkpt>
      <trkpt lat="47.49177" lon="6.76006">
        <ele>320</ele>
        <time>2016-11-02T14:10:08.000Z</time>
      </trkpt>
      <trkpt lat="47.49175" lon="6.76013">
        <ele>320</ele>
        <time>2016-11-02T14:10:09.000Z</time>
      </trkpt>
      <trkpt lat="47.49173" lon="6.7602">
        <ele>320</ele>
        <time>2016-11-02T14:10:10.000Z</time>
      </trkpt>
      <trkpt lat="47.49169" lon="6.76027">
        <ele>320</ele>
        <time>2016-11-02T14:10:11.000Z</time>
      </trkpt>
      <trkpt lat="47.49166" lon="6.76035">
        <ele>322</ele>
        <time>2016-11-02T14:10:12.000Z</time>
      </trkpt>
      <trkpt lat="47.49164" lon="6.76042">
        <ele>322</ele>
        <time>2016-11-02T14:10:13.000Z</time>
      </trkpt>
      <trkpt lat="47.49162" lon="6.76049">
        <ele>322</ele>
        <time>2016-11-02T14:10:14.000Z</time>
      </trkpt>
      <trkpt lat="47.4916" lon="6.76056">
        <ele>322</ele>
        <time>2016-11-02T14:10:15.000Z</time>
      </trkpt>
      <trkpt lat="47.49158" lon="6.76063">
        <ele>322</ele>
        <time>2016-11-02T14:10:16.000Z</time>
      </trkpt>
      <trkpt lat="47.49156" lon="6.7607">
        <ele>321</ele>
        <time>2016-11-02T14:10:17.000Z</time>
      </trkpt>
      <trkpt lat="47.49154" lon="6.76077">
        <ele>321</ele>
        <time>2016-11-02T14:10:18.000Z</time>
      </trkpt>
      <trkpt lat="47.49152" lon="6.76085">
        <ele>320</ele>
        <time>2016-11-02T14:10:19.000Z</time>
      </trkpt>
      <trkpt lat="47.4915" lon="6.76092">
        <ele>320</ele>
        <time>2016-11-02T14:10:20.000Z</time>
      </trkpt>
      <trkpt lat="47.49148" lon="6.761">
        <ele>321</ele>
        <time>2016-11-02T14:10:21.000Z</time>
      </trkpt>
      <trkpt lat="47.49146" lon="6.76108">
        <ele>321</ele>
        <time>2016-11-02T14:10:22.000Z</time>
      </trkpt>
      <trkpt lat="47.49144" lon="6.76116">
        <ele>321</ele>
        <time>2016-11-02T14:10:23.000Z</time>
      </trkpt>
      <trkpt lat="47.49143" lon="6.76125">
        <ele>321</ele>
        <time>2016-11-02T14:10:24.000Z</time>
      </trkpt>
      <trkpt lat="47.49142" lon="6.76133">
        <ele>321</ele>
        <time>2016-11-02T14:10:25.000Z</time>
      </trkpt>
      <trkpt lat="47.49141" lon="6.76141">
        <ele>321</ele>
        <time>2016-11-02T14:10:26.000Z</time>
      </trkpt>
      <trkpt lat="47.49139" lon="6.76149">
        <ele>321</ele>
        <time>2016-11-02T14:10:27.000Z</time>
      </trkpt>
      <trkpt lat="47.49135" lon="6.76156">
        <ele>322</ele>
        <time>2016-11-02T14:10:28.000Z</time>
      </trkpt>
      <trkpt lat="47.49133" lon="6.76163">
        <ele>322</ele>
        <time>2016-11-02T14:10:29.000Z</time>
      </trkpt>
      <trkpt lat="47.49133" lon="6.76172">
        <ele>321</ele>
        <time>2016-11-02T14:10:30.000Z</time>
      </trkpt>
      <trkpt lat="47.49131" lon="6.7618">
        <ele>321</ele>
        <time>2016-11-02T14:10:31.000Z</time>
      </trkpt>
      <trkpt lat="47.4913" lon="6.76187">
        <ele>321</ele>
        <time>2016-11-02T14:10:32.000Z</time>
      </trkpt>
      <trkpt lat="47.4913" lon="6.76196">
        <ele>321</ele>
        <time>2016-11-02T14:10:33.000Z</time>
      </trkpt>
      <trkpt lat="47.4913" lon="6.76204">
        <ele>321</ele>
        <time>2016-11-02T14:10:34.000Z</time>
      </trkpt>
      <trkpt lat="47.4913" lon="6.76212">
        <ele>321</ele>
        <time>2016-11-02T14:10:35.000Z</time>
      </trkpt>
      <trkpt lat="47.4913" lon="6.76221">
        <ele>321</ele>
        <time>2016-11-02T14:10:36.000Z</time>
      </trkpt>
      <trkpt lat="47.49131" lon="6.76229">
        <ele>321</ele>
        <time>2016-11-02T14:10:37.000Z</time>
      </trkpt>
      <trkpt lat="47.4913" lon="6.76237">
        <ele>320</ele>
        <time>2016-11-02T14:10:38.000Z</time>
      </trkpt>
      <trkpt lat="47.4913" lon="6.76245">
        <ele>320</ele>
        <time>2016-11-02T14:10:39.000Z</time>
      </trkpt>
      <trkpt lat="47.4913" lon="6.76253">
        <ele>320</ele>
        <time>2016-11-02T14:10:40.000Z</time>
      </trkpt>
      <trkpt lat="47.49131" lon="6.7626">
        <ele>319</ele>
        <time>2016-11-02T14:10:41.000Z</time>
      </trkpt>
      <trkpt lat="47.49131" lon="6.76268">
        <ele>319</ele>
        <time>2016-11-02T14:10:42.000Z</time>
      </trkpt>
      <trkpt lat="47.49131" lon="6.76275">
        <ele>319</ele>
        <time>2016-11-02T14:10:43.000Z</time>
      </trkpt>
      <trkpt lat="47.4913" lon="6.76284">
        <ele>319</ele>
        <time>2016-11-02T14:10:44.000Z</time>
      </trkpt>
      <trkpt lat="47.4913" lon="6.76292">
        <ele>319</ele>
        <time>2016-11-02T14:10:45.000Z</time>
      </trkpt>
      <trkpt lat="47.4913" lon="6.76301">
        <ele>319</ele>
        <time>2016-11-02T14:10:46.000Z</time>
      </trkpt>
      <trkpt lat="47.4913" lon="6.7631">
        <ele>319</ele>
        <time>2016-11-02T14:10:47.000Z</time>
      </trkpt>
      <trkpt lat="47.49128" lon="6.7632">
        <ele>319</ele>
        <time>2016-11-02T14:10:48.000Z</time>
      </trkpt>
      <trkpt lat="47.49128" lon="6.76328">
        <ele>319</ele>
        <time>2016-11-02T14:10:49.000Z</time>
      </trkpt>
      <trkpt lat="47.49128" lon="6.76336">
        <ele>318</ele>
        <time>2016-11-02T14:10:50.000Z</time>
      </trkpt>
      <trkpt lat="47.49127" lon="6.76345">
        <ele>318</ele>
        <time>2016-11-02T14:10:51.000Z</time>
      </trkpt>
      <trkpt lat="47.49126" lon="6.76354">
        <ele>318</ele>
        <time>2016-11-02T14:10:52.000Z</time>
      </trkpt>
      <trkpt lat="47.49126" lon="6.76361">
        <ele>318</ele>
        <time>2016-11-02T14:10:53.000Z</time>
      </trkpt>
      <trkpt lat="47.49126" lon="6.76369">
        <ele>318</ele>
        <time>2016-11-02T14:10:54.000Z</time>
      </trkpt>
      <trkpt lat="47.49127" lon="6.76377">
        <ele>318</ele>
        <time>2016-11-02T14:10:55.000Z</time>
      </trkpt>
      <trkpt lat="47.49126" lon="6.76385">
        <ele>318</ele>
        <time>2016-11-02T14:10:56.000Z</time>
      </trkpt>
      <trkpt lat="47.49126" lon="6.76392">
        <ele>318</ele>
        <time>2016-11-02T14:10:57.000Z</time>
      </trkpt>
      <trkpt lat="47.49126" lon="6.76399">
        <ele>317</ele>
        <time>2016-11-02T14:10:58.000Z</time>
      </trkpt>
      <trkpt lat="47.49126" lon="6.76406">
        <ele>317</ele>
        <time>2016-11-02T14:10:59.000Z</time>
      </trkpt>
      <trkpt lat="47.49127" lon="6.76413">
        <ele>317</ele>
        <time>2016-11-02T14:11:00.000Z</time>
      </trkpt>
      <trkpt lat="47.49128" lon="6.76418">
        <ele>317</ele>
        <time>2016-11-02T14:11:01.000Z</time>
      </trkpt>
      <trkpt lat="47.49128" lon="6.76423">
        <ele>317</ele>
        <time>2016-11-02T14:11:02.000Z</time>
      </trkpt>
      <trkpt lat="47.49126" lon="6.76428">
        <ele>317</ele>
        <time>2016-11-02T14:11:03.000Z</time>
      </trkpt>
      <trkpt lat="47.49122" lon="6.76429">
        <ele>317</ele>
        <time>2016-11-02T14:11:04.000Z</time>
      </trkpt>
      <trkpt lat="47.49119" lon="6.76429">
        <ele>317</ele>
        <time>2016-11-02T14:11:05.000Z</time>
      </trkpt>
      <trkpt lat="47.49115" lon="6.76429">
        <ele>318</ele>
        <time>2016-11-02T14:11:06.000Z</time>
      </trkpt>
      <trkpt lat="47.49111" lon="6.7643">
        <ele>318</ele>
        <time>2016-11-02T14:11:07.000Z</time>
      </trkpt>
      <trkpt lat="47.49106" lon="6.7643">
        <ele>318</ele>
        <time>2016-11-02T14:11:08.000Z</time>
      </trkpt>
      <trkpt lat="47.49103" lon="6.76431">
        <ele>318</ele>
        <time>2016-11-02T14:11:09.000Z</time>
      </trkpt>
      <trkpt lat="47.491" lon="6.76432">
        <ele>319</ele>
        <time>2016-11-02T14:11:10.000Z</time>
      </trkpt>
      <trkpt lat="47.49099" lon="6.76435">
        <ele>319</ele>
        <time>2016-11-02T14:11:11.000Z</time>
      </trkpt>
      <trkpt lat="47.49098" lon="6.7644">
        <ele>318</ele>
        <time>2016-11-02T14:11:12.000Z</time>
      </trkpt>
      <trkpt lat="47.49101" lon="6.76453">
        <ele>318</ele>
        <time>2016-11-02T14:11:13.000Z</time>
      </trkpt>
      <trkpt lat="47.49102" lon="6.7646">
        <ele>318</ele>
        <time>2016-11-02T14:11:14.000Z</time>
      </trkpt>
      <trkpt lat="47.49102" lon="6.76467">
        <ele>318</ele>
        <time>2016-11-02T14:11:15.000Z</time>
      </trkpt>
      <trkpt lat="47.49102" lon="6.76473">
        <ele>318</ele>
        <time>2016-11-02T14:11:16.000Z</time>
      </trkpt>
      <trkpt lat="47.49102" lon="6.76481">
        <ele>318</ele>
        <time>2016-11-02T14:11:17.000Z</time>
      </trkpt>
      <trkpt lat="47.49102" lon="6.76488">
        <ele>319</ele>
        <time>2016-11-02T14:11:18.000Z</time>
      </trkpt>
      <trkpt lat="47.49101" lon="6.76497">
        <ele>319</ele>
        <time>2016-11-02T14:11:19.000Z</time>
      </trkpt>
      <trkpt lat="47.49101" lon="6.76504">
        <ele>318</ele>
        <time>2016-11-02T14:11:20.000Z</time>
      </trkpt>
      <trkpt lat="47.49101" lon="6.76511">
        <ele>318</ele>
        <time>2016-11-02T14:11:21.000Z</time>
      </trkpt>
      <trkpt lat="47.49101" lon="6.76518">
        <ele>318</ele>
        <time>2016-11-02T14:11:22.000Z</time>
      </trkpt>
      <trkpt lat="47.49102" lon="6.76527">
        <ele>317</ele>
        <time>2016-11-02T14:11:23.000Z</time>
      </trkpt>
      <trkpt lat="47.49101" lon="6.76536">
        <ele>317</ele>
        <time>2016-11-02T14:11:24.000Z</time>
      </trkpt>
      <trkpt lat="47.49101" lon="6.76545">
        <ele>317</ele>
        <time>2016-11-02T14:11:25.000Z</time>
      </trkpt>
      <trkpt lat="47.49101" lon="6.76553">
        <ele>316</ele>
        <time>2016-11-02T14:11:26.000Z</time>
      </trkpt>
      <trkpt lat="47.491" lon="6.76562">
        <ele>316</ele>
        <time>2016-11-02T14:11:27.000Z</time>
      </trkpt>
      <trkpt lat="47.49099" lon="6.76571">
        <ele>316</ele>
        <time>2016-11-02T14:11:28.000Z</time>
      </trkpt>
      <trkpt lat="47.49098" lon="6.76579">
        <ele>316</ele>
        <time>2016-11-02T14:11:29.000Z</time>
      </trkpt>
      <trkpt lat="47.49096" lon="6.76588">
        <ele>316</ele>
        <time>2016-11-02T14:11:30.000Z</time>
      </trkpt>
      <trkpt lat="47.49095" lon="6.76597">
        <ele>315</ele>
        <time>2016-11-02T14:11:31.000Z</time>
      </trkpt>
      <trkpt lat="47.49093" lon="6.76606">
        <ele>315</ele>
        <time>2016-11-02T14:11:32.000Z</time>
      </trkpt>
      <trkpt lat="47.49091" lon="6.76614">
        <ele>315</ele>
        <time>2016-11-02T14:11:33.000Z</time>
      </trkpt>
      <trkpt lat="47.49089" lon="6.76623">
        <ele>315</ele>
        <time>2016-11-02T14:11:34.000Z</time>
      </trkpt>
      <trkpt lat="47.49087" lon="6.76632">
        <ele>315</ele>
        <time>2016-11-02T14:11:35.000Z</time>
      </trkpt>
      <trkpt lat="47.49085" lon="6.76641">
        <ele>314</ele>
        <time>2016-11-02T14:11:36.000Z</time>
      </trkpt>
      <trkpt lat="47.49082" lon="6.76649">
        <ele>316</ele>
        <time>2016-11-02T14:11:37.000Z</time>
      </trkpt>
      <trkpt lat="47.4908" lon="6.76657">
        <ele>316</ele>
        <time>2016-11-02T14:11:38.000Z</time>
      </trkpt>
      <trkpt lat="47.49076" lon="6.76666">
        <ele>315</ele>
        <time>2016-11-02T14:11:39.000Z</time>
      </trkpt>
      <trkpt lat="47.49074" lon="6.76674">
        <ele>314</ele>
        <time>2016-11-02T14:11:40.000Z</time>
      </trkpt>
      <trkpt lat="47.49071" lon="6.76682">
        <ele>314</ele>
        <time>2016-11-02T14:11:41.000Z</time>
      </trkpt>
      <trkpt lat="47.49067" lon="6.7669">
        <ele>314</ele>
        <time>2016-11-02T14:11:42.000Z</time>
      </trkpt>
      <trkpt lat="47.49063" lon="6.76698">
        <ele>314</ele>
        <time>2016-11-02T14:11:43.000Z</time>
      </trkpt>
      <trkpt lat="47.49061" lon="6.76705">
        <ele>313</ele>
        <time>2016-11-02T14:11:44.000Z</time>
      </trkpt>
      <trkpt lat="47.49059" lon="6.76712">
        <ele>313</ele>
        <time>2016-11-02T14:11:45.000Z</time>
      </trkpt>
      <trkpt lat="47.49057" lon="6.76721">
        <ele>313</ele>
        <time>2016-11-02T14:11:46.000Z</time>
      </trkpt>
      <trkpt lat="47.49055" lon="6.76729">
        <ele>313</ele>
        <time>2016-11-02T14:11:47.000Z</time>
      </trkpt>
      <trkpt lat="47.49053" lon="6.76737">
        <ele>313</ele>
        <time>2016-11-02T14:11:48.000Z</time>
      </trkpt>
      <trkpt lat="47.49051" lon="6.76744">
        <ele>313</ele>
        <time>2016-11-02T14:11:49.000Z</time>
      </trkpt>
      <trkpt lat="47.49051" lon="6.76752">
        <ele>312</ele>
        <time>2016-11-02T14:11:50.000Z</time>
      </trkpt>
      <trkpt lat="47.49049" lon="6.76761">
        <ele>312</ele>
        <time>2016-11-02T14:11:51.000Z</time>
      </trkpt>
      <trkpt lat="47.49048" lon="6.76768">
        <ele>312</ele>
        <time>2016-11-02T14:11:52.000Z</time>
      </trkpt>
      <trkpt lat="47.49048" lon="6.76776">
        <ele>312</ele>
        <time>2016-11-02T14:11:53.000Z</time>
      </trkpt>
      <trkpt lat="47.49048" lon="6.76784">
        <ele>312</ele>
        <time>2016-11-02T14:11:54.000Z</time>
      </trkpt>
      <trkpt lat="47.49048" lon="6.76793">
        <ele>312</ele>
        <time>2016-11-02T14:11:55.000Z</time>
      </trkpt>
      <trkpt lat="47.49049" lon="6.76801">
        <ele>312</ele>
        <time>2016-11-02T14:11:56.000Z</time>
      </trkpt>
      <trkpt lat="47.49051" lon="6.76806">
        <ele>312</ele>
        <time>2016-11-02T14:11:57.000Z</time>
      </trkpt>
      <trkpt lat="47.49051" lon="6.76808">
        <ele>312</ele>
        <time>2016-11-02T14:11:58.000Z</time>
      </trkpt>
      <trkpt lat="47.49049" lon="6.76805">
        <ele>312</ele>
        <time>2016-11-02T14:12:06.000Z</time>
      </trkpt>
      <trkpt lat="47.49048" lon="6.76802">
        <ele>312</ele>
        <time>2016-11-02T14:12:07.000Z</time>
      </trkpt>
      <trkpt lat="47.49046" lon="6.76799">
        <ele>312</ele>
        <time>2016-11-02T14:12:08.000Z</time>
      </trkpt>
      <trkpt lat="47.49045" lon="6.76795">
        <ele>312</ele>
        <time>2016-11-02T14:12:09.000Z</time>
      </trkpt>
      <trkpt lat="47.49043" lon="6.76791">
        <ele>312</ele>
        <time>2016-11-02T14:12:10.000Z</time>
      </trkpt>
      <trkpt lat="47.49041" lon="6.76788">
        <ele>312</ele>
        <time>2016-11-02T14:12:11.000Z</time>
      </trkpt>
      <trkpt lat="47.49038" lon="6.76786">
        <ele>312</ele>
        <time>2016-11-02T14:12:12.000Z</time>
      </trkpt>
      <trkpt lat="47.49035" lon="6.76784">
        <ele>312</ele>
        <time>2016-11-02T14:12:13.000Z</time>
      </trkpt>
      <trkpt lat="47.49033" lon="6.76783">
        <ele>312</ele>
        <time>2016-11-02T14:12:14.000Z</time>
      </trkpt>
      <trkpt lat="47.4903" lon="6.76782">
        <ele>312</ele>
        <time>2016-11-02T14:12:15.000Z</time>
      </trkpt>
      <trkpt lat="47.49028" lon="6.7678">
        <ele>312</ele>
        <time>2016-11-02T14:12:16.000Z</time>
      </trkpt>
      <trkpt lat="47.49025" lon="6.76779">
        <ele>312</ele>
        <time>2016-11-02T14:12:17.000Z</time>
      </trkpt>
      <trkpt lat="47.49023" lon="6.76778">
        <ele>312</ele>
        <time>2016-11-02T14:12:18.000Z</time>
      </trkpt>
      <trkpt lat="47.4902" lon="6.76777">
        <ele>312</ele>
        <time>2016-11-02T14:12:19.000Z</time>
      </trkpt>
      <trkpt lat="47.49017" lon="6.76777">
        <ele>312</ele>
        <time>2016-11-02T14:12:20.000Z</time>
      </trkpt>
      <trkpt lat="47.49014" lon="6.76777">
        <ele>312</ele>
        <time>2016-11-02T14:12:21.000Z</time>
      </trkpt>
      <trkpt lat="47.49011" lon="6.76776">
        <ele>312</ele>
        <time>2016-11-02T14:12:22.000Z</time>
      </trkpt>
      <trkpt lat="47.49008" lon="6.76777">
        <ele>312</ele>
        <time>2016-11-02T14:12:23.000Z</time>
      </trkpt>
      <trkpt lat="47.49006" lon="6.76779">
        <ele>312</ele>
        <time>2016-11-02T14:12:24.000Z</time>
      </trkpt>
      <trkpt lat="47.49005" lon="6.76783">
        <ele>312</ele>
        <time>2016-11-02T14:12:25.000Z</time>
      </trkpt>
      <trkpt lat="47.49003" lon="6.76787">
        <ele>312</ele>
        <time>2016-11-02T14:12:26.000Z</time>
      </trkpt>
      <trkpt lat="47.49003" lon="6.76792">
        <ele>312</ele>
        <time>2016-11-02T14:12:27.000Z</time>
      </trkpt>
      <trkpt lat="47.49002" lon="6.76797">
        <ele>312</ele>
        <time>2016-11-02T14:12:28.000Z</time>
      </trkpt>
      <trkpt lat="47.49002" lon="6.76802">
        <ele>312</ele>
        <time>2016-11-02T14:12:29.000Z</time>
      </trkpt>
      <trkpt lat="47.49001" lon="6.76807">
        <ele>312</ele>
        <time>2016-11-02T14:12:30.000Z</time>
      </trkpt>
      <trkpt lat="47.49001" lon="6.76812">
        <ele>312</ele>
        <time>2016-11-02T14:12:31.000Z</time>
      </trkpt>
      <trkpt lat="47.49001" lon="6.76817">
        <ele>312</ele>
        <time>2016-11-02T14:12:32.000Z</time>
      </trkpt>
      <trkpt lat="47.49001" lon="6.76821">
        <ele>312</ele>
        <time>2016-11-02T14:12:33.000Z</time>
      </trkpt>
      <trkpt lat="47.49001" lon="6.76825">
        <ele>312</ele>
        <time>2016-11-02T14:12:34.000Z</time>
      </trkpt>
      <trkpt lat="47.49001" lon="6.76829">
        <ele>312</ele>
        <time>2016-11-02T14:12:35.000Z</time>
      </trkpt>
      <trkpt lat="47.49001" lon="6.76833">
        <ele>312</ele>
        <time>2016-11-02T14:12:36.000Z</time>
      </trkpt>
      <trkpt lat="47.49" lon="6.76837">
        <ele>312</ele>
        <time>2016-11-02T14:12:37.000Z</time>
      </trkpt>
      <trkpt lat="47.48999" lon="6.76842">
        <ele>312</ele>
        <time>2016-11-02T14:12:38.000Z</time>
      </trkpt>
      <trkpt lat="47.48999" lon="6.76847">
        <ele>312</ele>
        <time>2016-11-02T14:12:39.000Z</time>
      </trkpt>
      <trkpt lat="47.48998" lon="6.76851">
        <ele>312</ele>
        <time>2016-11-02T14:12:40.000Z</time>
      </trkpt>
      <trkpt lat="47.48997" lon="6.76856">
        <ele>312</ele>
        <time>2016-11-02T14:12:41.000Z</time>
      </trkpt>
      <trkpt lat="47.48996" lon="6.76861">
        <ele>312</ele>
        <time>2016-11-02T14:12:42.000Z</time>
      </trkpt>
      <trkpt lat="47.48995" lon="6.76866">
        <ele>312</ele>
        <time>2016-11-02T14:12:43.000Z</time>
      </trkpt>
      <trkpt lat="47.48995" lon="6.76871">
        <ele>312</ele>
        <time>2016-11-02T14:12:44.000Z</time>
      </trkpt>
      <trkpt lat="47.48994" lon="6.76876">
        <ele>312</ele>
        <time>2016-11-02T14:12:45.000Z</time>
      </trkpt>
      <trkpt lat="47.48993" lon="6.76881">
        <ele>312</ele>
        <time>2016-11-02T14:12:46.000Z</time>
      </trkpt>
      <trkpt lat="47.48992" lon="6.76886">
        <ele>312</ele>
        <time>2016-11-02T14:12:47.000Z</time>
      </trkpt>
      <trkpt lat="47.48991" lon="6.76891">
        <ele>312</ele>
        <time>2016-11-02T14:12:48.000Z</time>
      </trkpt>
      <trkpt lat="47.4899" lon="6.76896">
        <ele>312</ele>
        <time>2016-11-02T14:12:49.000Z</time>
      </trkpt>
      <trkpt lat="47.48989" lon="6.76901">
        <ele>311</ele>
        <time>2016-11-02T14:12:50.000Z</time>
      </trkpt>
      <trkpt lat="47.48987" lon="6.76906">
        <ele>311</ele>
        <time>2016-11-02T14:12:51.000Z</time>
      </trkpt>
      <trkpt lat="47.48986" lon="6.76911">
        <ele>311</ele>
        <time>2016-11-02T14:12:52.000Z</time>
      </trkpt>
      <trkpt lat="47.48984" lon="6.76916">
        <ele>311</ele>
        <time>2016-11-02T14:12:53.000Z</time>
      </trkpt>
      <trkpt lat="47.48982" lon="6.76921">
        <ele>311</ele>
        <time>2016-11-02T14:12:54.000Z</time>
      </trkpt>
      <trkpt lat="47.4898" lon="6.76926">
        <ele>311</ele>
        <time>2016-11-02T14:12:55.000Z</time>
      </trkpt>
      <trkpt lat="47.48977" lon="6.7693">
        <ele>311</ele>
        <time>2016-11-02T14:12:56.000Z</time>
      </trkpt>
      <trkpt lat="47.48975" lon="6.76934">
        <ele>311</ele>
        <time>2016-11-02T14:12:57.000Z</time>
      </trkpt>
      <trkpt lat="47.48973" lon="6.76939">
        <ele>311</ele>
        <time>2016-11-02T14:12:58.000Z</time>
      </trkpt>
      <trkpt lat="47.48972" lon="6.76945">
        <ele>311</ele>
        <time>2016-11-02T14:12:59.000Z</time>
      </trkpt>
      <trkpt lat="47.48971" lon="6.76951">
        <ele>311</ele>
        <time>2016-11-02T14:13:00.000Z</time>
      </trkpt>
      <trkpt lat="47.48971" lon="6.76957">
        <ele>311</ele>
        <time>2016-11-02T14:13:01.000Z</time>
      </trkpt>
      <trkpt lat="47.48973" lon="6.76967">
        <ele>311</ele>
        <time>2016-11-02T14:13:02.000Z</time>
      </trkpt>
      <trkpt lat="47.48973" lon="6.76974">
        <ele>311</ele>
        <time>2016-11-02T14:13:03.000Z</time>
      </trkpt>
      <trkpt lat="47.48973" lon="6.7698">
        <ele>311</ele>
        <time>2016-11-02T14:13:04.000Z</time>
      </trkpt>
      <trkpt lat="47.48973" lon="6.76987">
        <ele>311</ele>
        <time>2016-11-02T14:13:05.000Z</time>
      </trkpt>
      <trkpt lat="47.48973" lon="6.76993">
        <ele>311</ele>
        <time>2016-11-02T14:13:06.000Z</time>
      </trkpt>
      <trkpt lat="47.48973" lon="6.77">
        <ele>311</ele>
        <time>2016-11-02T14:13:07.000Z</time>
      </trkpt>
      <trkpt lat="47.48973" lon="6.77007">
        <ele>311</ele>
        <time>2016-11-02T14:13:08.000Z</time>
      </trkpt>
      <trkpt lat="47.48973" lon="6.77014">
        <ele>311</ele>
        <time>2016-11-02T14:13:09.000Z</time>
      </trkpt>
      <trkpt lat="47.48973" lon="6.77021">
        <ele>311</ele>
        <time>2016-11-02T14:13:10.000Z</time>
      </trkpt>
      <trkpt lat="47.48973" lon="6.77029">
        <ele>311</ele>
        <time>2016-11-02T14:13:11.000Z</time>
      </trkpt>
      <trkpt lat="47.48972" lon="6.77036">
        <ele>311</ele>
        <time>2016-11-02T14:13:12.000Z</time>
      </trkpt>
      <trkpt lat="47.48972" lon="6.77043">
        <ele>311</ele>
        <time>2016-11-02T14:13:13.000Z</time>
      </trkpt>
      <trkpt lat="47.48972" lon="6.77051">
        <ele>311</ele>
        <time>2016-11-02T14:13:14.000Z</time>
      </trkpt>
      <trkpt lat="47.48973" lon="6.77057">
        <ele>311</ele>
        <time>2016-11-02T14:13:15.000Z</time>
      </trkpt>
      <trkpt lat="47.48973" lon="6.77064">
        <ele>311</ele>
        <time>2016-11-02T14:13:16.000Z</time>
      </trkpt>
      <trkpt lat="47.48972" lon="6.77071">
        <ele>311</ele>
        <time>2016-11-02T14:13:17.000Z</time>
      </trkpt>
      <trkpt lat="47.48972" lon="6.77078">
        <ele>311</ele>
        <time>2016-11-02T14:13:18.000Z</time>
      </trkpt>
      <trkpt lat="47.48971" lon="6.77086">
        <ele>311</ele>
        <time>2016-11-02T14:13:19.000Z</time>
      </trkpt>
      <trkpt lat="47.48972" lon="6.77093">
        <ele>311</ele>
        <time>2016-11-02T14:13:20.000Z</time>
      </trkpt>
      <trkpt lat="47.48973" lon="6.771">
        <ele>311</ele>
        <time>2016-11-02T14:13:21.000Z</time>
      </trkpt>
      <trkpt lat="47.48973" lon="6.77107">
        <ele>311</ele>
        <time>2016-11-02T14:13:22.000Z</time>
      </trkpt>
      <trkpt lat="47.48973" lon="6.77114">
        <ele>311</ele>
        <time>2016-11-02T14:13:23.000Z</time>
      </trkpt>
      <trkpt lat="47.48972" lon="6.77121">
        <ele>311</ele>
        <time>2016-11-02T14:13:24.000Z</time>
      </trkpt>
      <trkpt lat="47.48972" lon="6.77128">
        <ele>311</ele>
        <time>2016-11-02T14:13:25.000Z</time>
      </trkpt>
      <trkpt lat="47.4897" lon="6.77135">
        <ele>311</ele>
        <time>2016-11-02T14:13:26.000Z</time>
      </trkpt>
      <trkpt lat="47.4897" lon="6.77143">
        <ele>311</ele>
        <time>2016-11-02T14:13:27.000Z</time>
      </trkpt>
      <trkpt lat="47.4897" lon="6.7715">
        <ele>311</ele>
        <time>2016-11-02T14:13:28.000Z</time>
      </trkpt>
      <trkpt lat="47.4897" lon="6.77157">
        <ele>311</ele>
        <time>2016-11-02T14:13:29.000Z</time>
      </trkpt>
      <trkpt lat="47.48969" lon="6.77162">
        <ele>311</ele>
        <time>2016-11-02T14:13:30.000Z</time>
      </trkpt>
      <trkpt lat="47.4897" lon="6.77164">
        <ele>311</ele>
        <time>2016-11-02T14:13:31.000Z</time>
      </trkpt>
      <trkpt lat="47.48972" lon="6.7717">
        <ele>311</ele>
        <time>2016-11-02T14:13:39.000Z</time>
      </trkpt>
      <trkpt lat="47.48971" lon="6.77171">
        <ele>311</ele>
        <time>2016-11-02T14:13:40.000Z</time>
      </trkpt>
      <trkpt lat="47.4897" lon="6.77177">
        <ele>311</ele>
        <time>2016-11-02T14:13:42.000Z</time>
      </trkpt>
      <trkpt lat="47.48968" lon="6.77181">
        <ele>311</ele>
        <time>2016-11-02T14:13:43.000Z</time>
      </trkpt>
      <trkpt lat="47.48966" lon="6.77185">
        <ele>311</ele>
        <time>2016-11-02T14:13:44.000Z</time>
      </trkpt>
      <trkpt lat="47.48964" lon="6.7719">
        <ele>311</ele>
        <time>2016-11-02T14:13:45.000Z</time>
      </trkpt>
      <trkpt lat="47.48963" lon="6.77196">
        <ele>311</ele>
        <time>2016-11-02T14:13:46.000Z</time>
      </trkpt>
      <trkpt lat="47.48961" lon="6.77202">
        <ele>311</ele>
        <time>2016-11-02T14:13:47.000Z</time>
      </trkpt>
      <trkpt lat="47.4896" lon="6.77208">
        <ele>311</ele>
        <time>2016-11-02T14:13:48.000Z</time>
      </trkpt>
      <trkpt lat="47.48959" lon="6.77215">
        <ele>311</ele>
        <time>2016-11-02T14:13:49.000Z</time>
      </trkpt>
      <trkpt lat="47.48958" lon="6.77221">
        <ele>311</ele>
        <time>2016-11-02T14:13:50.000Z</time>
      </trkpt>
      <trkpt lat="47.48956" lon="6.77228">
        <ele>311</ele>
        <time>2016-11-02T14:13:51.000Z</time>
      </trkpt>
      <trkpt lat="47.48954" lon="6.77237">
        <ele>311</ele>
        <time>2016-11-02T14:13:52.000Z</time>
      </trkpt>
      <trkpt lat="47.48951" lon="6.77242">
        <ele>311</ele>
        <time>2016-11-02T14:13:53.000Z</time>
      </trkpt>
      <trkpt lat="47.48948" lon="6.77248">
        <ele>311</ele>
        <time>2016-11-02T14:13:54.000Z</time>
      </trkpt>
      <trkpt lat="47.48944" lon="6.77253">
        <ele>311</ele>
        <time>2016-11-02T14:13:55.000Z</time>
      </trkpt>
      <trkpt lat="47.48941" lon="6.7726">
        <ele>311</ele>
        <time>2016-11-02T14:13:56.000Z</time>
      </trkpt>
      <trkpt lat="47.48938" lon="6.77265">
        <ele>311</ele>
        <time>2016-11-02T14:13:57.000Z</time>
      </trkpt>
      <trkpt lat="47.48936" lon="6.77271">
        <ele>311</ele>
        <time>2016-11-02T14:13:58.000Z</time>
      </trkpt>
      <trkpt lat="47.48932" lon="6.77277">
        <ele>311</ele>
        <time>2016-11-02T14:13:59.000Z</time>
      </trkpt>
      <trkpt lat="47.4893" lon="6.77284">
        <ele>311</ele>
        <time>2016-11-02T14:14:00.000Z</time>
      </trkpt>
      <trkpt lat="47.48931" lon="6.77292">
        <ele>311</ele>
        <time>2016-11-02T14:14:01.000Z</time>
      </trkpt>
      <trkpt lat="47.48933" lon="6.773">
        <ele>311</ele>
        <time>2016-11-02T14:14:02.000Z</time>
      </trkpt>
      <trkpt lat="47.48936" lon="6.77306">
        <ele>311</ele>
        <time>2016-11-02T14:14:03.000Z</time>
      </trkpt>
      <trkpt lat="47.48938" lon="6.7731">
        <ele>311</ele>
        <time>2016-11-02T14:14:04.000Z</time>
      </trkpt>
      <trkpt lat="47.48941" lon="6.77312">
        <ele>311</ele>
        <time>2016-11-02T14:14:05.000Z</time>
      </trkpt>
      <trkpt lat="47.48944" lon="6.77313">
        <ele>311</ele>
        <time>2016-11-02T14:14:06.000Z</time>
      </trkpt>
      <trkpt lat="47.48948" lon="6.77315">
        <ele>311</ele>
        <time>2016-11-02T14:14:07.000Z</time>
      </trkpt>
      <trkpt lat="47.48952" lon="6.77316">
        <ele>311</ele>
        <time>2016-11-02T14:14:08.000Z</time>
      </trkpt>
      <trkpt lat="47.48956" lon="6.77317">
        <ele>311</ele>
        <time>2016-11-02T14:14:09.000Z</time>
      </trkpt>
      <trkpt lat="47.4896" lon="6.77318">
        <ele>311</ele>
        <time>2016-11-02T14:14:10.000Z</time>
      </trkpt>
      <trkpt lat="47.48965" lon="6.77319">
        <ele>311</ele>
        <time>2016-11-02T14:14:11.000Z</time>
      </trkpt>
      <trkpt lat="47.48969" lon="6.7732">
        <ele>311</ele>
        <time>2016-11-02T14:14:12.000Z</time>
      </trkpt>
      <trkpt lat="47.48974" lon="6.7732">
        <ele>311</ele>
        <time>2016-11-02T14:14:13.000Z</time>
      </trkpt>
      <trkpt lat="47.48978" lon="6.7732">
        <ele>311</ele>
        <time>2016-11-02T14:14:14.000Z</time>
      </trkpt>
      <trkpt lat="47.48983" lon="6.7732">
        <ele>311</ele>
        <time>2016-11-02T14:14:15.000Z</time>
      </trkpt>
      <trkpt lat="47.48989" lon="6.7732">
        <ele>311</ele>
        <time>2016-11-02T14:14:16.000Z</time>
      </trkpt>
      <trkpt lat="47.48993" lon="6.77321">
        <ele>311</ele>
        <time>2016-11-02T14:14:17.000Z</time>
      </trkpt>
      <trkpt lat="47.48998" lon="6.77322">
        <ele>311</ele>
        <time>2016-11-02T14:14:18.000Z</time>
      </trkpt>
      <trkpt lat="47.49003" lon="6.77322">
        <ele>311</ele>
        <time>2016-11-02T14:14:19.000Z</time>
      </trkpt>
      <trkpt lat="47.49007" lon="6.77323">
        <ele>311</ele>
        <time>2016-11-02T14:14:20.000Z</time>
      </trkpt>
      <trkpt lat="47.49011" lon="6.77325">
        <ele>311</ele>
        <time>2016-11-02T14:14:21.000Z</time>
      </trkpt>
      <trkpt lat="47.49015" lon="6.7733">
        <ele>311</ele>
        <time>2016-11-02T14:14:22.000Z</time>
      </trkpt>
      <trkpt lat="47.49018" lon="6.77337">
        <ele>311</ele>
        <time>2016-11-02T14:14:23.000Z</time>
      </trkpt>
      <trkpt lat="47.49019" lon="6.77347">
        <ele>311</ele>
        <time>2016-11-02T14:14:24.000Z</time>
      </trkpt>
      <trkpt lat="47.49021" lon="6.77354">
        <ele>311</ele>
        <time>2016-11-02T14:14:25.000Z</time>
      </trkpt>
      <trkpt lat="47.49022" lon="6.7736">
        <ele>311</ele>
        <time>2016-11-02T14:14:26.000Z</time>
      </trkpt>
      <trkpt lat="47.49023" lon="6.77368">
        <ele>311</ele>
        <time>2016-11-02T14:14:27.000Z</time>
      </trkpt>
      <trkpt lat="47.49023" lon="6.77374">
        <ele>311</ele>
        <time>2016-11-02T14:14:28.000Z</time>
      </trkpt>
      <trkpt lat="47.49023" lon="6.7738">
        <ele>310</ele>
        <time>2016-11-02T14:14:29.000Z</time>
      </trkpt>
      <trkpt lat="47.49023" lon="6.77386">
        <ele>310</ele>
        <time>2016-11-02T14:14:30.000Z</time>
      </trkpt>
      <trkpt lat="47.49021" lon="6.77389">
        <ele>310</ele>
        <time>2016-11-02T14:14:31.000Z</time>
      </trkpt>
      <trkpt lat="47.49019" lon="6.77393">
        <ele>310</ele>
        <time>2016-11-02T14:14:32.000Z</time>
      </trkpt>
      <trkpt lat="47.49017" lon="6.77397">
        <ele>310</ele>
        <time>2016-11-02T14:14:33.000Z</time>
      </trkpt>
      <trkpt lat="47.49017" lon="6.77402">
        <ele>310</ele>
        <time>2016-11-02T14:14:34.000Z</time>
      </trkpt>
      <trkpt lat="47.49017" lon="6.77408">
        <ele>310</ele>
        <time>2016-11-02T14:14:35.000Z</time>
      </trkpt>
      <trkpt lat="47.49017" lon="6.77415">
        <ele>310</ele>
        <time>2016-11-02T14:14:36.000Z</time>
      </trkpt>
      <trkpt lat="47.49017" lon="6.77421">
        <ele>310</ele>
        <time>2016-11-02T14:14:37.000Z</time>
      </trkpt>
      <trkpt lat="47.49016" lon="6.77428">
        <ele>310</ele>
        <time>2016-11-02T14:14:38.000Z</time>
      </trkpt>
      <trkpt lat="47.49016" lon="6.77435">
        <ele>310</ele>
        <time>2016-11-02T14:14:39.000Z</time>
      </trkpt>
      <trkpt lat="47.49017" lon="6.77442">
        <ele>310</ele>
        <time>2016-11-02T14:14:40.000Z</time>
      </trkpt>
      <trkpt lat="47.49017" lon="6.7745">
        <ele>310</ele>
        <time>2016-11-02T14:14:41.000Z</time>
      </trkpt>
      <trkpt lat="47.49017" lon="6.77457">
        <ele>310</ele>
        <time>2016-11-02T14:14:42.000Z</time>
      </trkpt>
      <trkpt lat="47.49017" lon="6.77463">
        <ele>310</ele>
        <time>2016-11-02T14:14:43.000Z</time>
      </trkpt>
      <trkpt lat="47.49016" lon="6.77469">
        <ele>310</ele>
        <time>2016-11-02T14:14:44.000Z</time>
      </trkpt>
      <trkpt lat="47.49014" lon="6.77476">
        <ele>310</ele>
        <time>2016-11-02T14:14:45.000Z</time>
      </trkpt>
      <trkpt lat="47.49014" lon="6.77483">
        <ele>311</ele>
        <time>2016-11-02T14:14:46.000Z</time>
      </trkpt>
      <trkpt lat="47.49013" lon="6.7749">
        <ele>311</ele>
        <time>2016-11-02T14:14:47.000Z</time>
      </trkpt>
      <trkpt lat="47.49013" lon="6.77497">
        <ele>311</ele>
        <time>2016-11-02T14:14:48.000Z</time>
      </trkpt>
      <trkpt lat="47.49013" lon="6.77503">
        <ele>311</ele>
        <time>2016-11-02T14:14:49.000Z</time>
      </trkpt>
      <trkpt lat="47.49013" lon="6.77509">
        <ele>311</ele>
        <time>2016-11-02T14:14:50.000Z</time>
      </trkpt>
      <trkpt lat="47.49012" lon="6.77515">
        <ele>311</ele>
        <time>2016-11-02T14:14:51.000Z</time>
      </trkpt>
      <trkpt lat="47.49012" lon="6.7752">
        <ele>311</ele>
        <time>2016-11-02T14:14:52.000Z</time>
      </trkpt>
      <trkpt lat="47.49011" lon="6.77524">
        <ele>311</ele>
        <time>2016-11-02T14:14:53.000Z</time>
      </trkpt>
      <trkpt lat="47.4901" lon="6.77527">
        <ele>311</ele>
        <time>2016-11-02T14:14:54.000Z</time>
      </trkpt>
      <trkpt lat="47.49009" lon="6.77531">
        <ele>311</ele>
        <time>2016-11-02T14:14:55.000Z</time>
      </trkpt>
      <trkpt lat="47.49008" lon="6.77533">
        <ele>312</ele>
        <time>2016-11-02T14:14:56.000Z</time>
      </trkpt>
      <trkpt lat="47.49006" lon="6.77536">
        <ele>312</ele>
        <time>2016-11-02T14:14:57.000Z</time>
      </trkpt>
      <trkpt lat="47.49004" lon="6.77539">
        <ele>312</ele>
        <time>2016-11-02T14:14:58.000Z</time>
      </trkpt>
      <trkpt lat="47.49002" lon="6.77541">
        <ele>312</ele>
        <time>2016-11-02T14:14:59.000Z</time>
      </trkpt>
      <trkpt lat="47.49001" lon="6.77543">
        <ele>312</ele>
        <time>2016-11-02T14:15:00.000Z</time>
      </trkpt>
      <trkpt lat="47.48999" lon="6.77546">
        <ele>313</ele>
        <time>2016-11-02T14:15:01.000Z</time>
      </trkpt>
      <trkpt lat="47.48996" lon="6.77548">
        <ele>313</ele>
        <time>2016-11-02T14:15:02.000Z</time>
      </trkpt>
      <trkpt lat="47.48994" lon="6.77551">
        <ele>313</ele>
        <time>2016-11-02T14:15:03.000Z</time>
      </trkpt>
      <trkpt lat="47.48991" lon="6.77553">
        <ele>313</ele>
        <time>2016-11-02T14:15:04.000Z</time>
      </trkpt>
      <trkpt lat="47.48988" lon="6.77556">
        <ele>313</ele>
        <time>2016-11-02T14:15:05.000Z</time>
      </trkpt>
      <trkpt lat="47.48985" lon="6.77559">
        <ele>313</ele>
        <time>2016-11-02T14:15:06.000Z</time>
      </trkpt>
      <trkpt lat="47.48982" lon="6.77562">
        <ele>313</ele>
        <time>2016-11-02T14:15:07.000Z</time>
      </trkpt>
      <trkpt lat="47.48979" lon="6.77566">
        <ele>313</ele>
        <time>2016-11-02T14:15:08.000Z</time>
      </trkpt>
      <trkpt lat="47.48976" lon="6.77569">
        <ele>313</ele>
        <time>2016-11-02T14:15:09.000Z</time>
      </trkpt>
      <trkpt lat="47.48973" lon="6.77572">
        <ele>313</ele>
        <time>2016-11-02T14:15:10.000Z</time>
      </trkpt>
      <trkpt lat="47.4897" lon="6.77575">
        <ele>313</ele>
        <time>2016-11-02T14:15:11.000Z</time>
      </trkpt>
      <trkpt lat="47.48966" lon="6.77578">
        <ele>313</ele>
        <time>2016-11-02T14:15:12.000Z</time>
      </trkpt>
      <trkpt lat="47.48963" lon="6.77581">
        <ele>313</ele>
        <time>2016-11-02T14:15:13.000Z</time>
      </trkpt>
      <trkpt lat="47.48959" lon="6.77585">
        <ele>315</ele>
        <time>2016-11-02T14:15:14.000Z</time>
      </trkpt>
      <trkpt lat="47.48951" lon="6.77593">
        <ele>315</ele>
        <time>2016-11-02T14:15:15.000Z</time>
      </trkpt>
      <trkpt lat="47.48946" lon="6.77596">
        <ele>316</ele>
        <time>2016-11-02T14:15:16.000Z</time>
      </trkpt>
      <trkpt lat="47.48942" lon="6.77599">
        <ele>316</ele>
        <time>2016-11-02T14:15:17.000Z</time>
      </trkpt>
      <trkpt lat="47.48938" lon="6.77599">
        <ele>316</ele>
        <time>2016-11-02T14:15:18.000Z</time>
      </trkpt>
      <trkpt lat="47.48934" lon="6.77599">
        <ele>316</ele>
        <time>2016-11-02T14:15:19.000Z</time>
      </trkpt>
      <trkpt lat="47.4893" lon="6.77599">
        <ele>316</ele>
        <time>2016-11-02T14:15:20.000Z</time>
      </trkpt>
      <trkpt lat="47.48927" lon="6.776">
        <ele>316</ele>
        <time>2016-11-02T14:15:21.000Z</time>
      </trkpt>
      <trkpt lat="47.48924" lon="6.77604">
        <ele>316</ele>
        <time>2016-11-02T14:15:24.000Z</time>
      </trkpt>
      <trkpt lat="47.48923" lon="6.77604">
        <ele>316</ele>
        <time>2016-11-02T14:15:25.000Z</time>
      </trkpt>
      <trkpt lat="47.48921" lon="6.77609">
        <ele>316</ele>
        <time>2016-11-02T14:15:34.000Z</time>
      </trkpt>
      <trkpt lat="47.48921" lon="6.7761">
        <ele>316</ele>
        <time>2016-11-02T14:15:35.000Z</time>
      </trkpt>
      <trkpt lat="47.48918" lon="6.77614">
        <ele>316</ele>
        <time>2016-11-02T14:15:38.000Z</time>
      </trkpt>
      <trkpt lat="47.48917" lon="6.77616">
        <ele>316</ele>
        <time>2016-11-02T14:15:39.000Z</time>
      </trkpt>
      <trkpt lat="47.48915" lon="6.77619">
        <ele>319</ele>
        <time>2016-11-02T14:15:40.000Z</time>
      </trkpt>
      <trkpt lat="47.48914" lon="6.77622">
        <ele>320</ele>
        <time>2016-11-02T14:15:41.000Z</time>
      </trkpt>
      <trkpt lat="47.48912" lon="6.77626">
        <ele>320</ele>
        <time>2016-11-02T14:15:42.000Z</time>
      </trkpt>
      <trkpt lat="47.4891" lon="6.77631">
        <ele>320</ele>
        <time>2016-11-02T14:15:43.000Z</time>
      </trkpt>
      <trkpt lat="47.48908" lon="6.77635">
        <ele>320</ele>
        <time>2016-11-02T14:15:44.000Z</time>
      </trkpt>
      <trkpt lat="47.48906" lon="6.77639">
        <ele>321</ele>
        <time>2016-11-02T14:15:45.000Z</time>
      </trkpt>
      <trkpt lat="47.48905" lon="6.77643">
        <ele>321</ele>
        <time>2016-11-02T14:15:46.000Z</time>
      </trkpt>
      <trkpt lat="47.48904" lon="6.77646">
        <ele>321</ele>
        <time>2016-11-02T14:15:47.000Z</time>
      </trkpt>
      <trkpt lat="47.48902" lon="6.77651">
        <ele>321</ele>
        <time>2016-11-02T14:15:49.000Z</time>
      </trkpt>
      <trkpt lat="47.48901" lon="6.77653">
        <ele>321</ele>
        <time>2016-11-02T14:15:50.000Z</time>
      </trkpt>
      <trkpt lat="47.489" lon="6.77659">
        <ele>321</ele>
        <time>2016-11-02T14:15:52.000Z</time>
      </trkpt>
      <trkpt lat="47.489" lon="6.77661">
        <ele>321</ele>
        <time>2016-11-02T14:15:53.000Z</time>
      </trkpt>
      <trkpt lat="47.48903" lon="6.77665">
        <ele>321</ele>
        <time>2016-11-02T14:15:55.000Z</time>
      </trkpt>
      <trkpt lat="47.48907" lon="6.77666">
        <ele>321</ele>
        <time>2016-11-02T14:15:56.000Z</time>
      </trkpt>
      <trkpt lat="47.48911" lon="6.77667">
        <ele>323</ele>
        <time>2016-11-02T14:15:57.000Z</time>
      </trkpt>
      <trkpt lat="47.48914" lon="6.77667">
        <ele>321</ele>
        <time>2016-11-02T14:15:58.000Z</time>
      </trkpt>
      <trkpt lat="47.48917" lon="6.77665">
        <ele>321</ele>
        <time>2016-11-02T14:15:59.000Z</time>
      </trkpt>
      <trkpt lat="47.48919" lon="6.77664">
        <ele>320</ele>
        <time>2016-11-02T14:16:00.000Z</time>
      </trkpt>
      <trkpt lat="47.48917" lon="6.77658">
        <ele>320</ele>
        <time>2016-11-02T14:16:08.000Z</time>
      </trkpt>
      <trkpt lat="47.48916" lon="6.77656">
        <ele>321</ele>
        <time>2016-11-02T14:16:09.000Z</time>
      </trkpt>
      <trkpt lat="47.48915" lon="6.77654">
        <ele>321</ele>
        <time>2016-11-02T14:16:10.000Z</time>
      </trkpt>
      <trkpt lat="47.48913" lon="6.77652">
        <ele>321</ele>
        <time>2016-11-02T14:16:11.000Z</time>
      </trkpt>
      <trkpt lat="47.4891" lon="6.77649">
        <ele>321</ele>
        <time>2016-11-02T14:16:12.000Z</time>
      </trkpt>
      <trkpt lat="47.48907" lon="6.77646">
        <ele>321</ele>
        <time>2016-11-02T14:16:13.000Z</time>
      </trkpt>
      <trkpt lat="47.48903" lon="6.77643">
        <ele>321</ele>
        <time>2016-11-02T14:16:14.000Z</time>
      </trkpt>
      <trkpt lat="47.48899" lon="6.77639">
        <ele>321</ele>
        <time>2016-11-02T14:16:15.000Z</time>
      </trkpt>
      <trkpt lat="47.48895" lon="6.77636">
        <ele>321</ele>
        <time>2016-11-02T14:16:16.000Z</time>
      </trkpt>
      <trkpt lat="47.48887" lon="6.77629">
        <ele>321</ele>
        <time>2016-11-02T14:16:17.000Z</time>
      </trkpt>
      <trkpt lat="47.48882" lon="6.77626">
        <ele>321</ele>
        <time>2016-11-02T14:16:18.000Z</time>
      </trkpt>
      <trkpt lat="47.48879" lon="6.77622">
        <ele>321</ele>
        <time>2016-11-02T14:16:19.000Z</time>
      </trkpt>
      <trkpt lat="47.48875" lon="6.77619">
        <ele>321</ele>
        <time>2016-11-02T14:16:20.000Z</time>
      </trkpt>
      <trkpt lat="47.48871" lon="6.77616">
        <ele>321</ele>
        <time>2016-11-02T14:16:21.000Z</time>
      </trkpt>
      <trkpt lat="47.48867" lon="6.77612">
        <ele>321</ele>
        <time>2016-11-02T14:16:22.000Z</time>
      </trkpt>
      <trkpt lat="47.48863" lon="6.77609">
        <ele>321</ele>
        <time>2016-11-02T14:16:23.000Z</time>
      </trkpt>
      <trkpt lat="47.48859" lon="6.77604">
        <ele>321</ele>
        <time>2016-11-02T14:16:24.000Z</time>
      </trkpt>
      <trkpt lat="47.48856" lon="6.77602">
        <ele>321</ele>
        <time>2016-11-02T14:16:25.000Z</time>
      </trkpt>
      <trkpt lat="47.48853" lon="6.776">
        <ele>321</ele>
        <time>2016-11-02T14:16:26.000Z</time>
      </trkpt>
      <trkpt lat="47.4885" lon="6.77598">
        <ele>321</ele>
        <time>2016-11-02T14:16:27.000Z</time>
      </trkpt>
      <trkpt lat="47.48847" lon="6.77596">
        <ele>321</ele>
        <time>2016-11-02T14:16:28.000Z</time>
      </trkpt>
      <trkpt lat="47.48844" lon="6.77593">
        <ele>320</ele>
        <time>2016-11-02T14:16:30.000Z</time>
      </trkpt>
      <trkpt lat="47.48843" lon="6.77591">
        <ele>320</ele>
        <time>2016-11-02T14:16:31.000Z</time>
      </trkpt>
      <trkpt lat="47.48841" lon="6.77587">
        <ele>320</ele>
        <time>2016-11-02T14:16:33.000Z</time>
      </trkpt>
      <trkpt lat="47.48839" lon="6.77586">
        <ele>320</ele>
        <time>2016-11-02T14:16:34.000Z</time>
      </trkpt>
      <trkpt lat="47.48837" lon="6.77582">
        <ele>319</ele>
        <time>2016-11-02T14:16:37.000Z</time>
      </trkpt>
      <trkpt lat="47.48836" lon="6.7758">
        <ele>319</ele>
        <time>2016-11-02T14:16:38.000Z</time>
      </trkpt>
      <trkpt lat="47.48832" lon="6.77576">
        <ele>321</ele>
        <time>2016-11-02T14:16:41.000Z</time>
      </trkpt>
      <trkpt lat="47.48831" lon="6.77575">
        <ele>322</ele>
        <time>2016-11-02T14:16:42.000Z</time>
      </trkpt>
      <trkpt lat="47.48828" lon="6.77571">
        <ele>322</ele>
        <time>2016-11-02T14:16:44.000Z</time>
      </trkpt>
      <trkpt lat="47.48827" lon="6.7757">
        <ele>323</ele>
        <time>2016-11-02T14:16:45.000Z</time>
      </trkpt>
      <trkpt lat="47.48823" lon="6.77567">
        <ele>323</ele>
        <time>2016-11-02T14:16:47.000Z</time>
      </trkpt>
      <trkpt lat="47.48822" lon="6.77565">
        <ele>323</ele>
        <time>2016-11-02T14:16:48.000Z</time>
      </trkpt>
      <trkpt lat="47.48819" lon="6.77561">
        <ele>324</ele>
        <time>2016-11-02T14:16:50.000Z</time>
      </trkpt>
      <trkpt lat="47.48817" lon="6.77559">
        <ele>324</ele>
        <time>2016-11-02T14:16:51.000Z</time>
      </trkpt>
      <trkpt lat="47.48814" lon="6.77556">
        <ele>324</ele>
        <time>2016-11-02T14:16:53.000Z</time>
      </trkpt>
      <trkpt lat="47.48812" lon="6.77555">
        <ele>324</ele>
        <time>2016-11-02T14:16:54.000Z</time>
      </trkpt>
      <trkpt lat="47.48808" lon="6.77553">
        <ele>325</ele>
        <time>2016-11-02T14:16:56.000Z</time>
      </trkpt>
      <trkpt lat="47.48807" lon="6.77552">
        <ele>325</ele>
        <time>2016-11-02T14:16:57.000Z</time>
      </trkpt>
      <trkpt lat="47.48804" lon="6.7755">
        <ele>325</ele>
        <time>2016-11-02T14:16:59.000Z</time>
      </trkpt>
      <trkpt lat="47.48802" lon="6.77549">
        <ele>325</ele>
        <time>2016-11-02T14:17:00.000Z</time>
      </trkpt>
      <trkpt lat="47.48799" lon="6.77547">
        <ele>326</ele>
        <time>2016-11-02T14:17:02.000Z</time>
      </trkpt>
      <trkpt lat="47.48797" lon="6.77546">
        <ele>326</ele>
        <time>2016-11-02T14:17:03.000Z</time>
      </trkpt>
      <trkpt lat="47.48794" lon="6.77545">
        <ele>326</ele>
        <time>2016-11-02T14:17:05.000Z</time>
      </trkpt>
      <trkpt lat="47.48792" lon="6.77544">
        <ele>326</ele>
        <time>2016-11-02T14:17:06.000Z</time>
      </trkpt>
      <trkpt lat="47.48788" lon="6.77542">
        <ele>327</ele>
        <time>2016-11-02T14:17:08.000Z</time>
      </trkpt>
      <trkpt lat="47.48786" lon="6.77542">
        <ele>327</ele>
        <time>2016-11-02T14:17:09.000Z</time>
      </trkpt>
      <trkpt lat="47.48782" lon="6.7754">
        <ele>327</ele>
        <time>2016-11-02T14:17:12.000Z</time>
      </trkpt>
      <trkpt lat="47.4878" lon="6.7754">
        <ele>327</ele>
        <time>2016-11-02T14:17:13.000Z</time>
      </trkpt>
      <trkpt lat="47.48777" lon="6.77538">
        <ele>328</ele>
        <time>2016-11-02T14:17:15.000Z</time>
      </trkpt>
      <trkpt lat="47.48775" lon="6.77537">
        <ele>328</ele>
        <time>2016-11-02T14:17:16.000Z</time>
      </trkpt>
      <trkpt lat="47.48772" lon="6.77536">
        <ele>328</ele>
        <time>2016-11-02T14:17:18.000Z</time>
      </trkpt>
      <trkpt lat="47.48771" lon="6.77535">
        <ele>328</ele>
        <time>2016-11-02T14:17:19.000Z</time>
      </trkpt>
      <trkpt lat="47.48768" lon="6.77532">
        <ele>328</ele>
        <time>2016-11-02T14:17:22.000Z</time>
      </trkpt>
      <trkpt lat="47.48767" lon="6.77531">
        <ele>328</ele>
        <time>2016-11-02T14:17:23.000Z</time>
      </trkpt>
      <trkpt lat="47.48763" lon="6.77529">
        <ele>329</ele>
        <time>2016-11-02T14:17:26.000Z</time>
      </trkpt>
      <trkpt lat="47.48762" lon="6.77528">
        <ele>329</ele>
        <time>2016-11-02T14:17:27.000Z</time>
      </trkpt>
      <trkpt lat="47.48758" lon="6.77526">
        <ele>329</ele>
        <time>2016-11-02T14:17:30.000Z</time>
      </trkpt>
      <trkpt lat="47.48757" lon="6.77525">
        <ele>329</ele>
        <time>2016-11-02T14:17:31.000Z</time>
      </trkpt>
      <trkpt lat="47.48754" lon="6.77524">
        <ele>329</ele>
        <time>2016-11-02T14:17:33.000Z</time>
      </trkpt>
      <trkpt lat="47.48752" lon="6.77524">
        <ele>329</ele>
        <time>2016-11-02T14:17:34.000Z</time>
      </trkpt>
      <trkpt lat="47.48748" lon="6.77524">
        <ele>335</ele>
        <time>2016-11-02T14:17:45.000Z</time>
      </trkpt>
      <trkpt lat="47.48747" lon="6.77525">
        <ele>335</ele>
        <time>2016-11-02T14:17:46.000Z</time>
      </trkpt>
      <trkpt lat="47.4875" lon="6.77528">
        <ele>329</ele>
        <time>2016-11-02T14:17:51.000Z</time>
      </trkpt>
      <trkpt lat="47.48752" lon="6.77529">
        <ele>329</ele>
        <time>2016-11-02T14:17:52.000Z</time>
      </trkpt>
      <trkpt lat="47.48748" lon="6.77527">
        <ele>335</ele>
        <time>2016-11-02T14:18:07.000Z</time>
      </trkpt>
      <trkpt lat="47.48746" lon="6.77526">
        <ele>335</ele>
        <time>2016-11-02T14:18:08.000Z</time>
      </trkpt>
      <trkpt lat="47.48742" lon="6.77525">
        <ele>335</ele>
        <time>2016-11-02T14:18:11.000Z</time>
      </trkpt>
      <trkpt lat="47.48741" lon="6.77524">
        <ele>335</ele>
        <time>2016-11-02T14:18:12.000Z</time>
      </trkpt>
      <trkpt lat="47.48737" lon="6.77522">
        <ele>335</ele>
        <time>2016-11-02T14:18:14.000Z</time>
      </trkpt>
      <trkpt lat="47.48736" lon="6.77521">
        <ele>335</ele>
        <time>2016-11-02T14:18:15.000Z</time>
      </trkpt>
      <trkpt lat="47.48735" lon="6.77518">
        <ele>335</ele>
        <time>2016-11-02T14:18:17.000Z</time>
      </trkpt>
      <trkpt lat="47.48734" lon="6.77515">
        <ele>335</ele>
        <time>2016-11-02T14:18:18.000Z</time>
      </trkpt>
      <trkpt lat="47.48731" lon="6.77511">
        <ele>335</ele>
        <time>2016-11-02T14:18:20.000Z</time>
      </trkpt>
      <trkpt lat="47.4873" lon="6.7751">
        <ele>335</ele>
        <time>2016-11-02T14:18:21.000Z</time>
      </trkpt>
      <trkpt lat="47.48726" lon="6.77508">
        <ele>335</ele>
        <time>2016-11-02T14:18:51.000Z</time>
      </trkpt>
      <trkpt lat="47.48725" lon="6.77507">
        <ele>335</ele>
        <time>2016-11-02T14:18:52.000Z</time>
      </trkpt>
      <trkpt lat="47.48722" lon="6.77504">
        <ele>335</ele>
        <time>2016-11-02T14:18:57.000Z</time>
      </trkpt>
      <trkpt lat="47.48721" lon="6.77504">
        <ele>335</ele>
        <time>2016-11-02T14:18:58.000Z</time>
      </trkpt>
      <trkpt lat="47.48717" lon="6.775">
        <ele>335</ele>
        <time>2016-11-02T14:20:16.000Z</time>
      </trkpt>
      <trkpt lat="47.48717" lon="6.775">
        <ele>335</ele>
        <time>2016-11-02T14:20:17.000Z</time>
      </trkpt>
      <trkpt lat="47.48715" lon="6.77496">
        <ele>333</ele>
        <time>2016-11-02T14:20:23.000Z</time>
      </trkpt>
      <trkpt lat="47.48714" lon="6.77495">
        <ele>333</ele>
        <time>2016-11-02T14:20:24.000Z</time>
      </trkpt>
      <trkpt lat="47.4871" lon="6.77493">
        <ele>333</ele>
        <time>2016-11-02T14:20:39.000Z</time>
      </trkpt>
      <trkpt lat="47.48709" lon="6.77493">
        <ele>333</ele>
        <time>2016-11-02T14:20:40.000Z</time>
      </trkpt>
      <trkpt lat="47.48708" lon="6.77494">
        <ele>333</ele>
        <time>2016-11-02T14:21:10.000Z</time>
      </trkpt>
      <trkpt lat="47.48703" lon="6.77487">
        <ele>334</ele>
        <time>2016-11-02T14:21:11.000Z</time>
      </trkpt>
      <trkpt lat="47.48699" lon="6.77486">
        <ele>334</ele>
        <time>2016-11-02T14:21:12.000Z</time>
      </trkpt>
      <trkpt lat="47.48698" lon="6.77488">
        <ele>334</ele>
        <time>2016-11-02T14:21:13.000Z</time>
      </trkpt>
      <trkpt lat="47.48695" lon="6.77491">
        <ele>335</ele>
        <time>2016-11-02T14:21:16.000Z</time>
      </trkpt>
      <trkpt lat="47.48693" lon="6.77491">
        <ele>335</ele>
        <time>2016-11-02T14:21:17.000Z</time>
      </trkpt>
      <trkpt lat="47.48693" lon="6.77497">
        <ele>335</ele>
        <time>2016-11-02T14:22:17.000Z</time>
      </trkpt>
      <trkpt lat="47.48692" lon="6.77498">
        <ele>335</ele>
        <time>2016-11-02T14:22:18.000Z</time>
      </trkpt>
      <trkpt lat="47.48689" lon="6.77501">
        <ele>338</ele>
        <time>2016-11-02T14:22:21.000Z</time>
      </trkpt>
      <trkpt lat="47.48688" lon="6.77502">
        <ele>338</ele>
        <time>2016-11-02T14:22:22.000Z</time>
      </trkpt>
      <trkpt lat="47.4869" lon="6.77506">
        <ele>337</ele>
        <time>2016-11-02T14:22:51.000Z</time>
      </trkpt>
      <trkpt lat="47.48692" lon="6.77506">
        <ele>337</ele>
        <time>2016-11-02T14:22:52.000Z</time>
      </trkpt>
      <trkpt lat="47.48696" lon="6.77503">
        <ele>337</ele>
        <time>2016-11-02T14:22:54.000Z</time>
      </trkpt>
      <trkpt lat="47.48697" lon="6.77502">
        <ele>337</ele>
        <time>2016-11-02T14:22:55.000Z</time>
      </trkpt>
      <trkpt lat="47.48699" lon="6.77497">
        <ele>334</ele>
        <time>2016-11-02T14:22:57.000Z</time>
      </trkpt>
      <trkpt lat="47.487" lon="6.77495">
        <ele>334</ele>
        <time>2016-11-02T14:22:58.000Z</time>
      </trkpt>
      <trkpt lat="47.48703" lon="6.7749">
        <ele>334</ele>
        <time>2016-11-02T14:23:32.000Z</time>
      </trkpt>
      <trkpt lat="47.48703" lon="6.7749">
        <ele>334</ele>
        <time>2016-11-02T14:23:33.000Z</time>
      </trkpt>
      <trkpt lat="47.48707" lon="6.77491">
        <ele>333</ele>
        <time>2016-11-02T14:23:41.000Z</time>
      </trkpt>
      <trkpt lat="47.48709" lon="6.77493">
        <ele>333</ele>
        <time>2016-11-02T14:23:42.000Z</time>
      </trkpt>
      <trkpt lat="47.48713" lon="6.77492">
        <ele>333</ele>
        <time>2016-11-02T14:24:12.000Z</time>
      </trkpt>
      <trkpt lat="47.48713" lon="6.77491">
        <ele>333</ele>
        <time>2016-11-02T14:24:13.000Z</time>
      </trkpt>
      <trkpt lat="47.48717" lon="6.77493">
        <ele>333</ele>
        <time>2016-11-02T14:24:16.000Z</time>
      </trkpt>
      <trkpt lat="47.48719" lon="6.77495">
        <ele>332</ele>
        <time>2016-11-02T14:24:17.000Z</time>
      </trkpt>
      <trkpt lat="47.48722" lon="6.77498">
        <ele>332</ele>
        <time>2016-11-02T14:24:19.000Z</time>
      </trkpt>
      <trkpt lat="47.48724" lon="6.775">
        <ele>332</ele>
        <time>2016-11-02T14:24:20.000Z</time>
      </trkpt>
      <trkpt lat="47.48725" lon="6.77502">
        <ele>335</ele>
        <time>2016-11-02T14:24:21.000Z</time>
      </trkpt>
      <trkpt lat="47.48727" lon="6.77504">
        <ele>335</ele>
        <time>2016-11-02T14:24:22.000Z</time>
      </trkpt>
      <trkpt lat="47.4873" lon="6.77507">
        <ele>335</ele>
        <time>2016-11-02T14:24:24.000Z</time>
      </trkpt>
      <trkpt lat="47.48732" lon="6.77509">
        <ele>335</ele>
        <time>2016-11-02T14:24:25.000Z</time>
      </trkpt>
      <trkpt lat="47.48735" lon="6.77514">
        <ele>334</ele>
        <time>2016-11-02T14:24:35.000Z</time>
      </trkpt>
      <trkpt lat="47.48735" lon="6.77514">
        <ele>334</ele>
        <time>2016-11-02T14:24:36.000Z</time>
      </trkpt>
      <trkpt lat="47.48733" lon="6.7752">
        <ele>335</ele>
        <time>2016-11-02T14:25:57.000Z</time>
      </trkpt>
      <trkpt lat="47.48733" lon="6.7752">
        <ele>335</ele>
        <time>2016-11-02T14:25:58.000Z</time>
      </trkpt>
      <trkpt lat="47.48733" lon="6.77513">
        <ele>335</ele>
        <time>2016-11-02T14:27:30.000Z</time>
      </trkpt>
      <trkpt lat="47.48733" lon="6.77513">
        <ele>335</ele>
        <time>2016-11-02T14:27:31.000Z</time>
      </trkpt>
      <trkpt lat="47.48729" lon="6.77511">
        <ele>335</ele>
        <time>2016-11-02T14:28:32.000Z</time>
      </trkpt>
      <trkpt lat="47.48728" lon="6.7751">
        <ele>335</ele>
        <time>2016-11-02T14:28:33.000Z</time>
      </trkpt>
      <trkpt lat="47.48725" lon="6.77506">
        <ele>335</ele>
        <time>2016-11-02T14:28:36.000Z</time>
      </trkpt>
      <trkpt lat="47.48725" lon="6.77505">
        <ele>335</ele>
        <time>2016-11-02T14:28:37.000Z</time>
      </trkpt>
      <trkpt lat="47.48722" lon="6.77504">
        <ele>335</ele>
        <time>2016-11-02T14:28:39.000Z</time>
      </trkpt>
      <trkpt lat="47.4872" lon="6.77502">
        <ele>335</ele>
        <time>2016-11-02T14:28:40.000Z</time>
      </trkpt>
      <trkpt lat="47.48716" lon="6.77499">
        <ele>333</ele>
        <time>2016-11-02T14:28:43.000Z</time>
      </trkpt>
      <trkpt lat="47.48715" lon="6.77498">
        <ele>333</ele>
        <time>2016-11-02T14:28:44.000Z</time>
      </trkpt>
      <trkpt lat="47.48711" lon="6.77495">
        <ele>333</ele>
        <time>2016-11-02T14:28:47.000Z</time>
      </trkpt>
      <trkpt lat="47.48711" lon="6.77494">
        <ele>333</ele>
        <time>2016-11-02T14:28:48.000Z</time>
      </trkpt>
      <trkpt lat="47.48707" lon="6.77491">
        <ele>333</ele>
        <time>2016-11-02T14:28:52.000Z</time>
      </trkpt>
      <trkpt lat="47.48706" lon="6.77491">
        <ele>333</ele>
        <time>2016-11-02T14:28:53.000Z</time>
      </trkpt>
      <trkpt lat="47.48701" lon="6.77489">
        <ele>334</ele>
        <time>2016-11-02T14:28:56.000Z</time>
      </trkpt>
      <trkpt lat="47.487" lon="6.77489">
        <ele>334</ele>
        <time>2016-11-02T14:28:57.000Z</time>
      </trkpt>
      <trkpt lat="47.48696" lon="6.7749">
        <ele>334</ele>
        <time>2016-11-02T14:28:59.000Z</time>
      </trkpt>
      <trkpt lat="47.48694" lon="6.77491">
        <ele>335</ele>
        <time>2016-11-02T14:29:00.000Z</time>
      </trkpt>
      <trkpt lat="47.48691" lon="6.77493">
        <ele>335</ele>
        <time>2016-11-02T14:29:02.000Z</time>
      </trkpt>
      <trkpt lat="47.4869" lon="6.77494">
        <ele>335</ele>
        <time>2016-11-02T14:29:03.000Z</time>
      </trkpt>
      <trkpt lat="47.48686" lon="6.77494">
        <ele>336</ele>
        <time>2016-11-02T14:29:10.000Z</time>
      </trkpt>
      <trkpt lat="47.48685" lon="6.77493">
        <ele>336</ele>
        <time>2016-11-02T14:29:11.000Z</time>
      </trkpt>
      <trkpt lat="47.48681" lon="6.77494">
        <ele>337</ele>
        <time>2016-11-02T14:29:51.000Z</time>
      </trkpt>
      <trkpt lat="47.4868" lon="6.77495">
        <ele>337</ele>
        <time>2016-11-02T14:29:52.000Z</time>
      </trkpt>
      <trkpt lat="47.48677" lon="6.77498">
        <ele>338</ele>
        <time>2016-11-02T14:29:54.000Z</time>
      </trkpt>
      <trkpt lat="47.48676" lon="6.775">
        <ele>338</ele>
        <time>2016-11-02T14:29:55.000Z</time>
      </trkpt>
      <trkpt lat="47.48675" lon="6.77505">
        <ele>339</ele>
        <time>2016-11-02T14:29:58.000Z</time>
      </trkpt>
      <trkpt lat="47.48674" lon="6.77507">
        <ele>339</ele>
        <time>2016-11-02T14:29:59.000Z</time>
      </trkpt>
      <trkpt lat="47.48673" lon="6.77501">
        <ele>340</ele>
        <time>2016-11-02T14:30:35.000Z</time>
      </trkpt>
      <trkpt lat="47.48674" lon="6.775">
        <ele>339</ele>
        <time>2016-11-02T14:30:36.000Z</time>
      </trkpt>
      <trkpt lat="47.48675" lon="6.77497">
        <ele>338</ele>
        <time>2016-11-02T14:30:37.000Z</time>
      </trkpt>
      <trkpt lat="47.48678" lon="6.77495">
        <ele>337</ele>
        <time>2016-11-02T14:30:38.000Z</time>
      </trkpt>
      <trkpt lat="47.48681" lon="6.77491">
        <ele>336</ele>
        <time>2016-11-02T14:30:40.000Z</time>
      </trkpt>
      <trkpt lat="47.48683" lon="6.7749">
        <ele>336</ele>
        <time>2016-11-02T14:30:41.000Z</time>
      </trkpt>
      <trkpt lat="47.48687" lon="6.77489">
        <ele>336</ele>
        <time>2016-11-02T14:30:54.000Z</time>
      </trkpt>
      <trkpt lat="47.48687" lon="6.77489">
        <ele>335</ele>
        <time>2016-11-02T14:30:55.000Z</time>
      </trkpt>
      <trkpt lat="47.4869" lon="6.77483">
        <ele>335</ele>
        <time>2016-11-02T14:31:15.000Z</time>
      </trkpt>
      <trkpt lat="47.4869" lon="6.77484">
        <ele>335</ele>
        <time>2016-11-02T14:31:16.000Z</time>
      </trkpt>
      <trkpt lat="47.48694" lon="6.77483">
        <ele>334</ele>
        <time>2016-11-02T14:31:19.000Z</time>
      </trkpt>
      <trkpt lat="47.48697" lon="6.77483">
        <ele>334</ele>
        <time>2016-11-02T14:31:20.000Z</time>
      </trkpt>
      <trkpt lat="47.487" lon="6.77484">
        <ele>334</ele>
        <time>2016-11-02T14:31:21.000Z</time>
      </trkpt>
      <trkpt lat="47.48702" lon="6.77485">
        <ele>333</ele>
        <time>2016-11-02T14:31:22.000Z</time>
      </trkpt>
      <trkpt lat="47.48705" lon="6.77486">
        <ele>333</ele>
        <time>2016-11-02T14:31:23.000Z</time>
      </trkpt>
      <trkpt lat="47.48707" lon="6.77487">
        <ele>333</ele>
        <time>2016-11-02T14:31:24.000Z</time>
      </trkpt>
      <trkpt lat="47.4871" lon="6.7749">
        <ele>333</ele>
        <time>2016-11-02T14:31:46.000Z</time>
      </trkpt>
      <trkpt lat="47.48713" lon="6.77491">
        <ele>333</ele>
        <time>2016-11-02T14:31:47.000Z</time>
      </trkpt>
      <trkpt lat="47.48716" lon="6.77491">
        <ele>333</ele>
        <time>2016-11-02T14:31:49.000Z</time>
      </trkpt>
      <trkpt lat="47.48717" lon="6.77492">
        <ele>332</ele>
        <time>2016-11-02T14:31:50.000Z</time>
      </trkpt>
      <trkpt lat="47.48717" lon="6.77498">
        <ele>333</ele>
        <time>2016-11-02T14:33:31.000Z</time>
      </trkpt>
      <trkpt lat="47.48718" lon="6.77499">
        <ele>333</ele>
        <time>2016-11-02T14:33:32.000Z</time>
      </trkpt>
      <trkpt lat="47.48722" lon="6.77497">
        <ele>332</ele>
        <time>2016-11-02T14:34:08.000Z</time>
      </trkpt>
      <trkpt lat="47.48722" lon="6.77497">
        <ele>332</ele>
        <time>2016-11-02T14:34:09.000Z</time>
      </trkpt>
      <trkpt lat="47.48719" lon="6.77492">
        <ele>332</ele>
        <time>2016-11-02T14:34:32.000Z</time>
      </trkpt>
      <trkpt lat="47.48719" lon="6.77492">
        <ele>332</ele>
        <time>2016-11-02T14:34:33.000Z</time>
      </trkpt>
      <trkpt lat="47.48717" lon="6.77497">
        <ele>333</ele>
        <time>2016-11-02T14:36:45.000Z</time>
      </trkpt>
      <trkpt lat="47.48715" lon="6.77497">
        <ele>333</ele>
        <time>2016-11-02T14:36:46.000Z</time>
      </trkpt>
      <trkpt lat="47.48711" lon="6.77497">
        <ele>333</ele>
        <time>2016-11-02T14:36:48.000Z</time>
      </trkpt>
      <trkpt lat="47.4871" lon="6.77496">
        <ele>333</ele>
        <time>2016-11-02T14:36:49.000Z</time>
      </trkpt>
      <trkpt lat="47.48707" lon="6.77494">
        <ele>333</ele>
        <time>2016-11-02T14:36:51.000Z</time>
      </trkpt>
      <trkpt lat="47.48705" lon="6.77493">
        <ele>334</ele>
        <time>2016-11-02T14:36:52.000Z</time>
      </trkpt>
      <trkpt lat="47.487" lon="6.77491">
        <ele>334</ele>
        <time>2016-11-02T14:36:54.000Z</time>
      </trkpt>
      <trkpt lat="47.48698" lon="6.77492">
        <ele>334</ele>
        <time>2016-11-02T14:36:55.000Z</time>
      </trkpt>
      <trkpt lat="47.48695" lon="6.77493">
        <ele>335</ele>
        <time>2016-11-02T14:36:57.000Z</time>
      </trkpt>
      <trkpt lat="47.48694" lon="6.77493">
        <ele>335</ele>
        <time>2016-11-02T14:36:58.000Z</time>
      </trkpt>
      <trkpt lat="47.48691" lon="6.77495">
        <ele>335</ele>
        <time>2016-11-02T14:37:00.000Z</time>
      </trkpt>
      <trkpt lat="47.48689" lon="6.77496">
        <ele>336</ele>
        <time>2016-11-02T14:37:01.000Z</time>
      </trkpt>
      <trkpt lat="47.48688" lon="6.77499">
        <ele>336</ele>
        <time>2016-11-02T14:37:02.000Z</time>
      </trkpt>
      <trkpt lat="47.48686" lon="6.77501">
        <ele>338</ele>
        <time>2016-11-02T14:37:03.000Z</time>
      </trkpt>
      <trkpt lat="47.48684" lon="6.77507">
        <ele>338</ele>
        <time>2016-11-02T14:37:08.000Z</time>
      </trkpt>
      <trkpt lat="47.48683" lon="6.77509">
        <ele>338</ele>
        <time>2016-11-02T14:37:09.000Z</time>
      </trkpt>
      <trkpt lat="47.48681" lon="6.7751">
        <ele>338</ele>
        <time>2016-11-02T14:37:10.000Z</time>
      </trkpt>
      <trkpt lat="47.48679" lon="6.77512">
        <ele>338</ele>
        <time>2016-11-02T14:37:11.000Z</time>
      </trkpt>
      <trkpt lat="47.48675" lon="6.77515">
        <ele>338</ele>
        <time>2016-11-02T14:37:13.000Z</time>
      </trkpt>
      <trkpt lat="47.48673" lon="6.77516">
        <ele>338</ele>
        <time>2016-11-02T14:37:14.000Z</time>
      </trkpt>
      <trkpt lat="47.4867" lon="6.7752">
        <ele>338</ele>
        <time>2016-11-02T14:37:17.000Z</time>
      </trkpt>
      <trkpt lat="47.48668" lon="6.7752">
        <ele>338</ele>
        <time>2016-11-02T14:37:18.000Z</time>
      </trkpt>
      <trkpt lat="47.48664" lon="6.7752">
        <ele>334</ele>
        <time>2016-11-02T14:37:20.000Z</time>
      </trkpt>
      <trkpt lat="47.48662" lon="6.77521">
        <ele>334</ele>
        <time>2016-11-02T14:37:21.000Z</time>
      </trkpt>
      <trkpt lat="47.48658" lon="6.77524">
        <ele>333</ele>
        <time>2016-11-02T14:37:23.000Z</time>
      </trkpt>
      <trkpt lat="47.48657" lon="6.77526">
        <ele>333</ele>
        <time>2016-11-02T14:37:24.000Z</time>
      </trkpt>
      <trkpt lat="47.48655" lon="6.7753">
        <ele>332</ele>
        <time>2016-11-02T14:37:26.000Z</time>
      </trkpt>
      <trkpt lat="47.48654" lon="6.77533">
        <ele>332</ele>
        <time>2016-11-02T14:37:27.000Z</time>
      </trkpt>
      <trkpt lat="47.48651" lon="6.77535">
        <ele>331</ele>
        <time>2016-11-02T14:37:29.000Z</time>
      </trkpt>
      <trkpt lat="47.48649" lon="6.77535">
        <ele>331</ele>
        <time>2016-11-02T14:37:30.000Z</time>
      </trkpt>
      <trkpt lat="47.48645" lon="6.77532">
        <ele>331</ele>
        <time>2016-11-02T14:37:32.000Z</time>
      </trkpt>
      <trkpt lat="47.48644" lon="6.77531">
        <ele>331</ele>
        <time>2016-11-02T14:37:33.000Z</time>
      </trkpt>
      <trkpt lat="47.48641" lon="6.77527">
        <ele>331</ele>
        <time>2016-11-02T14:37:35.000Z</time>
      </trkpt>
      <trkpt lat="47.4864" lon="6.77525">
        <ele>331</ele>
        <time>2016-11-02T14:37:36.000Z</time>
      </trkpt>
      <trkpt lat="47.48638" lon="6.77522">
        <ele>331</ele>
        <time>2016-11-02T14:37:37.000Z</time>
      </trkpt>
      <trkpt lat="47.48635" lon="6.7752">
        <ele>331</ele>
        <time>2016-11-02T14:37:38.000Z</time>
      </trkpt>
      <trkpt lat="47.48633" lon="6.77518">
        <ele>331</ele>
        <time>2016-11-02T14:37:39.000Z</time>
      </trkpt>
      <trkpt lat="47.48631" lon="6.77516">
        <ele>331</ele>
        <time>2016-11-02T14:37:40.000Z</time>
      </trkpt>
      <trkpt lat="47.48628" lon="6.77515">
        <ele>330</ele>
        <time>2016-11-02T14:37:41.000Z</time>
      </trkpt>
      <trkpt lat="47.48625" lon="6.77513">
        <ele>330</ele>
        <time>2016-11-02T14:37:42.000Z</time>
      </trkpt>
      <trkpt lat="47.48622" lon="6.77511">
        <ele>330</ele>
        <time>2016-11-02T14:37:43.000Z</time>
      </trkpt>
      <trkpt lat="47.48619" lon="6.77509">
        <ele>329</ele>
        <time>2016-11-02T14:37:44.000Z</time>
      </trkpt>
      <trkpt lat="47.48615" lon="6.77507">
        <ele>329</ele>
        <time>2016-11-02T14:37:45.000Z</time>
      </trkpt>
      <trkpt lat="47.48612" lon="6.77505">
        <ele>329</ele>
        <time>2016-11-02T14:37:46.000Z</time>
      </trkpt>
      <trkpt lat="47.48609" lon="6.77503">
        <ele>328</ele>
        <time>2016-11-02T14:37:47.000Z</time>
      </trkpt>
      <trkpt lat="47.48607" lon="6.77501">
        <ele>328</ele>
        <time>2016-11-02T14:37:48.000Z</time>
      </trkpt>
      <trkpt lat="47.48604" lon="6.77498">
        <ele>332</ele>
        <time>2016-11-02T14:37:49.000Z</time>
      </trkpt>
      <trkpt lat="47.48602" lon="6.77494">
        <ele>332</ele>
        <time>2016-11-02T14:37:50.000Z</time>
      </trkpt>
      <trkpt lat="47.48599" lon="6.77491">
        <ele>332</ele>
        <time>2016-11-02T14:37:51.000Z</time>
      </trkpt>
      <trkpt lat="47.48597" lon="6.77486">
        <ele>332</ele>
        <time>2016-11-02T14:37:52.000Z</time>
      </trkpt>
      <trkpt lat="47.48594" lon="6.77483">
        <ele>332</ele>
        <time>2016-11-02T14:37:53.000Z</time>
      </trkpt>
      <trkpt lat="47.48591" lon="6.77479">
        <ele>332</ele>
        <time>2016-11-02T14:37:54.000Z</time>
      </trkpt>
      <trkpt lat="47.48588" lon="6.77477">
        <ele>333</ele>
        <time>2016-11-02T14:37:55.000Z</time>
      </trkpt>
      <trkpt lat="47.48585" lon="6.77476">
        <ele>333</ele>
        <time>2016-11-02T14:37:56.000Z</time>
      </trkpt>
      <trkpt lat="47.48582" lon="6.77474">
        <ele>328</ele>
        <time>2016-11-02T14:37:57.000Z</time>
      </trkpt>
      <trkpt lat="47.48581" lon="6.77472">
        <ele>328</ele>
        <time>2016-11-02T14:37:58.000Z</time>
      </trkpt>
      <trkpt lat="47.48579" lon="6.77468">
        <ele>328</ele>
        <time>2016-11-02T14:37:59.000Z</time>
      </trkpt>
      <trkpt lat="47.48577" lon="6.77464">
        <ele>328</ele>
        <time>2016-11-02T14:38:00.000Z</time>
      </trkpt>
      <trkpt lat="47.48576" lon="6.7746">
        <ele>329</ele>
        <time>2016-11-02T14:38:01.000Z</time>
      </trkpt>
      <trkpt lat="47.48574" lon="6.77456">
        <ele>329</ele>
        <time>2016-11-02T14:38:02.000Z</time>
      </trkpt>
      <trkpt lat="47.48571" lon="6.77453">
        <ele>330</ele>
        <time>2016-11-02T14:38:03.000Z</time>
      </trkpt>
      <trkpt lat="47.48568" lon="6.7745">
        <ele>330</ele>
        <time>2016-11-02T14:38:04.000Z</time>
      </trkpt>
      <trkpt lat="47.48565" lon="6.77447">
        <ele>330</ele>
        <time>2016-11-02T14:38:05.000Z</time>
      </trkpt>
      <trkpt lat="47.48562" lon="6.77444">
        <ele>330</ele>
        <time>2016-11-02T14:38:06.000Z</time>
      </trkpt>
      <trkpt lat="47.48558" lon="6.77442">
        <ele>330</ele>
        <time>2016-11-02T14:38:07.000Z</time>
      </trkpt>
      <trkpt lat="47.48554" lon="6.77439">
        <ele>330</ele>
        <time>2016-11-02T14:38:08.000Z</time>
      </trkpt>
      <trkpt lat="47.48551" lon="6.77436">
        <ele>330</ele>
        <time>2016-11-02T14:38:09.000Z</time>
      </trkpt>
      <trkpt lat="47.48547" lon="6.77433">
        <ele>329</ele>
        <time>2016-11-02T14:38:10.000Z</time>
      </trkpt>
      <trkpt lat="47.48544" lon="6.7743">
        <ele>329</ele>
        <time>2016-11-02T14:38:11.000Z</time>
      </trkpt>
      <trkpt lat="47.48541" lon="6.77427">
        <ele>329</ele>
        <time>2016-11-02T14:38:12.000Z</time>
      </trkpt>
      <trkpt lat="47.48538" lon="6.77425">
        <ele>329</ele>
        <time>2016-11-02T14:38:13.000Z</time>
      </trkpt>
      <trkpt lat="47.48536" lon="6.77423">
        <ele>328</ele>
        <time>2016-11-02T14:38:14.000Z</time>
      </trkpt>
      <trkpt lat="47.48533" lon="6.77421">
        <ele>328</ele>
        <time>2016-11-02T14:38:15.000Z</time>
      </trkpt>
      <trkpt lat="47.4853" lon="6.77418">
        <ele>328</ele>
        <time>2016-11-02T14:38:16.000Z</time>
      </trkpt>
      <trkpt lat="47.48527" lon="6.77414">
        <ele>333</ele>
        <time>2016-11-02T14:38:17.000Z</time>
      </trkpt>
      <trkpt lat="47.48525" lon="6.7741">
        <ele>333</ele>
        <time>2016-11-02T14:38:18.000Z</time>
      </trkpt>
      <trkpt lat="47.48522" lon="6.77407">
        <ele>333</ele>
        <time>2016-11-02T14:38:19.000Z</time>
      </trkpt>
      <trkpt lat="47.48519" lon="6.77404">
        <ele>332</ele>
        <time>2016-11-02T14:38:20.000Z</time>
      </trkpt>
      <trkpt lat="47.48516" lon="6.77401">
        <ele>332</ele>
        <time>2016-11-02T14:38:21.000Z</time>
      </trkpt>
      <trkpt lat="47.48512" lon="6.77398">
        <ele>332</ele>
        <time>2016-11-02T14:38:22.000Z</time>
      </trkpt>
      <trkpt lat="47.48509" lon="6.77394">
        <ele>333</ele>
        <time>2016-11-02T14:38:23.000Z</time>
      </trkpt>
      <trkpt lat="47.48505" lon="6.77391">
        <ele>333</ele>
        <time>2016-11-02T14:38:24.000Z</time>
      </trkpt>
      <trkpt lat="47.48502" lon="6.77387">
        <ele>333</ele>
        <time>2016-11-02T14:38:25.000Z</time>
      </trkpt>
      <trkpt lat="47.48499" lon="6.77383">
        <ele>328</ele>
        <time>2016-11-02T14:38:26.000Z</time>
      </trkpt>
      <trkpt lat="47.48497" lon="6.7738">
        <ele>328</ele>
        <time>2016-11-02T14:38:27.000Z</time>
      </trkpt>
      <trkpt lat="47.48494" lon="6.77376">
        <ele>329</ele>
        <time>2016-11-02T14:38:28.000Z</time>
      </trkpt>
      <trkpt lat="47.48491" lon="6.77374">
        <ele>329</ele>
        <time>2016-11-02T14:38:29.000Z</time>
      </trkpt>
      <trkpt lat="47.48489" lon="6.77371">
        <ele>329</ele>
        <time>2016-11-02T14:38:30.000Z</time>
      </trkpt>
      <trkpt lat="47.48486" lon="6.77369">
        <ele>329</ele>
        <time>2016-11-02T14:38:31.000Z</time>
      </trkpt>
      <trkpt lat="47.48483" lon="6.77366">
        <ele>329</ele>
        <time>2016-11-02T14:38:32.000Z</time>
      </trkpt>
      <trkpt lat="47.4848" lon="6.77363">
        <ele>329</ele>
        <time>2016-11-02T14:38:33.000Z</time>
      </trkpt>
      <trkpt lat="47.48477" lon="6.77359">
        <ele>330</ele>
        <time>2016-11-02T14:38:34.000Z</time>
      </trkpt>
      <trkpt lat="47.48474" lon="6.77355">
        <ele>330</ele>
        <time>2016-11-02T14:38:35.000Z</time>
      </trkpt>
      <trkpt lat="47.48471" lon="6.7735">
        <ele>330</ele>
        <time>2016-11-02T14:38:36.000Z</time>
      </trkpt>
      <trkpt lat="47.48468" lon="6.77346">
        <ele>330</ele>
        <time>2016-11-02T14:38:37.000Z</time>
      </trkpt>
      <trkpt lat="47.48465" lon="6.77342">
        <ele>329</ele>
        <time>2016-11-02T14:38:38.000Z</time>
      </trkpt>
      <trkpt lat="47.48461" lon="6.77339">
        <ele>329</ele>
        <time>2016-11-02T14:38:39.000Z</time>
      </trkpt>
      <trkpt lat="47.48458" lon="6.77336">
        <ele>329</ele>
        <time>2016-11-02T14:38:40.000Z</time>
      </trkpt>
      <trkpt lat="47.48456" lon="6.77333">
        <ele>333</ele>
        <time>2016-11-02T14:38:41.000Z</time>
      </trkpt>
      <trkpt lat="47.48453" lon="6.7733">
        <ele>333</ele>
        <time>2016-11-02T14:38:42.000Z</time>
      </trkpt>
      <trkpt lat="47.4845" lon="6.77326">
        <ele>333</ele>
        <time>2016-11-02T14:38:43.000Z</time>
      </trkpt>
      <trkpt lat="47.48448" lon="6.77323">
        <ele>333</ele>
        <time>2016-11-02T14:38:44.000Z</time>
      </trkpt>
      <trkpt lat="47.48446" lon="6.7732">
        <ele>333</ele>
        <time>2016-11-02T14:38:45.000Z</time>
      </trkpt>
      <trkpt lat="47.48444" lon="6.77317">
        <ele>332</ele>
        <time>2016-11-02T14:38:46.000Z</time>
      </trkpt>
      <trkpt lat="47.48442" lon="6.77314">
        <ele>332</ele>
        <time>2016-11-02T14:38:47.000Z</time>
      </trkpt>
      <trkpt lat="47.48439" lon="6.77311">
        <ele>332</ele>
        <time>2016-11-02T14:38:48.000Z</time>
      </trkpt>
      <trkpt lat="47.48437" lon="6.77309">
        <ele>332</ele>
        <time>2016-11-02T14:38:49.000Z</time>
      </trkpt>
      <trkpt lat="47.48434" lon="6.77306">
        <ele>332</ele>
        <time>2016-11-02T14:38:50.000Z</time>
      </trkpt>
      <trkpt lat="47.48432" lon="6.77302">
        <ele>333</ele>
        <time>2016-11-02T14:38:51.000Z</time>
      </trkpt>
      <trkpt lat="47.48429" lon="6.77299">
        <ele>333</ele>
        <time>2016-11-02T14:38:52.000Z</time>
      </trkpt>
      <trkpt lat="47.48427" lon="6.77296">
        <ele>333</ele>
        <time>2016-11-02T14:38:53.000Z</time>
      </trkpt>
      <trkpt lat="47.48423" lon="6.77294">
        <ele>333</ele>
        <time>2016-11-02T14:38:54.000Z</time>
      </trkpt>
      <trkpt lat="47.4842" lon="6.77292">
        <ele>333</ele>
        <time>2016-11-02T14:38:55.000Z</time>
      </trkpt>
      <trkpt lat="47.48416" lon="6.7729">
        <ele>327</ele>
        <time>2016-11-02T14:38:56.000Z</time>
      </trkpt>
      <trkpt lat="47.48412" lon="6.77288">
        <ele>327</ele>
        <time>2016-11-02T14:38:57.000Z</time>
      </trkpt>
      <trkpt lat="47.48408" lon="6.77284">
        <ele>327</ele>
        <time>2016-11-02T14:38:58.000Z</time>
      </trkpt>
      <trkpt lat="47.48404" lon="6.7728">
        <ele>327</ele>
        <time>2016-11-02T14:38:59.000Z</time>
      </trkpt>
      <trkpt lat="47.484" lon="6.77276">
        <ele>328</ele>
        <time>2016-11-02T14:39:00.000Z</time>
      </trkpt>
      <trkpt lat="47.48397" lon="6.77272">
        <ele>328</ele>
        <time>2016-11-02T14:39:01.000Z</time>
      </trkpt>
      <trkpt lat="47.48393" lon="6.77268">
        <ele>328</ele>
        <time>2016-11-02T14:39:02.000Z</time>
      </trkpt>
      <trkpt lat="47.48389" lon="6.77263">
        <ele>328</ele>
        <time>2016-11-02T14:39:03.000Z</time>
      </trkpt>
      <trkpt lat="47.48386" lon="6.77257">
        <ele>327</ele>
        <time>2016-11-02T14:39:04.000Z</time>
      </trkpt>
      <trkpt lat="47.48383" lon="6.77253">
        <ele>327</ele>
        <time>2016-11-02T14:39:05.000Z</time>
      </trkpt>
      <trkpt lat="47.48379" lon="6.77248">
        <ele>330</ele>
        <time>2016-11-02T14:39:06.000Z</time>
      </trkpt>
      <trkpt lat="47.48376" lon="6.77245">
        <ele>330</ele>
        <time>2016-11-02T14:39:07.000Z</time>
      </trkpt>
      <trkpt lat="47.48365" lon="6.77243">
        <ele>329</ele>
        <time>2016-11-02T14:39:08.000Z</time>
      </trkpt>
      <trkpt lat="47.4836" lon="6.77241">
        <ele>328</ele>
        <time>2016-11-02T14:39:09.000Z</time>
      </trkpt>
      <trkpt lat="47.48355" lon="6.77238">
        <ele>328</ele>
        <time>2016-11-02T14:39:10.000Z</time>
      </trkpt>
      <trkpt lat="47.48351" lon="6.77235">
        <ele>328</ele>
        <time>2016-11-02T14:39:11.000Z</time>
      </trkpt>
      <trkpt lat="47.48346" lon="6.77234">
        <ele>328</ele>
        <time>2016-11-02T14:39:12.000Z</time>
      </trkpt>
      <trkpt lat="47.48341" lon="6.77232">
        <ele>327</ele>
        <time>2016-11-02T14:39:13.000Z</time>
      </trkpt>
      <trkpt lat="47.48338" lon="6.77229">
        <ele>328</ele>
        <time>2016-11-02T14:39:14.000Z</time>
      </trkpt>
      <trkpt lat="47.48334" lon="6.77228">
        <ele>328</ele>
        <time>2016-11-02T14:39:15.000Z</time>
      </trkpt>
      <trkpt lat="47.4833" lon="6.77226">
        <ele>324</ele>
        <time>2016-11-02T14:39:16.000Z</time>
      </trkpt>
      <trkpt lat="47.48326" lon="6.7722">
        <ele>324</ele>
        <time>2016-11-02T14:39:17.000Z</time>
      </trkpt>
      <trkpt lat="47.48321" lon="6.77218">
        <ele>324</ele>
        <time>2016-11-02T14:39:18.000Z</time>
      </trkpt>
      <trkpt lat="47.48319" lon="6.77218">
        <ele>324</ele>
        <time>2016-11-02T14:39:19.000Z</time>
      </trkpt>
      <trkpt lat="47.48315" lon="6.77216">
        <ele>324</ele>
        <time>2016-11-02T14:39:20.000Z</time>
      </trkpt>
      <trkpt lat="47.48312" lon="6.77215">
        <ele>324</ele>
        <time>2016-11-02T14:39:21.000Z</time>
      </trkpt>
      <trkpt lat="47.48308" lon="6.77214">
        <ele>324</ele>
        <time>2016-11-02T14:39:22.000Z</time>
      </trkpt>
      <trkpt lat="47.48303" lon="6.77212">
        <ele>323</ele>
        <time>2016-11-02T14:39:23.000Z</time>
      </trkpt>
      <trkpt lat="47.48299" lon="6.77211">
        <ele>323</ele>
        <time>2016-11-02T14:39:24.000Z</time>
      </trkpt>
      <trkpt lat="47.48295" lon="6.7721">
        <ele>323</ele>
        <time>2016-11-02T14:39:25.000Z</time>
      </trkpt>
      <trkpt lat="47.48292" lon="6.77209">
        <ele>323</ele>
        <time>2016-11-02T14:39:26.000Z</time>
      </trkpt>
      <trkpt lat="47.48289" lon="6.77208">
        <ele>323</ele>
        <time>2016-11-02T14:39:27.000Z</time>
      </trkpt>
      <trkpt lat="47.48286" lon="6.77208">
        <ele>323</ele>
        <time>2016-11-02T14:39:28.000Z</time>
      </trkpt>
      <trkpt lat="47.48283" lon="6.77211">
        <ele>322</ele>
        <time>2016-11-02T14:39:36.000Z</time>
      </trkpt>
      <trkpt lat="47.48282" lon="6.77211">
        <ele>322</ele>
        <time>2016-11-02T14:39:37.000Z</time>
      </trkpt>
      <trkpt lat="47.48277" lon="6.77212">
        <ele>322</ele>
        <time>2016-11-02T14:39:42.000Z</time>
      </trkpt>
      <trkpt lat="47.48276" lon="6.77212">
        <ele>322</ele>
        <time>2016-11-02T14:39:43.000Z</time>
      </trkpt>
      <trkpt lat="47.48279" lon="6.77207">
        <ele>322</ele>
        <time>2016-11-02T14:40:32.000Z</time>
      </trkpt>
      <trkpt lat="47.48279" lon="6.77206">
        <ele>322</ele>
        <time>2016-11-02T14:40:33.000Z</time>
      </trkpt>
      <trkpt lat="47.48278" lon="6.77201">
        <ele>322</ele>
        <time>2016-11-02T14:40:41.000Z</time>
      </trkpt>
      <trkpt lat="47.48278" lon="6.77199">
        <ele>322</ele>
        <time>2016-11-02T14:40:42.000Z</time>
      </trkpt>
      <trkpt lat="47.48278" lon="6.77192">
        <ele>323</ele>
        <time>2016-11-02T14:40:44.000Z</time>
      </trkpt>
      <trkpt lat="47.48279" lon="6.77189">
        <ele>323</ele>
        <time>2016-11-02T14:40:45.000Z</time>
      </trkpt>
      <trkpt lat="47.4828" lon="6.77186">
        <ele>323</ele>
        <time>2016-11-02T14:40:46.000Z</time>
      </trkpt>
      <trkpt lat="47.48282" lon="6.77183">
        <ele>323</ele>
        <time>2016-11-02T14:40:47.000Z</time>
      </trkpt>
      <trkpt lat="47.48289" lon="6.77177">
        <ele>324</ele>
        <time>2016-11-02T14:40:48.000Z</time>
      </trkpt>
      <trkpt lat="47.48293" lon="6.77176">
        <ele>324</ele>
        <time>2016-11-02T14:40:49.000Z</time>
      </trkpt>
      <trkpt lat="47.48294" lon="6.7717">
        <ele>324</ele>
        <time>2016-11-02T14:40:50.000Z</time>
      </trkpt>
      <trkpt lat="47.48296" lon="6.77164">
        <ele>324</ele>
        <time>2016-11-02T14:40:51.000Z</time>
      </trkpt>
      <trkpt lat="47.48298" lon="6.7716">
        <ele>325</ele>
        <time>2016-11-02T14:40:52.000Z</time>
      </trkpt>
      <trkpt lat="47.48302" lon="6.77157">
        <ele>325</ele>
        <time>2016-11-02T14:40:53.000Z</time>
      </trkpt>
      <trkpt lat="47.48305" lon="6.77158">
        <ele>325</ele>
        <time>2016-11-02T14:40:54.000Z</time>
      </trkpt>
      <trkpt lat="47.48307" lon="6.77159">
        <ele>325</ele>
        <time>2016-11-02T14:40:55.000Z</time>
      </trkpt>
      <trkpt lat="47.4831" lon="6.7716">
        <ele>326</ele>
        <time>2016-11-02T14:40:56.000Z</time>
      </trkpt>
      <trkpt lat="47.48314" lon="6.77163">
        <ele>327</ele>
        <time>2016-11-02T14:40:57.000Z</time>
      </trkpt>
      <trkpt lat="47.48318" lon="6.77164">
        <ele>327</ele>
        <time>2016-11-02T14:40:58.000Z</time>
      </trkpt>
      <trkpt lat="47.48322" lon="6.77166">
        <ele>328</ele>
        <time>2016-11-02T14:40:59.000Z</time>
      </trkpt>
      <trkpt lat="47.48326" lon="6.77167">
        <ele>329</ele>
        <time>2016-11-02T14:41:00.000Z</time>
      </trkpt>
      <trkpt lat="47.48329" lon="6.77167">
        <ele>330</ele>
        <time>2016-11-02T14:41:01.000Z</time>
      </trkpt>
      <trkpt lat="47.48331" lon="6.77165">
        <ele>330</ele>
        <time>2016-11-02T14:41:02.000Z</time>
      </trkpt>
      <trkpt lat="47.48333" lon="6.77162">
        <ele>330</ele>
        <time>2016-11-02T14:41:03.000Z</time>
      </trkpt>
      <trkpt lat="47.48334" lon="6.77157">
        <ele>329</ele>
        <time>2016-11-02T14:41:04.000Z</time>
      </trkpt>
      <trkpt lat="47.48334" lon="6.77151">
        <ele>328</ele>
        <time>2016-11-02T14:41:05.000Z</time>
      </trkpt>
      <trkpt lat="47.48333" lon="6.77144">
        <ele>326</ele>
        <time>2016-11-02T14:41:06.000Z</time>
      </trkpt>
      <trkpt lat="47.48331" lon="6.77138">
        <ele>326</ele>
        <time>2016-11-02T14:41:07.000Z</time>
      </trkpt>
      <trkpt lat="47.4832" lon="6.7713">
        <ele>325</ele>
        <time>2016-11-02T14:41:08.000Z</time>
      </trkpt>
      <trkpt lat="47.48317" lon="6.77128">
        <ele>324</ele>
        <time>2016-11-02T14:41:09.000Z</time>
      </trkpt>
      <trkpt lat="47.48313" lon="6.77125">
        <ele>324</ele>
        <time>2016-11-02T14:41:10.000Z</time>
      </trkpt>
      <trkpt lat="47.48308" lon="6.7712">
        <ele>324</ele>
        <time>2016-11-02T14:41:11.000Z</time>
      </trkpt>
      <trkpt lat="47.48306" lon="6.77111">
        <ele>323</ele>
        <time>2016-11-02T14:41:12.000Z</time>
      </trkpt>
      <trkpt lat="47.48303" lon="6.77105">
        <ele>323</ele>
        <time>2016-11-02T14:41:13.000Z</time>
      </trkpt>
      <trkpt lat="47.483" lon="6.771">
        <ele>323</ele>
        <time>2016-11-02T14:41:14.000Z</time>
      </trkpt>
      <trkpt lat="47.48297" lon="6.771">
        <ele>323</ele>
        <time>2016-11-02T14:41:15.000Z</time>
      </trkpt>
      <trkpt lat="47.48286" lon="6.77107">
        <ele>322</ele>
        <time>2016-11-02T14:41:16.000Z</time>
      </trkpt>
      <trkpt lat="47.48279" lon="6.7711">
        <ele>322</ele>
        <time>2016-11-02T14:41:17.000Z</time>
      </trkpt>
      <trkpt lat="47.48273" lon="6.77112">
        <ele>322</ele>
        <time>2016-11-02T14:41:18.000Z</time>
      </trkpt>
      <trkpt lat="47.48269" lon="6.77115">
        <ele>321</ele>
        <time>2016-11-02T14:41:19.000Z</time>
      </trkpt>
      <trkpt lat="47.48265" lon="6.77119">
        <ele>321</ele>
        <time>2016-11-02T14:41:20.000Z</time>
      </trkpt>
      <trkpt lat="47.48262" lon="6.77122">
        <ele>321</ele>
        <time>2016-11-02T14:41:21.000Z</time>
      </trkpt>
      <trkpt lat="47.4826" lon="6.77122">
        <ele>321</ele>
        <time>2016-11-02T14:41:22.000Z</time>
      </trkpt>
      <trkpt lat="47.48256" lon="6.7712">
        <ele>321</ele>
        <time>2016-11-02T14:41:59.000Z</time>
      </trkpt>
      <trkpt lat="47.48256" lon="6.7712">
        <ele>321</ele>
        <time>2016-11-02T14:42:00.000Z</time>
      </trkpt>
      <trkpt lat="47.48259" lon="6.77117">
        <ele>321</ele>
        <time>2016-11-02T14:42:34.000Z</time>
      </trkpt>
      <trkpt lat="47.4826" lon="6.77116">
        <ele>321</ele>
        <time>2016-11-02T14:42:35.000Z</time>
      </trkpt>
      <trkpt lat="47.48261" lon="6.77112">
        <ele>321</ele>
        <time>2016-11-02T14:42:39.000Z</time>
      </trkpt>
      <trkpt lat="47.48262" lon="6.77109">
        <ele>321</ele>
        <time>2016-11-02T14:42:40.000Z</time>
      </trkpt>
      <trkpt lat="47.48262" lon="6.77105">
        <ele>321</ele>
        <time>2016-11-02T14:42:41.000Z</time>
      </trkpt>
      <trkpt lat="47.48263" lon="6.77101">
        <ele>320</ele>
        <time>2016-11-02T14:42:42.000Z</time>
      </trkpt>
      <trkpt lat="47.48264" lon="6.77097">
        <ele>320</ele>
        <time>2016-11-02T14:42:43.000Z</time>
      </trkpt>
      <trkpt lat="47.48264" lon="6.77092">
        <ele>320</ele>
        <time>2016-11-02T14:42:44.000Z</time>
      </trkpt>
      <trkpt lat="47.48265" lon="6.77088">
        <ele>320</ele>
        <time>2016-11-02T14:42:45.000Z</time>
      </trkpt>
      <trkpt lat="47.48266" lon="6.77083">
        <ele>317</ele>
        <time>2016-11-02T14:42:46.000Z</time>
      </trkpt>
      <trkpt lat="47.48267" lon="6.77079">
        <ele>317</ele>
        <time>2016-11-02T14:42:47.000Z</time>
      </trkpt>
      <trkpt lat="47.48268" lon="6.77074">
        <ele>317</ele>
        <time>2016-11-02T14:42:48.000Z</time>
      </trkpt>
      <trkpt lat="47.48269" lon="6.7707">
        <ele>317</ele>
        <time>2016-11-02T14:42:49.000Z</time>
      </trkpt>
      <trkpt lat="47.48269" lon="6.77065">
        <ele>317</ele>
        <time>2016-11-02T14:42:50.000Z</time>
      </trkpt>
      <trkpt lat="47.48271" lon="6.77061">
        <ele>317</ele>
        <time>2016-11-02T14:42:51.000Z</time>
      </trkpt>
      <trkpt lat="47.48272" lon="6.77057">
        <ele>317</ele>
        <time>2016-11-02T14:42:52.000Z</time>
      </trkpt>
      <trkpt lat="47.48273" lon="6.77053">
        <ele>317</ele>
        <time>2016-11-02T14:42:53.000Z</time>
      </trkpt>
      <trkpt lat="47.48274" lon="6.77048">
        <ele>316</ele>
        <time>2016-11-02T14:42:54.000Z</time>
      </trkpt>
      <trkpt lat="47.48275" lon="6.77043">
        <ele>316</ele>
        <time>2016-11-02T14:42:55.000Z</time>
      </trkpt>
      <trkpt lat="47.48276" lon="6.77039">
        <ele>316</ele>
        <time>2016-11-02T14:42:56.000Z</time>
      </trkpt>
      <trkpt lat="47.48277" lon="6.77034">
        <ele>316</ele>
        <time>2016-11-02T14:42:57.000Z</time>
      </trkpt>
      <trkpt lat="47.48278" lon="6.77031">
        <ele>316</ele>
        <time>2016-11-02T14:42:58.000Z</time>
      </trkpt>
      <trkpt lat="47.48278" lon="6.77024">
        <ele>315</ele>
        <time>2016-11-02T14:43:00.000Z</time>
      </trkpt>
      <trkpt lat="47.48278" lon="6.77022">
        <ele>315</ele>
        <time>2016-11-02T14:43:01.000Z</time>
      </trkpt>
      <trkpt lat="47.48277" lon="6.77017">
        <ele>315</ele>
        <time>2016-11-02T14:43:12.000Z</time>
      </trkpt>
      <trkpt lat="47.48278" lon="6.77015">
        <ele>315</ele>
        <time>2016-11-02T14:43:13.000Z</time>
      </trkpt>
      <trkpt lat="47.48278" lon="6.77012">
        <ele>315</ele>
        <time>2016-11-02T14:43:14.000Z</time>
      </trkpt>
      <trkpt lat="47.48279" lon="6.77008">
        <ele>315</ele>
        <time>2016-11-02T14:43:15.000Z</time>
      </trkpt>
      <trkpt lat="47.48278" lon="6.77003">
        <ele>315</ele>
        <time>2016-11-02T14:43:16.000Z</time>
      </trkpt>
      <trkpt lat="47.48276" lon="6.77">
        <ele>312</ele>
        <time>2016-11-02T14:43:17.000Z</time>
      </trkpt>
      <trkpt lat="47.48272" lon="6.76997">
        <ele>312</ele>
        <time>2016-11-02T14:43:18.000Z</time>
      </trkpt>
      <trkpt lat="47.48268" lon="6.76994">
        <ele>312</ele>
        <time>2016-11-02T14:43:19.000Z</time>
      </trkpt>
      <trkpt lat="47.48265" lon="6.76991">
        <ele>312</ele>
        <time>2016-11-02T14:43:20.000Z</time>
      </trkpt>
      <trkpt lat="47.48262" lon="6.76988">
        <ele>312</ele>
        <time>2016-11-02T14:43:21.000Z</time>
      </trkpt>
      <trkpt lat="47.48259" lon="6.76985">
        <ele>312</ele>
        <time>2016-11-02T14:43:22.000Z</time>
      </trkpt>
      <trkpt lat="47.48255" lon="6.76982">
        <ele>311</ele>
        <time>2016-11-02T14:43:23.000Z</time>
      </trkpt>
      <trkpt lat="47.48244" lon="6.76983">
        <ele>312</ele>
        <time>2016-11-02T14:43:24.000Z</time>
      </trkpt>
      <trkpt lat="47.4824" lon="6.76981">
        <ele>311</ele>
        <time>2016-11-02T14:43:25.000Z</time>
      </trkpt>
      <trkpt lat="47.48237" lon="6.76978">
        <ele>311</ele>
        <time>2016-11-02T14:43:26.000Z</time>
      </trkpt>
      <trkpt lat="47.48232" lon="6.76976">
        <ele>311</ele>
        <time>2016-11-02T14:43:27.000Z</time>
      </trkpt>
      <trkpt lat="47.48226" lon="6.76973">
        <ele>311</ele>
        <time>2016-11-02T14:43:28.000Z</time>
      </trkpt>
      <trkpt lat="47.48221" lon="6.7697">
        <ele>311</ele>
        <time>2016-11-02T14:43:29.000Z</time>
      </trkpt>
      <trkpt lat="47.48217" lon="6.76968">
        <ele>311</ele>
        <time>2016-11-02T14:43:30.000Z</time>
      </trkpt>
      <trkpt lat="47.48212" lon="6.76965">
        <ele>311</ele>
        <time>2016-11-02T14:43:31.000Z</time>
      </trkpt>
      <trkpt lat="47.48207" lon="6.76963">
        <ele>311</ele>
        <time>2016-11-02T14:43:32.000Z</time>
      </trkpt>
      <trkpt lat="47.48203" lon="6.76961">
        <ele>311</ele>
        <time>2016-11-02T14:43:33.000Z</time>
      </trkpt>
      <trkpt lat="47.48199" lon="6.76959">
        <ele>311</ele>
        <time>2016-11-02T14:43:34.000Z</time>
      </trkpt>
      <trkpt lat="47.48194" lon="6.76956">
        <ele>311</ele>
        <time>2016-11-02T14:43:35.000Z</time>
      </trkpt>
      <trkpt lat="47.4819" lon="6.76953">
        <ele>311</ele>
        <time>2016-11-02T14:43:36.000Z</time>
      </trkpt>
      <trkpt lat="47.48186" lon="6.76951">
        <ele>311</ele>
        <time>2016-11-02T14:43:37.000Z</time>
      </trkpt>
      <trkpt lat="47.48181" lon="6.76949">
        <ele>311</ele>
        <time>2016-11-02T14:43:38.000Z</time>
      </trkpt>
      <trkpt lat="47.48177" lon="6.76946">
        <ele>311</ele>
        <time>2016-11-02T14:43:39.000Z</time>
      </trkpt>
      <trkpt lat="47.48173" lon="6.76944">
        <ele>311</ele>
        <time>2016-11-02T14:43:40.000Z</time>
      </trkpt>
      <trkpt lat="47.4817" lon="6.76941">
        <ele>311</ele>
        <time>2016-11-02T14:43:41.000Z</time>
      </trkpt>
      <trkpt lat="47.48166" lon="6.76939">
        <ele>312</ele>
        <time>2016-11-02T14:43:42.000Z</time>
      </trkpt>
      <trkpt lat="47.48162" lon="6.76936">
        <ele>312</ele>
        <time>2016-11-02T14:43:43.000Z</time>
      </trkpt>
      <trkpt lat="47.48157" lon="6.76934">
        <ele>312</ele>
        <time>2016-11-02T14:43:44.000Z</time>
      </trkpt>
      <trkpt lat="47.48152" lon="6.76931">
        <ele>312</ele>
        <time>2016-11-02T14:43:45.000Z</time>
      </trkpt>
      <trkpt lat="47.48148" lon="6.76929">
        <ele>312</ele>
        <time>2016-11-02T14:43:46.000Z</time>
      </trkpt>
      <trkpt lat="47.48145" lon="6.76927">
        <ele>312</ele>
        <time>2016-11-02T14:43:47.000Z</time>
      </trkpt>
      <trkpt lat="47.48141" lon="6.76924">
        <ele>312</ele>
        <time>2016-11-02T14:43:48.000Z</time>
      </trkpt>
      <trkpt lat="47.48137" lon="6.76923">
        <ele>312</ele>
        <time>2016-11-02T14:43:49.000Z</time>
      </trkpt>
      <trkpt lat="47.48132" lon="6.76921">
        <ele>312</ele>
        <time>2016-11-02T14:43:50.000Z</time>
      </trkpt>
      <trkpt lat="47.48128" lon="6.76919">
        <ele>312</ele>
        <time>2016-11-02T14:43:51.000Z</time>
      </trkpt>
      <trkpt lat="47.48119" lon="6.76918">
        <ele>312</ele>
        <time>2016-11-02T14:43:52.000Z</time>
      </trkpt>
      <trkpt lat="47.48116" lon="6.76915">
        <ele>312</ele>
        <time>2016-11-02T14:43:53.000Z</time>
      </trkpt>
      <trkpt lat="47.48112" lon="6.76912">
        <ele>312</ele>
        <time>2016-11-02T14:43:54.000Z</time>
      </trkpt>
      <trkpt lat="47.48109" lon="6.76909">
        <ele>312</ele>
        <time>2016-11-02T14:43:55.000Z</time>
      </trkpt>
      <trkpt lat="47.48104" lon="6.76905">
        <ele>312</ele>
        <time>2016-11-02T14:43:56.000Z</time>
      </trkpt>
      <trkpt lat="47.481" lon="6.76901">
        <ele>312</ele>
        <time>2016-11-02T14:43:57.000Z</time>
      </trkpt>
      <trkpt lat="47.48096" lon="6.76898">
        <ele>312</ele>
        <time>2016-11-02T14:43:58.000Z</time>
      </trkpt>
      <trkpt lat="47.48091" lon="6.76895">
        <ele>312</ele>
        <time>2016-11-02T14:43:59.000Z</time>
      </trkpt>
      <trkpt lat="47.48087" lon="6.76892">
        <ele>312</ele>
        <time>2016-11-02T14:44:00.000Z</time>
      </trkpt>
      <trkpt lat="47.48083" lon="6.7689">
        <ele>312</ele>
        <time>2016-11-02T14:44:01.000Z</time>
      </trkpt>
      <trkpt lat="47.48077" lon="6.76887">
        <ele>312</ele>
        <time>2016-11-02T14:44:02.000Z</time>
      </trkpt>
      <trkpt lat="47.48073" lon="6.76883">
        <ele>312</ele>
        <time>2016-11-02T14:44:03.000Z</time>
      </trkpt>
      <trkpt lat="47.4807" lon="6.7688">
        <ele>312</ele>
        <time>2016-11-02T14:44:04.000Z</time>
      </trkpt>
      <trkpt lat="47.48065" lon="6.76876">
        <ele>312</ele>
        <time>2016-11-02T14:44:05.000Z</time>
      </trkpt>
      <trkpt lat="47.48062" lon="6.76872">
        <ele>313</ele>
        <time>2016-11-02T14:44:06.000Z</time>
      </trkpt>
      <trkpt lat="47.48059" lon="6.76867">
        <ele>313</ele>
        <time>2016-11-02T14:44:07.000Z</time>
      </trkpt>
      <trkpt lat="47.48056" lon="6.76862">
        <ele>313</ele>
        <time>2016-11-02T14:44:08.000Z</time>
      </trkpt>
      <trkpt lat="47.48054" lon="6.76858">
        <ele>313</ele>
        <time>2016-11-02T14:44:09.000Z</time>
      </trkpt>
      <trkpt lat="47.4805" lon="6.76853">
        <ele>313</ele>
        <time>2016-11-02T14:44:10.000Z</time>
      </trkpt>
      <trkpt lat="47.48047" lon="6.76847">
        <ele>313</ele>
        <time>2016-11-02T14:44:11.000Z</time>
      </trkpt>
      <trkpt lat="47.48045" lon="6.76842">
        <ele>313</ele>
        <time>2016-11-02T14:44:12.000Z</time>
      </trkpt>
      <trkpt lat="47.48041" lon="6.76838">
        <ele>313</ele>
        <time>2016-11-02T14:44:13.000Z</time>
      </trkpt>
      <trkpt lat="47.48037" lon="6.76834">
        <ele>313</ele>
        <time>2016-11-02T14:44:14.000Z</time>
      </trkpt>
      <trkpt lat="47.48034" lon="6.7683">
        <ele>313</ele>
        <time>2016-11-02T14:44:15.000Z</time>
      </trkpt>
      <trkpt lat="47.48031" lon="6.76825">
        <ele>313</ele>
        <time>2016-11-02T14:44:16.000Z</time>
      </trkpt>
      <trkpt lat="47.48028" lon="6.7682">
        <ele>313</ele>
        <time>2016-11-02T14:44:17.000Z</time>
      </trkpt>
      <trkpt lat="47.48025" lon="6.76816">
        <ele>313</ele>
        <time>2016-11-02T14:44:18.000Z</time>
      </trkpt>
      <trkpt lat="47.48022" lon="6.76811">
        <ele>313</ele>
        <time>2016-11-02T14:44:19.000Z</time>
      </trkpt>
      <trkpt lat="47.48018" lon="6.76805">
        <ele>313</ele>
        <time>2016-11-02T14:44:20.000Z</time>
      </trkpt>
      <trkpt lat="47.48016" lon="6.768">
        <ele>313</ele>
        <time>2016-11-02T14:44:21.000Z</time>
      </trkpt>
      <trkpt lat="47.48013" lon="6.76795">
        <ele>313</ele>
        <time>2016-11-02T14:44:22.000Z</time>
      </trkpt>
      <trkpt lat="47.4801" lon="6.76789">
        <ele>313</ele>
        <time>2016-11-02T14:44:23.000Z</time>
      </trkpt>
      <trkpt lat="47.48007" lon="6.76784">
        <ele>313</ele>
        <time>2016-11-02T14:44:24.000Z</time>
      </trkpt>
      <trkpt lat="47.48005" lon="6.76779">
        <ele>313</ele>
        <time>2016-11-02T14:44:25.000Z</time>
      </trkpt>
      <trkpt lat="47.48001" lon="6.76774">
        <ele>313</ele>
        <time>2016-11-02T14:44:26.000Z</time>
      </trkpt>
      <trkpt lat="47.47999" lon="6.76768">
        <ele>313</ele>
        <time>2016-11-02T14:44:27.000Z</time>
      </trkpt>
      <trkpt lat="47.47997" lon="6.76761">
        <ele>313</ele>
        <time>2016-11-02T14:44:28.000Z</time>
      </trkpt>
      <trkpt lat="47.47995" lon="6.76755">
        <ele>313</ele>
        <time>2016-11-02T14:44:29.000Z</time>
      </trkpt>
      <trkpt lat="47.47993" lon="6.76748">
        <ele>313</ele>
        <time>2016-11-02T14:44:30.000Z</time>
      </trkpt>
      <trkpt lat="47.47991" lon="6.76741">
        <ele>312</ele>
        <time>2016-11-02T14:44:31.000Z</time>
      </trkpt>
      <trkpt lat="47.47988" lon="6.76735">
        <ele>312</ele>
        <time>2016-11-02T14:44:32.000Z</time>
      </trkpt>
      <trkpt lat="47.47986" lon="6.7673">
        <ele>312</ele>
        <time>2016-11-02T14:44:33.000Z</time>
      </trkpt>
      <trkpt lat="47.47984" lon="6.76724">
        <ele>312</ele>
        <time>2016-11-02T14:44:34.000Z</time>
      </trkpt>
      <trkpt lat="47.47982" lon="6.76717">
        <ele>312</ele>
        <time>2016-11-02T14:44:35.000Z</time>
      </trkpt>
      <trkpt lat="47.47981" lon="6.76711">
        <ele>312</ele>
        <time>2016-11-02T14:44:36.000Z</time>
      </trkpt>
      <trkpt lat="47.4798" lon="6.76705">
        <ele>312</ele>
        <time>2016-11-02T14:44:37.000Z</time>
      </trkpt>
      <trkpt lat="47.47979" lon="6.76698">
        <ele>312</ele>
        <time>2016-11-02T14:44:38.000Z</time>
      </trkpt>
      <trkpt lat="47.47977" lon="6.76692">
        <ele>312</ele>
        <time>2016-11-02T14:44:39.000Z</time>
      </trkpt>
      <trkpt lat="47.47976" lon="6.76686">
        <ele>312</ele>
        <time>2016-11-02T14:44:40.000Z</time>
      </trkpt>
      <trkpt lat="47.47975" lon="6.76679">
        <ele>312</ele>
        <time>2016-11-02T14:44:41.000Z</time>
      </trkpt>
      <trkpt lat="47.47974" lon="6.76673">
        <ele>312</ele>
        <time>2016-11-02T14:44:42.000Z</time>
      </trkpt>
      <trkpt lat="47.47973" lon="6.76667">
        <ele>312</ele>
        <time>2016-11-02T14:44:43.000Z</time>
      </trkpt>
      <trkpt lat="47.47971" lon="6.76661">
        <ele>311</ele>
        <time>2016-11-02T14:44:44.000Z</time>
      </trkpt>
      <trkpt lat="47.4797" lon="6.76655">
        <ele>311</ele>
        <time>2016-11-02T14:44:45.000Z</time>
      </trkpt>
      <trkpt lat="47.47968" lon="6.76649">
        <ele>311</ele>
        <time>2016-11-02T14:44:46.000Z</time>
      </trkpt>
      <trkpt lat="47.47966" lon="6.76643">
        <ele>311</ele>
        <time>2016-11-02T14:44:47.000Z</time>
      </trkpt>
      <trkpt lat="47.47965" lon="6.76638">
        <ele>311</ele>
        <time>2016-11-02T14:44:48.000Z</time>
      </trkpt>
      <trkpt lat="47.47964" lon="6.76633">
        <ele>311</ele>
        <time>2016-11-02T14:44:49.000Z</time>
      </trkpt>
      <trkpt lat="47.47963" lon="6.76629">
        <ele>311</ele>
        <time>2016-11-02T14:44:50.000Z</time>
      </trkpt>
      <trkpt lat="47.47962" lon="6.76625">
        <ele>311</ele>
        <time>2016-11-02T14:44:51.000Z</time>
      </trkpt>
      <trkpt lat="47.47962" lon="6.76619">
        <ele>311</ele>
        <time>2016-11-02T14:44:53.000Z</time>
      </trkpt>
      <trkpt lat="47.47964" lon="6.76616">
        <ele>311</ele>
        <time>2016-11-02T14:44:54.000Z</time>
      </trkpt>
      <trkpt lat="47.47967" lon="6.76614">
        <ele>311</ele>
        <time>2016-11-02T14:44:55.000Z</time>
      </trkpt>
      <trkpt lat="47.47971" lon="6.76613">
        <ele>311</ele>
        <time>2016-11-02T14:44:56.000Z</time>
      </trkpt>
      <trkpt lat="47.47975" lon="6.76612">
        <ele>311</ele>
        <time>2016-11-02T14:44:57.000Z</time>
      </trkpt>
      <trkpt lat="47.4798" lon="6.76611">
        <ele>311</ele>
        <time>2016-11-02T14:44:58.000Z</time>
      </trkpt>
      <trkpt lat="47.47985" lon="6.76609">
        <ele>311</ele>
        <time>2016-11-02T14:44:59.000Z</time>
      </trkpt>
      <trkpt lat="47.4799" lon="6.76607">
        <ele>312</ele>
        <time>2016-11-02T14:45:00.000Z</time>
      </trkpt>
      <trkpt lat="47.47994" lon="6.76605">
        <ele>312</ele>
        <time>2016-11-02T14:45:01.000Z</time>
      </trkpt>
      <trkpt lat="47.47999" lon="6.76603">
        <ele>312</ele>
        <time>2016-11-02T14:45:02.000Z</time>
      </trkpt>
      <trkpt lat="47.48003" lon="6.766">
        <ele>312</ele>
        <time>2016-11-02T14:45:03.000Z</time>
      </trkpt>
      <trkpt lat="47.48009" lon="6.76597">
        <ele>312</ele>
        <time>2016-11-02T14:45:04.000Z</time>
      </trkpt>
      <trkpt lat="47.48013" lon="6.76594">
        <ele>312</ele>
        <time>2016-11-02T14:45:05.000Z</time>
      </trkpt>
      <trkpt lat="47.48017" lon="6.76592">
        <ele>312</ele>
        <time>2016-11-02T14:45:06.000Z</time>
      </trkpt>
      <trkpt lat="47.48022" lon="6.76589">
        <ele>312</ele>
        <time>2016-11-02T14:45:07.000Z</time>
      </trkpt>
      <trkpt lat="47.48026" lon="6.76586">
        <ele>312</ele>
        <time>2016-11-02T14:45:08.000Z</time>
      </trkpt>
      <trkpt lat="47.4803" lon="6.76583">
        <ele>312</ele>
        <time>2016-11-02T14:45:09.000Z</time>
      </trkpt>
      <trkpt lat="47.48035" lon="6.76579">
        <ele>312</ele>
        <time>2016-11-02T14:45:10.000Z</time>
      </trkpt>
      <trkpt lat="47.48039" lon="6.76575">
        <ele>312</ele>
        <time>2016-11-02T14:45:11.000Z</time>
      </trkpt>
      <trkpt lat="47.48043" lon="6.76571">
        <ele>312</ele>
        <time>2016-11-02T14:45:12.000Z</time>
      </trkpt>
      <trkpt lat="47.48047" lon="6.76568">
        <ele>312</ele>
        <time>2016-11-02T14:45:13.000Z</time>
      </trkpt>
      <trkpt lat="47.48052" lon="6.76563">
        <ele>312</ele>
        <time>2016-11-02T14:45:14.000Z</time>
      </trkpt>
      <trkpt lat="47.48057" lon="6.76559">
        <ele>312</ele>
        <time>2016-11-02T14:45:15.000Z</time>
      </trkpt>
      <trkpt lat="47.48061" lon="6.76554">
        <ele>312</ele>
        <time>2016-11-02T14:45:16.000Z</time>
      </trkpt>
      <trkpt lat="47.48065" lon="6.7655">
        <ele>312</ele>
        <time>2016-11-02T14:45:17.000Z</time>
      </trkpt>
      <trkpt lat="47.4807" lon="6.76546">
        <ele>312</ele>
        <time>2016-11-02T14:45:18.000Z</time>
      </trkpt>
      <trkpt lat="47.48074" lon="6.76542">
        <ele>312</ele>
        <time>2016-11-02T14:45:19.000Z</time>
      </trkpt>
      <trkpt lat="47.48079" lon="6.76538">
        <ele>312</ele>
        <time>2016-11-02T14:45:20.000Z</time>
      </trkpt>
      <trkpt lat="47.48082" lon="6.76534">
        <ele>312</ele>
        <time>2016-11-02T14:45:21.000Z</time>
      </trkpt>
      <trkpt lat="47.48086" lon="6.7653">
        <ele>317</ele>
        <time>2016-11-02T14:45:22.000Z</time>
      </trkpt>
      <trkpt lat="47.4809" lon="6.76527">
        <ele>317</ele>
        <time>2016-11-02T14:45:23.000Z</time>
      </trkpt>
      <trkpt lat="47.48094" lon="6.76523">
        <ele>317</ele>
        <time>2016-11-02T14:45:24.000Z</time>
      </trkpt>
      <trkpt lat="47.48097" lon="6.76519">
        <ele>317</ele>
        <time>2016-11-02T14:45:25.000Z</time>
      </trkpt>
      <trkpt lat="47.481" lon="6.76517">
        <ele>318</ele>
        <time>2016-11-02T14:45:26.000Z</time>
      </trkpt>
      <trkpt lat="47.48102" lon="6.76514">
        <ele>318</ele>
        <time>2016-11-02T14:45:27.000Z</time>
      </trkpt>
      <trkpt lat="47.48105" lon="6.76511">
        <ele>318</ele>
        <time>2016-11-02T14:45:29.000Z</time>
      </trkpt>
      <trkpt lat="47.48106" lon="6.76511">
        <ele>318</ele>
        <time>2016-11-02T14:45:30.000Z</time>
      </trkpt>
      <trkpt lat="47.48104" lon="6.76507">
        <ele>318</ele>
        <time>2016-11-02T14:45:48.000Z</time>
      </trkpt>
      <trkpt lat="47.48103" lon="6.76505">
        <ele>318</ele>
        <time>2016-11-02T14:45:49.000Z</time>
      </trkpt>
      <trkpt lat="47.48102" lon="6.76501">
        <ele>318</ele>
        <time>2016-11-02T14:45:50.000Z</time>
      </trkpt>
      <trkpt lat="47.48101" lon="6.76496">
        <ele>322</ele>
        <time>2016-11-02T14:45:51.000Z</time>
      </trkpt>
      <trkpt lat="47.481" lon="6.7649">
        <ele>323</ele>
        <time>2016-11-02T14:45:52.000Z</time>
      </trkpt>
      <trkpt lat="47.48099" lon="6.76484">
        <ele>324</ele>
        <time>2016-11-02T14:45:53.000Z</time>
      </trkpt>
      <trkpt lat="47.48098" lon="6.76477">
        <ele>325</ele>
        <time>2016-11-02T14:45:54.000Z</time>
      </trkpt>
      <trkpt lat="47.48097" lon="6.76465">
        <ele>326</ele>
        <time>2016-11-02T14:45:55.000Z</time>
      </trkpt>
      <trkpt lat="47.48095" lon="6.76459">
        <ele>326</ele>
        <time>2016-11-02T14:45:56.000Z</time>
      </trkpt>
      <trkpt lat="47.48093" lon="6.76454">
        <ele>326</ele>
        <time>2016-11-02T14:45:57.000Z</time>
      </trkpt>
      <trkpt lat="47.48091" lon="6.76449">
        <ele>326</ele>
        <time>2016-11-02T14:45:58.000Z</time>
      </trkpt>
      <trkpt lat="47.48085" lon="6.76444">
        <ele>325</ele>
        <time>2016-11-02T14:45:59.000Z</time>
      </trkpt>
      <trkpt lat="47.48082" lon="6.76438">
        <ele>315</ele>
        <time>2016-11-02T14:46:00.000Z</time>
      </trkpt>
      <trkpt lat="47.48079" lon="6.76434">
        <ele>315</ele>
        <time>2016-11-02T14:46:01.000Z</time>
      </trkpt>
      <trkpt lat="47.48076" lon="6.76429">
        <ele>316</ele>
        <time>2016-11-02T14:46:02.000Z</time>
      </trkpt>
      <trkpt lat="47.48071" lon="6.76424">
        <ele>316</ele>
        <time>2016-11-02T14:46:03.000Z</time>
      </trkpt>
      <trkpt lat="47.48068" lon="6.76418">
        <ele>316</ele>
        <time>2016-11-02T14:46:04.000Z</time>
      </trkpt>
      <trkpt lat="47.48066" lon="6.76412">
        <ele>318</ele>
        <time>2016-11-02T14:46:05.000Z</time>
      </trkpt>
      <trkpt lat="47.48063" lon="6.76405">
        <ele>317</ele>
        <time>2016-11-02T14:46:06.000Z</time>
      </trkpt>
      <trkpt lat="47.4806" lon="6.76399">
        <ele>317</ele>
        <time>2016-11-02T14:46:07.000Z</time>
      </trkpt>
      <trkpt lat="47.48056" lon="6.76393">
        <ele>317</ele>
        <time>2016-11-02T14:46:08.000Z</time>
      </trkpt>
      <trkpt lat="47.48053" lon="6.76387">
        <ele>318</ele>
        <time>2016-11-02T14:46:09.000Z</time>
      </trkpt>
      <trkpt lat="47.48051" lon="6.76382">
        <ele>318</ele>
        <time>2016-11-02T14:46:10.000Z</time>
      </trkpt>
      <trkpt lat="47.48049" lon="6.76378">
        <ele>318</ele>
        <time>2016-11-02T14:46:11.000Z</time>
      </trkpt>
      <trkpt lat="47.48046" lon="6.76372">
        <ele>318</ele>
        <time>2016-11-02T14:46:12.000Z</time>
      </trkpt>
      <trkpt lat="47.48044" lon="6.76368">
        <ele>318</ele>
        <time>2016-11-02T14:46:13.000Z</time>
      </trkpt>
      <trkpt lat="47.48041" lon="6.76364">
        <ele>318</ele>
        <time>2016-11-02T14:46:14.000Z</time>
      </trkpt>
      <trkpt lat="47.48038" lon="6.7636">
        <ele>317</ele>
        <time>2016-11-02T14:46:15.000Z</time>
      </trkpt>
      <trkpt lat="47.48036" lon="6.76355">
        <ele>317</ele>
        <time>2016-11-02T14:46:16.000Z</time>
      </trkpt>
      <trkpt lat="47.48036" lon="6.76351">
        <ele>317</ele>
        <time>2016-11-02T14:46:17.000Z</time>
      </trkpt>
      <trkpt lat="47.48034" lon="6.76347">
        <ele>317</ele>
        <time>2016-11-02T14:46:18.000Z</time>
      </trkpt>
      <trkpt lat="47.48032" lon="6.76343">
        <ele>317</ele>
        <time>2016-11-02T14:46:19.000Z</time>
      </trkpt>
      <trkpt lat="47.4803" lon="6.76339">
        <ele>317</ele>
        <time>2016-11-02T14:46:20.000Z</time>
      </trkpt>
      <trkpt lat="47.48029" lon="6.76336">
        <ele>317</ele>
        <time>2016-11-02T14:46:21.000Z</time>
      </trkpt>
      <trkpt lat="47.48027" lon="6.76332">
        <ele>322</ele>
        <time>2016-11-02T14:46:22.000Z</time>
      </trkpt>
      <trkpt lat="47.48026" lon="6.76328">
        <ele>321</ele>
        <time>2016-11-02T14:46:23.000Z</time>
      </trkpt>
      <trkpt lat="47.48025" lon="6.76325">
        <ele>321</ele>
        <time>2016-11-02T14:46:24.000Z</time>
      </trkpt>
      <trkpt lat="47.48023" lon="6.76322">
        <ele>321</ele>
        <time>2016-11-02T14:46:25.000Z</time>
      </trkpt>
      <trkpt lat="47.48023" lon="6.76326">
        <ele>321</ele>
        <time>2016-11-02T14:46:29.000Z</time>
      </trkpt>
      <trkpt lat="47.48025" lon="6.76331">
        <ele>321</ele>
        <time>2016-11-02T14:46:30.000Z</time>
      </trkpt>
      <trkpt lat="47.48036" lon="6.76347">
        <ele>318</ele>
        <time>2016-11-02T14:46:31.000Z</time>
      </trkpt>
      <trkpt lat="47.48041" lon="6.76355">
        <ele>318</ele>
        <time>2016-11-02T14:46:32.000Z</time>
      </trkpt>
      <trkpt lat="47.48045" lon="6.76363">
        <ele>318</ele>
        <time>2016-11-02T14:46:33.000Z</time>
      </trkpt>
      <trkpt lat="47.4805" lon="6.76372">
        <ele>318</ele>
        <time>2016-11-02T14:46:34.000Z</time>
      </trkpt>
      <trkpt lat="47.48054" lon="6.76382">
        <ele>318</ele>
        <time>2016-11-02T14:46:35.000Z</time>
      </trkpt>
      <trkpt lat="47.48057" lon="6.76391">
        <ele>318</ele>
        <time>2016-11-02T14:46:36.000Z</time>
      </trkpt>
      <trkpt lat="47.48061" lon="6.764">
        <ele>318</ele>
        <time>2016-11-02T14:46:37.000Z</time>
      </trkpt>
      <trkpt lat="47.48065" lon="6.76409">
        <ele>318</ele>
        <time>2016-11-02T14:46:38.000Z</time>
      </trkpt>
      <trkpt lat="47.48069" lon="6.76417">
        <ele>316</ele>
        <time>2016-11-02T14:46:39.000Z</time>
      </trkpt>
      <trkpt lat="47.48073" lon="6.76425">
        <ele>316</ele>
        <time>2016-11-02T14:46:40.000Z</time>
      </trkpt>
      <trkpt lat="47.48078" lon="6.76431">
        <ele>316</ele>
        <time>2016-11-02T14:46:41.000Z</time>
      </trkpt>
      <trkpt lat="47.48084" lon="6.76438">
        <ele>325</ele>
        <time>2016-11-02T14:46:42.000Z</time>
      </trkpt>
      <trkpt lat="47.48088" lon="6.76444">
        <ele>326</ele>
        <time>2016-11-02T14:46:43.000Z</time>
      </trkpt>
      <trkpt lat="47.48093" lon="6.76451">
        <ele>326</ele>
        <time>2016-11-02T14:46:44.000Z</time>
      </trkpt>
      <trkpt lat="47.48097" lon="6.76458">
        <ele>327</ele>
        <time>2016-11-02T14:46:45.000Z</time>
      </trkpt>
      <trkpt lat="47.48099" lon="6.76466">
        <ele>326</ele>
        <time>2016-11-02T14:46:46.000Z</time>
      </trkpt>
      <trkpt lat="47.48101" lon="6.76474">
        <ele>326</ele>
        <time>2016-11-02T14:46:47.000Z</time>
      </trkpt>
      <trkpt lat="47.48102" lon="6.7648">
        <ele>325</ele>
        <time>2016-11-02T14:46:48.000Z</time>
      </trkpt>
      <trkpt lat="47.48102" lon="6.76485">
        <ele>324</ele>
        <time>2016-11-02T14:46:49.000Z</time>
      </trkpt>
      <trkpt lat="47.48102" lon="6.76488">
        <ele>324</ele>
        <time>2016-11-02T14:46:50.000Z</time>
      </trkpt>
      <trkpt lat="47.48102" lon="6.76491">
        <ele>323</ele>
        <time>2016-11-02T14:46:51.000Z</time>
      </trkpt>
      <trkpt lat="47.48103" lon="6.76497">
        <ele>323</ele>
        <time>2016-11-02T14:46:56.000Z</time>
      </trkpt>
      <trkpt lat="47.48103" lon="6.76498">
        <ele>323</ele>
        <time>2016-11-02T14:46:57.000Z</time>
      </trkpt>
      <trkpt lat="47.48104" lon="6.76502">
        <ele>318</ele>
        <time>2016-11-02T14:47:02.000Z</time>
      </trkpt>
      <trkpt lat="47.48105" lon="6.76505">
        <ele>318</ele>
        <time>2016-11-02T14:47:03.000Z</time>
      </trkpt>
      <trkpt lat="47.48107" lon="6.76508">
        <ele>319</ele>
        <time>2016-11-02T14:47:04.000Z</time>
      </trkpt>
      <trkpt lat="47.48109" lon="6.76512">
        <ele>319</ele>
        <time>2016-11-02T14:47:05.000Z</time>
      </trkpt>
      <trkpt lat="47.48112" lon="6.76516">
        <ele>319</ele>
        <time>2016-11-02T14:47:06.000Z</time>
      </trkpt>
      <trkpt lat="47.48115" lon="6.76522">
        <ele>320</ele>
        <time>2016-11-02T14:47:07.000Z</time>
      </trkpt>
      <trkpt lat="47.48118" lon="6.76527">
        <ele>320</ele>
        <time>2016-11-02T14:47:08.000Z</time>
      </trkpt>
      <trkpt lat="47.4812" lon="6.76533">
        <ele>320</ele>
        <time>2016-11-02T14:47:09.000Z</time>
      </trkpt>
      <trkpt lat="47.48123" lon="6.76538">
        <ele>320</ele>
        <time>2016-11-02T14:47:10.000Z</time>
      </trkpt>
      <trkpt lat="47.48125" lon="6.76544">
        <ele>320</ele>
        <time>2016-11-02T14:47:11.000Z</time>
      </trkpt>
      <trkpt lat="47.48128" lon="6.76548">
        <ele>320</ele>
        <time>2016-11-02T14:47:12.000Z</time>
      </trkpt>
      <trkpt lat="47.4813" lon="6.76552">
        <ele>320</ele>
        <time>2016-11-02T14:47:13.000Z</time>
      </trkpt>
      <trkpt lat="47.48143" lon="6.76547">
        <ele>321</ele>
        <time>2016-11-02T14:47:14.000Z</time>
      </trkpt>
      <trkpt lat="47.48149" lon="6.76549">
        <ele>321</ele>
        <time>2016-11-02T14:47:15.000Z</time>
      </trkpt>
      <trkpt lat="47.48152" lon="6.76554">
        <ele>321</ele>
        <time>2016-11-02T14:47:16.000Z</time>
      </trkpt>
      <trkpt lat="47.48157" lon="6.76559">
        <ele>320</ele>
        <time>2016-11-02T14:47:17.000Z</time>
      </trkpt>
      <trkpt lat="47.4816" lon="6.76568">
        <ele>320</ele>
        <time>2016-11-02T14:47:18.000Z</time>
      </trkpt>
      <trkpt lat="47.48163" lon="6.76574">
        <ele>319</ele>
        <time>2016-11-02T14:47:19.000Z</time>
      </trkpt>
      <trkpt lat="47.48166" lon="6.76581">
        <ele>318</ele>
        <time>2016-11-02T14:47:20.000Z</time>
      </trkpt>
      <trkpt lat="47.48169" lon="6.76588">
        <ele>320</ele>
        <time>2016-11-02T14:47:21.000Z</time>
      </trkpt>
      <trkpt lat="47.48173" lon="6.76594">
        <ele>322</ele>
        <time>2016-11-02T14:47:22.000Z</time>
      </trkpt>
      <trkpt lat="47.48177" lon="6.766">
        <ele>323</ele>
        <time>2016-11-02T14:47:23.000Z</time>
      </trkpt>
      <trkpt lat="47.48182" lon="6.76607">
        <ele>325</ele>
        <time>2016-11-02T14:47:24.000Z</time>
      </trkpt>
      <trkpt lat="47.48185" lon="6.76613">
        <ele>325</ele>
        <time>2016-11-02T14:47:25.000Z</time>
      </trkpt>
      <trkpt lat="47.48189" lon="6.76619">
        <ele>325</ele>
        <time>2016-11-02T14:47:26.000Z</time>
      </trkpt>
      <trkpt lat="47.48193" lon="6.76627">
        <ele>325</ele>
        <time>2016-11-02T14:47:27.000Z</time>
      </trkpt>
      <trkpt lat="47.48198" lon="6.76633">
        <ele>325</ele>
        <time>2016-11-02T14:47:28.000Z</time>
      </trkpt>
      <trkpt lat="47.48202" lon="6.76638">
        <ele>325</ele>
        <time>2016-11-02T14:47:29.000Z</time>
      </trkpt>
      <trkpt lat="47.48206" lon="6.76644">
        <ele>325</ele>
        <time>2016-11-02T14:47:30.000Z</time>
      </trkpt>
      <trkpt lat="47.48211" lon="6.7665">
        <ele>326</ele>
        <time>2016-11-02T14:47:31.000Z</time>
      </trkpt>
      <trkpt lat="47.48217" lon="6.76655">
        <ele>326</ele>
        <time>2016-11-02T14:47:32.000Z</time>
      </trkpt>
      <trkpt lat="47.48221" lon="6.7666">
        <ele>326</ele>
        <time>2016-11-02T14:47:33.000Z</time>
      </trkpt>
      <trkpt lat="47.48226" lon="6.76666">
        <ele>326</ele>
        <time>2016-11-02T14:47:34.000Z</time>
      </trkpt>
      <trkpt lat="47.4823" lon="6.76672">
        <ele>319</ele>
        <time>2016-11-02T14:47:35.000Z</time>
      </trkpt>
      <trkpt lat="47.48234" lon="6.76677">
        <ele>320</ele>
        <time>2016-11-02T14:47:36.000Z</time>
      </trkpt>
      <trkpt lat="47.48237" lon="6.76681">
        <ele>320</ele>
        <time>2016-11-02T14:47:37.000Z</time>
      </trkpt>
      <trkpt lat="47.4824" lon="6.76686">
        <ele>319</ele>
        <time>2016-11-02T14:47:38.000Z</time>
      </trkpt>
      <trkpt lat="47.48244" lon="6.76691">
        <ele>319</ele>
        <time>2016-11-02T14:47:39.000Z</time>
      </trkpt>
      <trkpt lat="47.48246" lon="6.76697">
        <ele>318</ele>
        <time>2016-11-02T14:47:40.000Z</time>
      </trkpt>
      <trkpt lat="47.48248" lon="6.76704">
        <ele>317</ele>
        <time>2016-11-02T14:47:41.000Z</time>
      </trkpt>
      <trkpt lat="47.48247" lon="6.76711">
        <ele>316</ele>
        <time>2016-11-02T14:47:42.000Z</time>
      </trkpt>
      <trkpt lat="47.48246" lon="6.76718">
        <ele>316</ele>
        <time>2016-11-02T14:47:43.000Z</time>
      </trkpt>
      <trkpt lat="47.48242" lon="6.76724">
        <ele>315</ele>
        <time>2016-11-02T14:47:44.000Z</time>
      </trkpt>
      <trkpt lat="47.48238" lon="6.7673">
        <ele>315</ele>
        <time>2016-11-02T14:47:45.000Z</time>
      </trkpt>
      <trkpt lat="47.48234" lon="6.76735">
        <ele>314</ele>
        <time>2016-11-02T14:47:46.000Z</time>
      </trkpt>
      <trkpt lat="47.4823" lon="6.7674">
        <ele>314</ele>
        <time>2016-11-02T14:47:47.000Z</time>
      </trkpt>
      <trkpt lat="47.48226" lon="6.76746">
        <ele>314</ele>
        <time>2016-11-02T14:47:48.000Z</time>
      </trkpt>
      <trkpt lat="47.48226" lon="6.76753">
        <ele>312</ele>
        <time>2016-11-02T14:47:49.000Z</time>
      </trkpt>
      <trkpt lat="47.48229" lon="6.76759">
        <ele>312</ele>
        <time>2016-11-02T14:47:50.000Z</time>
      </trkpt>
      <trkpt lat="47.48233" lon="6.76764">
        <ele>312</ele>
        <time>2016-11-02T14:47:51.000Z</time>
      </trkpt>
      <trkpt lat="47.48237" lon="6.76768">
        <ele>312</ele>
        <time>2016-11-02T14:47:52.000Z</time>
      </trkpt>
      <trkpt lat="47.48241" lon="6.76772">
        <ele>312</ele>
        <time>2016-11-02T14:47:53.000Z</time>
      </trkpt>
      <trkpt lat="47.48245" lon="6.76776">
        <ele>312</ele>
        <time>2016-11-02T14:47:54.000Z</time>
      </trkpt>
      <trkpt lat="47.48245" lon="6.76781">
        <ele>312</ele>
        <time>2016-11-02T14:47:55.000Z</time>
      </trkpt>
      <trkpt lat="47.48246" lon="6.76787">
        <ele>312</ele>
        <time>2016-11-02T14:47:57.000Z</time>
      </trkpt>
      <trkpt lat="47.48246" lon="6.76788">
        <ele>312</ele>
        <time>2016-11-02T14:47:58.000Z</time>
      </trkpt>
      <trkpt lat="47.48246" lon="6.76794">
        <ele>312</ele>
        <time>2016-11-02T14:48:01.000Z</time>
      </trkpt>
      <trkpt lat="47.48247" lon="6.76796">
        <ele>312</ele>
        <time>2016-11-02T14:48:02.000Z</time>
      </trkpt>
      <trkpt lat="47.4825" lon="6.768">
        <ele>312</ele>
        <time>2016-11-02T14:48:04.000Z</time>
      </trkpt>
      <trkpt lat="47.48252" lon="6.76801">
        <ele>313</ele>
        <time>2016-11-02T14:48:05.000Z</time>
      </trkpt>
      <trkpt lat="47.48256" lon="6.76802">
        <ele>313</ele>
        <time>2016-11-02T14:48:06.000Z</time>
      </trkpt>
      <trkpt lat="47.48259" lon="6.76804">
        <ele>313</ele>
        <time>2016-11-02T14:48:07.000Z</time>
      </trkpt>
      <trkpt lat="47.48263" lon="6.76806">
        <ele>313</ele>
        <time>2016-11-02T14:48:08.000Z</time>
      </trkpt>
      <trkpt lat="47.48266" lon="6.76808">
        <ele>313</ele>
        <time>2016-11-02T14:48:09.000Z</time>
      </trkpt>
      <trkpt lat="47.4827" lon="6.76811">
        <ele>313</ele>
        <time>2016-11-02T14:48:10.000Z</time>
      </trkpt>
      <trkpt lat="47.48274" lon="6.76814">
        <ele>313</ele>
        <time>2016-11-02T14:48:11.000Z</time>
      </trkpt>
      <trkpt lat="47.48278" lon="6.76817">
        <ele>313</ele>
        <time>2016-11-02T14:48:12.000Z</time>
      </trkpt>
      <trkpt lat="47.48282" lon="6.76821">
        <ele>313</ele>
        <time>2016-11-02T14:48:13.000Z</time>
      </trkpt>
      <trkpt lat="47.48285" lon="6.76825">
        <ele>313</ele>
        <time>2016-11-02T14:48:14.000Z</time>
      </trkpt>
      <trkpt lat="47.48289" lon="6.7683">
        <ele>313</ele>
        <time>2016-11-02T14:48:15.000Z</time>
      </trkpt>
      <trkpt lat="47.48293" lon="6.76835">
        <ele>311</ele>
        <time>2016-11-02T14:48:16.000Z</time>
      </trkpt>
      <trkpt lat="47.48297" lon="6.76838">
        <ele>311</ele>
        <time>2016-11-02T14:48:17.000Z</time>
      </trkpt>
      <trkpt lat="47.48303" lon="6.7684">
        <ele>311</ele>
        <time>2016-11-02T14:48:18.000Z</time>
      </trkpt>
      <trkpt lat="47.48308" lon="6.76842">
        <ele>311</ele>
        <time>2016-11-02T14:48:19.000Z</time>
      </trkpt>
      <trkpt lat="47.48312" lon="6.76846">
        <ele>311</ele>
        <time>2016-11-02T14:48:20.000Z</time>
      </trkpt>
      <trkpt lat="47.48318" lon="6.76849">
        <ele>311</ele>
        <time>2016-11-02T14:48:21.000Z</time>
      </trkpt>
      <trkpt lat="47.48327" lon="6.76856">
        <ele>310</ele>
        <time>2016-11-02T14:48:23.000Z</time>
      </trkpt>
      <trkpt lat="47.48333" lon="6.76859">
        <ele>310</ele>
        <time>2016-11-02T14:48:24.000Z</time>
      </trkpt>
      <trkpt lat="47.48337" lon="6.76862">
        <ele>311</ele>
        <time>2016-11-02T14:48:25.000Z</time>
      </trkpt>
      <trkpt lat="47.48342" lon="6.76866">
        <ele>311</ele>
        <time>2016-11-02T14:48:26.000Z</time>
      </trkpt>
      <trkpt lat="47.48347" lon="6.7687">
        <ele>311</ele>
        <time>2016-11-02T14:48:27.000Z</time>
      </trkpt>
      <trkpt lat="47.48352" lon="6.76874">
        <ele>311</ele>
        <time>2016-11-02T14:48:28.000Z</time>
      </trkpt>
      <trkpt lat="47.48355" lon="6.76879">
        <ele>311</ele>
        <time>2016-11-02T14:48:29.000Z</time>
      </trkpt>
      <trkpt lat="47.4836" lon="6.76882">
        <ele>311</ele>
        <time>2016-11-02T14:48:30.000Z</time>
      </trkpt>
      <trkpt lat="47.48365" lon="6.76886">
        <ele>311</ele>
        <time>2016-11-02T14:48:31.000Z</time>
      </trkpt>
      <trkpt lat="47.48369" lon="6.76889">
        <ele>311</ele>
        <time>2016-11-02T14:48:32.000Z</time>
      </trkpt>
      <trkpt lat="47.48374" lon="6.76892">
        <ele>311</ele>
        <time>2016-11-02T14:48:33.000Z</time>
      </trkpt>
      <trkpt lat="47.48379" lon="6.76895">
        <ele>311</ele>
        <time>2016-11-02T14:48:34.000Z</time>
      </trkpt>
      <trkpt lat="47.48383" lon="6.76898">
        <ele>312</ele>
        <time>2016-11-02T14:48:35.000Z</time>
      </trkpt>
      <trkpt lat="47.48389" lon="6.76901">
        <ele>312</ele>
        <time>2016-11-02T14:48:36.000Z</time>
      </trkpt>
      <trkpt lat="47.48393" lon="6.76905">
        <ele>312</ele>
        <time>2016-11-02T14:48:37.000Z</time>
      </trkpt>
      <trkpt lat="47.48398" lon="6.76907">
        <ele>312</ele>
        <time>2016-11-02T14:48:38.000Z</time>
      </trkpt>
      <trkpt lat="47.48403" lon="6.7691">
        <ele>312</ele>
        <time>2016-11-02T14:48:39.000Z</time>
      </trkpt>
      <trkpt lat="47.48408" lon="6.76914">
        <ele>312</ele>
        <time>2016-11-02T14:48:40.000Z</time>
      </trkpt>
      <trkpt lat="47.48412" lon="6.76918">
        <ele>313</ele>
        <time>2016-11-02T14:48:41.000Z</time>
      </trkpt>
      <trkpt lat="47.48417" lon="6.76922">
        <ele>313</ele>
        <time>2016-11-02T14:48:42.000Z</time>
      </trkpt>
      <trkpt lat="47.48422" lon="6.76926">
        <ele>314</ele>
        <time>2016-11-02T14:48:43.000Z</time>
      </trkpt>
      <trkpt lat="47.48427" lon="6.76928">
        <ele>314</ele>
        <time>2016-11-02T14:48:44.000Z</time>
      </trkpt>
      <trkpt lat="47.48431" lon="6.76932">
        <ele>314</ele>
        <time>2016-11-02T14:48:45.000Z</time>
      </trkpt>
      <trkpt lat="47.48436" lon="6.76935">
        <ele>314</ele>
        <time>2016-11-02T14:48:46.000Z</time>
      </trkpt>
      <trkpt lat="47.4844" lon="6.76939">
        <ele>315</ele>
        <time>2016-11-02T14:48:47.000Z</time>
      </trkpt>
      <trkpt lat="47.48444" lon="6.76943">
        <ele>315</ele>
        <time>2016-11-02T14:48:48.000Z</time>
      </trkpt>
      <trkpt lat="47.48449" lon="6.76946">
        <ele>315</ele>
        <time>2016-11-02T14:48:49.000Z</time>
      </trkpt>
      <trkpt lat="47.48454" lon="6.7695">
        <ele>315</ele>
        <time>2016-11-02T14:48:50.000Z</time>
      </trkpt>
      <trkpt lat="47.48458" lon="6.76953">
        <ele>315</ele>
        <time>2016-11-02T14:48:51.000Z</time>
      </trkpt>
      <trkpt lat="47.48462" lon="6.76956">
        <ele>315</ele>
        <time>2016-11-02T14:48:52.000Z</time>
      </trkpt>
      <trkpt lat="47.48466" lon="6.76959">
        <ele>315</ele>
        <time>2016-11-02T14:48:53.000Z</time>
      </trkpt>
      <trkpt lat="47.4847" lon="6.76963">
        <ele>315</ele>
        <time>2016-11-02T14:48:54.000Z</time>
      </trkpt>
      <trkpt lat="47.48476" lon="6.76965">
        <ele>315</ele>
        <time>2016-11-02T14:48:55.000Z</time>
      </trkpt>
      <trkpt lat="47.4848" lon="6.76968">
        <ele>315</ele>
        <time>2016-11-02T14:48:56.000Z</time>
      </trkpt>
      <trkpt lat="47.48484" lon="6.76972">
        <ele>315</ele>
        <time>2016-11-02T14:48:57.000Z</time>
      </trkpt>
      <trkpt lat="47.48489" lon="6.76975">
        <ele>316</ele>
        <time>2016-11-02T14:48:58.000Z</time>
      </trkpt>
      <trkpt lat="47.48494" lon="6.76979">
        <ele>316</ele>
        <time>2016-11-02T14:48:59.000Z</time>
      </trkpt>
      <trkpt lat="47.48498" lon="6.76982">
        <ele>316</ele>
        <time>2016-11-02T14:49:00.000Z</time>
      </trkpt>
      <trkpt lat="47.48503" lon="6.76985">
        <ele>316</ele>
        <time>2016-11-02T14:49:01.000Z</time>
      </trkpt>
      <trkpt lat="47.48507" lon="6.76988">
        <ele>316</ele>
        <time>2016-11-02T14:49:02.000Z</time>
      </trkpt>
      <trkpt lat="47.48513" lon="6.76991">
        <ele>316</ele>
        <time>2016-11-02T14:49:03.000Z</time>
      </trkpt>
      <trkpt lat="47.48518" lon="6.76995">
        <ele>316</ele>
        <time>2016-11-02T14:49:04.000Z</time>
      </trkpt>
      <trkpt lat="47.48522" lon="6.76998">
        <ele>317</ele>
        <time>2016-11-02T14:49:05.000Z</time>
      </trkpt>
      <trkpt lat="47.48527" lon="6.77001">
        <ele>315</ele>
        <time>2016-11-02T14:49:06.000Z</time>
      </trkpt>
      <trkpt lat="47.48532" lon="6.77004">
        <ele>315</ele>
        <time>2016-11-02T14:49:07.000Z</time>
      </trkpt>
      <trkpt lat="47.48536" lon="6.77006">
        <ele>315</ele>
        <time>2016-11-02T14:49:08.000Z</time>
      </trkpt>
      <trkpt lat="47.48541" lon="6.77009">
        <ele>315</ele>
        <time>2016-11-02T14:49:09.000Z</time>
      </trkpt>
      <trkpt lat="47.48545" lon="6.77012">
        <ele>315</ele>
        <time>2016-11-02T14:49:10.000Z</time>
      </trkpt>
      <trkpt lat="47.4855" lon="6.77015">
        <ele>315</ele>
        <time>2016-11-02T14:49:11.000Z</time>
      </trkpt>
      <trkpt lat="47.48554" lon="6.77019">
        <ele>315</ele>
        <time>2016-11-02T14:49:12.000Z</time>
      </trkpt>
      <trkpt lat="47.48559" lon="6.77022">
        <ele>315</ele>
        <time>2016-11-02T14:49:13.000Z</time>
      </trkpt>
      <trkpt lat="47.48564" lon="6.77026">
        <ele>315</ele>
        <time>2016-11-02T14:49:14.000Z</time>
      </trkpt>
      <trkpt lat="47.48568" lon="6.7703">
        <ele>314</ele>
        <time>2016-11-02T14:49:15.000Z</time>
      </trkpt>
      <trkpt lat="47.48572" lon="6.77035">
        <ele>314</ele>
        <time>2016-11-02T14:49:16.000Z</time>
      </trkpt>
      <trkpt lat="47.48576" lon="6.77038">
        <ele>314</ele>
        <time>2016-11-02T14:49:17.000Z</time>
      </trkpt>
      <trkpt lat="47.4858" lon="6.77041">
        <ele>314</ele>
        <time>2016-11-02T14:49:18.000Z</time>
      </trkpt>
      <trkpt lat="47.48584" lon="6.77044">
        <ele>314</ele>
        <time>2016-11-02T14:49:19.000Z</time>
      </trkpt>
      <trkpt lat="47.48588" lon="6.77047">
        <ele>314</ele>
        <time>2016-11-02T14:49:20.000Z</time>
      </trkpt>
      <trkpt lat="47.48593" lon="6.7705">
        <ele>314</ele>
        <time>2016-11-02T14:49:21.000Z</time>
      </trkpt>
      <trkpt lat="47.48598" lon="6.77053">
        <ele>313</ele>
        <time>2016-11-02T14:49:22.000Z</time>
      </trkpt>
      <trkpt lat="47.48603" lon="6.77057">
        <ele>313</ele>
        <time>2016-11-02T14:49:23.000Z</time>
      </trkpt>
      <trkpt lat="47.48607" lon="6.77059">
        <ele>313</ele>
        <time>2016-11-02T14:49:24.000Z</time>
      </trkpt>
      <trkpt lat="47.48612" lon="6.77063">
        <ele>313</ele>
        <time>2016-11-02T14:49:25.000Z</time>
      </trkpt>
      <trkpt lat="47.48616" lon="6.77067">
        <ele>313</ele>
        <time>2016-11-02T14:49:26.000Z</time>
      </trkpt>
      <trkpt lat="47.48621" lon="6.77072">
        <ele>313</ele>
        <time>2016-11-02T14:49:27.000Z</time>
      </trkpt>
      <trkpt lat="47.48626" lon="6.77076">
        <ele>313</ele>
        <time>2016-11-02T14:49:28.000Z</time>
      </trkpt>
      <trkpt lat="47.4863" lon="6.77079">
        <ele>313</ele>
        <time>2016-11-02T14:49:29.000Z</time>
      </trkpt>
      <trkpt lat="47.48635" lon="6.77082">
        <ele>313</ele>
        <time>2016-11-02T14:49:30.000Z</time>
      </trkpt>
      <trkpt lat="47.48639" lon="6.77087">
        <ele>312</ele>
        <time>2016-11-02T14:49:31.000Z</time>
      </trkpt>
      <trkpt lat="47.48644" lon="6.77091">
        <ele>312</ele>
        <time>2016-11-02T14:49:32.000Z</time>
      </trkpt>
      <trkpt lat="47.48648" lon="6.77097">
        <ele>312</ele>
        <time>2016-11-02T14:49:33.000Z</time>
      </trkpt>
      <trkpt lat="47.48653" lon="6.77103">
        <ele>312</ele>
        <time>2016-11-02T14:49:34.000Z</time>
      </trkpt>
      <trkpt lat="47.48658" lon="6.77108">
        <ele>312</ele>
        <time>2016-11-02T14:49:35.000Z</time>
      </trkpt>
      <trkpt lat="47.48662" lon="6.77115">
        <ele>312</ele>
        <time>2016-11-02T14:49:36.000Z</time>
      </trkpt>
      <trkpt lat="47.48667" lon="6.77121">
        <ele>312</ele>
        <time>2016-11-02T14:49:37.000Z</time>
      </trkpt>
      <trkpt lat="47.48671" lon="6.77126">
        <ele>312</ele>
        <time>2016-11-02T14:49:38.000Z</time>
      </trkpt>
      <trkpt lat="47.48676" lon="6.77132">
        <ele>312</ele>
        <time>2016-11-02T14:49:39.000Z</time>
      </trkpt>
      <trkpt lat="47.4868" lon="6.77139">
        <ele>311</ele>
        <time>2016-11-02T14:49:40.000Z</time>
      </trkpt>
      <trkpt lat="47.48685" lon="6.77144">
        <ele>311</ele>
        <time>2016-11-02T14:49:41.000Z</time>
      </trkpt>
      <trkpt lat="47.48689" lon="6.77149">
        <ele>311</ele>
        <time>2016-11-02T14:49:42.000Z</time>
      </trkpt>
      <trkpt lat="47.48694" lon="6.77154">
        <ele>311</ele>
        <time>2016-11-02T14:49:43.000Z</time>
      </trkpt>
      <trkpt lat="47.48699" lon="6.77159">
        <ele>311</ele>
        <time>2016-11-02T14:49:44.000Z</time>
      </trkpt>
      <trkpt lat="47.48705" lon="6.77164">
        <ele>311</ele>
        <time>2016-11-02T14:49:45.000Z</time>
      </trkpt>
      <trkpt lat="47.48709" lon="6.77168">
        <ele>311</ele>
        <time>2016-11-02T14:49:46.000Z</time>
      </trkpt>
      <trkpt lat="47.48715" lon="6.77173">
        <ele>311</ele>
        <time>2016-11-02T14:49:47.000Z</time>
      </trkpt>
      <trkpt lat="47.48721" lon="6.77177">
        <ele>311</ele>
        <time>2016-11-02T14:49:48.000Z</time>
      </trkpt>
      <trkpt lat="47.48726" lon="6.77181">
        <ele>310</ele>
        <time>2016-11-02T14:49:49.000Z</time>
      </trkpt>
      <trkpt lat="47.48731" lon="6.77185">
        <ele>310</ele>
        <time>2016-11-02T14:49:50.000Z</time>
      </trkpt>
      <trkpt lat="47.48737" lon="6.7719">
        <ele>310</ele>
        <time>2016-11-02T14:49:51.000Z</time>
      </trkpt>
      <trkpt lat="47.48742" lon="6.77194">
        <ele>310</ele>
        <time>2016-11-02T14:49:52.000Z</time>
      </trkpt>
      <trkpt lat="47.48747" lon="6.77198">
        <ele>310</ele>
        <time>2016-11-02T14:49:53.000Z</time>
      </trkpt>
      <trkpt lat="47.48752" lon="6.77202">
        <ele>310</ele>
        <time>2016-11-02T14:49:54.000Z</time>
      </trkpt>
      <trkpt lat="47.48758" lon="6.77206">
        <ele>310</ele>
        <time>2016-11-02T14:49:55.000Z</time>
      </trkpt>
      <trkpt lat="47.48764" lon="6.77211">
        <ele>310</ele>
        <time>2016-11-02T14:49:56.000Z</time>
      </trkpt>
      <trkpt lat="47.48769" lon="6.77215">
        <ele>310</ele>
        <time>2016-11-02T14:49:57.000Z</time>
      </trkpt>
      <trkpt lat="47.48775" lon="6.77219">
        <ele>310</ele>
        <time>2016-11-02T14:49:58.000Z</time>
      </trkpt>
      <trkpt lat="47.4878" lon="6.77223">
        <ele>310</ele>
        <time>2016-11-02T14:49:59.000Z</time>
      </trkpt>
      <trkpt lat="47.48785" lon="6.77227">
        <ele>310</ele>
        <time>2016-11-02T14:50:00.000Z</time>
      </trkpt>
      <trkpt lat="47.48791" lon="6.7723">
        <ele>310</ele>
        <time>2016-11-02T14:50:01.000Z</time>
      </trkpt>
      <trkpt lat="47.48796" lon="6.77234">
        <ele>310</ele>
        <time>2016-11-02T14:50:02.000Z</time>
      </trkpt>
      <trkpt lat="47.48802" lon="6.77238">
        <ele>310</ele>
        <time>2016-11-02T14:50:03.000Z</time>
      </trkpt>
      <trkpt lat="47.48807" lon="6.77243">
        <ele>311</ele>
        <time>2016-11-02T14:50:04.000Z</time>
      </trkpt>
      <trkpt lat="47.48813" lon="6.77247">
        <ele>311</ele>
        <time>2016-11-02T14:50:05.000Z</time>
      </trkpt>
      <trkpt lat="47.48818" lon="6.77251">
        <ele>310</ele>
        <time>2016-11-02T14:50:06.000Z</time>
      </trkpt>
      <trkpt lat="47.48823" lon="6.77256">
        <ele>310</ele>
        <time>2016-11-02T14:50:07.000Z</time>
      </trkpt>
      <trkpt lat="47.48828" lon="6.7726">
        <ele>310</ele>
        <time>2016-11-02T14:50:08.000Z</time>
      </trkpt>
      <trkpt lat="47.48833" lon="6.77264">
        <ele>310</ele>
        <time>2016-11-02T14:50:09.000Z</time>
      </trkpt>
      <trkpt lat="47.48838" lon="6.77267">
        <ele>310</ele>
        <time>2016-11-02T14:50:10.000Z</time>
      </trkpt>
      <trkpt lat="47.48843" lon="6.7727">
        <ele>310</ele>
        <time>2016-11-02T14:50:11.000Z</time>
      </trkpt>
      <trkpt lat="47.48847" lon="6.77273">
        <ele>310</ele>
        <time>2016-11-02T14:50:12.000Z</time>
      </trkpt>
      <trkpt lat="47.48852" lon="6.77276">
        <ele>310</ele>
        <time>2016-11-02T14:50:13.000Z</time>
      </trkpt>
      <trkpt lat="47.48857" lon="6.77279">
        <ele>310</ele>
        <time>2016-11-02T14:50:14.000Z</time>
      </trkpt>
      <trkpt lat="47.48863" lon="6.77283">
        <ele>310</ele>
        <time>2016-11-02T14:50:15.000Z</time>
      </trkpt>
      <trkpt lat="47.48869" lon="6.77284">
        <ele>310</ele>
        <time>2016-11-02T14:50:16.000Z</time>
      </trkpt>
      <trkpt lat="47.48875" lon="6.77286">
        <ele>310</ele>
        <time>2016-11-02T14:50:17.000Z</time>
      </trkpt>
      <trkpt lat="47.4888" lon="6.77288">
        <ele>310</ele>
        <time>2016-11-02T14:50:18.000Z</time>
      </trkpt>
      <trkpt lat="47.48886" lon="6.77289">
        <ele>310</ele>
        <time>2016-11-02T14:50:19.000Z</time>
      </trkpt>
      <trkpt lat="47.48891" lon="6.77291">
        <ele>310</ele>
        <time>2016-11-02T14:50:20.000Z</time>
      </trkpt>
      <trkpt lat="47.48897" lon="6.77294">
        <ele>310</ele>
        <time>2016-11-02T14:50:21.000Z</time>
      </trkpt>
      <trkpt lat="47.48904" lon="6.77295">
        <ele>310</ele>
        <time>2016-11-02T14:50:22.000Z</time>
      </trkpt>
      <trkpt lat="47.48909" lon="6.77297">
        <ele>310</ele>
        <time>2016-11-02T14:50:23.000Z</time>
      </trkpt>
      <trkpt lat="47.48914" lon="6.77299">
        <ele>310</ele>
        <time>2016-11-02T14:50:24.000Z</time>
      </trkpt>
      <trkpt lat="47.4892" lon="6.77301">
        <ele>311</ele>
        <time>2016-11-02T14:50:25.000Z</time>
      </trkpt>
      <trkpt lat="47.48925" lon="6.77304">
        <ele>311</ele>
        <time>2016-11-02T14:50:26.000Z</time>
      </trkpt>
      <trkpt lat="47.48931" lon="6.77308">
        <ele>311</ele>
        <time>2016-11-02T14:50:27.000Z</time>
      </trkpt>
      <trkpt lat="47.48936" lon="6.7731">
        <ele>311</ele>
        <time>2016-11-02T14:50:28.000Z</time>
      </trkpt>
      <trkpt lat="47.48941" lon="6.77312">
        <ele>311</ele>
        <time>2016-11-02T14:50:29.000Z</time>
      </trkpt>
      <trkpt lat="47.48946" lon="6.77314">
        <ele>311</ele>
        <time>2016-11-02T14:50:30.000Z</time>
      </trkpt>
      <trkpt lat="47.48952" lon="6.77316">
        <ele>311</ele>
        <time>2016-11-02T14:50:31.000Z</time>
      </trkpt>
      <trkpt lat="47.48957" lon="6.77317">
        <ele>311</ele>
        <time>2016-11-02T14:50:32.000Z</time>
      </trkpt>
      <trkpt lat="47.48963" lon="6.77318">
        <ele>311</ele>
        <time>2016-11-02T14:50:33.000Z</time>
      </trkpt>
      <trkpt lat="47.48968" lon="6.77319">
        <ele>311</ele>
        <time>2016-11-02T14:50:34.000Z</time>
      </trkpt>
      <trkpt lat="47.48973" lon="6.77319">
        <ele>311</ele>
        <time>2016-11-02T14:50:35.000Z</time>
      </trkpt>
      <trkpt lat="47.48979" lon="6.77319">
        <ele>311</ele>
        <time>2016-11-02T14:50:36.000Z</time>
      </trkpt>
      <trkpt lat="47.48985" lon="6.77319">
        <ele>311</ele>
        <time>2016-11-02T14:50:37.000Z</time>
      </trkpt>
      <trkpt lat="47.48991" lon="6.7732">
        <ele>311</ele>
        <time>2016-11-02T14:50:38.000Z</time>
      </trkpt>
      <trkpt lat="47.48997" lon="6.7732">
        <ele>311</ele>
        <time>2016-11-02T14:50:39.000Z</time>
      </trkpt>
      <trkpt lat="47.49002" lon="6.7732">
        <ele>311</ele>
        <time>2016-11-02T14:50:40.000Z</time>
      </trkpt>
      <trkpt lat="47.49007" lon="6.77321">
        <ele>311</ele>
        <time>2016-11-02T14:50:41.000Z</time>
      </trkpt>
      <trkpt lat="47.49013" lon="6.77322">
        <ele>311</ele>
        <time>2016-11-02T14:50:42.000Z</time>
      </trkpt>
      <trkpt lat="47.49019" lon="6.77323">
        <ele>311</ele>
        <time>2016-11-02T14:50:43.000Z</time>
      </trkpt>
      <trkpt lat="47.49024" lon="6.77324">
        <ele>311</ele>
        <time>2016-11-02T14:50:44.000Z</time>
      </trkpt>
      <trkpt lat="47.49029" lon="6.77324">
        <ele>311</ele>
        <time>2016-11-02T14:50:45.000Z</time>
      </trkpt>
      <trkpt lat="47.49034" lon="6.77324">
        <ele>311</ele>
        <time>2016-11-02T14:50:46.000Z</time>
      </trkpt>
      <trkpt lat="47.49038" lon="6.77324">
        <ele>311</ele>
        <time>2016-11-02T14:50:47.000Z</time>
      </trkpt>
      <trkpt lat="47.49042" lon="6.77325">
        <ele>311</ele>
        <time>2016-11-02T14:50:48.000Z</time>
      </trkpt>
      <trkpt lat="47.49046" lon="6.77324">
        <ele>311</ele>
        <time>2016-11-02T14:50:49.000Z</time>
      </trkpt>
      <trkpt lat="47.4905" lon="6.77323">
        <ele>311</ele>
        <time>2016-11-02T14:50:50.000Z</time>
      </trkpt>
      <trkpt lat="47.49055" lon="6.77324">
        <ele>311</ele>
        <time>2016-11-02T14:50:51.000Z</time>
      </trkpt>
      <trkpt lat="47.49059" lon="6.77324">
        <ele>311</ele>
        <time>2016-11-02T14:50:52.000Z</time>
      </trkpt>
      <trkpt lat="47.49062" lon="6.77324">
        <ele>311</ele>
        <time>2016-11-02T14:50:53.000Z</time>
      </trkpt>
      <trkpt lat="47.49066" lon="6.77325">
        <ele>311</ele>
        <time>2016-11-02T14:50:54.000Z</time>
      </trkpt>
      <trkpt lat="47.4907" lon="6.77325">
        <ele>311</ele>
        <time>2016-11-02T14:50:55.000Z</time>
      </trkpt>
      <trkpt lat="47.49074" lon="6.77326">
        <ele>311</ele>
        <time>2016-11-02T14:50:56.000Z</time>
      </trkpt>
      <trkpt lat="47.49077" lon="6.77326">
        <ele>311</ele>
        <time>2016-11-02T14:50:57.000Z</time>
      </trkpt>
      <trkpt lat="47.49081" lon="6.77326">
        <ele>311</ele>
        <time>2016-11-02T14:50:58.000Z</time>
      </trkpt>
      <trkpt lat="47.49084" lon="6.77326">
        <ele>311</ele>
        <time>2016-11-02T14:50:59.000Z</time>
      </trkpt>
      <trkpt lat="47.49088" lon="6.77326">
        <ele>311</ele>
        <time>2016-11-02T14:51:00.000Z</time>
      </trkpt>
      <trkpt lat="47.49092" lon="6.77327">
        <ele>311</ele>
        <time>2016-11-02T14:51:01.000Z</time>
      </trkpt>
      <trkpt lat="47.49098" lon="6.77327">
        <ele>311</ele>
        <time>2016-11-02T14:51:02.000Z</time>
      </trkpt>
      <trkpt lat="47.49104" lon="6.77328">
        <ele>311</ele>
        <time>2016-11-02T14:51:03.000Z</time>
      </trkpt>
      <trkpt lat="47.49109" lon="6.77329">
        <ele>311</ele>
        <time>2016-11-02T14:51:04.000Z</time>
      </trkpt>
      <trkpt lat="47.49114" lon="6.7733">
        <ele>311</ele>
        <time>2016-11-02T14:51:05.000Z</time>
      </trkpt>
      <trkpt lat="47.49119" lon="6.7733">
        <ele>311</ele>
        <time>2016-11-02T14:51:06.000Z</time>
      </trkpt>
      <trkpt lat="47.49125" lon="6.77331">
        <ele>311</ele>
        <time>2016-11-02T14:51:07.000Z</time>
      </trkpt>
      <trkpt lat="47.4913" lon="6.77331">
        <ele>311</ele>
        <time>2016-11-02T14:51:08.000Z</time>
      </trkpt>
      <trkpt lat="47.49135" lon="6.77331">
        <ele>311</ele>
        <time>2016-11-02T14:51:09.000Z</time>
      </trkpt>
      <trkpt lat="47.49139" lon="6.77331">
        <ele>311</ele>
        <time>2016-11-02T14:51:10.000Z</time>
      </trkpt>
      <trkpt lat="47.49144" lon="6.77331">
        <ele>311</ele>
        <time>2016-11-02T14:51:11.000Z</time>
      </trkpt>
      <trkpt lat="47.49149" lon="6.77331">
        <ele>311</ele>
        <time>2016-11-02T14:51:12.000Z</time>
      </trkpt>
      <trkpt lat="47.49153" lon="6.7733">
        <ele>311</ele>
        <time>2016-11-02T14:51:13.000Z</time>
      </trkpt>
      <trkpt lat="47.49156" lon="6.77333">
        <ele>310</ele>
        <time>2016-11-02T14:51:14.000Z</time>
      </trkpt>
      <trkpt lat="47.4916" lon="6.77333">
        <ele>310</ele>
        <time>2016-11-02T14:51:15.000Z</time>
      </trkpt>
      <trkpt lat="47.49164" lon="6.77334">
        <ele>310</ele>
        <time>2016-11-02T14:51:16.000Z</time>
      </trkpt>
      <trkpt lat="47.49169" lon="6.77335">
        <ele>310</ele>
        <time>2016-11-02T14:51:17.000Z</time>
      </trkpt>
      <trkpt lat="47.49173" lon="6.77335">
        <ele>310</ele>
        <time>2016-11-02T14:51:18.000Z</time>
      </trkpt>
      <trkpt lat="47.49177" lon="6.77335">
        <ele>310</ele>
        <time>2016-11-02T14:51:19.000Z</time>
      </trkpt>
      <trkpt lat="47.49182" lon="6.77334">
        <ele>310</ele>
        <time>2016-11-02T14:51:20.000Z</time>
      </trkpt>
      <trkpt lat="47.49183" lon="6.77333">
        <ele>310</ele>
        <time>2016-11-02T14:51:21.000Z</time>
      </trkpt>
      <trkpt lat="47.49183" lon="6.77328">
        <ele>310</ele>
        <time>2016-11-02T14:51:22.000Z</time>
      </trkpt>
      <trkpt lat="47.49183" lon="6.77322">
        <ele>310</ele>
        <time>2016-11-02T14:51:23.000Z</time>
      </trkpt>
      <trkpt lat="47.49183" lon="6.77314">
        <ele>311</ele>
        <time>2016-11-02T14:51:24.000Z</time>
      </trkpt>
      <trkpt lat="47.49182" lon="6.77307">
        <ele>311</ele>
        <time>2016-11-02T14:51:25.000Z</time>
      </trkpt>
      <trkpt lat="47.49183" lon="6.773">
        <ele>311</ele>
        <time>2016-11-02T14:51:26.000Z</time>
      </trkpt>
      <trkpt lat="47.49183" lon="6.77294">
        <ele>311</ele>
        <time>2016-11-02T14:51:27.000Z</time>
      </trkpt>
      <trkpt lat="47.49183" lon="6.77287">
        <ele>311</ele>
        <time>2016-11-02T14:51:28.000Z</time>
      </trkpt>
      <trkpt lat="47.49184" lon="6.77281">
        <ele>311</ele>
        <time>2016-11-02T14:51:29.000Z</time>
      </trkpt>
      <trkpt lat="47.49183" lon="6.77274">
        <ele>311</ele>
        <time>2016-11-02T14:51:30.000Z</time>
      </trkpt>
      <trkpt lat="47.49183" lon="6.77267">
        <ele>311</ele>
        <time>2016-11-02T14:51:31.000Z</time>
      </trkpt>
      <trkpt lat="47.49184" lon="6.77261">
        <ele>311</ele>
        <time>2016-11-02T14:51:32.000Z</time>
      </trkpt>
      <trkpt lat="47.49184" lon="6.77255">
        <ele>311</ele>
        <time>2016-11-02T14:51:33.000Z</time>
      </trkpt>
      <trkpt lat="47.49183" lon="6.77249">
        <ele>312</ele>
        <time>2016-11-02T14:51:34.000Z</time>
      </trkpt>
      <trkpt lat="47.49183" lon="6.77243">
        <ele>312</ele>
        <time>2016-11-02T14:51:35.000Z</time>
      </trkpt>
      <trkpt lat="47.49182" lon="6.77238">
        <ele>312</ele>
        <time>2016-11-02T14:51:36.000Z</time>
      </trkpt>
      <trkpt lat="47.49182" lon="6.77232">
        <ele>312</ele>
        <time>2016-11-02T14:51:37.000Z</time>
      </trkpt>
      <trkpt lat="47.49182" lon="6.77225">
        <ele>312</ele>
        <time>2016-11-02T14:51:38.000Z</time>
      </trkpt>
      <trkpt lat="47.49183" lon="6.7722">
        <ele>312</ele>
        <time>2016-11-02T14:51:39.000Z</time>
      </trkpt>
      <trkpt lat="47.49183" lon="6.77214">
        <ele>312</ele>
        <time>2016-11-02T14:51:40.000Z</time>
      </trkpt>
      <trkpt lat="47.49184" lon="6.77208">
        <ele>312</ele>
        <time>2016-11-02T14:51:41.000Z</time>
      </trkpt>
      <trkpt lat="47.49184" lon="6.77202">
        <ele>312</ele>
        <time>2016-11-02T14:51:42.000Z</time>
      </trkpt>
      <trkpt lat="47.49184" lon="6.77196">
        <ele>312</ele>
        <time>2016-11-02T14:51:43.000Z</time>
      </trkpt>
      <trkpt lat="47.49184" lon="6.77191">
        <ele>312</ele>
        <time>2016-11-02T14:51:44.000Z</time>
      </trkpt>
      <trkpt lat="47.49184" lon="6.77186">
        <ele>313</ele>
        <time>2016-11-02T14:51:45.000Z</time>
      </trkpt>
      <trkpt lat="47.49183" lon="6.77181">
        <ele>313</ele>
        <time>2016-11-02T14:51:46.000Z</time>
      </trkpt>
      <trkpt lat="47.49183" lon="6.77175">
        <ele>313</ele>
        <time>2016-11-02T14:51:47.000Z</time>
      </trkpt>
      <trkpt lat="47.49184" lon="6.7717">
        <ele>313</ele>
        <time>2016-11-02T14:51:47.999Z</time>
      </trkpt>
      <trkpt lat="47.49184" lon="6.77166">
        <ele>313</ele>
        <time>2016-11-02T14:51:49.000Z</time>
      </trkpt>
      <trkpt lat="47.49183" lon="6.77161">
        <ele>313</ele>
        <time>2016-11-02T14:51:51.000Z</time>
      </trkpt>
      <trkpt lat="47.49183" lon="6.77159">
        <ele>313</ele>
        <time>2016-11-02T14:51:52.000Z</time>
      </trkpt>
      <trkpt lat="47.49184" lon="6.77154">
        <ele>313</ele>
        <time>2016-11-02T14:51:54.000Z</time>
      </trkpt>
      <trkpt lat="47.49185" lon="6.77151">
        <ele>313</ele>
        <time>2016-11-02T14:51:55.000Z</time>
      </trkpt>
      <trkpt lat="47.49186" lon="6.77148">
        <ele>313</ele>
        <time>2016-11-02T14:51:56.000Z</time>
      </trkpt>
      <trkpt lat="47.49187" lon="6.77144">
        <ele>313</ele>
        <time>2016-11-02T14:51:57.000Z</time>
      </trkpt>
      <trkpt lat="47.49189" lon="6.77139">
        <ele>313</ele>
        <time>2016-11-02T14:52:02.000Z</time>
      </trkpt>
      <trkpt lat="47.49189" lon="6.77137">
        <ele>313</ele>
        <time>2016-11-02T14:52:03.000Z</time>
      </trkpt>
      <trkpt lat="47.49188" lon="6.77134">
        <ele>313</ele>
        <time>2016-11-02T14:52:04.000Z</time>
      </trkpt>
      <trkpt lat="47.49186" lon="6.7713">
        <ele>313</ele>
        <time>2016-11-02T14:52:05.000Z</time>
      </trkpt>
      <trkpt lat="47.49184" lon="6.77125">
        <ele>313</ele>
        <time>2016-11-02T14:52:06.000Z</time>
      </trkpt>
      <trkpt lat="47.49182" lon="6.77118">
        <ele>313</ele>
        <time>2016-11-02T14:52:07.000Z</time>
      </trkpt>
      <trkpt lat="47.49177" lon="6.77105">
        <ele>312</ele>
        <time>2016-11-02T14:52:08.000Z</time>
      </trkpt>
      <trkpt lat="47.49176" lon="6.77098">
        <ele>312</ele>
        <time>2016-11-02T14:52:09.000Z</time>
      </trkpt>
      <trkpt lat="47.49175" lon="6.7709">
        <ele>312</ele>
        <time>2016-11-02T14:52:10.000Z</time>
      </trkpt>
      <trkpt lat="47.49173" lon="6.77083">
        <ele>312</ele>
        <time>2016-11-02T14:52:11.000Z</time>
      </trkpt>
      <trkpt lat="47.49172" lon="6.77076">
        <ele>312</ele>
        <time>2016-11-02T14:52:12.000Z</time>
      </trkpt>
      <trkpt lat="47.49172" lon="6.77068">
        <ele>313</ele>
        <time>2016-11-02T14:52:13.000Z</time>
      </trkpt>
      <trkpt lat="47.49171" lon="6.77061">
        <ele>313</ele>
        <time>2016-11-02T14:52:14.000Z</time>
      </trkpt>
      <trkpt lat="47.4917" lon="6.77053">
        <ele>313</ele>
        <time>2016-11-02T14:52:15.000Z</time>
      </trkpt>
      <trkpt lat="47.49168" lon="6.77047">
        <ele>313</ele>
        <time>2016-11-02T14:52:16.000Z</time>
      </trkpt>
      <trkpt lat="47.49167" lon="6.7704">
        <ele>313</ele>
        <time>2016-11-02T14:52:17.000Z</time>
      </trkpt>
      <trkpt lat="47.49166" lon="6.77032">
        <ele>312</ele>
        <time>2016-11-02T14:52:18.000Z</time>
      </trkpt>
      <trkpt lat="47.49164" lon="6.77025">
        <ele>312</ele>
        <time>2016-11-02T14:52:19.000Z</time>
      </trkpt>
      <trkpt lat="47.49162" lon="6.77019">
        <ele>312</ele>
        <time>2016-11-02T14:52:20.000Z</time>
      </trkpt>
      <trkpt lat="47.49162" lon="6.77012">
        <ele>312</ele>
        <time>2016-11-02T14:52:21.000Z</time>
      </trkpt>
      <trkpt lat="47.49161" lon="6.77007">
        <ele>312</ele>
        <time>2016-11-02T14:52:22.000Z</time>
      </trkpt>
      <trkpt lat="47.49157" lon="6.77004">
        <ele>312</ele>
        <time>2016-11-02T14:52:24.000Z</time>
      </trkpt>
      <trkpt lat="47.49157" lon="6.77012">
        <ele>312</ele>
        <time>2016-11-02T14:52:24.999Z</time>
      </trkpt>
      <trkpt lat="47.49157" lon="6.77016">
        <ele>312</ele>
        <time>2016-11-02T14:52:26.000Z</time>
      </trkpt>
      <trkpt lat="47.49158" lon="6.7702">
        <ele>312</ele>
        <time>2016-11-02T14:52:27.000Z</time>
      </trkpt>
      <trkpt lat="47.4916" lon="6.77028">
        <ele>312</ele>
        <time>2016-11-02T14:52:28.000Z</time>
      </trkpt>
      <trkpt lat="47.49161" lon="6.77034">
        <ele>312</ele>
        <time>2016-11-02T14:52:29.000Z</time>
      </trkpt>
      <trkpt lat="47.49163" lon="6.77042">
        <ele>312</ele>
        <time>2016-11-02T14:52:30.000Z</time>
      </trkpt>
      <trkpt lat="47.49164" lon="6.77051">
        <ele>312</ele>
        <time>2016-11-02T14:52:31.000Z</time>
      </trkpt>
      <trkpt lat="47.49165" lon="6.77057">
        <ele>312</ele>
        <time>2016-11-02T14:52:32.000Z</time>
      </trkpt>
      <trkpt lat="47.49166" lon="6.77064">
        <ele>312</ele>
        <time>2016-11-02T14:52:33.000Z</time>
      </trkpt>
      <trkpt lat="47.49167" lon="6.77072">
        <ele>312</ele>
        <time>2016-11-02T14:52:34.000Z</time>
      </trkpt>
      <trkpt lat="47.49168" lon="6.77079">
        <ele>312</ele>
        <time>2016-11-02T14:52:34.999Z</time>
      </trkpt>
      <trkpt lat="47.49171" lon="6.77087">
        <ele>312</ele>
        <time>2016-11-02T14:52:36.000Z</time>
      </trkpt>
      <trkpt lat="47.49172" lon="6.77095">
        <ele>312</ele>
        <time>2016-11-02T14:52:37.000Z</time>
      </trkpt>
      <trkpt lat="47.49174" lon="6.77101">
        <ele>312</ele>
        <time>2016-11-02T14:52:38.000Z</time>
      </trkpt>
      <trkpt lat="47.49177" lon="6.77106">
        <ele>313</ele>
        <time>2016-11-02T14:52:39.000Z</time>
      </trkpt>
      <trkpt lat="47.49178" lon="6.77112">
        <ele>313</ele>
        <time>2016-11-02T14:52:40.000Z</time>
      </trkpt>
      <trkpt lat="47.4918" lon="6.77116">
        <ele>313</ele>
        <time>2016-11-02T14:52:41.000Z</time>
      </trkpt>
      <trkpt lat="47.49184" lon="6.77119">
        <ele>313</ele>
        <time>2016-11-02T14:52:43.999Z</time>
      </trkpt>
      <trkpt lat="47.49185" lon="6.77119">
        <ele>313</ele>
        <time>2016-11-02T14:52:45.001Z</time>
      </trkpt>
      <trkpt lat="47.49187" lon="6.77116">
        <ele>313</ele>
        <time>2016-11-02T14:52:46.000Z</time>
      </trkpt>
      <trkpt lat="47.4919" lon="6.77113">
        <ele>313</ele>
        <time>2016-11-02T14:52:47.000Z</time>
      </trkpt>
      <trkpt lat="47.49192" lon="6.7711">
        <ele>313</ele>
        <time>2016-11-02T14:52:48.000Z</time>
      </trkpt>
      <trkpt lat="47.49203" lon="6.77104">
        <ele>313</ele>
        <time>2016-11-02T14:52:49.000Z</time>
      </trkpt>
      <trkpt lat="47.4921" lon="6.771">
        <ele>313</ele>
        <time>2016-11-02T14:52:50.000Z</time>
      </trkpt>
      <trkpt lat="47.49215" lon="6.77096">
        <ele>313</ele>
        <time>2016-11-02T14:52:51.000Z</time>
      </trkpt>
      <trkpt lat="47.4922" lon="6.77093">
        <ele>313</ele>
        <time>2016-11-02T14:52:52.000Z</time>
      </trkpt>
      <trkpt lat="47.49224" lon="6.7709">
        <ele>313</ele>
        <time>2016-11-02T14:52:53.000Z</time>
      </trkpt>
      <trkpt lat="47.49229" lon="6.77086">
        <ele>313</ele>
        <time>2016-11-02T14:52:54.000Z</time>
      </trkpt>
      <trkpt lat="47.49232" lon="6.77082">
        <ele>313</ele>
        <time>2016-11-02T14:52:55.001Z</time>
      </trkpt>
      <trkpt lat="47.49236" lon="6.7708">
        <ele>313</ele>
        <time>2016-11-02T14:52:56.000Z</time>
      </trkpt>
      <trkpt lat="47.49241" lon="6.77074">
        <ele>313</ele>
        <time>2016-11-02T14:52:57.000Z</time>
      </trkpt>
      <trkpt lat="47.49245" lon="6.7707">
        <ele>313</ele>
        <time>2016-11-02T14:52:58.000Z</time>
      </trkpt>
      <trkpt lat="47.4925" lon="6.77066">
        <ele>313</ele>
        <time>2016-11-02T14:52:59.000Z</time>
      </trkpt>
      <trkpt lat="47.49254" lon="6.77062">
        <ele>314</ele>
        <time>2016-11-02T14:53:00.000Z</time>
      </trkpt>
      <trkpt lat="47.49257" lon="6.77058">
        <ele>315</ele>
        <time>2016-11-02T14:53:01.000Z</time>
      </trkpt>
      <trkpt lat="47.49261" lon="6.77053">
        <ele>315</ele>
        <time>2016-11-02T14:53:02.000Z</time>
      </trkpt>
      <trkpt lat="47.49265" lon="6.77049">
        <ele>315</ele>
        <time>2016-11-02T14:53:03.000Z</time>
      </trkpt>
      <trkpt lat="47.49268" lon="6.77046">
        <ele>315</ele>
        <time>2016-11-02T14:53:04.000Z</time>
      </trkpt>
      <trkpt lat="47.49272" lon="6.77042">
        <ele>315</ele>
        <time>2016-11-02T14:53:05.000Z</time>
      </trkpt>
      <trkpt lat="47.49276" lon="6.77038">
        <ele>315</ele>
        <time>2016-11-02T14:53:06.000Z</time>
      </trkpt>
      <trkpt lat="47.49279" lon="6.77034">
        <ele>315</ele>
        <time>2016-11-02T14:53:07.000Z</time>
      </trkpt>
      <trkpt lat="47.49282" lon="6.77031">
        <ele>315</ele>
        <time>2016-11-02T14:53:08.000Z</time>
      </trkpt>
      <trkpt lat="47.49284" lon="6.77026">
        <ele>315</ele>
        <time>2016-11-02T14:53:09.000Z</time>
      </trkpt>
      <trkpt lat="47.49287" lon="6.77025">
        <ele>315</ele>
        <time>2016-11-02T14:53:10.000Z</time>
      </trkpt>
      <trkpt lat="47.4929" lon="6.77022">
        <ele>316</ele>
        <time>2016-11-02T14:53:11.000Z</time>
      </trkpt>
      <trkpt lat="47.49293" lon="6.77018">
        <ele>316</ele>
        <time>2016-11-02T14:53:12.000Z</time>
      </trkpt>
      <trkpt lat="47.49299" lon="6.77015">
        <ele>316</ele>
        <time>2016-11-02T14:53:13.000Z</time>
      </trkpt>
      <trkpt lat="47.49301" lon="6.7701">
        <ele>316</ele>
        <time>2016-11-02T14:53:14.000Z</time>
      </trkpt>
      <trkpt lat="47.49302" lon="6.77005">
        <ele>316</ele>
        <time>2016-11-02T14:53:15.000Z</time>
      </trkpt>
      <trkpt lat="47.49303" lon="6.76999">
        <ele>317</ele>
        <time>2016-11-02T14:53:16.000Z</time>
      </trkpt>
      <trkpt lat="47.49303" lon="6.76994">
        <ele>317</ele>
        <time>2016-11-02T14:53:17.000Z</time>
      </trkpt>
      <trkpt lat="47.49298" lon="6.76987">
        <ele>317</ele>
        <time>2016-11-02T14:53:18.000Z</time>
      </trkpt>
      <trkpt lat="47.49297" lon="6.76981">
        <ele>317</ele>
        <time>2016-11-02T14:53:19.002Z</time>
      </trkpt>
      <trkpt lat="47.493" lon="6.76979">
        <ele>317</ele>
        <time>2016-11-02T14:53:20.000Z</time>
      </trkpt>
      <trkpt lat="47.49299" lon="6.76975">
        <ele>317</ele>
        <time>2016-11-02T14:53:22.000Z</time>
      </trkpt>
      <trkpt lat="47.49298" lon="6.76971">
        <ele>317</ele>
        <time>2016-11-02T14:53:23.000Z</time>
      </trkpt>
      <trkpt lat="47.49296" lon="6.76963">
        <ele>317</ele>
        <time>2016-11-02T14:53:24.000Z</time>
      </trkpt>
      <trkpt lat="47.49295" lon="6.76956">
        <ele>317</ele>
        <time>2016-11-02T14:53:25.000Z</time>
      </trkpt>
      <trkpt lat="47.49294" lon="6.76949">
        <ele>317</ele>
        <time>2016-11-02T14:53:26.000Z</time>
      </trkpt>
      <trkpt lat="47.49292" lon="6.76942">
        <ele>316</ele>
        <time>2016-11-02T14:53:27.000Z</time>
      </trkpt>
      <trkpt lat="47.49289" lon="6.76937">
        <ele>316</ele>
        <time>2016-11-02T14:53:28.000Z</time>
      </trkpt>
      <trkpt lat="47.49287" lon="6.7693">
        <ele>316</ele>
        <time>2016-11-02T14:53:29.000Z</time>
      </trkpt>
      <trkpt lat="47.49287" lon="6.76923">
        <ele>316</ele>
        <time>2016-11-02T14:53:30.000Z</time>
      </trkpt>
      <trkpt lat="47.49285" lon="6.76917">
        <ele>317</ele>
        <time>2016-11-02T14:53:31.000Z</time>
      </trkpt>
      <trkpt lat="47.49282" lon="6.76911">
        <ele>317</ele>
        <time>2016-11-02T14:53:32.000Z</time>
      </trkpt>
      <trkpt lat="47.4928" lon="6.76906">
        <ele>317</ele>
        <time>2016-11-02T14:53:33.000Z</time>
      </trkpt>
      <trkpt lat="47.49278" lon="6.76899">
        <ele>317</ele>
        <time>2016-11-02T14:53:34.000Z</time>
      </trkpt>
      <trkpt lat="47.49274" lon="6.76894">
        <ele>317</ele>
        <time>2016-11-02T14:53:35.000Z</time>
      </trkpt>
      <trkpt lat="47.49271" lon="6.76887">
        <ele>317</ele>
        <time>2016-11-02T14:53:36.000Z</time>
      </trkpt>
      <trkpt lat="47.49269" lon="6.76881">
        <ele>317</ele>
        <time>2016-11-02T14:53:37.000Z</time>
      </trkpt>
      <trkpt lat="47.49267" lon="6.76875">
        <ele>317</ele>
        <time>2016-11-02T14:53:37.999Z</time>
      </trkpt>
      <trkpt lat="47.49263" lon="6.76868">
        <ele>317</ele>
        <time>2016-11-02T14:53:39.000Z</time>
      </trkpt>
      <trkpt lat="47.49261" lon="6.76861">
        <ele>317</ele>
        <time>2016-11-02T14:53:40.000Z</time>
      </trkpt>
      <trkpt lat="47.49259" lon="6.76854">
        <ele>317</ele>
        <time>2016-11-02T14:53:41.000Z</time>
      </trkpt>
      <trkpt lat="47.49257" lon="6.76847">
        <ele>317</ele>
        <time>2016-11-02T14:53:42.000Z</time>
      </trkpt>
      <trkpt lat="47.49255" lon="6.76841">
        <ele>317</ele>
        <time>2016-11-02T14:53:43.000Z</time>
      </trkpt>
      <trkpt lat="47.49253" lon="6.76834">
        <ele>317</ele>
        <time>2016-11-02T14:53:44.000Z</time>
      </trkpt>
      <trkpt lat="47.49255" lon="6.76827">
        <ele>318</ele>
        <time>2016-11-02T14:53:45.000Z</time>
      </trkpt>
      <trkpt lat="47.49254" lon="6.7682">
        <ele>318</ele>
        <time>2016-11-02T14:53:46.000Z</time>
      </trkpt>
      <trkpt lat="47.49252" lon="6.76814">
        <ele>319</ele>
        <time>2016-11-02T14:53:47.000Z</time>
      </trkpt>
      <trkpt lat="47.49251" lon="6.76809">
        <ele>319</ele>
        <time>2016-11-02T14:53:48.000Z</time>
      </trkpt>
      <trkpt lat="47.49248" lon="6.76803">
        <ele>316</ele>
        <time>2016-11-02T14:53:49.000Z</time>
      </trkpt>
      <trkpt lat="47.49247" lon="6.76796">
        <ele>316</ele>
        <time>2016-11-02T14:53:50.000Z</time>
      </trkpt>
      <trkpt lat="47.49245" lon="6.76789">
        <ele>316</ele>
        <time>2016-11-02T14:53:51.000Z</time>
      </trkpt>
      <trkpt lat="47.49244" lon="6.76783">
        <ele>316</ele>
        <time>2016-11-02T14:53:52.000Z</time>
      </trkpt>
      <trkpt lat="47.49242" lon="6.76777">
        <ele>316</ele>
        <time>2016-11-02T14:53:53.000Z</time>
      </trkpt>
      <trkpt lat="47.4924" lon="6.7677">
        <ele>316</ele>
        <time>2016-11-02T14:53:54.000Z</time>
      </trkpt>
      <trkpt lat="47.49238" lon="6.76763">
        <ele>317</ele>
        <time>2016-11-02T14:53:55.000Z</time>
      </trkpt>
      <trkpt lat="47.49236" lon="6.76757">
        <ele>317</ele>
        <time>2016-11-02T14:53:56.000Z</time>
      </trkpt>
      <trkpt lat="47.49235" lon="6.76749">
        <ele>317</ele>
        <time>2016-11-02T14:53:57.000Z</time>
      </trkpt>
      <trkpt lat="47.49233" lon="6.76743">
        <ele>317</ele>
        <time>2016-11-02T14:53:58.000Z</time>
      </trkpt>
      <trkpt lat="47.49233" lon="6.76737">
        <ele>317</ele>
        <time>2016-11-02T14:53:59.000Z</time>
      </trkpt>
      <trkpt lat="47.49234" lon="6.7673">
        <ele>317</ele>
        <time>2016-11-02T14:54:00.000Z</time>
      </trkpt>
      <trkpt lat="47.49233" lon="6.76723">
        <ele>317</ele>
        <time>2016-11-02T14:54:01.000Z</time>
      </trkpt>
      <trkpt lat="47.49232" lon="6.76715">
        <ele>317</ele>
        <time>2016-11-02T14:54:02.000Z</time>
      </trkpt>
      <trkpt lat="47.49233" lon="6.76709">
        <ele>317</ele>
        <time>2016-11-02T14:54:03.000Z</time>
      </trkpt>
      <trkpt lat="47.49234" lon="6.76701">
        <ele>317</ele>
        <time>2016-11-02T14:54:04.000Z</time>
      </trkpt>
      <trkpt lat="47.49232" lon="6.76693">
        <ele>317</ele>
        <time>2016-11-02T14:54:05.000Z</time>
      </trkpt>
      <trkpt lat="47.49232" lon="6.76686">
        <ele>317</ele>
        <time>2016-11-02T14:54:06.000Z</time>
      </trkpt>
      <trkpt lat="47.49233" lon="6.76679">
        <ele>317</ele>
        <time>2016-11-02T14:54:07.000Z</time>
      </trkpt>
      <trkpt lat="47.49233" lon="6.76672">
        <ele>317</ele>
        <time>2016-11-02T14:54:08.000Z</time>
      </trkpt>
      <trkpt lat="47.49235" lon="6.76665">
        <ele>318</ele>
        <time>2016-11-02T14:54:09.000Z</time>
      </trkpt>
      <trkpt lat="47.49236" lon="6.76658">
        <ele>318</ele>
        <time>2016-11-02T14:54:10.000Z</time>
      </trkpt>
      <trkpt lat="47.49236" lon="6.76651">
        <ele>318</ele>
        <time>2016-11-02T14:54:11.000Z</time>
      </trkpt>
      <trkpt lat="47.49237" lon="6.76644">
        <ele>318</ele>
        <time>2016-11-02T14:54:12.000Z</time>
      </trkpt>
      <trkpt lat="47.49239" lon="6.76638">
        <ele>318</ele>
        <time>2016-11-02T14:54:13.000Z</time>
      </trkpt>
      <trkpt lat="47.4924" lon="6.76631">
        <ele>318</ele>
        <time>2016-11-02T14:54:14.000Z</time>
      </trkpt>
      <trkpt lat="47.4924" lon="6.76623">
        <ele>318</ele>
        <time>2016-11-02T14:54:15.000Z</time>
      </trkpt>
      <trkpt lat="47.49239" lon="6.76615">
        <ele>318</ele>
        <time>2016-11-02T14:54:16.000Z</time>
      </trkpt>
      <trkpt lat="47.49239" lon="6.76607">
        <ele>318</ele>
        <time>2016-11-02T14:54:17.000Z</time>
      </trkpt>
      <trkpt lat="47.4924" lon="6.766">
        <ele>319</ele>
        <time>2016-11-02T14:54:18.000Z</time>
      </trkpt>
      <trkpt lat="47.49241" lon="6.76592">
        <ele>319</ele>
        <time>2016-11-02T14:54:19.000Z</time>
      </trkpt>
      <trkpt lat="47.49243" lon="6.76586">
        <ele>320</ele>
        <time>2016-11-02T14:54:20.000Z</time>
      </trkpt>
      <trkpt lat="47.49244" lon="6.76579">
        <ele>320</ele>
        <time>2016-11-02T14:54:21.000Z</time>
      </trkpt>
      <trkpt lat="47.49243" lon="6.76572">
        <ele>319</ele>
        <time>2016-11-02T14:54:22.000Z</time>
      </trkpt>
      <trkpt lat="47.49242" lon="6.76564">
        <ele>319</ele>
        <time>2016-11-02T14:54:23.000Z</time>
      </trkpt>
      <trkpt lat="47.49242" lon="6.76557">
        <ele>319</ele>
        <time>2016-11-02T14:54:24.000Z</time>
      </trkpt>
      <trkpt lat="47.49242" lon="6.76549">
        <ele>319</ele>
        <time>2016-11-02T14:54:25.000Z</time>
      </trkpt>
      <trkpt lat="47.49243" lon="6.76542">
        <ele>319</ele>
        <time>2016-11-02T14:54:26.000Z</time>
      </trkpt>
      <trkpt lat="47.49244" lon="6.76534">
        <ele>319</ele>
        <time>2016-11-02T14:54:27.000Z</time>
      </trkpt>
      <trkpt lat="47.49244" lon="6.76526">
        <ele>319</ele>
        <time>2016-11-02T14:54:28.000Z</time>
      </trkpt>
      <trkpt lat="47.49244" lon="6.76518">
        <ele>319</ele>
        <time>2016-11-02T14:54:29.000Z</time>
      </trkpt>
      <trkpt lat="47.49245" lon="6.76511">
        <ele>320</ele>
        <time>2016-11-02T14:54:30.000Z</time>
      </trkpt>
      <trkpt lat="47.49246" lon="6.76503">
        <ele>321</ele>
        <time>2016-11-02T14:54:31.000Z</time>
      </trkpt>
      <trkpt lat="47.49248" lon="6.76496">
        <ele>321</ele>
        <time>2016-11-02T14:54:32.000Z</time>
      </trkpt>
      <trkpt lat="47.49249" lon="6.76488">
        <ele>321</ele>
        <time>2016-11-02T14:54:33.000Z</time>
      </trkpt>
      <trkpt lat="47.49249" lon="6.76482">
        <ele>320</ele>
        <time>2016-11-02T14:54:34.000Z</time>
      </trkpt>
      <trkpt lat="47.4925" lon="6.76474">
        <ele>320</ele>
        <time>2016-11-02T14:54:35.000Z</time>
      </trkpt>
      <trkpt lat="47.4925" lon="6.76468">
        <ele>320</ele>
        <time>2016-11-02T14:54:36.000Z</time>
      </trkpt>
      <trkpt lat="47.49251" lon="6.76461">
        <ele>329</ele>
        <time>2016-11-02T14:54:37.000Z</time>
      </trkpt>
      <trkpt lat="47.49252" lon="6.76454">
        <ele>329</ele>
        <time>2016-11-02T14:54:38.000Z</time>
      </trkpt>
      <trkpt lat="47.49251" lon="6.76447">
        <ele>329</ele>
        <time>2016-11-02T14:54:39.000Z</time>
      </trkpt>
      <trkpt lat="47.49252" lon="6.7644">
        <ele>329</ele>
        <time>2016-11-02T14:54:40.000Z</time>
      </trkpt>
      <trkpt lat="47.4925" lon="6.76432">
        <ele>328</ele>
        <time>2016-11-02T14:54:41.000Z</time>
      </trkpt>
      <trkpt lat="47.4925" lon="6.76424">
        <ele>326</ele>
        <time>2016-11-02T14:54:41.999Z</time>
      </trkpt>
      <trkpt lat="47.49249" lon="6.76416">
        <ele>324</ele>
        <time>2016-11-02T14:54:43.000Z</time>
      </trkpt>
      <trkpt lat="47.4925" lon="6.76409">
        <ele>323</ele>
        <time>2016-11-02T14:54:44.000Z</time>
      </trkpt>
      <trkpt lat="47.4925" lon="6.76402">
        <ele>322</ele>
        <time>2016-11-02T14:54:45.000Z</time>
      </trkpt>
      <trkpt lat="47.49249" lon="6.76395">
        <ele>321</ele>
        <time>2016-11-02T14:54:46.000Z</time>
      </trkpt>
      <trkpt lat="47.4925" lon="6.76387">
        <ele>321</ele>
        <time>2016-11-02T14:54:47.000Z</time>
      </trkpt>
      <trkpt lat="47.4925" lon="6.76381">
        <ele>321</ele>
        <time>2016-11-02T14:54:48.000Z</time>
      </trkpt>
      <trkpt lat="47.49249" lon="6.76374">
        <ele>321</ele>
        <time>2016-11-02T14:54:49.000Z</time>
      </trkpt>
      <trkpt lat="47.49249" lon="6.76367">
        <ele>321</ele>
        <time>2016-11-02T14:54:50.000Z</time>
      </trkpt>
      <trkpt lat="47.49247" lon="6.7636">
        <ele>321</ele>
        <time>2016-11-02T14:54:51.000Z</time>
      </trkpt>
      <trkpt lat="47.49247" lon="6.76352">
        <ele>322</ele>
        <time>2016-11-02T14:54:52.000Z</time>
      </trkpt>
      <trkpt lat="47.49246" lon="6.76345">
        <ele>323</ele>
        <time>2016-11-02T14:54:53.000Z</time>
      </trkpt>
      <trkpt lat="47.49246" lon="6.76339">
        <ele>324</ele>
        <time>2016-11-02T14:54:54.000Z</time>
      </trkpt>
      <trkpt lat="47.49245" lon="6.76331">
        <ele>324</ele>
        <time>2016-11-02T14:54:55.000Z</time>
      </trkpt>
      <trkpt lat="47.49245" lon="6.76325">
        <ele>323</ele>
        <time>2016-11-02T14:54:56.000Z</time>
      </trkpt>
      <trkpt lat="47.49244" lon="6.76318">
        <ele>323</ele>
        <time>2016-11-02T14:54:57.000Z</time>
      </trkpt>
      <trkpt lat="47.49244" lon="6.76311">
        <ele>322</ele>
        <time>2016-11-02T14:54:57.999Z</time>
      </trkpt>
      <trkpt lat="47.49244" lon="6.76303">
        <ele>322</ele>
        <time>2016-11-02T14:54:59.000Z</time>
      </trkpt>
      <trkpt lat="47.49244" lon="6.76297">
        <ele>321</ele>
        <time>2016-11-02T14:55:00.000Z</time>
      </trkpt>
      <trkpt lat="47.49245" lon="6.7629">
        <ele>321</ele>
        <time>2016-11-02T14:55:01.000Z</time>
      </trkpt>
      <trkpt lat="47.49245" lon="6.76283">
        <ele>321</ele>
        <time>2016-11-02T14:55:02.000Z</time>
      </trkpt>
      <trkpt lat="47.49246" lon="6.76275">
        <ele>322</ele>
        <time>2016-11-02T14:55:03.000Z</time>
      </trkpt>
      <trkpt lat="47.49245" lon="6.76269">
        <ele>322</ele>
        <time>2016-11-02T14:55:04.000Z</time>
      </trkpt>
      <trkpt lat="47.49244" lon="6.76261">
        <ele>322</ele>
        <time>2016-11-02T14:55:05.000Z</time>
      </trkpt>
      <trkpt lat="47.49243" lon="6.76254">
        <ele>323</ele>
        <time>2016-11-02T14:55:06.000Z</time>
      </trkpt>
      <trkpt lat="47.49242" lon="6.76247">
        <ele>323</ele>
        <time>2016-11-02T14:55:07.000Z</time>
      </trkpt>
      <trkpt lat="47.4924" lon="6.76238">
        <ele>323</ele>
        <time>2016-11-02T14:55:08.000Z</time>
      </trkpt>
      <trkpt lat="47.4924" lon="6.7623">
        <ele>322</ele>
        <time>2016-11-02T14:55:09.000Z</time>
      </trkpt>
      <trkpt lat="47.49239" lon="6.76226">
        <ele>322</ele>
        <time>2016-11-02T14:55:10.000Z</time>
      </trkpt>
      <trkpt lat="47.4924" lon="6.76221">
        <ele>322</ele>
        <time>2016-11-02T14:55:11.000Z</time>
      </trkpt>
      <trkpt lat="47.49239" lon="6.76216">
        <ele>322</ele>
        <time>2016-11-02T14:55:12.000Z</time>
      </trkpt>
      <trkpt lat="47.49238" lon="6.7621">
        <ele>322</ele>
        <time>2016-11-02T14:55:13.000Z</time>
      </trkpt>
      <trkpt lat="47.49238" lon="6.76202">
        <ele>322</ele>
        <time>2016-11-02T14:55:14.000Z</time>
      </trkpt>
      <trkpt lat="47.49236" lon="6.76196">
        <ele>322</ele>
        <time>2016-11-02T14:55:15.000Z</time>
      </trkpt>
      <trkpt lat="47.49235" lon="6.76192">
        <ele>322</ele>
        <time>2016-11-02T14:55:16.000Z</time>
      </trkpt>
      <trkpt lat="47.49234" lon="6.76187">
        <ele>322</ele>
        <time>2016-11-02T14:55:17.000Z</time>
      </trkpt>
      <trkpt lat="47.49234" lon="6.76184">
        <ele>323</ele>
        <time>2016-11-02T14:55:18.001Z</time>
      </trkpt>
      <trkpt lat="47.49233" lon="6.76178">
        <ele>323</ele>
        <time>2016-11-02T14:55:19.000Z</time>
      </trkpt>
      <trkpt lat="47.49232" lon="6.76171">
        <ele>323</ele>
        <time>2016-11-02T14:55:20.000Z</time>
      </trkpt>
      <trkpt lat="47.49235" lon="6.76164">
        <ele>324</ele>
        <time>2016-11-02T14:55:21.000Z</time>
      </trkpt>
      <trkpt lat="47.49235" lon="6.76156">
        <ele>323</ele>
        <time>2016-11-02T14:55:22.000Z</time>
      </trkpt>
      <trkpt lat="47.49235" lon="6.76149">
        <ele>323</ele>
        <time>2016-11-02T14:55:23.000Z</time>
      </trkpt>
      <trkpt lat="47.49234" lon="6.76143">
        <ele>323</ele>
        <time>2016-11-02T14:55:24.000Z</time>
      </trkpt>
      <trkpt lat="47.49233" lon="6.76135">
        <ele>323</ele>
        <time>2016-11-02T14:55:25.000Z</time>
      </trkpt>
      <trkpt lat="47.49235" lon="6.76127">
        <ele>323</ele>
        <time>2016-11-02T14:55:26.000Z</time>
      </trkpt>
      <trkpt lat="47.49237" lon="6.76119">
        <ele>323</ele>
        <time>2016-11-02T14:55:27.000Z</time>
      </trkpt>
      <trkpt lat="47.49239" lon="6.76111">
        <ele>323</ele>
        <time>2016-11-02T14:55:28.000Z</time>
      </trkpt>
      <trkpt lat="47.49239" lon="6.76103">
        <ele>324</ele>
        <time>2016-11-02T14:55:29.000Z</time>
      </trkpt>
      <trkpt lat="47.4924" lon="6.76095">
        <ele>324</ele>
        <time>2016-11-02T14:55:30.000Z</time>
      </trkpt>
      <trkpt lat="47.49242" lon="6.76088">
        <ele>325</ele>
        <time>2016-11-02T14:55:31.000Z</time>
      </trkpt>
      <trkpt lat="47.49244" lon="6.76081">
        <ele>325</ele>
        <time>2016-11-02T14:55:32.000Z</time>
      </trkpt>
      <trkpt lat="47.49245" lon="6.76074">
        <ele>324</ele>
        <time>2016-11-02T14:55:33.000Z</time>
      </trkpt>
      <trkpt lat="47.49246" lon="6.76066">
        <ele>324</ele>
        <time>2016-11-02T14:55:34.000Z</time>
      </trkpt>
      <trkpt lat="47.49247" lon="6.76058">
        <ele>323</ele>
        <time>2016-11-02T14:55:35.000Z</time>
      </trkpt>
      <trkpt lat="47.49248" lon="6.76052">
        <ele>323</ele>
        <time>2016-11-02T14:55:36.000Z</time>
      </trkpt>
      <trkpt lat="47.4925" lon="6.76045">
        <ele>329</ele>
        <time>2016-11-02T14:55:37.000Z</time>
      </trkpt>
      <trkpt lat="47.49254" lon="6.76037">
        <ele>329</ele>
        <time>2016-11-02T14:55:38.000Z</time>
      </trkpt>
      <trkpt lat="47.49256" lon="6.76031">
        <ele>329</ele>
        <time>2016-11-02T14:55:39.000Z</time>
      </trkpt>
      <trkpt lat="47.49258" lon="6.76024">
        <ele>328</ele>
        <time>2016-11-02T14:55:40.000Z</time>
      </trkpt>
      <trkpt lat="47.4926" lon="6.76018">
        <ele>328</ele>
        <time>2016-11-02T14:55:41.000Z</time>
      </trkpt>
      <trkpt lat="47.49263" lon="6.76011">
        <ele>327</ele>
        <time>2016-11-02T14:55:42.000Z</time>
      </trkpt>
      <trkpt lat="47.49265" lon="6.76004">
        <ele>327</ele>
        <time>2016-11-02T14:55:43.000Z</time>
      </trkpt>
      <trkpt lat="47.49267" lon="6.75997">
        <ele>326</ele>
        <time>2016-11-02T14:55:44.000Z</time>
      </trkpt>
      <trkpt lat="47.4927" lon="6.75989">
        <ele>326</ele>
        <time>2016-11-02T14:55:45.000Z</time>
      </trkpt>
      <trkpt lat="47.49271" lon="6.75983">
        <ele>326</ele>
        <time>2016-11-02T14:55:46.000Z</time>
      </trkpt>
      <trkpt lat="47.49274" lon="6.75977">
        <ele>326</ele>
        <time>2016-11-02T14:55:47.000Z</time>
      </trkpt>
      <trkpt lat="47.49279" lon="6.75971">
        <ele>327</ele>
        <time>2016-11-02T14:55:48.000Z</time>
      </trkpt>
      <trkpt lat="47.49283" lon="6.75965">
        <ele>327</ele>
        <time>2016-11-02T14:55:49.000Z</time>
      </trkpt>
      <trkpt lat="47.49286" lon="6.75959">
        <ele>327</ele>
        <time>2016-11-02T14:55:50.000Z</time>
      </trkpt>
      <trkpt lat="47.49289" lon="6.75953">
        <ele>327</ele>
        <time>2016-11-02T14:55:51.000Z</time>
      </trkpt>
      <trkpt lat="47.49292" lon="6.75948">
        <ele>327</ele>
        <time>2016-11-02T14:55:52.000Z</time>
      </trkpt>
      <trkpt lat="47.49295" lon="6.75941">
        <ele>327</ele>
        <time>2016-11-02T14:55:53.000Z</time>
      </trkpt>
      <trkpt lat="47.49299" lon="6.75936">
        <ele>327</ele>
        <time>2016-11-02T14:55:54.000Z</time>
      </trkpt>
      <trkpt lat="47.49302" lon="6.75931">
        <ele>327</ele>
        <time>2016-11-02T14:55:55.000Z</time>
      </trkpt>
      <trkpt lat="47.49304" lon="6.75925">
        <ele>327</ele>
        <time>2016-11-02T14:55:56.000Z</time>
      </trkpt>
      <trkpt lat="47.49309" lon="6.75921">
        <ele>328</ele>
        <time>2016-11-02T14:55:57.000Z</time>
      </trkpt>
      <trkpt lat="47.49313" lon="6.75916">
        <ele>325</ele>
        <time>2016-11-02T14:55:58.000Z</time>
      </trkpt>
      <trkpt lat="47.49316" lon="6.75912">
        <ele>326</ele>
        <time>2016-11-02T14:55:59.000Z</time>
      </trkpt>
      <trkpt lat="47.4932" lon="6.75908">
        <ele>326</ele>
        <time>2016-11-02T14:56:00.000Z</time>
      </trkpt>
      <trkpt lat="47.49322" lon="6.75902">
        <ele>325</ele>
        <time>2016-11-02T14:56:01.000Z</time>
      </trkpt>
      <trkpt lat="47.49325" lon="6.75895">
        <ele>325</ele>
        <time>2016-11-02T14:56:02.000Z</time>
      </trkpt>
      <trkpt lat="47.4933" lon="6.7589">
        <ele>324</ele>
        <time>2016-11-02T14:56:03.000Z</time>
      </trkpt>
      <trkpt lat="47.49334" lon="6.75885">
        <ele>331</ele>
        <time>2016-11-02T14:56:04.000Z</time>
      </trkpt>
      <trkpt lat="47.49337" lon="6.75879">
        <ele>331</ele>
        <time>2016-11-02T14:56:04.999Z</time>
      </trkpt>
      <trkpt lat="47.49342" lon="6.75876">
        <ele>331</ele>
        <time>2016-11-02T14:56:06.000Z</time>
      </trkpt>
      <trkpt lat="47.49346" lon="6.7587">
        <ele>330</ele>
        <time>2016-11-02T14:56:07.000Z</time>
      </trkpt>
      <trkpt lat="47.4935" lon="6.75864">
        <ele>330</ele>
        <time>2016-11-02T14:56:08.000Z</time>
      </trkpt>
      <trkpt lat="47.49353" lon="6.75859">
        <ele>330</ele>
        <time>2016-11-02T14:56:09.000Z</time>
      </trkpt>
      <trkpt lat="47.49357" lon="6.75855">
        <ele>330</ele>
        <time>2016-11-02T14:56:10.000Z</time>
      </trkpt>
      <trkpt lat="47.49361" lon="6.75851">
        <ele>330</ele>
        <time>2016-11-02T14:56:11.000Z</time>
      </trkpt>
      <trkpt lat="47.49364" lon="6.75846">
        <ele>330</ele>
        <time>2016-11-02T14:56:12.000Z</time>
      </trkpt>
      <trkpt lat="47.49367" lon="6.75841">
        <ele>330</ele>
        <time>2016-11-02T14:56:13.000Z</time>
      </trkpt>
      <trkpt lat="47.49371" lon="6.75839">
        <ele>330</ele>
        <time>2016-11-02T14:56:14.000Z</time>
      </trkpt>
      <trkpt lat="47.49374" lon="6.75837">
        <ele>331</ele>
        <time>2016-11-02T14:56:15.000Z</time>
      </trkpt>
      <trkpt lat="47.4938" lon="6.75836">
        <ele>331</ele>
        <time>2016-11-02T14:56:16.000Z</time>
      </trkpt>
      <trkpt lat="47.49383" lon="6.75835">
        <ele>331</ele>
        <time>2016-11-02T14:56:17.000Z</time>
      </trkpt>
      <trkpt lat="47.49388" lon="6.75837">
        <ele>332</ele>
        <time>2016-11-02T14:56:18.000Z</time>
      </trkpt>
      <trkpt lat="47.49393" lon="6.75835">
        <ele>332</ele>
        <time>2016-11-02T14:56:19.000Z</time>
      </trkpt>
      <trkpt lat="47.49397" lon="6.75833">
        <ele>327</ele>
        <time>2016-11-02T14:56:20.000Z</time>
      </trkpt>
      <trkpt lat="47.494" lon="6.75832">
        <ele>328</ele>
        <time>2016-11-02T14:56:21.000Z</time>
      </trkpt>
      <trkpt lat="47.49405" lon="6.75831">
        <ele>328</ele>
        <time>2016-11-02T14:56:22.000Z</time>
      </trkpt>
      <trkpt lat="47.49409" lon="6.75829">
        <ele>329</ele>
        <time>2016-11-02T14:56:23.000Z</time>
      </trkpt>
      <trkpt lat="47.49413" lon="6.75827">
        <ele>330</ele>
        <time>2016-11-02T14:56:24.000Z</time>
      </trkpt>
      <trkpt lat="47.49417" lon="6.75825">
        <ele>331</ele>
        <time>2016-11-02T14:56:25.000Z</time>
      </trkpt>
      <trkpt lat="47.49422" lon="6.75822">
        <ele>331</ele>
        <time>2016-11-02T14:56:26.000Z</time>
      </trkpt>
      <trkpt lat="47.49426" lon="6.75821">
        <ele>330</ele>
        <time>2016-11-02T14:56:27.000Z</time>
      </trkpt>
      <trkpt lat="47.49431" lon="6.75818">
        <ele>330</ele>
        <time>2016-11-02T14:56:28.000Z</time>
      </trkpt>
      <trkpt lat="47.49435" lon="6.75815">
        <ele>330</ele>
        <time>2016-11-02T14:56:29.000Z</time>
      </trkpt>
      <trkpt lat="47.49439" lon="6.75814">
        <ele>330</ele>
        <time>2016-11-02T14:56:30.000Z</time>
      </trkpt>
      <trkpt lat="47.49444" lon="6.7581">
        <ele>329</ele>
        <time>2016-11-02T14:56:31.000Z</time>
      </trkpt>
      <trkpt lat="47.49447" lon="6.7581">
        <ele>330</ele>
        <time>2016-11-02T14:56:32.000Z</time>
      </trkpt>
      <trkpt lat="47.49452" lon="6.7581">
        <ele>330</ele>
        <time>2016-11-02T14:56:33.000Z</time>
      </trkpt>
      <trkpt lat="47.49456" lon="6.75808">
        <ele>330</ele>
        <time>2016-11-02T14:56:34.000Z</time>
      </trkpt>
      <trkpt lat="47.4946" lon="6.75806">
        <ele>330</ele>
        <time>2016-11-02T14:56:35.000Z</time>
      </trkpt>
      <trkpt lat="47.49464" lon="6.75808">
        <ele>330</ele>
        <time>2016-11-02T14:56:36.000Z</time>
      </trkpt>
      <trkpt lat="47.49469" lon="6.75806">
        <ele>330</ele>
        <time>2016-11-02T14:56:37.000Z</time>
      </trkpt>
      <trkpt lat="47.49473" lon="6.75804">
        <ele>330</ele>
        <time>2016-11-02T14:56:38.000Z</time>
      </trkpt>
      <trkpt lat="47.49477" lon="6.75802">
        <ele>330</ele>
        <time>2016-11-02T14:56:39.000Z</time>
      </trkpt>
      <trkpt lat="47.49481" lon="6.758">
        <ele>330</ele>
        <time>2016-11-02T14:56:40.000Z</time>
      </trkpt>
      <trkpt lat="47.49485" lon="6.75799">
        <ele>330</ele>
        <time>2016-11-02T14:56:41.000Z</time>
      </trkpt>
      <trkpt lat="47.49488" lon="6.75797">
        <ele>330</ele>
        <time>2016-11-02T14:56:42.000Z</time>
      </trkpt>
      <trkpt lat="47.49492" lon="6.75794">
        <ele>330</ele>
        <time>2016-11-02T14:56:43.000Z</time>
      </trkpt>
      <trkpt lat="47.49496" lon="6.75791">
        <ele>329</ele>
        <time>2016-11-02T14:56:44.000Z</time>
      </trkpt>
      <trkpt lat="47.495" lon="6.7579">
        <ele>334</ele>
        <time>2016-11-02T14:56:45.000Z</time>
      </trkpt>
      <trkpt lat="47.49505" lon="6.75788">
        <ele>334</ele>
        <time>2016-11-02T14:56:46.000Z</time>
      </trkpt>
      <trkpt lat="47.49509" lon="6.75785">
        <ele>334</ele>
        <time>2016-11-02T14:56:47.000Z</time>
      </trkpt>
      <trkpt lat="47.49513" lon="6.75782">
        <ele>333</ele>
        <time>2016-11-02T14:56:48.000Z</time>
      </trkpt>
      <trkpt lat="47.49518" lon="6.75779">
        <ele>333</ele>
        <time>2016-11-02T14:56:49.000Z</time>
      </trkpt>
      <trkpt lat="47.49522" lon="6.75778">
        <ele>334</ele>
        <time>2016-11-02T14:56:50.000Z</time>
      </trkpt>
      <trkpt lat="47.49527" lon="6.75775">
        <ele>334</ele>
        <time>2016-11-02T14:56:51.000Z</time>
      </trkpt>
      <trkpt lat="47.4953" lon="6.75772">
        <ele>334</ele>
        <time>2016-11-02T14:56:52.000Z</time>
      </trkpt>
      <trkpt lat="47.49534" lon="6.75769">
        <ele>334</ele>
        <time>2016-11-02T14:56:53.000Z</time>
      </trkpt>
      <trkpt lat="47.49538" lon="6.75766">
        <ele>334</ele>
        <time>2016-11-02T14:56:54.000Z</time>
      </trkpt>
      <trkpt lat="47.49541" lon="6.75763">
        <ele>334</ele>
        <time>2016-11-02T14:56:55.000Z</time>
      </trkpt>
      <trkpt lat="47.49544" lon="6.75761">
        <ele>334</ele>
        <time>2016-11-02T14:56:56.000Z</time>
      </trkpt>
      <trkpt lat="47.49547" lon="6.75759">
        <ele>334</ele>
        <time>2016-11-02T14:56:57.000Z</time>
      </trkpt>
      <trkpt lat="47.4955" lon="6.7576">
        <ele>334</ele>
        <time>2016-11-02T14:56:58.000Z</time>
      </trkpt>
      <trkpt lat="47.49554" lon="6.7576">
        <ele>335</ele>
        <time>2016-11-02T14:56:59.000Z</time>
      </trkpt>
      <trkpt lat="47.49557" lon="6.75761">
        <ele>335</ele>
        <time>2016-11-02T14:57:00.000Z</time>
      </trkpt>
      <trkpt lat="47.4956" lon="6.75762">
        <ele>335</ele>
        <time>2016-11-02T14:57:01.000Z</time>
      </trkpt>
      <trkpt lat="47.49563" lon="6.75764">
        <ele>335</ele>
        <time>2016-11-02T14:57:03.000Z</time>
      </trkpt>
      <trkpt lat="47.49564" lon="6.75765">
        <ele>335</ele>
        <time>2016-11-02T14:57:04.000Z</time>
      </trkpt>
      <trkpt lat="47.49568" lon="6.75767">
        <ele>335</ele>
        <time>2016-11-02T14:57:08.001Z</time>
      </trkpt>
      <trkpt lat="47.4957" lon="6.75766">
        <ele>335</ele>
        <time>2016-11-02T14:57:09.000Z</time>
      </trkpt>
      <trkpt lat="47.49575" lon="6.75765">
        <ele>335</ele>
        <time>2016-11-02T14:57:16.000Z</time>
      </trkpt>
      <trkpt lat="47.49575" lon="6.75765">
        <ele>335</ele>
        <time>2016-11-02T14:57:17.000Z</time>
      </trkpt>
      <trkpt lat="47.49579" lon="6.75767">
        <ele>335</ele>
        <time>2016-11-02T14:57:25.000Z</time>
      </trkpt>
      <trkpt lat="47.4958" lon="6.75767">
        <ele>336</ele>
        <time>2016-11-02T14:57:26.000Z</time>
      </trkpt>
      <trkpt lat="47.49583" lon="6.75767">
        <ele>336</ele>
        <time>2016-11-02T14:57:28.000Z</time>
      </trkpt>
      <trkpt lat="47.49584" lon="6.75767">
        <ele>340</ele>
        <time>2016-11-02T14:57:29.000Z</time>
      </trkpt>
      <trkpt lat="47.49588" lon="6.75767">
        <ele>340</ele>
        <time>2016-11-02T14:57:33.000Z</time>
      </trkpt>
      <trkpt lat="47.49589" lon="6.75767">
        <ele>340</ele>
        <time>2016-11-02T14:57:34.000Z</time>
      </trkpt>
      <trkpt lat="47.49592" lon="6.75768">
        <ele>341</ele>
        <time>2016-11-02T14:57:38.000Z</time>
      </trkpt>
      <trkpt lat="47.49594" lon="6.75768">
        <ele>341</ele>
        <time>2016-11-02T14:57:39.000Z</time>
      </trkpt>
      <trkpt lat="47.49598" lon="6.75767">
        <ele>341</ele>
        <time>2016-11-02T14:57:42.000Z</time>
      </trkpt>
      <trkpt lat="47.49599" lon="6.75767">
        <ele>341</ele>
        <time>2016-11-02T14:57:43.000Z</time>
      </trkpt>
      <trkpt lat="47.49604" lon="6.75767">
        <ele>342</ele>
        <time>2016-11-02T14:57:46.000Z</time>
      </trkpt>
      <trkpt lat="47.49606" lon="6.75767">
        <ele>342</ele>
        <time>2016-11-02T14:57:47.000Z</time>
      </trkpt>
      <trkpt lat="47.4961" lon="6.75767">
        <ele>343</ele>
        <time>2016-11-02T14:57:49.000Z</time>
      </trkpt>
      <trkpt lat="47.49613" lon="6.75768">
        <ele>343</ele>
        <time>2016-11-02T14:57:50.000Z</time>
      </trkpt>
      <trkpt lat="47.49615" lon="6.75769">
        <ele>344</ele>
        <time>2016-11-02T14:57:51.000Z</time>
      </trkpt>
      <trkpt lat="47.49618" lon="6.75769">
        <ele>344</ele>
        <time>2016-11-02T14:57:52.000Z</time>
      </trkpt>
      <trkpt lat="47.49622" lon="6.7577">
        <ele>344</ele>
        <time>2016-11-02T14:57:54.000Z</time>
      </trkpt>
      <trkpt lat="47.49623" lon="6.75769">
        <ele>344</ele>
        <time>2016-11-02T14:57:55.000Z</time>
      </trkpt>
      <trkpt lat="47.49626" lon="6.75768">
        <ele>344</ele>
        <time>2016-11-02T14:57:57.000Z</time>
      </trkpt>
      <trkpt lat="47.49628" lon="6.75767">
        <ele>344</ele>
        <time>2016-11-02T14:57:58.000Z</time>
      </trkpt>
      <trkpt lat="47.49631" lon="6.75765">
        <ele>345</ele>
        <time>2016-11-02T14:58:00.000Z</time>
      </trkpt>
      <trkpt lat="47.49632" lon="6.75764">
        <ele>345</ele>
        <time>2016-11-02T14:58:01.000Z</time>
      </trkpt>
      <trkpt lat="47.49636" lon="6.75761">
        <ele>345</ele>
        <time>2016-11-02T14:58:04.000Z</time>
      </trkpt>
      <trkpt lat="47.49638" lon="6.75761">
        <ele>345</ele>
        <time>2016-11-02T14:58:05.000Z</time>
      </trkpt>
      <trkpt lat="47.49641" lon="6.75761">
        <ele>345</ele>
        <time>2016-11-02T14:58:07.000Z</time>
      </trkpt>
      <trkpt lat="47.49643" lon="6.75762">
        <ele>345</ele>
        <time>2016-11-02T14:58:08.000Z</time>
      </trkpt>
      <trkpt lat="47.49647" lon="6.75762">
        <ele>345</ele>
        <time>2016-11-02T14:58:10.000Z</time>
      </trkpt>
      <trkpt lat="47.49649" lon="6.75763">
        <ele>345</ele>
        <time>2016-11-02T14:58:11.000Z</time>
      </trkpt>
      <trkpt lat="47.49653" lon="6.75762">
        <ele>345</ele>
        <time>2016-11-02T14:58:13.000Z</time>
      </trkpt>
      <trkpt lat="47.49655" lon="6.75762">
        <ele>345</ele>
        <time>2016-11-02T14:58:14.000Z</time>
      </trkpt>
      <trkpt lat="47.49657" lon="6.75761">
        <ele>345</ele>
        <time>2016-11-02T14:58:15.000Z</time>
      </trkpt>
      <trkpt lat="47.4966" lon="6.7576">
        <ele>345</ele>
        <time>2016-11-02T14:58:16.000Z</time>
      </trkpt>
      <trkpt lat="47.49662" lon="6.75761">
        <ele>345</ele>
        <time>2016-11-02T14:58:17.000Z</time>
      </trkpt>
      <trkpt lat="47.49664" lon="6.75761">
        <ele>345</ele>
        <time>2016-11-02T14:58:18.000Z</time>
      </trkpt>
      <trkpt lat="47.49668" lon="6.75764">
        <ele>349</ele>
        <time>2016-11-02T14:58:20.000Z</time>
      </trkpt>
      <trkpt lat="47.49669" lon="6.75765">
        <ele>349</ele>
        <time>2016-11-02T14:58:21.000Z</time>
      </trkpt>
      <trkpt lat="47.49671" lon="6.75765">
        <ele>349</ele>
        <time>2016-11-02T14:58:23.000Z</time>
      </trkpt>
      <trkpt lat="47.49674" lon="6.75765">
        <ele>349</ele>
        <time>2016-11-02T14:58:24.000Z</time>
      </trkpt>
      <trkpt lat="47.49676" lon="6.75764">
        <ele>349</ele>
        <time>2016-11-02T14:58:25.000Z</time>
      </trkpt>
      <trkpt lat="47.49678" lon="6.75764">
        <ele>350</ele>
        <time>2016-11-02T14:58:26.000Z</time>
      </trkpt>
      <trkpt lat="47.49681" lon="6.75764">
        <ele>350</ele>
        <time>2016-11-02T14:58:27.000Z</time>
      </trkpt>
      <trkpt lat="47.49683" lon="6.75764">
        <ele>350</ele>
        <time>2016-11-02T14:58:28.000Z</time>
      </trkpt>
      <trkpt lat="47.49687" lon="6.75761">
        <ele>350</ele>
        <time>2016-11-02T14:58:30.000Z</time>
      </trkpt>
      <trkpt lat="47.49689" lon="6.75761">
        <ele>351</ele>
        <time>2016-11-02T14:58:30.999Z</time>
      </trkpt>
      <trkpt lat="47.49691" lon="6.75758">
        <ele>351</ele>
        <time>2016-11-02T14:58:32.000Z</time>
      </trkpt>
      <trkpt lat="47.49693" lon="6.75758">
        <ele>351</ele>
        <time>2016-11-02T14:58:33.000Z</time>
      </trkpt>
      <trkpt lat="47.49697" lon="6.75759">
        <ele>351</ele>
        <time>2016-11-02T14:58:35.000Z</time>
      </trkpt>
      <trkpt lat="47.49699" lon="6.7576">
        <ele>352</ele>
        <time>2016-11-02T14:58:35.999Z</time>
      </trkpt>
      <trkpt lat="47.49702" lon="6.75761">
        <ele>352</ele>
        <time>2016-11-02T14:58:37.000Z</time>
      </trkpt>
      <trkpt lat="47.49704" lon="6.75761">
        <ele>352</ele>
        <time>2016-11-02T14:58:38.000Z</time>
      </trkpt>
      <trkpt lat="47.49709" lon="6.75761">
        <ele>352</ele>
        <time>2016-11-02T14:58:40.001Z</time>
      </trkpt>
      <trkpt lat="47.49712" lon="6.7576">
        <ele>353</ele>
        <time>2016-11-02T14:58:41.000Z</time>
      </trkpt>
      <trkpt lat="47.49715" lon="6.75759">
        <ele>353</ele>
        <time>2016-11-02T14:58:42.000Z</time>
      </trkpt>
      <trkpt lat="47.49718" lon="6.75759">
        <ele>353</ele>
        <time>2016-11-02T14:58:43.001Z</time>
      </trkpt>
      <trkpt lat="47.49722" lon="6.75757">
        <ele>353</ele>
        <time>2016-11-02T14:58:44.000Z</time>
      </trkpt>
      <trkpt lat="47.49725" lon="6.75756">
        <ele>353</ele>
        <time>2016-11-02T14:58:45.000Z</time>
      </trkpt>
      <trkpt lat="47.49728" lon="6.75755">
        <ele>353</ele>
        <time>2016-11-02T14:58:46.001Z</time>
      </trkpt>
      <trkpt lat="47.49731" lon="6.75754">
        <ele>353</ele>
        <time>2016-11-02T14:58:47.000Z</time>
      </trkpt>
      <trkpt lat="47.49734" lon="6.75753">
        <ele>353</ele>
        <time>2016-11-02T14:58:48.000Z</time>
      </trkpt>
      <trkpt lat="47.49736" lon="6.75752">
        <ele>352</ele>
        <time>2016-11-02T14:58:49.000Z</time>
      </trkpt>
      <trkpt lat="47.49738" lon="6.75751">
        <ele>352</ele>
        <time>2016-11-02T14:58:50.000Z</time>
      </trkpt>
      <trkpt lat="47.49741" lon="6.75751">
        <ele>352</ele>
        <time>2016-11-02T14:58:51.000Z</time>
      </trkpt>
      <trkpt lat="47.49743" lon="6.75751">
        <ele>352</ele>
        <time>2016-11-02T14:58:52.000Z</time>
      </trkpt>
      <trkpt lat="47.49745" lon="6.7575">
        <ele>352</ele>
        <time>2016-11-02T14:58:53.000Z</time>
      </trkpt>
      <trkpt lat="47.49747" lon="6.75749">
        <ele>350</ele>
        <time>2016-11-02T14:58:54.000Z</time>
      </trkpt>
      <trkpt lat="47.4975" lon="6.75747">
        <ele>350</ele>
        <time>2016-11-02T14:58:55.000Z</time>
      </trkpt>
      <trkpt lat="47.49752" lon="6.75745">
        <ele>351</ele>
        <time>2016-11-02T14:58:56.000Z</time>
      </trkpt>
      <trkpt lat="47.49755" lon="6.75744">
        <ele>351</ele>
        <time>2016-11-02T14:58:57.000Z</time>
      </trkpt>
      <trkpt lat="47.49758" lon="6.75743">
        <ele>351</ele>
        <time>2016-11-02T14:58:58.000Z</time>
      </trkpt>
      <trkpt lat="47.4976" lon="6.75743">
        <ele>351</ele>
        <time>2016-11-02T14:58:59.000Z</time>
      </trkpt>
      <trkpt lat="47.49763" lon="6.75743">
        <ele>351</ele>
        <time>2016-11-02T14:59:00.000Z</time>
      </trkpt>
      <trkpt lat="47.49765" lon="6.75743">
        <ele>351</ele>
        <time>2016-11-02T14:59:01.000Z</time>
      </trkpt>
      <trkpt lat="47.49769" lon="6.75743">
        <ele>351</ele>
        <time>2016-11-02T14:59:03.000Z</time>
      </trkpt>
      <trkpt lat="47.49771" lon="6.75743">
        <ele>351</ele>
        <time>2016-11-02T14:59:04.000Z</time>
      </trkpt>
      <trkpt lat="47.49774" lon="6.75743">
        <ele>351</ele>
        <time>2016-11-02T14:59:05.000Z</time>
      </trkpt>
      <trkpt lat="47.49776" lon="6.75743">
        <ele>351</ele>
        <time>2016-11-02T14:59:06.000Z</time>
      </trkpt>
      <trkpt lat="47.49779" lon="6.75743">
        <ele>351</ele>
        <time>2016-11-02T14:59:07.000Z</time>
      </trkpt>
      <trkpt lat="47.49781" lon="6.75744">
        <ele>351</ele>
        <time>2016-11-02T14:59:08.000Z</time>
      </trkpt>
      <trkpt lat="47.49784" lon="6.75744">
        <ele>352</ele>
        <time>2016-11-02T14:59:09.000Z</time>
      </trkpt>
      <trkpt lat="47.49787" lon="6.75744">
        <ele>352</ele>
        <time>2016-11-02T14:59:10.000Z</time>
      </trkpt>
      <trkpt lat="47.49791" lon="6.75744">
        <ele>352</ele>
        <time>2016-11-02T14:59:12.000Z</time>
      </trkpt>
      <trkpt lat="47.49793" lon="6.75743">
        <ele>352</ele>
        <time>2016-11-02T14:59:13.000Z</time>
      </trkpt>
      <trkpt lat="47.49796" lon="6.7574">
        <ele>352</ele>
        <time>2016-11-02T14:59:16.000Z</time>
      </trkpt>
      <trkpt lat="47.49797" lon="6.75739">
        <ele>352</ele>
        <time>2016-11-02T14:59:17.000Z</time>
      </trkpt>
      <trkpt lat="47.498" lon="6.75737">
        <ele>353</ele>
        <time>2016-11-02T14:59:19.000Z</time>
      </trkpt>
      <trkpt lat="47.49802" lon="6.75737">
        <ele>353</ele>
        <time>2016-11-02T14:59:20.000Z</time>
      </trkpt>
      <trkpt lat="47.49804" lon="6.75736">
        <ele>353</ele>
        <time>2016-11-02T14:59:21.000Z</time>
      </trkpt>
      <trkpt lat="47.49807" lon="6.75735">
        <ele>353</ele>
        <time>2016-11-02T14:59:22.000Z</time>
      </trkpt>
      <trkpt lat="47.49809" lon="6.75735">
        <ele>353</ele>
        <time>2016-11-02T14:59:23.000Z</time>
      </trkpt>
      <trkpt lat="47.49812" lon="6.75734">
        <ele>354</ele>
        <time>2016-11-02T14:59:24.000Z</time>
      </trkpt>
      <trkpt lat="47.49815" lon="6.75734">
        <ele>354</ele>
        <time>2016-11-02T14:59:25.000Z</time>
      </trkpt>
      <trkpt lat="47.49817" lon="6.75733">
        <ele>354</ele>
        <time>2016-11-02T14:59:26.000Z</time>
      </trkpt>
      <trkpt lat="47.4982" lon="6.75732">
        <ele>354</ele>
        <time>2016-11-02T14:59:27.000Z</time>
      </trkpt>
      <trkpt lat="47.49822" lon="6.75731">
        <ele>354</ele>
        <time>2016-11-02T14:59:28.000Z</time>
      </trkpt>
      <trkpt lat="47.49825" lon="6.7573">
        <ele>354</ele>
        <time>2016-11-02T14:59:29.000Z</time>
      </trkpt>
      <trkpt lat="47.49827" lon="6.75729">
        <ele>354</ele>
        <time>2016-11-02T14:59:30.000Z</time>
      </trkpt>
      <trkpt lat="47.49829" lon="6.75728">
        <ele>354</ele>
        <time>2016-11-02T14:59:31.000Z</time>
      </trkpt>
      <trkpt lat="47.49832" lon="6.75727">
        <ele>354</ele>
        <time>2016-11-02T14:59:32.000Z</time>
      </trkpt>
      <trkpt lat="47.49834" lon="6.75726">
        <ele>361</ele>
        <time>2016-11-02T14:59:33.000Z</time>
      </trkpt>
      <trkpt lat="47.49836" lon="6.75726">
        <ele>361</ele>
        <time>2016-11-02T14:59:34.000Z</time>
      </trkpt>
      <trkpt lat="47.49839" lon="6.75726">
        <ele>361</ele>
        <time>2016-11-02T14:59:35.000Z</time>
      </trkpt>
      <trkpt lat="47.49841" lon="6.75726">
        <ele>361</ele>
        <time>2016-11-02T14:59:36.000Z</time>
      </trkpt>
      <trkpt lat="47.49844" lon="6.75725">
        <ele>361</ele>
        <time>2016-11-02T14:59:38.000Z</time>
      </trkpt>
      <trkpt lat="47.49846" lon="6.75724">
        <ele>361</ele>
        <time>2016-11-02T14:59:39.000Z</time>
      </trkpt>
      <trkpt lat="47.49849" lon="6.75723">
        <ele>361</ele>
        <time>2016-11-02T14:59:41.000Z</time>
      </trkpt>
      <trkpt lat="47.49852" lon="6.75722">
        <ele>361</ele>
        <time>2016-11-02T14:59:42.000Z</time>
      </trkpt>
      <trkpt lat="47.49854" lon="6.75722">
        <ele>361</ele>
        <time>2016-11-02T14:59:43.000Z</time>
      </trkpt>
      <trkpt lat="47.49856" lon="6.75722">
        <ele>361</ele>
        <time>2016-11-02T14:59:44.000Z</time>
      </trkpt>
      <trkpt lat="47.4986" lon="6.7572">
        <ele>362</ele>
        <time>2016-11-02T14:59:46.000Z</time>
      </trkpt>
      <trkpt lat="47.49862" lon="6.75719">
        <ele>362</ele>
        <time>2016-11-02T14:59:47.000Z</time>
      </trkpt>
      <trkpt lat="47.49865" lon="6.75717">
        <ele>362</ele>
        <time>2016-11-02T14:59:49.000Z</time>
      </trkpt>
      <trkpt lat="47.49867" lon="6.75716">
        <ele>362</ele>
        <time>2016-11-02T14:59:50.000Z</time>
      </trkpt>
      <trkpt lat="47.4987" lon="6.75713">
        <ele>362</ele>
        <time>2016-11-02T14:59:52.000Z</time>
      </trkpt>
      <trkpt lat="47.49871" lon="6.75712">
        <ele>362</ele>
        <time>2016-11-02T14:59:53.000Z</time>
      </trkpt>
      <trkpt lat="47.49875" lon="6.7571">
        <ele>363</ele>
        <time>2016-11-02T14:59:55.000Z</time>
      </trkpt>
      <trkpt lat="47.49877" lon="6.7571">
        <ele>363</ele>
        <time>2016-11-02T14:59:56.000Z</time>
      </trkpt>
      <trkpt lat="47.49881" lon="6.75708">
        <ele>363</ele>
        <time>2016-11-02T14:59:58.000Z</time>
      </trkpt>
      <trkpt lat="47.49883" lon="6.75707">
        <ele>363</ele>
        <time>2016-11-02T14:59:59.000Z</time>
      </trkpt>
      <trkpt lat="47.49887" lon="6.75706">
        <ele>363</ele>
        <time>2016-11-02T15:00:01.000Z</time>
      </trkpt>
      <trkpt lat="47.49889" lon="6.75706">
        <ele>363</ele>
        <time>2016-11-02T15:00:02.000Z</time>
      </trkpt>
      <trkpt lat="47.49891" lon="6.75705">
        <ele>364</ele>
        <time>2016-11-02T15:00:03.000Z</time>
      </trkpt>
      <trkpt lat="47.49894" lon="6.75703">
        <ele>364</ele>
        <time>2016-11-02T15:00:04.000Z</time>
      </trkpt>
      <trkpt lat="47.49897" lon="6.75701">
        <ele>364</ele>
        <time>2016-11-02T15:00:06.000Z</time>
      </trkpt>
      <trkpt lat="47.499" lon="6.757">
        <ele>364</ele>
        <time>2016-11-02T15:00:07.000Z</time>
      </trkpt>
      <trkpt lat="47.49904" lon="6.75699">
        <ele>364</ele>
        <time>2016-11-02T15:00:09.000Z</time>
      </trkpt>
      <trkpt lat="47.49906" lon="6.75699">
        <ele>364</ele>
        <time>2016-11-02T15:00:10.000Z</time>
      </trkpt>
      <trkpt lat="47.4991" lon="6.75701">
        <ele>365</ele>
        <time>2016-11-02T15:00:12.000Z</time>
      </trkpt>
      <trkpt lat="47.49912" lon="6.75702">
        <ele>365</ele>
        <time>2016-11-02T15:00:13.000Z</time>
      </trkpt>
      <trkpt lat="47.49916" lon="6.75703">
        <ele>365</ele>
        <time>2016-11-02T15:00:15.000Z</time>
      </trkpt>
      <trkpt lat="47.49918" lon="6.75703">
        <ele>370</ele>
        <time>2016-11-02T15:00:16.000Z</time>
      </trkpt>
      <trkpt lat="47.49922" lon="6.75705">
        <ele>370</ele>
        <time>2016-11-02T15:00:18.000Z</time>
      </trkpt>
      <trkpt lat="47.49923" lon="6.75706">
        <ele>370</ele>
        <time>2016-11-02T15:00:19.000Z</time>
      </trkpt>
      <trkpt lat="47.49926" lon="6.75708">
        <ele>370</ele>
        <time>2016-11-02T15:00:21.000Z</time>
      </trkpt>
      <trkpt lat="47.49927" lon="6.7571">
        <ele>370</ele>
        <time>2016-11-02T15:00:21.999Z</time>
      </trkpt>
      <trkpt lat="47.49931" lon="6.75713">
        <ele>370</ele>
        <time>2016-11-02T15:00:25.000Z</time>
      </trkpt>
      <trkpt lat="47.49932" lon="6.75715">
        <ele>370</ele>
        <time>2016-11-02T15:00:26.000Z</time>
      </trkpt>
      <trkpt lat="47.49934" lon="6.75717">
        <ele>370</ele>
        <time>2016-11-02T15:00:29.000Z</time>
      </trkpt>
      <trkpt lat="47.49936" lon="6.75719">
        <ele>370</ele>
        <time>2016-11-02T15:00:30.000Z</time>
      </trkpt>
      <trkpt lat="47.49938" lon="6.75723">
        <ele>370</ele>
        <time>2016-11-02T15:00:31.000Z</time>
      </trkpt>
      <trkpt lat="47.49939" lon="6.75728">
        <ele>370</ele>
        <time>2016-11-02T15:00:32.000Z</time>
      </trkpt>
      <trkpt lat="47.49941" lon="6.75732">
        <ele>370</ele>
        <time>2016-11-02T15:00:34.000Z</time>
      </trkpt>
      <trkpt lat="47.49943" lon="6.75734">
        <ele>370</ele>
        <time>2016-11-02T15:00:35.000Z</time>
      </trkpt>
      <trkpt lat="47.49945" lon="6.75737">
        <ele>370</ele>
        <time>2016-11-02T15:00:37.000Z</time>
      </trkpt>
      <trkpt lat="47.49946" lon="6.75739">
        <ele>370</ele>
        <time>2016-11-02T15:00:38.000Z</time>
      </trkpt>
      <trkpt lat="47.49948" lon="6.75744">
        <ele>371</ele>
        <time>2016-11-02T15:00:40.000Z</time>
      </trkpt>
      <trkpt lat="47.4995" lon="6.75746">
        <ele>371</ele>
        <time>2016-11-02T15:00:41.000Z</time>
      </trkpt>
      <trkpt lat="47.49953" lon="6.7575">
        <ele>373</ele>
        <time>2016-11-02T15:00:43.000Z</time>
      </trkpt>
      <trkpt lat="47.49954" lon="6.75753">
        <ele>373</ele>
        <time>2016-11-02T15:00:44.000Z</time>
      </trkpt>
      <trkpt lat="47.49956" lon="6.75757">
        <ele>373</ele>
        <time>2016-11-02T15:00:46.000Z</time>
      </trkpt>
      <trkpt lat="47.49957" lon="6.75759">
        <ele>373</ele>
        <time>2016-11-02T15:00:46.999Z</time>
      </trkpt>
      <trkpt lat="47.4996" lon="6.75762">
        <ele>374</ele>
        <time>2016-11-02T15:00:48.000Z</time>
      </trkpt>
      <trkpt lat="47.49962" lon="6.75763">
        <ele>374</ele>
        <time>2016-11-02T15:00:49.000Z</time>
      </trkpt>
      <trkpt lat="47.49963" lon="6.75765">
        <ele>374</ele>
        <time>2016-11-02T15:00:49.999Z</time>
      </trkpt>
      <trkpt lat="47.49966" lon="6.75767">
        <ele>374</ele>
        <time>2016-11-02T15:00:51.000Z</time>
      </trkpt>
      <trkpt lat="47.49968" lon="6.75771">
        <ele>374</ele>
        <time>2016-11-02T15:00:53.000Z</time>
      </trkpt>
      <trkpt lat="47.49969" lon="6.75773">
        <ele>374</ele>
        <time>2016-11-02T15:00:54.000Z</time>
      </trkpt>
      <trkpt lat="47.4997" lon="6.75777">
        <ele>374</ele>
        <time>2016-11-02T15:00:55.000Z</time>
      </trkpt>
      <trkpt lat="47.49971" lon="6.7578">
        <ele>374</ele>
        <time>2016-11-02T15:00:56.000Z</time>
      </trkpt>
      <trkpt lat="47.49972" lon="6.75785">
        <ele>374</ele>
        <time>2016-11-02T15:00:57.000Z</time>
      </trkpt>
      <trkpt lat="47.49973" lon="6.75788">
        <ele>374</ele>
        <time>2016-11-02T15:00:58.000Z</time>
      </trkpt>
      <trkpt lat="47.49974" lon="6.75792">
        <ele>375</ele>
        <time>2016-11-02T15:00:59.000Z</time>
      </trkpt>
      <trkpt lat="47.49976" lon="6.75794">
        <ele>375</ele>
        <time>2016-11-02T15:01:00.000Z</time>
      </trkpt>
      <trkpt lat="47.49977" lon="6.75796">
        <ele>375</ele>
        <time>2016-11-02T15:01:01.000Z</time>
      </trkpt>
      <trkpt lat="47.49979" lon="6.75798">
        <ele>375</ele>
        <time>2016-11-02T15:01:02.000Z</time>
      </trkpt>
      <trkpt lat="47.49981" lon="6.75801">
        <ele>375</ele>
        <time>2016-11-02T15:01:03.000Z</time>
      </trkpt>
      <trkpt lat="47.49983" lon="6.75803">
        <ele>375</ele>
        <time>2016-11-02T15:01:04.000Z</time>
      </trkpt>
      <trkpt lat="47.49985" lon="6.75806">
        <ele>375</ele>
        <time>2016-11-02T15:01:05.000Z</time>
      </trkpt>
      <trkpt lat="47.49987" lon="6.75808">
        <ele>376</ele>
        <time>2016-11-02T15:01:06.000Z</time>
      </trkpt>
      <trkpt lat="47.4999" lon="6.7581">
        <ele>376</ele>
        <time>2016-11-02T15:01:07.000Z</time>
      </trkpt>
      <trkpt lat="47.49992" lon="6.75811">
        <ele>376</ele>
        <time>2016-11-02T15:01:08.000Z</time>
      </trkpt>
      <trkpt lat="47.49996" lon="6.75815">
        <ele>376</ele>
        <time>2016-11-02T15:01:10.000Z</time>
      </trkpt>
      <trkpt lat="47.49998" lon="6.75817">
        <ele>377</ele>
        <time>2016-11-02T15:01:11.000Z</time>
      </trkpt>
      <trkpt lat="47.5" lon="6.75819">
        <ele>377</ele>
        <time>2016-11-02T15:01:12.000Z</time>
      </trkpt>
      <trkpt lat="47.50002" lon="6.75822">
        <ele>377</ele>
        <time>2016-11-02T15:01:13.000Z</time>
      </trkpt>
      <trkpt lat="47.50004" lon="6.75824">
        <ele>377</ele>
        <time>2016-11-02T15:01:14.000Z</time>
      </trkpt>
      <trkpt lat="47.50005" lon="6.75827">
        <ele>378</ele>
        <time>2016-11-02T15:01:15.000Z</time>
      </trkpt>
      <trkpt lat="47.50007" lon="6.7583">
        <ele>378</ele>
        <time>2016-11-02T15:01:16.000Z</time>
      </trkpt>
      <trkpt lat="47.50008" lon="6.75833">
        <ele>378</ele>
        <time>2016-11-02T15:01:17.000Z</time>
      </trkpt>
      <trkpt lat="47.5001" lon="6.75836">
        <ele>378</ele>
        <time>2016-11-02T15:01:18.000Z</time>
      </trkpt>
      <trkpt lat="47.50012" lon="6.75839">
        <ele>378</ele>
        <time>2016-11-02T15:01:19.000Z</time>
      </trkpt>
      <trkpt lat="47.50013" lon="6.75842">
        <ele>378</ele>
        <time>2016-11-02T15:01:20.000Z</time>
      </trkpt>
      <trkpt lat="47.50015" lon="6.75847">
        <ele>377</ele>
        <time>2016-11-02T15:01:21.000Z</time>
      </trkpt>
      <trkpt lat="47.50016" lon="6.75852">
        <ele>377</ele>
        <time>2016-11-02T15:01:22.000Z</time>
      </trkpt>
      <trkpt lat="47.50018" lon="6.75856">
        <ele>377</ele>
        <time>2016-11-02T15:01:23.000Z</time>
      </trkpt>
      <trkpt lat="47.5002" lon="6.7586">
        <ele>377</ele>
        <time>2016-11-02T15:01:24.000Z</time>
      </trkpt>
      <trkpt lat="47.50022" lon="6.75863">
        <ele>377</ele>
        <time>2016-11-02T15:01:25.000Z</time>
      </trkpt>
      <trkpt lat="47.50025" lon="6.75865">
        <ele>377</ele>
        <time>2016-11-02T15:01:26.000Z</time>
      </trkpt>
      <trkpt lat="47.50027" lon="6.75868">
        <ele>376</ele>
        <time>2016-11-02T15:01:27.000Z</time>
      </trkpt>
      <trkpt lat="47.50029" lon="6.7587">
        <ele>376</ele>
        <time>2016-11-02T15:01:28.000Z</time>
      </trkpt>
      <trkpt lat="47.5003" lon="6.75874">
        <ele>376</ele>
        <time>2016-11-02T15:01:29.000Z</time>
      </trkpt>
      <trkpt lat="47.50031" lon="6.75877">
        <ele>376</ele>
        <time>2016-11-02T15:01:30.000Z</time>
      </trkpt>
      <trkpt lat="47.50032" lon="6.7588">
        <ele>376</ele>
        <time>2016-11-02T15:01:31.000Z</time>
      </trkpt>
      <trkpt lat="47.50034" lon="6.75885">
        <ele>376</ele>
        <time>2016-11-02T15:01:33.000Z</time>
      </trkpt>
      <trkpt lat="47.50036" lon="6.75888">
        <ele>376</ele>
        <time>2016-11-02T15:01:34.000Z</time>
      </trkpt>
      <trkpt lat="47.50039" lon="6.75891">
        <ele>376</ele>
        <time>2016-11-02T15:01:35.000Z</time>
      </trkpt>
      <trkpt lat="47.50041" lon="6.75894">
        <ele>376</ele>
        <time>2016-11-02T15:01:36.000Z</time>
      </trkpt>
      <trkpt lat="47.50042" lon="6.75897">
        <ele>376</ele>
        <time>2016-11-02T15:01:37.000Z</time>
      </trkpt>
      <trkpt lat="47.50043" lon="6.759">
        <ele>376</ele>
        <time>2016-11-02T15:01:38.000Z</time>
      </trkpt>
      <trkpt lat="47.50045" lon="6.75903">
        <ele>376</ele>
        <time>2016-11-02T15:01:39.000Z</time>
      </trkpt>
      <trkpt lat="47.50048" lon="6.75906">
        <ele>376</ele>
        <time>2016-11-02T15:01:40.000Z</time>
      </trkpt>
      <trkpt lat="47.5005" lon="6.75908">
        <ele>376</ele>
        <time>2016-11-02T15:01:41.000Z</time>
      </trkpt>
      <trkpt lat="47.50052" lon="6.75911">
        <ele>376</ele>
        <time>2016-11-02T15:01:42.000Z</time>
      </trkpt>
      <trkpt lat="47.50054" lon="6.75914">
        <ele>376</ele>
        <time>2016-11-02T15:01:43.000Z</time>
      </trkpt>
      <trkpt lat="47.50056" lon="6.75917">
        <ele>377</ele>
        <time>2016-11-02T15:01:44.000Z</time>
      </trkpt>
      <trkpt lat="47.50058" lon="6.7592">
        <ele>377</ele>
        <time>2016-11-02T15:01:45.000Z</time>
      </trkpt>
      <trkpt lat="47.50061" lon="6.75923">
        <ele>377</ele>
        <time>2016-11-02T15:01:46.000Z</time>
      </trkpt>
      <trkpt lat="47.50063" lon="6.75927">
        <ele>377</ele>
        <time>2016-11-02T15:01:47.000Z</time>
      </trkpt>
      <trkpt lat="47.50064" lon="6.75931">
        <ele>377</ele>
        <time>2016-11-02T15:01:48.000Z</time>
      </trkpt>
      <trkpt lat="47.50066" lon="6.75935">
        <ele>377</ele>
        <time>2016-11-02T15:01:49.000Z</time>
      </trkpt>
      <trkpt lat="47.50068" lon="6.75938">
        <ele>377</ele>
        <time>2016-11-02T15:01:50.000Z</time>
      </trkpt>
      <trkpt lat="47.5007" lon="6.75941">
        <ele>377</ele>
        <time>2016-11-02T15:01:51.000Z</time>
      </trkpt>
      <trkpt lat="47.50072" lon="6.75944">
        <ele>377</ele>
        <time>2016-11-02T15:01:52.000Z</time>
      </trkpt>
      <trkpt lat="47.50074" lon="6.75948">
        <ele>378</ele>
        <time>2016-11-02T15:01:53.000Z</time>
      </trkpt>
      <trkpt lat="47.50077" lon="6.75952">
        <ele>378</ele>
        <time>2016-11-02T15:01:54.000Z</time>
      </trkpt>
      <trkpt lat="47.5008" lon="6.75956">
        <ele>378</ele>
        <time>2016-11-02T15:01:55.000Z</time>
      </trkpt>
      <trkpt lat="47.50083" lon="6.75959">
        <ele>378</ele>
        <time>2016-11-02T15:01:56.000Z</time>
      </trkpt>
      <trkpt lat="47.50085" lon="6.7596">
        <ele>374</ele>
        <time>2016-11-02T15:01:57.000Z</time>
      </trkpt>
      <trkpt lat="47.50088" lon="6.75963">
        <ele>374</ele>
        <time>2016-11-02T15:01:58.000Z</time>
      </trkpt>
      <trkpt lat="47.5009" lon="6.75965">
        <ele>374</ele>
        <time>2016-11-02T15:01:59.000Z</time>
      </trkpt>
      <trkpt lat="47.50092" lon="6.75968">
        <ele>374</ele>
        <time>2016-11-02T15:02:00.000Z</time>
      </trkpt>
      <trkpt lat="47.50093" lon="6.75972">
        <ele>375</ele>
        <time>2016-11-02T15:02:01.000Z</time>
      </trkpt>
      <trkpt lat="47.50095" lon="6.75975">
        <ele>375</ele>
        <time>2016-11-02T15:02:02.000Z</time>
      </trkpt>
      <trkpt lat="47.50096" lon="6.75979">
        <ele>375</ele>
        <time>2016-11-02T15:02:03.000Z</time>
      </trkpt>
      <trkpt lat="47.50097" lon="6.75983">
        <ele>375</ele>
        <time>2016-11-02T15:02:04.000Z</time>
      </trkpt>
      <trkpt lat="47.50098" lon="6.75987">
        <ele>376</ele>
        <time>2016-11-02T15:02:05.000Z</time>
      </trkpt>
      <trkpt lat="47.50099" lon="6.75991">
        <ele>376</ele>
        <time>2016-11-02T15:02:06.000Z</time>
      </trkpt>
      <trkpt lat="47.50099" lon="6.75995">
        <ele>376</ele>
        <time>2016-11-02T15:02:07.000Z</time>
      </trkpt>
      <trkpt lat="47.501" lon="6.75999">
        <ele>376</ele>
        <time>2016-11-02T15:02:08.000Z</time>
      </trkpt>
      <trkpt lat="47.501" lon="6.76003">
        <ele>379</ele>
        <time>2016-11-02T15:02:09.000Z</time>
      </trkpt>
      <trkpt lat="47.501" lon="6.76008">
        <ele>379</ele>
        <time>2016-11-02T15:02:10.000Z</time>
      </trkpt>
      <trkpt lat="47.50101" lon="6.76012">
        <ele>379</ele>
        <time>2016-11-02T15:02:11.000Z</time>
      </trkpt>
      <trkpt lat="47.50102" lon="6.76016">
        <ele>379</ele>
        <time>2016-11-02T15:02:12.000Z</time>
      </trkpt>
      <trkpt lat="47.50103" lon="6.7602">
        <ele>379</ele>
        <time>2016-11-02T15:02:13.000Z</time>
      </trkpt>
      <trkpt lat="47.50103" lon="6.76024">
        <ele>379</ele>
        <time>2016-11-02T15:02:14.000Z</time>
      </trkpt>
      <trkpt lat="47.50104" lon="6.76028">
        <ele>379</ele>
        <time>2016-11-02T15:02:15.000Z</time>
      </trkpt>
      <trkpt lat="47.50105" lon="6.76031">
        <ele>379</ele>
        <time>2016-11-02T15:02:16.000Z</time>
      </trkpt>
      <trkpt lat="47.50106" lon="6.76036">
        <ele>379</ele>
        <time>2016-11-02T15:02:17.000Z</time>
      </trkpt>
      <trkpt lat="47.50107" lon="6.7604">
        <ele>380</ele>
        <time>2016-11-02T15:02:18.000Z</time>
      </trkpt>
      <trkpt lat="47.50108" lon="6.76044">
        <ele>380</ele>
        <time>2016-11-02T15:02:19.000Z</time>
      </trkpt>
      <trkpt lat="47.50109" lon="6.76048">
        <ele>380</ele>
        <time>2016-11-02T15:02:20.000Z</time>
      </trkpt>
      <trkpt lat="47.50109" lon="6.76052">
        <ele>380</ele>
        <time>2016-11-02T15:02:21.000Z</time>
      </trkpt>
      <trkpt lat="47.5011" lon="6.76056">
        <ele>380</ele>
        <time>2016-11-02T15:02:22.000Z</time>
      </trkpt>
      <trkpt lat="47.5011" lon="6.7606">
        <ele>381</ele>
        <time>2016-11-02T15:02:23.000Z</time>
      </trkpt>
      <trkpt lat="47.5011" lon="6.76064">
        <ele>381</ele>
        <time>2016-11-02T15:02:24.000Z</time>
      </trkpt>
      <trkpt lat="47.50111" lon="6.7607">
        <ele>381</ele>
        <time>2016-11-02T15:02:26.000Z</time>
      </trkpt>
      <trkpt lat="47.50112" lon="6.76073">
        <ele>381</ele>
        <time>2016-11-02T15:02:27.000Z</time>
      </trkpt>
      <trkpt lat="47.50113" lon="6.76077">
        <ele>381</ele>
        <time>2016-11-02T15:02:28.000Z</time>
      </trkpt>
      <trkpt lat="47.50114" lon="6.76081">
        <ele>381</ele>
        <time>2016-11-02T15:02:29.000Z</time>
      </trkpt>
      <trkpt lat="47.50114" lon="6.76085">
        <ele>384</ele>
        <time>2016-11-02T15:02:30.000Z</time>
      </trkpt>
      <trkpt lat="47.50115" lon="6.76089">
        <ele>384</ele>
        <time>2016-11-02T15:02:31.000Z</time>
      </trkpt>
      <trkpt lat="47.50116" lon="6.76094">
        <ele>384</ele>
        <time>2016-11-02T15:02:32.000Z</time>
      </trkpt>
      <trkpt lat="47.50116" lon="6.76097">
        <ele>384</ele>
        <time>2016-11-02T15:02:33.000Z</time>
      </trkpt>
      <trkpt lat="47.50116" lon="6.76101">
        <ele>384</ele>
        <time>2016-11-02T15:02:34.000Z</time>
      </trkpt>
      <trkpt lat="47.50117" lon="6.76106">
        <ele>384</ele>
        <time>2016-11-02T15:02:35.000Z</time>
      </trkpt>
      <trkpt lat="47.50117" lon="6.7611">
        <ele>384</ele>
        <time>2016-11-02T15:02:36.000Z</time>
      </trkpt>
      <trkpt lat="47.50118" lon="6.76115">
        <ele>384</ele>
        <time>2016-11-02T15:02:37.000Z</time>
      </trkpt>
      <trkpt lat="47.50119" lon="6.7612">
        <ele>384</ele>
        <time>2016-11-02T15:02:38.000Z</time>
      </trkpt>
      <trkpt lat="47.50119" lon="6.76124">
        <ele>385</ele>
        <time>2016-11-02T15:02:39.000Z</time>
      </trkpt>
      <trkpt lat="47.5012" lon="6.76128">
        <ele>385</ele>
        <time>2016-11-02T15:02:40.000Z</time>
      </trkpt>
      <trkpt lat="47.50121" lon="6.76132">
        <ele>385</ele>
        <time>2016-11-02T15:02:41.000Z</time>
      </trkpt>
      <trkpt lat="47.50122" lon="6.76136">
        <ele>385</ele>
        <time>2016-11-02T15:02:42.000Z</time>
      </trkpt>
      <trkpt lat="47.50122" lon="6.76141">
        <ele>385</ele>
        <time>2016-11-02T15:02:43.000Z</time>
      </trkpt>
      <trkpt lat="47.50123" lon="6.76145">
        <ele>385</ele>
        <time>2016-11-02T15:02:44.000Z</time>
      </trkpt>
      <trkpt lat="47.50125" lon="6.76149">
        <ele>385</ele>
        <time>2016-11-02T15:02:45.000Z</time>
      </trkpt>
      <trkpt lat="47.50126" lon="6.76153">
        <ele>385</ele>
        <time>2016-11-02T15:02:46.000Z</time>
      </trkpt>
      <trkpt lat="47.50127" lon="6.76157">
        <ele>385</ele>
        <time>2016-11-02T15:02:47.000Z</time>
      </trkpt>
      <trkpt lat="47.50128" lon="6.76162">
        <ele>384</ele>
        <time>2016-11-02T15:02:48.000Z</time>
      </trkpt>
      <trkpt lat="47.50129" lon="6.76165">
        <ele>384</ele>
        <time>2016-11-02T15:02:49.000Z</time>
      </trkpt>
      <trkpt lat="47.5013" lon="6.76169">
        <ele>388</ele>
        <time>2016-11-02T15:02:50.000Z</time>
      </trkpt>
      <trkpt lat="47.50132" lon="6.76174">
        <ele>388</ele>
        <time>2016-11-02T15:02:51.000Z</time>
      </trkpt>
      <trkpt lat="47.50133" lon="6.76178">
        <ele>388</ele>
        <time>2016-11-02T15:02:52.000Z</time>
      </trkpt>
      <trkpt lat="47.50135" lon="6.76182">
        <ele>388</ele>
        <time>2016-11-02T15:02:53.000Z</time>
      </trkpt>
      <trkpt lat="47.50136" lon="6.76185">
        <ele>388</ele>
        <time>2016-11-02T15:02:54.000Z</time>
      </trkpt>
      <trkpt lat="47.50137" lon="6.76189">
        <ele>388</ele>
        <time>2016-11-02T15:02:55.000Z</time>
      </trkpt>
      <trkpt lat="47.50137" lon="6.76193">
        <ele>388</ele>
        <time>2016-11-02T15:02:56.000Z</time>
      </trkpt>
      <trkpt lat="47.50138" lon="6.76197">
        <ele>388</ele>
        <time>2016-11-02T15:02:57.000Z</time>
      </trkpt>
      <trkpt lat="47.50138" lon="6.76201">
        <ele>389</ele>
        <time>2016-11-02T15:02:58.000Z</time>
      </trkpt>
      <trkpt lat="47.50138" lon="6.76206">
        <ele>389</ele>
        <time>2016-11-02T15:02:59.000Z</time>
      </trkpt>
      <trkpt lat="47.50138" lon="6.7621">
        <ele>389</ele>
        <time>2016-11-02T15:03:00.000Z</time>
      </trkpt>
      <trkpt lat="47.50137" lon="6.76214">
        <ele>389</ele>
        <time>2016-11-02T15:03:01.000Z</time>
      </trkpt>
      <trkpt lat="47.50138" lon="6.76218">
        <ele>390</ele>
        <time>2016-11-02T15:03:02.000Z</time>
      </trkpt>
      <trkpt lat="47.50138" lon="6.76223">
        <ele>390</ele>
        <time>2016-11-02T15:03:03.000Z</time>
      </trkpt>
      <trkpt lat="47.50138" lon="6.76227">
        <ele>390</ele>
        <time>2016-11-02T15:03:04.000Z</time>
      </trkpt>
      <trkpt lat="47.50138" lon="6.76232">
        <ele>390</ele>
        <time>2016-11-02T15:03:05.000Z</time>
      </trkpt>
      <trkpt lat="47.50139" lon="6.76236">
        <ele>390</ele>
        <time>2016-11-02T15:03:06.000Z</time>
      </trkpt>
      <trkpt lat="47.50139" lon="6.76241">
        <ele>390</ele>
        <time>2016-11-02T15:03:07.000Z</time>
      </trkpt>
      <trkpt lat="47.50139" lon="6.76246">
        <ele>390</ele>
        <time>2016-11-02T15:03:08.000Z</time>
      </trkpt>
      <trkpt lat="47.5014" lon="6.76251">
        <ele>394</ele>
        <time>2016-11-02T15:03:09.000Z</time>
      </trkpt>
      <trkpt lat="47.5014" lon="6.76255">
        <ele>394</ele>
        <time>2016-11-02T15:03:10.000Z</time>
      </trkpt>
      <trkpt lat="47.50141" lon="6.76261">
        <ele>394</ele>
        <time>2016-11-02T15:03:11.000Z</time>
      </trkpt>
      <trkpt lat="47.50141" lon="6.76266">
        <ele>394</ele>
        <time>2016-11-02T15:03:12.000Z</time>
      </trkpt>
      <trkpt lat="47.50142" lon="6.76272">
        <ele>394</ele>
        <time>2016-11-02T15:03:13.000Z</time>
      </trkpt>
      <trkpt lat="47.50142" lon="6.76277">
        <ele>395</ele>
        <time>2016-11-02T15:03:14.000Z</time>
      </trkpt>
      <trkpt lat="47.50143" lon="6.76281">
        <ele>395</ele>
        <time>2016-11-02T15:03:15.000Z</time>
      </trkpt>
      <trkpt lat="47.50144" lon="6.76285">
        <ele>395</ele>
        <time>2016-11-02T15:03:16.000Z</time>
      </trkpt>
      <trkpt lat="47.50145" lon="6.76288">
        <ele>395</ele>
        <time>2016-11-02T15:03:17.000Z</time>
      </trkpt>
      <trkpt lat="47.50147" lon="6.76291">
        <ele>395</ele>
        <time>2016-11-02T15:03:18.000Z</time>
      </trkpt>
      <trkpt lat="47.50148" lon="6.76296">
        <ele>395</ele>
        <time>2016-11-02T15:03:19.000Z</time>
      </trkpt>
      <trkpt lat="47.5015" lon="6.76301">
        <ele>395</ele>
        <time>2016-11-02T15:03:20.000Z</time>
      </trkpt>
      <trkpt lat="47.50152" lon="6.76306">
        <ele>395</ele>
        <time>2016-11-02T15:03:21.000Z</time>
      </trkpt>
      <trkpt lat="47.50154" lon="6.76311">
        <ele>395</ele>
        <time>2016-11-02T15:03:22.000Z</time>
      </trkpt>
      <trkpt lat="47.50155" lon="6.76316">
        <ele>394</ele>
        <time>2016-11-02T15:03:23.000Z</time>
      </trkpt>
      <trkpt lat="47.50156" lon="6.7632">
        <ele>394</ele>
        <time>2016-11-02T15:03:24.000Z</time>
      </trkpt>
      <trkpt lat="47.50157" lon="6.76324">
        <ele>394</ele>
        <time>2016-11-02T15:03:25.000Z</time>
      </trkpt>
      <trkpt lat="47.50159" lon="6.76328">
        <ele>393</ele>
        <time>2016-11-02T15:03:26.000Z</time>
      </trkpt>
      <trkpt lat="47.50161" lon="6.76332">
        <ele>392</ele>
        <time>2016-11-02T15:03:27.000Z</time>
      </trkpt>
      <trkpt lat="47.50163" lon="6.76337">
        <ele>393</ele>
        <time>2016-11-02T15:03:28.000Z</time>
      </trkpt>
      <trkpt lat="47.50165" lon="6.76341">
        <ele>394</ele>
        <time>2016-11-02T15:03:29.000Z</time>
      </trkpt>
      <trkpt lat="47.50167" lon="6.76344">
        <ele>395</ele>
        <time>2016-11-02T15:03:30.000Z</time>
      </trkpt>
      <trkpt lat="47.50168" lon="6.76348">
        <ele>390</ele>
        <time>2016-11-02T15:03:31.000Z</time>
      </trkpt>
      <trkpt lat="47.5017" lon="6.76352">
        <ele>390</ele>
        <time>2016-11-02T15:03:32.000Z</time>
      </trkpt>
      <trkpt lat="47.50172" lon="6.76355">
        <ele>390</ele>
        <time>2016-11-02T15:03:33.000Z</time>
      </trkpt>
      <trkpt lat="47.50173" lon="6.76359">
        <ele>390</ele>
        <time>2016-11-02T15:03:34.000Z</time>
      </trkpt>
      <trkpt lat="47.50175" lon="6.76363">
        <ele>390</ele>
        <time>2016-11-02T15:03:35.000Z</time>
      </trkpt>
      <trkpt lat="47.50176" lon="6.76366">
        <ele>391</ele>
        <time>2016-11-02T15:03:36.000Z</time>
      </trkpt>
      <trkpt lat="47.50177" lon="6.7637">
        <ele>391</ele>
        <time>2016-11-02T15:03:37.000Z</time>
      </trkpt>
      <trkpt lat="47.50178" lon="6.76374">
        <ele>391</ele>
        <time>2016-11-02T15:03:38.000Z</time>
      </trkpt>
      <trkpt lat="47.50181" lon="6.76378">
        <ele>391</ele>
        <time>2016-11-02T15:03:39.000Z</time>
      </trkpt>
      <trkpt lat="47.50183" lon="6.76382">
        <ele>391</ele>
        <time>2016-11-02T15:03:40.000Z</time>
      </trkpt>
      <trkpt lat="47.50185" lon="6.76387">
        <ele>391</ele>
        <time>2016-11-02T15:03:41.000Z</time>
      </trkpt>
      <trkpt lat="47.50187" lon="6.76392">
        <ele>392</ele>
        <time>2016-11-02T15:03:42.000Z</time>
      </trkpt>
      <trkpt lat="47.50189" lon="6.76398">
        <ele>392</ele>
        <time>2016-11-02T15:03:43.000Z</time>
      </trkpt>
      <trkpt lat="47.5019" lon="6.76404">
        <ele>392</ele>
        <time>2016-11-02T15:03:44.000Z</time>
      </trkpt>
      <trkpt lat="47.5019" lon="6.7641">
        <ele>392</ele>
        <time>2016-11-02T15:03:45.000Z</time>
      </trkpt>
      <trkpt lat="47.50191" lon="6.76415">
        <ele>392</ele>
        <time>2016-11-02T15:03:46.000Z</time>
      </trkpt>
      <trkpt lat="47.50192" lon="6.7642">
        <ele>396</ele>
        <time>2016-11-02T15:03:47.000Z</time>
      </trkpt>
      <trkpt lat="47.50193" lon="6.76424">
        <ele>396</ele>
        <time>2016-11-02T15:03:48.000Z</time>
      </trkpt>
      <trkpt lat="47.50194" lon="6.76428">
        <ele>396</ele>
        <time>2016-11-02T15:03:49.000Z</time>
      </trkpt>
      <trkpt lat="47.50195" lon="6.76432">
        <ele>396</ele>
        <time>2016-11-02T15:03:50.000Z</time>
      </trkpt>
      <trkpt lat="47.50196" lon="6.76436">
        <ele>396</ele>
        <time>2016-11-02T15:03:51.000Z</time>
      </trkpt>
      <trkpt lat="47.50197" lon="6.7644">
        <ele>396</ele>
        <time>2016-11-02T15:03:52.000Z</time>
      </trkpt>
      <trkpt lat="47.50198" lon="6.76444">
        <ele>396</ele>
        <time>2016-11-02T15:03:53.000Z</time>
      </trkpt>
      <trkpt lat="47.50199" lon="6.76448">
        <ele>396</ele>
        <time>2016-11-02T15:03:54.000Z</time>
      </trkpt>
      <trkpt lat="47.502" lon="6.76453">
        <ele>396</ele>
        <time>2016-11-02T15:03:55.000Z</time>
      </trkpt>
      <trkpt lat="47.50201" lon="6.76458">
        <ele>396</ele>
        <time>2016-11-02T15:03:56.000Z</time>
      </trkpt>
      <trkpt lat="47.50203" lon="6.76463">
        <ele>396</ele>
        <time>2016-11-02T15:03:57.000Z</time>
      </trkpt>
      <trkpt lat="47.50204" lon="6.76468">
        <ele>396</ele>
        <time>2016-11-02T15:03:58.000Z</time>
      </trkpt>
      <trkpt lat="47.50206" lon="6.76472">
        <ele>396</ele>
        <time>2016-11-02T15:03:59.000Z</time>
      </trkpt>
      <trkpt lat="47.50207" lon="6.76476">
        <ele>396</ele>
        <time>2016-11-02T15:04:00.000Z</time>
      </trkpt>
      <trkpt lat="47.50208" lon="6.76479">
        <ele>396</ele>
        <time>2016-11-02T15:04:01.000Z</time>
      </trkpt>
      <trkpt lat="47.5021" lon="6.76482">
        <ele>396</ele>
        <time>2016-11-02T15:04:02.000Z</time>
      </trkpt>
      <trkpt lat="47.50211" lon="6.76485">
        <ele>396</ele>
        <time>2016-11-02T15:04:03.000Z</time>
      </trkpt>
      <trkpt lat="47.50212" lon="6.76488">
        <ele>396</ele>
        <time>2016-11-02T15:04:04.000Z</time>
      </trkpt>
      <trkpt lat="47.50213" lon="6.76492">
        <ele>396</ele>
        <time>2016-11-02T15:04:05.000Z</time>
      </trkpt>
      <trkpt lat="47.50214" lon="6.76496">
        <ele>396</ele>
        <time>2016-11-02T15:04:06.000Z</time>
      </trkpt>
      <trkpt lat="47.50214" lon="6.765">
        <ele>399</ele>
        <time>2016-11-02T15:04:07.000Z</time>
      </trkpt>
      <trkpt lat="47.50215" lon="6.76505">
        <ele>399</ele>
        <time>2016-11-02T15:04:08.000Z</time>
      </trkpt>
      <trkpt lat="47.50216" lon="6.76509">
        <ele>399</ele>
        <time>2016-11-02T15:04:09.000Z</time>
      </trkpt>
      <trkpt lat="47.50217" lon="6.76513">
        <ele>399</ele>
        <time>2016-11-02T15:04:10.000Z</time>
      </trkpt>
      <trkpt lat="47.50218" lon="6.76518">
        <ele>399</ele>
        <time>2016-11-02T15:04:11.000Z</time>
      </trkpt>
      <trkpt lat="47.50219" lon="6.76523">
        <ele>399</ele>
        <time>2016-11-02T15:04:12.000Z</time>
      </trkpt>
      <trkpt lat="47.50221" lon="6.76527">
        <ele>399</ele>
        <time>2016-11-02T15:04:13.000Z</time>
      </trkpt>
      <trkpt lat="47.50222" lon="6.76531">
        <ele>399</ele>
        <time>2016-11-02T15:04:14.000Z</time>
      </trkpt>
      <trkpt lat="47.50223" lon="6.76534">
        <ele>400</ele>
        <time>2016-11-02T15:04:15.000Z</time>
      </trkpt>
      <trkpt lat="47.50224" lon="6.76538">
        <ele>400</ele>
        <time>2016-11-02T15:04:16.000Z</time>
      </trkpt>
      <trkpt lat="47.50224" lon="6.76541">
        <ele>400</ele>
        <time>2016-11-02T15:04:17.000Z</time>
      </trkpt>
      <trkpt lat="47.50224" lon="6.76548">
        <ele>400</ele>
        <time>2016-11-02T15:04:19.000Z</time>
      </trkpt>
      <trkpt lat="47.50222" lon="6.7655">
        <ele>400</ele>
        <time>2016-11-02T15:04:20.000Z</time>
      </trkpt>
      <trkpt lat="47.5022" lon="6.76554">
        <ele>400</ele>
        <time>2016-11-02T15:04:22.000Z</time>
      </trkpt>
      <trkpt lat="47.50219" lon="6.76555">
        <ele>400</ele>
        <time>2016-11-02T15:04:23.000Z</time>
      </trkpt>
      <trkpt lat="47.50215" lon="6.76557">
        <ele>401</ele>
        <time>2016-11-02T15:04:26.000Z</time>
      </trkpt>
      <trkpt lat="47.50214" lon="6.76558">
        <ele>401</ele>
        <time>2016-11-02T15:04:27.000Z</time>
      </trkpt>
      <trkpt lat="47.5021" lon="6.76559">
        <ele>401</ele>
        <time>2016-11-02T15:04:29.000Z</time>
      </trkpt>
      <trkpt lat="47.50208" lon="6.76561">
        <ele>401</ele>
        <time>2016-11-02T15:04:30.000Z</time>
      </trkpt>
      <trkpt lat="47.50205" lon="6.76562">
        <ele>401</ele>
        <time>2016-11-02T15:04:32.000Z</time>
      </trkpt>
      <trkpt lat="47.50203" lon="6.76563">
        <ele>402</ele>
        <time>2016-11-02T15:04:33.000Z</time>
      </trkpt>
      <trkpt lat="47.50199" lon="6.76564">
        <ele>402</ele>
        <time>2016-11-02T15:04:35.000Z</time>
      </trkpt>
      <trkpt lat="47.50198" lon="6.76566">
        <ele>402</ele>
        <time>2016-11-02T15:04:36.000Z</time>
      </trkpt>
      <trkpt lat="47.50197" lon="6.76572">
        <ele>402</ele>
        <time>2016-11-02T15:04:38.000Z</time>
      </trkpt>
      <trkpt lat="47.50198" lon="6.76576">
        <ele>402</ele>
        <time>2016-11-02T15:04:39.000Z</time>
      </trkpt>
      <trkpt lat="47.50198" lon="6.7658">
        <ele>402</ele>
        <time>2016-11-02T15:04:40.000Z</time>
      </trkpt>
      <trkpt lat="47.50198" lon="6.76583">
        <ele>402</ele>
        <time>2016-11-02T15:04:41.000Z</time>
      </trkpt>
      <trkpt lat="47.50198" lon="6.76586">
        <ele>403</ele>
        <time>2016-11-02T15:04:42.000Z</time>
      </trkpt>
      <trkpt lat="47.50197" lon="6.7659">
        <ele>403</ele>
        <time>2016-11-02T15:04:43.000Z</time>
      </trkpt>
      <trkpt lat="47.50197" lon="6.76593">
        <ele>403</ele>
        <time>2016-11-02T15:04:44.000Z</time>
      </trkpt>
      <trkpt lat="47.50197" lon="6.76597">
        <ele>403</ele>
        <time>2016-11-02T15:04:45.000Z</time>
      </trkpt>
      <trkpt lat="47.50196" lon="6.766">
        <ele>403</ele>
        <time>2016-11-02T15:04:46.000Z</time>
      </trkpt>
      <trkpt lat="47.50196" lon="6.76604">
        <ele>403</ele>
        <time>2016-11-02T15:04:47.000Z</time>
      </trkpt>
      <trkpt lat="47.50197" lon="6.7661">
        <ele>403</ele>
        <time>2016-11-02T15:04:49.000Z</time>
      </trkpt>
      <trkpt lat="47.50198" lon="6.76613">
        <ele>403</ele>
        <time>2016-11-02T15:04:50.000Z</time>
      </trkpt>
      <trkpt lat="47.50199" lon="6.76617">
        <ele>402</ele>
        <time>2016-11-02T15:04:51.000Z</time>
      </trkpt>
      <trkpt lat="47.502" lon="6.7662">
        <ele>402</ele>
        <time>2016-11-02T15:04:52.000Z</time>
      </trkpt>
      <trkpt lat="47.50201" lon="6.76623">
        <ele>402</ele>
        <time>2016-11-02T15:04:53.000Z</time>
      </trkpt>
      <trkpt lat="47.50201" lon="6.76626">
        <ele>402</ele>
        <time>2016-11-02T15:04:54.000Z</time>
      </trkpt>
      <trkpt lat="47.50202" lon="6.76629">
        <ele>402</ele>
        <time>2016-11-02T15:04:55.000Z</time>
      </trkpt>
      <trkpt lat="47.50204" lon="6.76633">
        <ele>402</ele>
        <time>2016-11-02T15:04:56.000Z</time>
      </trkpt>
      <trkpt lat="47.50205" lon="6.76636">
        <ele>402</ele>
        <time>2016-11-02T15:04:57.000Z</time>
      </trkpt>
      <trkpt lat="47.50206" lon="6.76639">
        <ele>402</ele>
        <time>2016-11-02T15:04:58.000Z</time>
      </trkpt>
      <trkpt lat="47.50207" lon="6.76643">
        <ele>402</ele>
        <time>2016-11-02T15:04:59.000Z</time>
      </trkpt>
      <trkpt lat="47.50209" lon="6.76647">
        <ele>402</ele>
        <time>2016-11-02T15:05:00.000Z</time>
      </trkpt>
      <trkpt lat="47.5021" lon="6.7665">
        <ele>402</ele>
        <time>2016-11-02T15:05:01.000Z</time>
      </trkpt>
      <trkpt lat="47.50211" lon="6.76654">
        <ele>402</ele>
        <time>2016-11-02T15:05:02.000Z</time>
      </trkpt>
      <trkpt lat="47.50212" lon="6.76657">
        <ele>402</ele>
        <time>2016-11-02T15:05:03.000Z</time>
      </trkpt>
      <trkpt lat="47.50213" lon="6.7666">
        <ele>402</ele>
        <time>2016-11-02T15:05:04.000Z</time>
      </trkpt>
      <trkpt lat="47.50214" lon="6.76663">
        <ele>402</ele>
        <time>2016-11-02T15:05:05.000Z</time>
      </trkpt>
      <trkpt lat="47.50215" lon="6.76667">
        <ele>401</ele>
        <time>2016-11-02T15:05:06.000Z</time>
      </trkpt>
      <trkpt lat="47.50216" lon="6.7667">
        <ele>402</ele>
        <time>2016-11-02T15:05:07.000Z</time>
      </trkpt>
      <trkpt lat="47.50217" lon="6.76674">
        <ele>402</ele>
        <time>2016-11-02T15:05:08.000Z</time>
      </trkpt>
      <trkpt lat="47.50219" lon="6.76677">
        <ele>402</ele>
        <time>2016-11-02T15:05:09.000Z</time>
      </trkpt>
      <trkpt lat="47.5022" lon="6.76681">
        <ele>402</ele>
        <time>2016-11-02T15:05:10.000Z</time>
      </trkpt>
      <trkpt lat="47.50221" lon="6.76685">
        <ele>402</ele>
        <time>2016-11-02T15:05:11.000Z</time>
      </trkpt>
      <trkpt lat="47.50223" lon="6.76688">
        <ele>402</ele>
        <time>2016-11-02T15:05:12.000Z</time>
      </trkpt>
      <trkpt lat="47.50224" lon="6.76692">
        <ele>402</ele>
        <time>2016-11-02T15:05:13.000Z</time>
      </trkpt>
      <trkpt lat="47.50225" lon="6.76696">
        <ele>402</ele>
        <time>2016-11-02T15:05:14.000Z</time>
      </trkpt>
      <trkpt lat="47.50227" lon="6.767">
        <ele>402</ele>
        <time>2016-11-02T15:05:15.000Z</time>
      </trkpt>
      <trkpt lat="47.50229" lon="6.76703">
        <ele>402</ele>
        <time>2016-11-02T15:05:16.000Z</time>
      </trkpt>
      <trkpt lat="47.5023" lon="6.76707">
        <ele>402</ele>
        <time>2016-11-02T15:05:17.001Z</time>
      </trkpt>
      <trkpt lat="47.50232" lon="6.7671">
        <ele>402</ele>
        <time>2016-11-02T15:05:18.000Z</time>
      </trkpt>
      <trkpt lat="47.50234" lon="6.76714">
        <ele>402</ele>
        <time>2016-11-02T15:05:19.000Z</time>
      </trkpt>
      <trkpt lat="47.50235" lon="6.76718">
        <ele>401</ele>
        <time>2016-11-02T15:05:20.000Z</time>
      </trkpt>
      <trkpt lat="47.50237" lon="6.76722">
        <ele>401</ele>
        <time>2016-11-02T15:05:21.000Z</time>
      </trkpt>
      <trkpt lat="47.50239" lon="6.76726">
        <ele>401</ele>
        <time>2016-11-02T15:05:22.000Z</time>
      </trkpt>
      <trkpt lat="47.50241" lon="6.76729">
        <ele>401</ele>
        <time>2016-11-02T15:05:23.000Z</time>
      </trkpt>
      <trkpt lat="47.50243" lon="6.76733">
        <ele>401</ele>
        <time>2016-11-02T15:05:24.000Z</time>
      </trkpt>
      <trkpt lat="47.50245" lon="6.76737">
        <ele>401</ele>
        <time>2016-11-02T15:05:25.000Z</time>
      </trkpt>
      <trkpt lat="47.50247" lon="6.76741">
        <ele>401</ele>
        <time>2016-11-02T15:05:26.000Z</time>
      </trkpt>
      <trkpt lat="47.5025" lon="6.76744">
        <ele>400</ele>
        <time>2016-11-02T15:05:27.000Z</time>
      </trkpt>
      <trkpt lat="47.50253" lon="6.76746">
        <ele>400</ele>
        <time>2016-11-02T15:05:28.000Z</time>
      </trkpt>
      <trkpt lat="47.50257" lon="6.76747">
        <ele>400</ele>
        <time>2016-11-02T15:05:29.000Z</time>
      </trkpt>
      <trkpt lat="47.50261" lon="6.76747">
        <ele>399</ele>
        <time>2016-11-02T15:05:30.000Z</time>
      </trkpt>
      <trkpt lat="47.50264" lon="6.76746">
        <ele>399</ele>
        <time>2016-11-02T15:05:31.000Z</time>
      </trkpt>
      <trkpt lat="47.50268" lon="6.76744">
        <ele>399</ele>
        <time>2016-11-02T15:05:32.000Z</time>
      </trkpt>
      <trkpt lat="47.50272" lon="6.76743">
        <ele>399</ele>
        <time>2016-11-02T15:05:33.000Z</time>
      </trkpt>
      <trkpt lat="47.50276" lon="6.76742">
        <ele>399</ele>
        <time>2016-11-02T15:05:34.000Z</time>
      </trkpt>
      <trkpt lat="47.5028" lon="6.7674">
        <ele>399</ele>
        <time>2016-11-02T15:05:35.000Z</time>
      </trkpt>
      <trkpt lat="47.50284" lon="6.76739">
        <ele>399</ele>
        <time>2016-11-02T15:05:36.000Z</time>
      </trkpt>
      <trkpt lat="47.50288" lon="6.76738">
        <ele>399</ele>
        <time>2016-11-02T15:05:37.000Z</time>
      </trkpt>
      <trkpt lat="47.50292" lon="6.76737">
        <ele>399</ele>
        <time>2016-11-02T15:05:37.999Z</time>
      </trkpt>
      <trkpt lat="47.50297" lon="6.76737">
        <ele>399</ele>
        <time>2016-11-02T15:05:39.000Z</time>
      </trkpt>
      <trkpt lat="47.50301" lon="6.76736">
        <ele>399</ele>
        <time>2016-11-02T15:05:40.000Z</time>
      </trkpt>
      <trkpt lat="47.50304" lon="6.76732">
        <ele>398</ele>
        <time>2016-11-02T15:05:41.000Z</time>
      </trkpt>
      <trkpt lat="47.50307" lon="6.7673">
        <ele>398</ele>
        <time>2016-11-02T15:05:42.000Z</time>
      </trkpt>
      <trkpt lat="47.50313" lon="6.76729">
        <ele>398</ele>
        <time>2016-11-02T15:05:43.000Z</time>
      </trkpt>
      <trkpt lat="47.50317" lon="6.76727">
        <ele>398</ele>
        <time>2016-11-02T15:05:44.000Z</time>
      </trkpt>
      <trkpt lat="47.5032" lon="6.76726">
        <ele>398</ele>
        <time>2016-11-02T15:05:45.000Z</time>
      </trkpt>
      <trkpt lat="47.50323" lon="6.76723">
        <ele>398</ele>
        <time>2016-11-02T15:05:46.000Z</time>
      </trkpt>
      <trkpt lat="47.50326" lon="6.76722">
        <ele>398</ele>
        <time>2016-11-02T15:05:47.000Z</time>
      </trkpt>
      <trkpt lat="47.5033" lon="6.7672">
        <ele>398</ele>
        <time>2016-11-02T15:05:48.000Z</time>
      </trkpt>
      <trkpt lat="47.50334" lon="6.76718">
        <ele>398</ele>
        <time>2016-11-02T15:05:49.000Z</time>
      </trkpt>
      <trkpt lat="47.50338" lon="6.76715">
        <ele>398</ele>
        <time>2016-11-02T15:05:50.000Z</time>
      </trkpt>
      <trkpt lat="47.50341" lon="6.76713">
        <ele>398</ele>
        <time>2016-11-02T15:05:51.000Z</time>
      </trkpt>
      <trkpt lat="47.50345" lon="6.76712">
        <ele>398</ele>
        <time>2016-11-02T15:05:52.000Z</time>
      </trkpt>
      <trkpt lat="47.50349" lon="6.76713">
        <ele>398</ele>
        <time>2016-11-02T15:05:53.000Z</time>
      </trkpt>
      <trkpt lat="47.50354" lon="6.76711">
        <ele>398</ele>
        <time>2016-11-02T15:05:54.000Z</time>
      </trkpt>
      <trkpt lat="47.50358" lon="6.7671">
        <ele>398</ele>
        <time>2016-11-02T15:05:55.000Z</time>
      </trkpt>
      <trkpt lat="47.50362" lon="6.76709">
        <ele>398</ele>
        <time>2016-11-02T15:05:56.000Z</time>
      </trkpt>
      <trkpt lat="47.50366" lon="6.76707">
        <ele>397</ele>
        <time>2016-11-02T15:05:57.000Z</time>
      </trkpt>
      <trkpt lat="47.5037" lon="6.76705">
        <ele>397</ele>
        <time>2016-11-02T15:05:58.000Z</time>
      </trkpt>
      <trkpt lat="47.50375" lon="6.76703">
        <ele>397</ele>
        <time>2016-11-02T15:05:59.000Z</time>
      </trkpt>
      <trkpt lat="47.50379" lon="6.76701">
        <ele>397</ele>
        <time>2016-11-02T15:06:00.000Z</time>
      </trkpt>
      <trkpt lat="47.50383" lon="6.76698">
        <ele>397</ele>
        <time>2016-11-02T15:06:01.000Z</time>
      </trkpt>
      <trkpt lat="47.50386" lon="6.76697">
        <ele>397</ele>
        <time>2016-11-02T15:06:02.000Z</time>
      </trkpt>
      <trkpt lat="47.50391" lon="6.76696">
        <ele>397</ele>
        <time>2016-11-02T15:06:03.000Z</time>
      </trkpt>
      <trkpt lat="47.50394" lon="6.76696">
        <ele>397</ele>
        <time>2016-11-02T15:06:04.000Z</time>
      </trkpt>
      <trkpt lat="47.50398" lon="6.76696">
        <ele>397</ele>
        <time>2016-11-02T15:06:05.000Z</time>
      </trkpt>
      <trkpt lat="47.50402" lon="6.76695">
        <ele>397</ele>
        <time>2016-11-02T15:06:06.000Z</time>
      </trkpt>
      <trkpt lat="47.50406" lon="6.76693">
        <ele>397</ele>
        <time>2016-11-02T15:06:07.000Z</time>
      </trkpt>
      <trkpt lat="47.5041" lon="6.76691">
        <ele>397</ele>
        <time>2016-11-02T15:06:08.000Z</time>
      </trkpt>
      <trkpt lat="47.50413" lon="6.7669">
        <ele>397</ele>
        <time>2016-11-02T15:06:09.000Z</time>
      </trkpt>
      <trkpt lat="47.50416" lon="6.76688">
        <ele>397</ele>
        <time>2016-11-02T15:06:10.000Z</time>
      </trkpt>
      <trkpt lat="47.5042" lon="6.76685">
        <ele>397</ele>
        <time>2016-11-02T15:06:11.000Z</time>
      </trkpt>
      <trkpt lat="47.50424" lon="6.76683">
        <ele>397</ele>
        <time>2016-11-02T15:06:12.000Z</time>
      </trkpt>
      <trkpt lat="47.50427" lon="6.76681">
        <ele>397</ele>
        <time>2016-11-02T15:06:13.000Z</time>
      </trkpt>
      <trkpt lat="47.50431" lon="6.76679">
        <ele>397</ele>
        <time>2016-11-02T15:06:14.000Z</time>
      </trkpt>
      <trkpt lat="47.50435" lon="6.76677">
        <ele>397</ele>
        <time>2016-11-02T15:06:15.000Z</time>
      </trkpt>
      <trkpt lat="47.50439" lon="6.76675">
        <ele>397</ele>
        <time>2016-11-02T15:06:16.000Z</time>
      </trkpt>
      <trkpt lat="47.50443" lon="6.76673">
        <ele>397</ele>
        <time>2016-11-02T15:06:17.000Z</time>
      </trkpt>
      <trkpt lat="47.50447" lon="6.76672">
        <ele>397</ele>
        <time>2016-11-02T15:06:18.000Z</time>
      </trkpt>
      <trkpt lat="47.50451" lon="6.7667">
        <ele>397</ele>
        <time>2016-11-02T15:06:19.000Z</time>
      </trkpt>
      <trkpt lat="47.50455" lon="6.76669">
        <ele>397</ele>
        <time>2016-11-02T15:06:20.000Z</time>
      </trkpt>
      <trkpt lat="47.50459" lon="6.76669">
        <ele>397</ele>
        <time>2016-11-02T15:06:21.000Z</time>
      </trkpt>
      <trkpt lat="47.50463" lon="6.76668">
        <ele>397</ele>
        <time>2016-11-02T15:06:22.000Z</time>
      </trkpt>
      <trkpt lat="47.50466" lon="6.76666">
        <ele>398</ele>
        <time>2016-11-02T15:06:23.000Z</time>
      </trkpt>
      <trkpt lat="47.5047" lon="6.76664">
        <ele>398</ele>
        <time>2016-11-02T15:06:24.000Z</time>
      </trkpt>
      <trkpt lat="47.50474" lon="6.76662">
        <ele>398</ele>
        <time>2016-11-02T15:06:25.000Z</time>
      </trkpt>
      <trkpt lat="47.50478" lon="6.7666">
        <ele>399</ele>
        <time>2016-11-02T15:06:26.000Z</time>
      </trkpt>
      <trkpt lat="47.50481" lon="6.76658">
        <ele>399</ele>
        <time>2016-11-02T15:06:27.000Z</time>
      </trkpt>
      <trkpt lat="47.50485" lon="6.76657">
        <ele>399</ele>
        <time>2016-11-02T15:06:28.000Z</time>
      </trkpt>
      <trkpt lat="47.50489" lon="6.76655">
        <ele>399</ele>
        <time>2016-11-02T15:06:29.000Z</time>
      </trkpt>
      <trkpt lat="47.50492" lon="6.76653">
        <ele>399</ele>
        <time>2016-11-02T15:06:30.000Z</time>
      </trkpt>
      <trkpt lat="47.50496" lon="6.76652">
        <ele>399</ele>
        <time>2016-11-02T15:06:31.000Z</time>
      </trkpt>
      <trkpt lat="47.505" lon="6.76651">
        <ele>399</ele>
        <time>2016-11-02T15:06:32.000Z</time>
      </trkpt>
      <trkpt lat="47.50503" lon="6.76651">
        <ele>399</ele>
        <time>2016-11-02T15:06:33.000Z</time>
      </trkpt>
      <trkpt lat="47.50507" lon="6.7665">
        <ele>399</ele>
        <time>2016-11-02T15:06:34.000Z</time>
      </trkpt>
      <trkpt lat="47.50511" lon="6.76648">
        <ele>399</ele>
        <time>2016-11-02T15:06:35.000Z</time>
      </trkpt>
      <trkpt lat="47.50514" lon="6.76647">
        <ele>399</ele>
        <time>2016-11-02T15:06:36.000Z</time>
      </trkpt>
      <trkpt lat="47.50518" lon="6.76646">
        <ele>399</ele>
        <time>2016-11-02T15:06:37.000Z</time>
      </trkpt>
      <trkpt lat="47.50522" lon="6.76645">
        <ele>399</ele>
        <time>2016-11-02T15:06:38.000Z</time>
      </trkpt>
      <trkpt lat="47.50525" lon="6.76644">
        <ele>399</ele>
        <time>2016-11-02T15:06:39.000Z</time>
      </trkpt>
      <trkpt lat="47.50529" lon="6.76643">
        <ele>399</ele>
        <time>2016-11-02T15:06:40.000Z</time>
      </trkpt>
      <trkpt lat="47.50532" lon="6.76642">
        <ele>399</ele>
        <time>2016-11-02T15:06:41.000Z</time>
      </trkpt>
      <trkpt lat="47.50535" lon="6.76641">
        <ele>399</ele>
        <time>2016-11-02T15:06:42.000Z</time>
      </trkpt>
      <trkpt lat="47.50539" lon="6.76641">
        <ele>399</ele>
        <time>2016-11-02T15:06:43.000Z</time>
      </trkpt>
      <trkpt lat="47.50542" lon="6.7664">
        <ele>399</ele>
        <time>2016-11-02T15:06:44.000Z</time>
      </trkpt>
      <trkpt lat="47.50546" lon="6.76639">
        <ele>399</ele>
        <time>2016-11-02T15:06:45.000Z</time>
      </trkpt>
      <trkpt lat="47.5055" lon="6.76639">
        <ele>399</ele>
        <time>2016-11-02T15:06:46.000Z</time>
      </trkpt>
      <trkpt lat="47.50554" lon="6.76639">
        <ele>399</ele>
        <time>2016-11-02T15:06:47.000Z</time>
      </trkpt>
      <trkpt lat="47.50558" lon="6.76638">
        <ele>399</ele>
        <time>2016-11-02T15:06:48.000Z</time>
      </trkpt>
      <trkpt lat="47.50563" lon="6.76637">
        <ele>399</ele>
        <time>2016-11-02T15:06:49.000Z</time>
      </trkpt>
      <trkpt lat="47.50568" lon="6.76637">
        <ele>399</ele>
        <time>2016-11-02T15:06:50.000Z</time>
      </trkpt>
      <trkpt lat="47.50573" lon="6.76636">
        <ele>399</ele>
        <time>2016-11-02T15:06:51.000Z</time>
      </trkpt>
      <trkpt lat="47.50578" lon="6.76633">
        <ele>399</ele>
        <time>2016-11-02T15:06:52.000Z</time>
      </trkpt>
      <trkpt lat="47.50583" lon="6.76632">
        <ele>399</ele>
        <time>2016-11-02T15:06:53.000Z</time>
      </trkpt>
      <trkpt lat="47.50587" lon="6.76632">
        <ele>398</ele>
        <time>2016-11-02T15:06:54.000Z</time>
      </trkpt>
      <trkpt lat="47.50592" lon="6.7663">
        <ele>398</ele>
        <time>2016-11-02T15:06:55.000Z</time>
      </trkpt>
      <trkpt lat="47.50597" lon="6.76629">
        <ele>398</ele>
        <time>2016-11-02T15:06:56.000Z</time>
      </trkpt>
      <trkpt lat="47.50601" lon="6.76627">
        <ele>398</ele>
        <time>2016-11-02T15:06:57.000Z</time>
      </trkpt>
      <trkpt lat="47.50606" lon="6.76626">
        <ele>398</ele>
        <time>2016-11-02T15:06:58.000Z</time>
      </trkpt>
      <trkpt lat="47.50611" lon="6.76623">
        <ele>397</ele>
        <time>2016-11-02T15:06:59.000Z</time>
      </trkpt>
      <trkpt lat="47.50615" lon="6.76621">
        <ele>397</ele>
        <time>2016-11-02T15:07:00.000Z</time>
      </trkpt>
      <trkpt lat="47.5062" lon="6.76617">
        <ele>397</ele>
        <time>2016-11-02T15:07:01.000Z</time>
      </trkpt>
      <trkpt lat="47.50625" lon="6.76615">
        <ele>397</ele>
        <time>2016-11-02T15:07:02.000Z</time>
      </trkpt>
      <trkpt lat="47.5063" lon="6.76611">
        <ele>397</ele>
        <time>2016-11-02T15:07:03.000Z</time>
      </trkpt>
      <trkpt lat="47.50634" lon="6.76606">
        <ele>397</ele>
        <time>2016-11-02T15:07:04.000Z</time>
      </trkpt>
      <trkpt lat="47.50638" lon="6.76603">
        <ele>397</ele>
        <time>2016-11-02T15:07:05.000Z</time>
      </trkpt>
      <trkpt lat="47.50642" lon="6.76602">
        <ele>397</ele>
        <time>2016-11-02T15:07:06.000Z</time>
      </trkpt>
      <trkpt lat="47.50646" lon="6.76601">
        <ele>397</ele>
        <time>2016-11-02T15:07:07.000Z</time>
      </trkpt>
      <trkpt lat="47.5065" lon="6.76599">
        <ele>397</ele>
        <time>2016-11-02T15:07:08.000Z</time>
      </trkpt>
      <trkpt lat="47.50654" lon="6.76597">
        <ele>397</ele>
        <time>2016-11-02T15:07:09.000Z</time>
      </trkpt>
      <trkpt lat="47.50659" lon="6.76596">
        <ele>397</ele>
        <time>2016-11-02T15:07:10.000Z</time>
      </trkpt>
      <trkpt lat="47.50664" lon="6.76594">
        <ele>397</ele>
        <time>2016-11-02T15:07:11.000Z</time>
      </trkpt>
      <trkpt lat="47.50669" lon="6.76594">
        <ele>396</ele>
        <time>2016-11-02T15:07:12.000Z</time>
      </trkpt>
      <trkpt lat="47.50674" lon="6.76592">
        <ele>396</ele>
        <time>2016-11-02T15:07:13.000Z</time>
      </trkpt>
      <trkpt lat="47.5068" lon="6.76594">
        <ele>396</ele>
        <time>2016-11-02T15:07:14.000Z</time>
      </trkpt>
      <trkpt lat="47.50685" lon="6.76594">
        <ele>395</ele>
        <time>2016-11-02T15:07:15.000Z</time>
      </trkpt>
      <trkpt lat="47.5069" lon="6.76594">
        <ele>395</ele>
        <time>2016-11-02T15:07:16.000Z</time>
      </trkpt>
      <trkpt lat="47.50696" lon="6.76596">
        <ele>395</ele>
        <time>2016-11-02T15:07:17.000Z</time>
      </trkpt>
      <trkpt lat="47.50701" lon="6.76597">
        <ele>395</ele>
        <time>2016-11-02T15:07:18.000Z</time>
      </trkpt>
      <trkpt lat="47.50707" lon="6.76598">
        <ele>395</ele>
        <time>2016-11-02T15:07:19.000Z</time>
      </trkpt>
      <trkpt lat="47.50712" lon="6.76598">
        <ele>395</ele>
        <time>2016-11-02T15:07:20.000Z</time>
      </trkpt>
      <trkpt lat="47.50717" lon="6.76599">
        <ele>394</ele>
        <time>2016-11-02T15:07:21.000Z</time>
      </trkpt>
      <trkpt lat="47.50721" lon="6.766">
        <ele>394</ele>
        <time>2016-11-02T15:07:22.000Z</time>
      </trkpt>
      <trkpt lat="47.50726" lon="6.76601">
        <ele>394</ele>
        <time>2016-11-02T15:07:23.000Z</time>
      </trkpt>
      <trkpt lat="47.5073" lon="6.76602">
        <ele>394</ele>
        <time>2016-11-02T15:07:24.000Z</time>
      </trkpt>
      <trkpt lat="47.50734" lon="6.76602">
        <ele>394</ele>
        <time>2016-11-02T15:07:25.000Z</time>
      </trkpt>
      <trkpt lat="47.50738" lon="6.76603">
        <ele>394</ele>
        <time>2016-11-02T15:07:26.000Z</time>
      </trkpt>
      <trkpt lat="47.50741" lon="6.76603">
        <ele>394</ele>
        <time>2016-11-02T15:07:27.000Z</time>
      </trkpt>
      <trkpt lat="47.50745" lon="6.76603">
        <ele>394</ele>
        <time>2016-11-02T15:07:28.000Z</time>
      </trkpt>
      <trkpt lat="47.50748" lon="6.76603">
        <ele>394</ele>
        <time>2016-11-02T15:07:29.000Z</time>
      </trkpt>
      <trkpt lat="47.50752" lon="6.76603">
        <ele>392</ele>
        <time>2016-11-02T15:07:30.000Z</time>
      </trkpt>
      <trkpt lat="47.50756" lon="6.76601">
        <ele>392</ele>
        <time>2016-11-02T15:07:31.000Z</time>
      </trkpt>
      <trkpt lat="47.50759" lon="6.76599">
        <ele>392</ele>
        <time>2016-11-02T15:07:32.000Z</time>
      </trkpt>
      <trkpt lat="47.50763" lon="6.76598">
        <ele>392</ele>
        <time>2016-11-02T15:07:33.000Z</time>
      </trkpt>
      <trkpt lat="47.50766" lon="6.76596">
        <ele>392</ele>
        <time>2016-11-02T15:07:34.000Z</time>
      </trkpt>
      <trkpt lat="47.5077" lon="6.76595">
        <ele>392</ele>
        <time>2016-11-02T15:07:35.000Z</time>
      </trkpt>
      <trkpt lat="47.50774" lon="6.76593">
        <ele>392</ele>
        <time>2016-11-02T15:07:36.000Z</time>
      </trkpt>
      <trkpt lat="47.50777" lon="6.76592">
        <ele>392</ele>
        <time>2016-11-02T15:07:37.000Z</time>
      </trkpt>
      <trkpt lat="47.5078" lon="6.76591">
        <ele>392</ele>
        <time>2016-11-02T15:07:38.000Z</time>
      </trkpt>
      <trkpt lat="47.50782" lon="6.76591">
        <ele>391</ele>
        <time>2016-11-02T15:07:39.000Z</time>
      </trkpt>
      <trkpt lat="47.50783" lon="6.76597">
        <ele>391</ele>
        <time>2016-11-02T15:07:50.000Z</time>
      </trkpt>
      <trkpt lat="47.50784" lon="6.76598">
        <ele>391</ele>
        <time>2016-11-02T15:07:51.000Z</time>
      </trkpt>
      <trkpt lat="47.50786" lon="6.76603">
        <ele>391</ele>
        <time>2016-11-02T15:07:53.000Z</time>
      </trkpt>
      <trkpt lat="47.50787" lon="6.76608">
        <ele>391</ele>
        <time>2016-11-02T15:07:54.000Z</time>
      </trkpt>
      <trkpt lat="47.50787" lon="6.76613">
        <ele>391</ele>
        <time>2016-11-02T15:07:55.000Z</time>
      </trkpt>
      <trkpt lat="47.50788" lon="6.76618">
        <ele>391</ele>
        <time>2016-11-02T15:07:56.000Z</time>
      </trkpt>
      <trkpt lat="47.50788" lon="6.76624">
        <ele>391</ele>
        <time>2016-11-02T15:07:57.000Z</time>
      </trkpt>
      <trkpt lat="47.50788" lon="6.7663">
        <ele>391</ele>
        <time>2016-11-02T15:07:58.000Z</time>
      </trkpt>
      <trkpt lat="47.50788" lon="6.76641">
        <ele>391</ele>
        <time>2016-11-02T15:07:59.000Z</time>
      </trkpt>
      <trkpt lat="47.50788" lon="6.76647">
        <ele>391</ele>
        <time>2016-11-02T15:08:00.000Z</time>
      </trkpt>
      <trkpt lat="47.50786" lon="6.76652">
        <ele>391</ele>
        <time>2016-11-02T15:08:01.000Z</time>
      </trkpt>
      <trkpt lat="47.50784" lon="6.76658">
        <ele>391</ele>
        <time>2016-11-02T15:08:02.000Z</time>
      </trkpt>
      <trkpt lat="47.5078" lon="6.76662">
        <ele>391</ele>
        <time>2016-11-02T15:08:03.000Z</time>
      </trkpt>
      <trkpt lat="47.50776" lon="6.76667">
        <ele>391</ele>
        <time>2016-11-02T15:08:04.000Z</time>
      </trkpt>
      <trkpt lat="47.50772" lon="6.7667">
        <ele>389</ele>
        <time>2016-11-02T15:08:05.000Z</time>
      </trkpt>
      <trkpt lat="47.50769" lon="6.76674">
        <ele>389</ele>
        <time>2016-11-02T15:08:06.000Z</time>
      </trkpt>
      <trkpt lat="47.50766" lon="6.76678">
        <ele>389</ele>
        <time>2016-11-02T15:08:07.000Z</time>
      </trkpt>
      <trkpt lat="47.50765" lon="6.76683">
        <ele>389</ele>
        <time>2016-11-02T15:08:10.000Z</time>
      </trkpt>
      <trkpt lat="47.50766" lon="6.76685">
        <ele>389</ele>
        <time>2016-11-02T15:08:11.000Z</time>
      </trkpt>
      <trkpt lat="47.50766" lon="6.76688">
        <ele>389</ele>
        <time>2016-11-02T15:08:12.000Z</time>
      </trkpt>
      <trkpt lat="47.50767" lon="6.76692">
        <ele>389</ele>
        <time>2016-11-02T15:08:13.000Z</time>
      </trkpt>
      <trkpt lat="47.50769" lon="6.76696">
        <ele>389</ele>
        <time>2016-11-02T15:08:14.000Z</time>
      </trkpt>
      <trkpt lat="47.50772" lon="6.76701">
        <ele>388</ele>
        <time>2016-11-02T15:08:15.000Z</time>
      </trkpt>
      <trkpt lat="47.50775" lon="6.76706">
        <ele>388</ele>
        <time>2016-11-02T15:08:16.000Z</time>
      </trkpt>
      <trkpt lat="47.50777" lon="6.76711">
        <ele>388</ele>
        <time>2016-11-02T15:08:17.000Z</time>
      </trkpt>
      <trkpt lat="47.5078" lon="6.76716">
        <ele>388</ele>
        <time>2016-11-02T15:08:18.000Z</time>
      </trkpt>
      <trkpt lat="47.50784" lon="6.76721">
        <ele>388</ele>
        <time>2016-11-02T15:08:19.000Z</time>
      </trkpt>
      <trkpt lat="47.50787" lon="6.76725">
        <ele>388</ele>
        <time>2016-11-02T15:08:20.000Z</time>
      </trkpt>
      <trkpt lat="47.5079" lon="6.76728">
        <ele>388</ele>
        <time>2016-11-02T15:08:21.000Z</time>
      </trkpt>
      <trkpt lat="47.50792" lon="6.76732">
        <ele>387</ele>
        <time>2016-11-02T15:08:22.000Z</time>
      </trkpt>
      <trkpt lat="47.50794" lon="6.76736">
        <ele>387</ele>
        <time>2016-11-02T15:08:23.000Z</time>
      </trkpt>
      <trkpt lat="47.50794" lon="6.76741">
        <ele>387</ele>
        <time>2016-11-02T15:08:24.000Z</time>
      </trkpt>
      <trkpt lat="47.50794" lon="6.76746">
        <ele>387</ele>
        <time>2016-11-02T15:08:25.000Z</time>
      </trkpt>
      <trkpt lat="47.50794" lon="6.76753">
        <ele>384</ele>
        <time>2016-11-02T15:08:26.000Z</time>
      </trkpt>
      <trkpt lat="47.50794" lon="6.7676">
        <ele>384</ele>
        <time>2016-11-02T15:08:27.000Z</time>
      </trkpt>
      <trkpt lat="47.50796" lon="6.76766">
        <ele>384</ele>
        <time>2016-11-02T15:08:28.000Z</time>
      </trkpt>
      <trkpt lat="47.508" lon="6.7677">
        <ele>384</ele>
        <time>2016-11-02T15:08:29.000Z</time>
      </trkpt>
      <trkpt lat="47.50803" lon="6.76775">
        <ele>384</ele>
        <time>2016-11-02T15:08:30.000Z</time>
      </trkpt>
      <trkpt lat="47.50806" lon="6.76782">
        <ele>384</ele>
        <time>2016-11-02T15:08:31.000Z</time>
      </trkpt>
      <trkpt lat="47.5081" lon="6.76789">
        <ele>384</ele>
        <time>2016-11-02T15:08:32.000Z</time>
      </trkpt>
      <trkpt lat="47.50814" lon="6.76796">
        <ele>383</ele>
        <time>2016-11-02T15:08:33.000Z</time>
      </trkpt>
      <trkpt lat="47.50818" lon="6.76803">
        <ele>383</ele>
        <time>2016-11-02T15:08:34.000Z</time>
      </trkpt>
      <trkpt lat="47.50822" lon="6.76811">
        <ele>383</ele>
        <time>2016-11-02T15:08:35.000Z</time>
      </trkpt>
      <trkpt lat="47.50826" lon="6.76819">
        <ele>383</ele>
        <time>2016-11-02T15:08:36.000Z</time>
      </trkpt>
      <trkpt lat="47.5083" lon="6.76827">
        <ele>383</ele>
        <time>2016-11-02T15:08:37.000Z</time>
      </trkpt>
      <trkpt lat="47.50834" lon="6.76834">
        <ele>383</ele>
        <time>2016-11-02T15:08:38.000Z</time>
      </trkpt>
      <trkpt lat="47.50839" lon="6.76842">
        <ele>382</ele>
        <time>2016-11-02T15:08:39.000Z</time>
      </trkpt>
      <trkpt lat="47.50843" lon="6.7685">
        <ele>381</ele>
        <time>2016-11-02T15:08:40.000Z</time>
      </trkpt>
      <trkpt lat="47.50848" lon="6.76858">
        <ele>380</ele>
        <time>2016-11-02T15:08:41.000Z</time>
      </trkpt>
      <trkpt lat="47.50853" lon="6.76866">
        <ele>380</ele>
        <time>2016-11-02T15:08:42.000Z</time>
      </trkpt>
      <trkpt lat="47.50858" lon="6.76873">
        <ele>379</ele>
        <time>2016-11-02T15:08:43.000Z</time>
      </trkpt>
      <trkpt lat="47.50863" lon="6.76879">
        <ele>379</ele>
        <time>2016-11-02T15:08:44.000Z</time>
      </trkpt>
      <trkpt lat="47.50868" lon="6.76885">
        <ele>379</ele>
        <time>2016-11-02T15:08:45.000Z</time>
      </trkpt>
      <trkpt lat="47.50873" lon="6.76892">
        <ele>379</ele>
        <time>2016-11-02T15:08:46.000Z</time>
      </trkpt>
      <trkpt lat="47.50878" lon="6.76898">
        <ele>379</ele>
        <time>2016-11-02T15:08:47.000Z</time>
      </trkpt>
      <trkpt lat="47.50884" lon="6.76904">
        <ele>379</ele>
        <time>2016-11-02T15:08:48.000Z</time>
      </trkpt>
      <trkpt lat="47.50889" lon="6.76909">
        <ele>379</ele>
        <time>2016-11-02T15:08:49.000Z</time>
      </trkpt>
      <trkpt lat="47.50894" lon="6.76915">
        <ele>378</ele>
        <time>2016-11-02T15:08:50.000Z</time>
      </trkpt>
      <trkpt lat="47.50899" lon="6.7692">
        <ele>373</ele>
        <time>2016-11-02T15:08:51.000Z</time>
      </trkpt>
      <trkpt lat="47.50905" lon="6.76923">
        <ele>374</ele>
        <time>2016-11-02T15:08:52.000Z</time>
      </trkpt>
      <trkpt lat="47.5091" lon="6.76926">
        <ele>374</ele>
        <time>2016-11-02T15:08:53.000Z</time>
      </trkpt>
      <trkpt lat="47.50915" lon="6.76929">
        <ele>374</ele>
        <time>2016-11-02T15:08:54.000Z</time>
      </trkpt>
      <trkpt lat="47.5092" lon="6.76933">
        <ele>375</ele>
        <time>2016-11-02T15:08:55.000Z</time>
      </trkpt>
      <trkpt lat="47.50925" lon="6.76935">
        <ele>375</ele>
        <time>2016-11-02T15:08:56.000Z</time>
      </trkpt>
      <trkpt lat="47.50931" lon="6.76937">
        <ele>374</ele>
        <time>2016-11-02T15:08:57.000Z</time>
      </trkpt>
      <trkpt lat="47.50937" lon="6.76939">
        <ele>374</ele>
        <time>2016-11-02T15:08:58.000Z</time>
      </trkpt>
      <trkpt lat="47.50942" lon="6.7694">
        <ele>374</ele>
        <time>2016-11-02T15:08:59.000Z</time>
      </trkpt>
      <trkpt lat="47.50948" lon="6.7694">
        <ele>374</ele>
        <time>2016-11-02T15:09:00.000Z</time>
      </trkpt>
      <trkpt lat="47.50953" lon="6.76944">
        <ele>373</ele>
        <time>2016-11-02T15:09:01.000Z</time>
      </trkpt>
      <trkpt lat="47.50958" lon="6.76946">
        <ele>373</ele>
        <time>2016-11-02T15:09:02.000Z</time>
      </trkpt>
      <trkpt lat="47.50964" lon="6.76949">
        <ele>373</ele>
        <time>2016-11-02T15:09:03.000Z</time>
      </trkpt>
      <trkpt lat="47.50969" lon="6.76952">
        <ele>373</ele>
        <time>2016-11-02T15:09:04.000Z</time>
      </trkpt>
      <trkpt lat="47.50974" lon="6.76954">
        <ele>373</ele>
        <time>2016-11-02T15:09:05.000Z</time>
      </trkpt>
      <trkpt lat="47.5098" lon="6.76954">
        <ele>373</ele>
        <time>2016-11-02T15:09:06.000Z</time>
      </trkpt>
      <trkpt lat="47.50985" lon="6.76954">
        <ele>373</ele>
        <time>2016-11-02T15:09:07.000Z</time>
      </trkpt>
      <trkpt lat="47.50991" lon="6.76953">
        <ele>374</ele>
        <time>2016-11-02T15:09:08.001Z</time>
      </trkpt>
      <trkpt lat="47.50996" lon="6.76946">
        <ele>374</ele>
        <time>2016-11-02T15:09:09.000Z</time>
      </trkpt>
      <trkpt lat="47.51" lon="6.76942">
        <ele>375</ele>
        <time>2016-11-02T15:09:10.000Z</time>
      </trkpt>
      <trkpt lat="47.51006" lon="6.76938">
        <ele>375</ele>
        <time>2016-11-02T15:09:11.000Z</time>
      </trkpt>
      <trkpt lat="47.51011" lon="6.76941">
        <ele>375</ele>
        <time>2016-11-02T15:09:12.000Z</time>
      </trkpt>
      <trkpt lat="47.51017" lon="6.76944">
        <ele>375</ele>
        <time>2016-11-02T15:09:13.000Z</time>
      </trkpt>
      <trkpt lat="47.51022" lon="6.76947">
        <ele>375</ele>
        <time>2016-11-02T15:09:14.000Z</time>
      </trkpt>
      <trkpt lat="47.51028" lon="6.76951">
        <ele>375</ele>
        <time>2016-11-02T15:09:15.000Z</time>
      </trkpt>
      <trkpt lat="47.51033" lon="6.76955">
        <ele>375</ele>
        <time>2016-11-02T15:09:16.000Z</time>
      </trkpt>
      <trkpt lat="47.51039" lon="6.76959">
        <ele>375</ele>
        <time>2016-11-02T15:09:17.000Z</time>
      </trkpt>
      <trkpt lat="47.51045" lon="6.76966">
        <ele>375</ele>
        <time>2016-11-02T15:09:18.000Z</time>
      </trkpt>
      <trkpt lat="47.5105" lon="6.76973">
        <ele>375</ele>
        <time>2016-11-02T15:09:19.000Z</time>
      </trkpt>
      <trkpt lat="47.51057" lon="6.76979">
        <ele>375</ele>
        <time>2016-11-02T15:09:20.000Z</time>
      </trkpt>
      <trkpt lat="47.51062" lon="6.76984">
        <ele>375</ele>
        <time>2016-11-02T15:09:21.000Z</time>
      </trkpt>
      <trkpt lat="47.51068" lon="6.76988">
        <ele>375</ele>
        <time>2016-11-02T15:09:22.000Z</time>
      </trkpt>
      <trkpt lat="47.51074" lon="6.76992">
        <ele>375</ele>
        <time>2016-11-02T15:09:23.000Z</time>
      </trkpt>
      <trkpt lat="47.5108" lon="6.76996">
        <ele>375</ele>
        <time>2016-11-02T15:09:24.000Z</time>
      </trkpt>
      <trkpt lat="47.51085" lon="6.77">
        <ele>375</ele>
        <time>2016-11-02T15:09:25.000Z</time>
      </trkpt>
      <trkpt lat="47.51091" lon="6.77004">
        <ele>375</ele>
        <time>2016-11-02T15:09:25.999Z</time>
      </trkpt>
      <trkpt lat="47.51096" lon="6.7701">
        <ele>375</ele>
        <time>2016-11-02T15:09:27.000Z</time>
      </trkpt>
      <trkpt lat="47.51101" lon="6.77016">
        <ele>375</ele>
        <time>2016-11-02T15:09:28.000Z</time>
      </trkpt>
      <trkpt lat="47.51106" lon="6.7702">
        <ele>375</ele>
        <time>2016-11-02T15:09:29.000Z</time>
      </trkpt>
      <trkpt lat="47.51113" lon="6.77024">
        <ele>375</ele>
        <time>2016-11-02T15:09:30.000Z</time>
      </trkpt>
      <trkpt lat="47.51119" lon="6.77027">
        <ele>375</ele>
        <time>2016-11-02T15:09:31.000Z</time>
      </trkpt>
      <trkpt lat="47.51124" lon="6.77032">
        <ele>375</ele>
        <time>2016-11-02T15:09:32.001Z</time>
      </trkpt>
      <trkpt lat="47.51129" lon="6.77037">
        <ele>375</ele>
        <time>2016-11-02T15:09:33.000Z</time>
      </trkpt>
      <trkpt lat="47.51134" lon="6.7704">
        <ele>375</ele>
        <time>2016-11-02T15:09:34.000Z</time>
      </trkpt>
      <trkpt lat="47.51138" lon="6.77044">
        <ele>375</ele>
        <time>2016-11-02T15:09:35.000Z</time>
      </trkpt>
      <trkpt lat="47.51143" lon="6.77049">
        <ele>376</ele>
        <time>2016-11-02T15:09:36.000Z</time>
      </trkpt>
      <trkpt lat="47.51148" lon="6.77053">
        <ele>376</ele>
        <time>2016-11-02T15:09:37.000Z</time>
      </trkpt>
      <trkpt lat="47.51153" lon="6.77058">
        <ele>376</ele>
        <time>2016-11-02T15:09:38.000Z</time>
      </trkpt>
      <trkpt lat="47.51158" lon="6.77064">
        <ele>376</ele>
        <time>2016-11-02T15:09:39.000Z</time>
      </trkpt>
      <trkpt lat="47.51163" lon="6.7707">
        <ele>377</ele>
        <time>2016-11-02T15:09:40.000Z</time>
      </trkpt>
      <trkpt lat="47.51168" lon="6.77077">
        <ele>377</ele>
        <time>2016-11-02T15:09:41.000Z</time>
      </trkpt>
      <trkpt lat="47.51172" lon="6.77085">
        <ele>378</ele>
        <time>2016-11-02T15:09:42.000Z</time>
      </trkpt>
      <trkpt lat="47.51176" lon="6.77093">
        <ele>378</ele>
        <time>2016-11-02T15:09:43.000Z</time>
      </trkpt>
      <trkpt lat="47.5118" lon="6.77099">
        <ele>378</ele>
        <time>2016-11-02T15:09:44.000Z</time>
      </trkpt>
      <trkpt lat="47.51182" lon="6.77105">
        <ele>378</ele>
        <time>2016-11-02T15:09:45.000Z</time>
      </trkpt>
      <trkpt lat="47.51185" lon="6.77111">
        <ele>378</ele>
        <time>2016-11-02T15:09:46.000Z</time>
      </trkpt>
      <trkpt lat="47.51189" lon="6.77118">
        <ele>378</ele>
        <time>2016-11-02T15:09:47.000Z</time>
      </trkpt>
      <trkpt lat="47.51193" lon="6.77123">
        <ele>378</ele>
        <time>2016-11-02T15:09:48.000Z</time>
      </trkpt>
      <trkpt lat="47.51196" lon="6.77131">
        <ele>378</ele>
        <time>2016-11-02T15:09:49.000Z</time>
      </trkpt>
      <trkpt lat="47.512" lon="6.77138">
        <ele>378</ele>
        <time>2016-11-02T15:09:50.000Z</time>
      </trkpt>
      <trkpt lat="47.51203" lon="6.77145">
        <ele>378</ele>
        <time>2016-11-02T15:09:51.000Z</time>
      </trkpt>
      <trkpt lat="47.51206" lon="6.77153">
        <ele>378</ele>
        <time>2016-11-02T15:09:52.000Z</time>
      </trkpt>
      <trkpt lat="47.5121" lon="6.7716">
        <ele>378</ele>
        <time>2016-11-02T15:09:53.000Z</time>
      </trkpt>
      <trkpt lat="47.51212" lon="6.77166">
        <ele>378</ele>
        <time>2016-11-02T15:09:54.000Z</time>
      </trkpt>
      <trkpt lat="47.51216" lon="6.77171">
        <ele>376</ele>
        <time>2016-11-02T15:09:55.000Z</time>
      </trkpt>
      <trkpt lat="47.51219" lon="6.77178">
        <ele>376</ele>
        <time>2016-11-02T15:09:56.000Z</time>
      </trkpt>
      <trkpt lat="47.51221" lon="6.77184">
        <ele>376</ele>
        <time>2016-11-02T15:09:57.000Z</time>
      </trkpt>
      <trkpt lat="47.51224" lon="6.7719">
        <ele>376</ele>
        <time>2016-11-02T15:09:58.000Z</time>
      </trkpt>
      <trkpt lat="47.51227" lon="6.77195">
        <ele>376</ele>
        <time>2016-11-02T15:09:59.000Z</time>
      </trkpt>
      <trkpt lat="47.51229" lon="6.772">
        <ele>376</ele>
        <time>2016-11-02T15:10:00.000Z</time>
      </trkpt>
      <trkpt lat="47.51232" lon="6.77205">
        <ele>376</ele>
        <time>2016-11-02T15:10:01.000Z</time>
      </trkpt>
      <trkpt lat="47.51235" lon="6.7721">
        <ele>376</ele>
        <time>2016-11-02T15:10:02.000Z</time>
      </trkpt>
      <trkpt lat="47.51239" lon="6.77216">
        <ele>376</ele>
        <time>2016-11-02T15:10:03.000Z</time>
      </trkpt>
      <trkpt lat="47.51241" lon="6.77221">
        <ele>376</ele>
        <time>2016-11-02T15:10:04.000Z</time>
      </trkpt>
      <trkpt lat="47.51244" lon="6.77226">
        <ele>376</ele>
        <time>2016-11-02T15:10:05.000Z</time>
      </trkpt>
      <trkpt lat="47.51248" lon="6.77232">
        <ele>377</ele>
        <time>2016-11-02T15:10:06.000Z</time>
      </trkpt>
      <trkpt lat="47.51251" lon="6.77238">
        <ele>378</ele>
        <time>2016-11-02T15:10:07.000Z</time>
      </trkpt>
      <trkpt lat="47.51253" lon="6.77243">
        <ele>379</ele>
        <time>2016-11-02T15:10:08.001Z</time>
      </trkpt>
      <trkpt lat="47.51257" lon="6.77249">
        <ele>379</ele>
        <time>2016-11-02T15:10:09.000Z</time>
      </trkpt>
      <trkpt lat="47.51261" lon="6.77253">
        <ele>378</ele>
        <time>2016-11-02T15:10:10.000Z</time>
      </trkpt>
      <trkpt lat="47.51265" lon="6.77257">
        <ele>378</ele>
        <time>2016-11-02T15:10:11.000Z</time>
      </trkpt>
      <trkpt lat="47.51269" lon="6.7726">
        <ele>377</ele>
        <time>2016-11-02T15:10:12.000Z</time>
      </trkpt>
      <trkpt lat="47.51274" lon="6.77263">
        <ele>377</ele>
        <time>2016-11-02T15:10:13.000Z</time>
      </trkpt>
      <trkpt lat="47.51278" lon="6.77264">
        <ele>377</ele>
        <time>2016-11-02T15:10:14.000Z</time>
      </trkpt>
      <trkpt lat="47.51283" lon="6.77267">
        <ele>377</ele>
        <time>2016-11-02T15:10:15.000Z</time>
      </trkpt>
      <trkpt lat="47.5129" lon="6.77269">
        <ele>377</ele>
        <time>2016-11-02T15:10:16.000Z</time>
      </trkpt>
      <trkpt lat="47.51295" lon="6.77272">
        <ele>377</ele>
        <time>2016-11-02T15:10:17.000Z</time>
      </trkpt>
      <trkpt lat="47.51301" lon="6.77274">
        <ele>377</ele>
        <time>2016-11-02T15:10:18.000Z</time>
      </trkpt>
      <trkpt lat="47.51307" lon="6.77278">
        <ele>377</ele>
        <time>2016-11-02T15:10:19.000Z</time>
      </trkpt>
      <trkpt lat="47.51313" lon="6.77281">
        <ele>377</ele>
        <time>2016-11-02T15:10:20.000Z</time>
      </trkpt>
      <trkpt lat="47.51318" lon="6.77285">
        <ele>377</ele>
        <time>2016-11-02T15:10:21.000Z</time>
      </trkpt>
      <trkpt lat="47.51325" lon="6.77286">
        <ele>378</ele>
        <time>2016-11-02T15:10:21.999Z</time>
      </trkpt>
      <trkpt lat="47.51332" lon="6.77285">
        <ele>378</ele>
        <time>2016-11-02T15:10:23.000Z</time>
      </trkpt>
      <trkpt lat="47.51339" lon="6.77283">
        <ele>378</ele>
        <time>2016-11-02T15:10:24.000Z</time>
      </trkpt>
      <trkpt lat="47.51345" lon="6.77278">
        <ele>378</ele>
        <time>2016-11-02T15:10:25.000Z</time>
      </trkpt>
      <trkpt lat="47.51352" lon="6.77273">
        <ele>378</ele>
        <time>2016-11-02T15:10:26.000Z</time>
      </trkpt>
      <trkpt lat="47.51359" lon="6.77266">
        <ele>378</ele>
        <time>2016-11-02T15:10:27.000Z</time>
      </trkpt>
      <trkpt lat="47.51367" lon="6.7726">
        <ele>378</ele>
        <time>2016-11-02T15:10:28.000Z</time>
      </trkpt>
      <trkpt lat="47.51374" lon="6.77255">
        <ele>377</ele>
        <time>2016-11-02T15:10:29.000Z</time>
      </trkpt>
      <trkpt lat="47.51382" lon="6.77249">
        <ele>376</ele>
        <time>2016-11-02T15:10:30.000Z</time>
      </trkpt>
      <trkpt lat="47.5139" lon="6.77244">
        <ele>376</ele>
        <time>2016-11-02T15:10:31.000Z</time>
      </trkpt>
      <trkpt lat="47.51398" lon="6.7724">
        <ele>376</ele>
        <time>2016-11-02T15:10:32.000Z</time>
      </trkpt>
      <trkpt lat="47.51406" lon="6.77235">
        <ele>376</ele>
        <time>2016-11-02T15:10:33.000Z</time>
      </trkpt>
      <trkpt lat="47.51415" lon="6.77232">
        <ele>376</ele>
        <time>2016-11-02T15:10:34.000Z</time>
      </trkpt>
      <trkpt lat="47.51423" lon="6.77227">
        <ele>375</ele>
        <time>2016-11-02T15:10:35.000Z</time>
      </trkpt>
      <trkpt lat="47.51431" lon="6.77224">
        <ele>375</ele>
        <time>2016-11-02T15:10:36.000Z</time>
      </trkpt>
      <trkpt lat="47.51439" lon="6.77219">
        <ele>375</ele>
        <time>2016-11-02T15:10:37.000Z</time>
      </trkpt>
      <trkpt lat="47.51447" lon="6.77216">
        <ele>375</ele>
        <time>2016-11-02T15:10:38.000Z</time>
      </trkpt>
      <trkpt lat="47.51455" lon="6.7721">
        <ele>375</ele>
        <time>2016-11-02T15:10:39.000Z</time>
      </trkpt>
      <trkpt lat="47.51461" lon="6.77208">
        <ele>375</ele>
        <time>2016-11-02T15:10:40.000Z</time>
      </trkpt>
      <trkpt lat="47.51468" lon="6.77205">
        <ele>375</ele>
        <time>2016-11-02T15:10:41.000Z</time>
      </trkpt>
      <trkpt lat="47.51474" lon="6.77204">
        <ele>375</ele>
        <time>2016-11-02T15:10:42.000Z</time>
      </trkpt>
      <trkpt lat="47.51478" lon="6.77206">
        <ele>375</ele>
        <time>2016-11-02T15:10:43.000Z</time>
      </trkpt>
      <trkpt lat="47.51482" lon="6.7721">
        <ele>375</ele>
        <time>2016-11-02T15:10:44.000Z</time>
      </trkpt>
      <trkpt lat="47.51484" lon="6.77217">
        <ele>375</ele>
        <time>2016-11-02T15:10:44.999Z</time>
      </trkpt>
      <trkpt lat="47.51484" lon="6.77225">
        <ele>375</ele>
        <time>2016-11-02T15:10:46.000Z</time>
      </trkpt>
      <trkpt lat="47.51485" lon="6.77233">
        <ele>375</ele>
        <time>2016-11-02T15:10:47.000Z</time>
      </trkpt>
      <trkpt lat="47.51485" lon="6.7724">
        <ele>375</ele>
        <time>2016-11-02T15:10:48.000Z</time>
      </trkpt>
      <trkpt lat="47.51486" lon="6.77248">
        <ele>376</ele>
        <time>2016-11-02T15:10:49.000Z</time>
      </trkpt>
      <trkpt lat="47.51486" lon="6.77257">
        <ele>376</ele>
        <time>2016-11-02T15:10:50.000Z</time>
      </trkpt>
      <trkpt lat="47.51488" lon="6.77266">
        <ele>376</ele>
        <time>2016-11-02T15:10:51.000Z</time>
      </trkpt>
      <trkpt lat="47.51488" lon="6.77274">
        <ele>377</ele>
        <time>2016-11-02T15:10:52.000Z</time>
      </trkpt>
      <trkpt lat="47.51489" lon="6.77282">
        <ele>377</ele>
        <time>2016-11-02T15:10:53.000Z</time>
      </trkpt>
      <trkpt lat="47.5149" lon="6.7729">
        <ele>377</ele>
        <time>2016-11-02T15:10:54.000Z</time>
      </trkpt>
      <trkpt lat="47.51491" lon="6.77299">
        <ele>377</ele>
        <time>2016-11-02T15:10:55.000Z</time>
      </trkpt>
      <trkpt lat="47.51494" lon="6.77306">
        <ele>377</ele>
        <time>2016-11-02T15:10:56.000Z</time>
      </trkpt>
      <trkpt lat="47.51497" lon="6.77312">
        <ele>377</ele>
        <time>2016-11-02T15:10:56.999Z</time>
      </trkpt>
      <trkpt lat="47.51502" lon="6.7732">
        <ele>378</ele>
        <time>2016-11-02T15:10:58.000Z</time>
      </trkpt>
      <trkpt lat="47.51507" lon="6.77325">
        <ele>378</ele>
        <time>2016-11-02T15:10:59.000Z</time>
      </trkpt>
      <trkpt lat="47.51511" lon="6.77328">
        <ele>378</ele>
        <time>2016-11-02T15:10:59.999Z</time>
      </trkpt>
      <trkpt lat="47.51515" lon="6.77333">
        <ele>378</ele>
        <time>2016-11-02T15:11:01.000Z</time>
      </trkpt>
      <trkpt lat="47.51519" lon="6.77338">
        <ele>379</ele>
        <time>2016-11-02T15:11:02.000Z</time>
      </trkpt>
      <trkpt lat="47.51523" lon="6.77342">
        <ele>380</ele>
        <time>2016-11-02T15:11:03.000Z</time>
      </trkpt>
      <trkpt lat="47.51526" lon="6.77345">
        <ele>380</ele>
        <time>2016-11-02T15:11:04.000Z</time>
      </trkpt>
      <trkpt lat="47.5153" lon="6.77348">
        <ele>380</ele>
        <time>2016-11-02T15:11:05.000Z</time>
      </trkpt>
      <trkpt lat="47.51533" lon="6.77353">
        <ele>380</ele>
        <time>2016-11-02T15:11:06.000Z</time>
      </trkpt>
      <trkpt lat="47.51536" lon="6.77357">
        <ele>380</ele>
        <time>2016-11-02T15:11:07.000Z</time>
      </trkpt>
      <trkpt lat="47.51539" lon="6.77362">
        <ele>380</ele>
        <time>2016-11-02T15:11:08.000Z</time>
      </trkpt>
      <trkpt lat="47.51542" lon="6.77366">
        <ele>380</ele>
        <time>2016-11-02T15:11:09.000Z</time>
      </trkpt>
      <trkpt lat="47.51545" lon="6.77369">
        <ele>380</ele>
        <time>2016-11-02T15:11:10.000Z</time>
      </trkpt>
      <trkpt lat="47.51548" lon="6.77373">
        <ele>381</ele>
        <time>2016-11-02T15:11:11.000Z</time>
      </trkpt>
      <trkpt lat="47.51551" lon="6.77376">
        <ele>381</ele>
        <time>2016-11-02T15:11:12.000Z</time>
      </trkpt>
      <trkpt lat="47.51553" lon="6.77379">
        <ele>381</ele>
        <time>2016-11-02T15:11:13.000Z</time>
      </trkpt>
      <trkpt lat="47.51556" lon="6.77382">
        <ele>381</ele>
        <time>2016-11-02T15:11:14.000Z</time>
      </trkpt>
      <trkpt lat="47.51558" lon="6.77386">
        <ele>381</ele>
        <time>2016-11-02T15:11:15.000Z</time>
      </trkpt>
      <trkpt lat="47.5156" lon="6.77389">
        <ele>381</ele>
        <time>2016-11-02T15:11:15.999Z</time>
      </trkpt>
      <trkpt lat="47.51563" lon="6.77392">
        <ele>381</ele>
        <time>2016-11-02T15:11:17.000Z</time>
      </trkpt>
      <trkpt lat="47.51565" lon="6.77394">
        <ele>381</ele>
        <time>2016-11-02T15:11:18.000Z</time>
      </trkpt>
      <trkpt lat="47.51567" lon="6.77397">
        <ele>381</ele>
        <time>2016-11-02T15:11:19.001Z</time>
      </trkpt>
      <trkpt lat="47.51569" lon="6.77399">
        <ele>382</ele>
        <time>2016-11-02T15:11:20.000Z</time>
      </trkpt>
      <trkpt lat="47.51571" lon="6.77402">
        <ele>382</ele>
        <time>2016-11-02T15:11:21.000Z</time>
      </trkpt>
      <trkpt lat="47.51574" lon="6.77405">
        <ele>382</ele>
        <time>2016-11-02T15:11:22.000Z</time>
      </trkpt>
      <trkpt lat="47.51576" lon="6.77407">
        <ele>382</ele>
        <time>2016-11-02T15:11:22.998Z</time>
      </trkpt>
      <trkpt lat="47.51579" lon="6.77411">
        <ele>382</ele>
        <time>2016-11-02T15:11:24.000Z</time>
      </trkpt>
      <trkpt lat="47.51581" lon="6.77414">
        <ele>383</ele>
        <time>2016-11-02T15:11:25.000Z</time>
      </trkpt>
      <trkpt lat="47.51583" lon="6.77417">
        <ele>383</ele>
        <time>2016-11-02T15:11:25.999Z</time>
      </trkpt>
      <trkpt lat="47.51586" lon="6.7742">
        <ele>383</ele>
        <time>2016-11-02T15:11:27.000Z</time>
      </trkpt>
      <trkpt lat="47.51588" lon="6.77423">
        <ele>384</ele>
        <time>2016-11-02T15:11:28.000Z</time>
      </trkpt>
      <trkpt lat="47.5159" lon="6.77426">
        <ele>384</ele>
        <time>2016-11-02T15:11:29.000Z</time>
      </trkpt>
      <trkpt lat="47.51593" lon="6.77427">
        <ele>384</ele>
        <time>2016-11-02T15:11:30.000Z</time>
      </trkpt>
      <trkpt lat="47.51596" lon="6.7743">
        <ele>384</ele>
        <time>2016-11-02T15:11:31.000Z</time>
      </trkpt>
      <trkpt lat="47.51598" lon="6.77432">
        <ele>385</ele>
        <time>2016-11-02T15:11:32.000Z</time>
      </trkpt>
      <trkpt lat="47.516" lon="6.77434">
        <ele>385</ele>
        <time>2016-11-02T15:11:33.000Z</time>
      </trkpt>
      <trkpt lat="47.51603" lon="6.77437">
        <ele>385</ele>
        <time>2016-11-02T15:11:34.000Z</time>
      </trkpt>
      <trkpt lat="47.51606" lon="6.77439">
        <ele>385</ele>
        <time>2016-11-02T15:11:35.000Z</time>
      </trkpt>
      <trkpt lat="47.51609" lon="6.77442">
        <ele>385</ele>
        <time>2016-11-02T15:11:36.000Z</time>
      </trkpt>
      <trkpt lat="47.51611" lon="6.77445">
        <ele>385</ele>
        <time>2016-11-02T15:11:37.000Z</time>
      </trkpt>
      <trkpt lat="47.51614" lon="6.77447">
        <ele>385</ele>
        <time>2016-11-02T15:11:38.000Z</time>
      </trkpt>
      <trkpt lat="47.51617" lon="6.7745">
        <ele>385</ele>
        <time>2016-11-02T15:11:39.000Z</time>
      </trkpt>
      <trkpt lat="47.51619" lon="6.77453">
        <ele>386</ele>
        <time>2016-11-02T15:11:40.000Z</time>
      </trkpt>
      <trkpt lat="47.51621" lon="6.77456">
        <ele>386</ele>
        <time>2016-11-02T15:11:41.000Z</time>
      </trkpt>
      <trkpt lat="47.51624" lon="6.77459">
        <ele>386</ele>
        <time>2016-11-02T15:11:41.999Z</time>
      </trkpt>
      <trkpt lat="47.51626" lon="6.77462">
        <ele>386</ele>
        <time>2016-11-02T15:11:43.000Z</time>
      </trkpt>
      <trkpt lat="47.51629" lon="6.77465">
        <ele>386</ele>
        <time>2016-11-02T15:11:44.000Z</time>
      </trkpt>
      <trkpt lat="47.51632" lon="6.77468">
        <ele>386</ele>
        <time>2016-11-02T15:11:45.000Z</time>
      </trkpt>
      <trkpt lat="47.51634" lon="6.77471">
        <ele>386</ele>
        <time>2016-11-02T15:11:46.000Z</time>
      </trkpt>
      <trkpt lat="47.51637" lon="6.77474">
        <ele>386</ele>
        <time>2016-11-02T15:11:47.000Z</time>
      </trkpt>
      <trkpt lat="47.5164" lon="6.77477">
        <ele>386</ele>
        <time>2016-11-02T15:11:48.000Z</time>
      </trkpt>
      <trkpt lat="47.51643" lon="6.7748">
        <ele>387</ele>
        <time>2016-11-02T15:11:49.000Z</time>
      </trkpt>
      <trkpt lat="47.51645" lon="6.77484">
        <ele>387</ele>
        <time>2016-11-02T15:11:50.000Z</time>
      </trkpt>
      <trkpt lat="47.51648" lon="6.77487">
        <ele>387</ele>
        <time>2016-11-02T15:11:51.000Z</time>
      </trkpt>
      <trkpt lat="47.51651" lon="6.7749">
        <ele>387</ele>
        <time>2016-11-02T15:11:52.000Z</time>
      </trkpt>
      <trkpt lat="47.51653" lon="6.77494">
        <ele>388</ele>
        <time>2016-11-02T15:11:53.000Z</time>
      </trkpt>
      <trkpt lat="47.51656" lon="6.77497">
        <ele>388</ele>
        <time>2016-11-02T15:11:54.001Z</time>
      </trkpt>
      <trkpt lat="47.51659" lon="6.775">
        <ele>388</ele>
        <time>2016-11-02T15:11:55.000Z</time>
      </trkpt>
      <trkpt lat="47.51661" lon="6.77503">
        <ele>389</ele>
        <time>2016-11-02T15:11:56.000Z</time>
      </trkpt>
      <trkpt lat="47.51664" lon="6.77506">
        <ele>389</ele>
        <time>2016-11-02T15:11:57.000Z</time>
      </trkpt>
      <trkpt lat="47.51667" lon="6.77509">
        <ele>388</ele>
        <time>2016-11-02T15:11:58.000Z</time>
      </trkpt>
      <trkpt lat="47.51669" lon="6.77512">
        <ele>389</ele>
        <time>2016-11-02T15:11:59.000Z</time>
      </trkpt>
      <trkpt lat="47.51672" lon="6.77516">
        <ele>389</ele>
        <time>2016-11-02T15:12:00.000Z</time>
      </trkpt>
      <trkpt lat="47.51674" lon="6.77519">
        <ele>389</ele>
        <time>2016-11-02T15:12:01.000Z</time>
      </trkpt>
      <trkpt lat="47.51677" lon="6.77523">
        <ele>390</ele>
        <time>2016-11-02T15:12:02.000Z</time>
      </trkpt>
      <trkpt lat="47.5168" lon="6.77527">
        <ele>390</ele>
        <time>2016-11-02T15:12:03.000Z</time>
      </trkpt>
      <trkpt lat="47.51683" lon="6.7753">
        <ele>390</ele>
        <time>2016-11-02T15:12:04.000Z</time>
      </trkpt>
      <trkpt lat="47.51686" lon="6.77533">
        <ele>390</ele>
        <time>2016-11-02T15:12:05.000Z</time>
      </trkpt>
      <trkpt lat="47.51689" lon="6.77536">
        <ele>390</ele>
        <time>2016-11-02T15:12:06.000Z</time>
      </trkpt>
      <trkpt lat="47.51692" lon="6.77539">
        <ele>390</ele>
        <time>2016-11-02T15:12:07.000Z</time>
      </trkpt>
      <trkpt lat="47.51694" lon="6.77543">
        <ele>390</ele>
        <time>2016-11-02T15:12:08.000Z</time>
      </trkpt>
      <trkpt lat="47.51697" lon="6.77546">
        <ele>390</ele>
        <time>2016-11-02T15:12:09.000Z</time>
      </trkpt>
      <trkpt lat="47.51699" lon="6.7755">
        <ele>390</ele>
        <time>2016-11-02T15:12:10.000Z</time>
      </trkpt>
      <trkpt lat="47.51702" lon="6.77553">
        <ele>390</ele>
        <time>2016-11-02T15:12:11.000Z</time>
      </trkpt>
      <trkpt lat="47.51704" lon="6.77557">
        <ele>390</ele>
        <time>2016-11-02T15:12:12.000Z</time>
      </trkpt>
      <trkpt lat="47.51706" lon="6.7756">
        <ele>390</ele>
        <time>2016-11-02T15:12:13.000Z</time>
      </trkpt>
      <trkpt lat="47.51708" lon="6.77562">
        <ele>390</ele>
        <time>2016-11-02T15:12:14.000Z</time>
      </trkpt>
      <trkpt lat="47.51711" lon="6.77566">
        <ele>390</ele>
        <time>2016-11-02T15:12:16.000Z</time>
      </trkpt>
      <trkpt lat="47.51713" lon="6.77567">
        <ele>390</ele>
        <time>2016-11-02T15:12:17.000Z</time>
      </trkpt>
      <trkpt lat="47.51715" lon="6.77564">
        <ele>390</ele>
        <time>2016-11-02T15:12:18.000Z</time>
      </trkpt>
      <trkpt lat="47.51717" lon="6.7756">
        <ele>390</ele>
        <time>2016-11-02T15:12:19.000Z</time>
      </trkpt>
      <trkpt lat="47.51717" lon="6.77549">
        <ele>390</ele>
        <time>2016-11-02T15:12:20.000Z</time>
      </trkpt>
      <trkpt lat="47.51718" lon="6.77544">
        <ele>390</ele>
        <time>2016-11-02T15:12:21.000Z</time>
      </trkpt>
      <trkpt lat="47.51719" lon="6.77538">
        <ele>390</ele>
        <time>2016-11-02T15:12:22.000Z</time>
      </trkpt>
      <trkpt lat="47.5172" lon="6.77531">
        <ele>390</ele>
        <time>2016-11-02T15:12:23.000Z</time>
      </trkpt>
      <trkpt lat="47.51721" lon="6.77524">
        <ele>390</ele>
        <time>2016-11-02T15:12:24.000Z</time>
      </trkpt>
      <trkpt lat="47.51723" lon="6.77517">
        <ele>390</ele>
        <time>2016-11-02T15:12:25.000Z</time>
      </trkpt>
      <trkpt lat="47.51725" lon="6.77511">
        <ele>390</ele>
        <time>2016-11-02T15:12:26.000Z</time>
      </trkpt>
      <trkpt lat="47.51726" lon="6.77505">
        <ele>390</ele>
        <time>2016-11-02T15:12:27.000Z</time>
      </trkpt>
      <trkpt lat="47.51728" lon="6.77499">
        <ele>389</ele>
        <time>2016-11-02T15:12:28.000Z</time>
      </trkpt>
      <trkpt lat="47.51728" lon="6.77493">
        <ele>389</ele>
        <time>2016-11-02T15:12:29.000Z</time>
      </trkpt>
      <trkpt lat="47.5173" lon="6.77487">
        <ele>389</ele>
        <time>2016-11-02T15:12:30.000Z</time>
      </trkpt>
      <trkpt lat="47.51734" lon="6.77483">
        <ele>389</ele>
        <time>2016-11-02T15:12:31.000Z</time>
      </trkpt>
      <trkpt lat="47.51738" lon="6.77483">
        <ele>389</ele>
        <time>2016-11-02T15:12:32.000Z</time>
      </trkpt>
      <trkpt lat="47.51741" lon="6.77484">
        <ele>389</ele>
        <time>2016-11-02T15:12:33.000Z</time>
      </trkpt>
      <trkpt lat="47.51745" lon="6.77486">
        <ele>389</ele>
        <time>2016-11-02T15:12:34.000Z</time>
      </trkpt>
      <trkpt lat="47.51749" lon="6.77487">
        <ele>389</ele>
        <time>2016-11-02T15:12:35.000Z</time>
      </trkpt>
      <trkpt lat="47.51752" lon="6.77487">
        <ele>389</ele>
        <time>2016-11-02T15:12:36.000Z</time>
      </trkpt>
      <trkpt lat="47.51756" lon="6.77487">
        <ele>389</ele>
        <time>2016-11-02T15:12:37.000Z</time>
      </trkpt>
      <trkpt lat="47.51759" lon="6.77487">
        <ele>389</ele>
        <time>2016-11-02T15:12:38.000Z</time>
      </trkpt>
      <trkpt lat="47.51763" lon="6.77485">
        <ele>389</ele>
        <time>2016-11-02T15:12:39.000Z</time>
      </trkpt>
      <trkpt lat="47.51766" lon="6.77485">
        <ele>389</ele>
        <time>2016-11-02T15:12:40.000Z</time>
      </trkpt>
      <trkpt lat="47.5177" lon="6.77484">
        <ele>389</ele>
        <time>2016-11-02T15:12:41.000Z</time>
      </trkpt>
      <trkpt lat="47.51773" lon="6.77484">
        <ele>388</ele>
        <time>2016-11-02T15:12:42.000Z</time>
      </trkpt>
      <trkpt lat="47.51777" lon="6.77485">
        <ele>388</ele>
        <time>2016-11-02T15:12:43.000Z</time>
      </trkpt>
      <trkpt lat="47.51781" lon="6.77486">
        <ele>388</ele>
        <time>2016-11-02T15:12:44.001Z</time>
      </trkpt>
      <trkpt lat="47.51784" lon="6.77488">
        <ele>388</ele>
        <time>2016-11-02T15:12:45.000Z</time>
      </trkpt>
      <trkpt lat="47.51788" lon="6.7749">
        <ele>388</ele>
        <time>2016-11-02T15:12:46.000Z</time>
      </trkpt>
      <trkpt lat="47.51791" lon="6.77492">
        <ele>388</ele>
        <time>2016-11-02T15:12:47.000Z</time>
      </trkpt>
      <trkpt lat="47.51795" lon="6.77494">
        <ele>388</ele>
        <time>2016-11-02T15:12:47.999Z</time>
      </trkpt>
      <trkpt lat="47.51798" lon="6.77496">
        <ele>388</ele>
        <time>2016-11-02T15:12:49.000Z</time>
      </trkpt>
      <trkpt lat="47.518" lon="6.77496">
        <ele>388</ele>
        <time>2016-11-02T15:12:50.000Z</time>
      </trkpt>
      <trkpt lat="47.51798" lon="6.77492">
        <ele>388</ele>
        <time>2016-11-02T15:12:57.000Z</time>
      </trkpt>
      <trkpt lat="47.51796" lon="6.77492">
        <ele>388</ele>
        <time>2016-11-02T15:12:57.999Z</time>
      </trkpt>
      <trkpt lat="47.51796" lon="6.77498">
        <ele>388</ele>
        <time>2016-11-02T15:13:01.000Z</time>
      </trkpt>
      <trkpt lat="47.518" lon="6.775">
        <ele>389</ele>
        <time>2016-11-02T15:13:02.000Z</time>
      </trkpt>
      <trkpt lat="47.51806" lon="6.77494">
        <ele>388</ele>
        <time>2016-11-02T15:13:03.000Z</time>
      </trkpt>
      <trkpt lat="47.51809" lon="6.7749">
        <ele>388</ele>
        <time>2016-11-02T15:13:04.000Z</time>
      </trkpt>
      <trkpt lat="47.51811" lon="6.77487">
        <ele>388</ele>
        <time>2016-11-02T15:13:05.000Z</time>
      </trkpt>
      <trkpt lat="47.51813" lon="6.77483">
        <ele>388</ele>
        <time>2016-11-02T15:13:06.001Z</time>
      </trkpt>
      <trkpt lat="47.51812" lon="6.7748">
        <ele>388</ele>
        <time>2016-11-02T15:13:07.000Z</time>
      </trkpt>
      <trkpt lat="47.51814" lon="6.77476">
        <ele>388</ele>
        <time>2016-11-02T15:13:07.999Z</time>
      </trkpt>
      <trkpt lat="47.51807" lon="6.7747">
        <ele>388</ele>
        <time>2016-11-02T15:13:09.000Z</time>
      </trkpt>
      <trkpt lat="47.5181" lon="6.77475">
        <ele>388</ele>
        <time>2016-11-02T15:13:25.000Z</time>
      </trkpt>
      <trkpt lat="47.51811" lon="6.77478">
        <ele>388</ele>
        <time>2016-11-02T15:13:26.000Z</time>
      </trkpt>
      <trkpt lat="47.51811" lon="6.77483">
        <ele>388</ele>
        <time>2016-11-02T15:13:28.000Z</time>
      </trkpt>
      <trkpt lat="47.51811" lon="6.77485">
        <ele>388</ele>
        <time>2016-11-02T15:13:29.000Z</time>
      </trkpt>
      <trkpt lat="47.51814" lon="6.77487">
        <ele>388</ele>
        <time>2016-11-02T15:13:47.000Z</time>
      </trkpt>
      <trkpt lat="47.51815" lon="6.77489">
        <ele>387</ele>
        <time>2016-11-02T15:13:48.000Z</time>
      </trkpt>
      <trkpt lat="47.51815" lon="6.77495">
        <ele>387</ele>
        <time>2016-11-02T15:13:50.000Z</time>
      </trkpt>
      <trkpt lat="47.51814" lon="6.77496">
        <ele>388</ele>
        <time>2016-11-02T15:13:51.000Z</time>
      </trkpt>
      <trkpt lat="47.5181" lon="6.77496">
        <ele>388</ele>
        <time>2016-11-02T15:13:53.001Z</time>
      </trkpt>
      <trkpt lat="47.51808" lon="6.77495">
        <ele>388</ele>
        <time>2016-11-02T15:13:54.000Z</time>
      </trkpt>
      <trkpt lat="47.51805" lon="6.7749">
        <ele>388</ele>
        <time>2016-11-02T15:13:58.000Z</time>
      </trkpt>
      <trkpt lat="47.51805" lon="6.7749">
        <ele>388</ele>
        <time>2016-11-02T15:13:59.001Z</time>
      </trkpt>
      <trkpt lat="47.51807" lon="6.77486">
        <ele>388</ele>
        <time>2016-11-02T15:14:26.000Z</time>
      </trkpt>
      <trkpt lat="47.51808" lon="6.77484">
        <ele>388</ele>
        <time>2016-11-02T15:14:27.000Z</time>
      </trkpt>
      <trkpt lat="47.51808" lon="6.77477">
        <ele>388</ele>
        <time>2016-11-02T15:14:31.000Z</time>
      </trkpt>
      <trkpt lat="47.51809" lon="6.77477">
        <ele>388</ele>
        <time>2016-11-02T15:14:32.000Z</time>
      </trkpt>
      <trkpt lat="47.51806" lon="6.7748">
        <ele>388</ele>
        <time>2016-11-02T15:14:54.000Z</time>
      </trkpt>
      <trkpt lat="47.51805" lon="6.77481">
        <ele>388</ele>
        <time>2016-11-02T15:14:55.000Z</time>
      </trkpt>
      <trkpt lat="47.51809" lon="6.77481">
        <ele>388</ele>
        <time>2016-11-02T15:15:40.000Z</time>
      </trkpt>
      <trkpt lat="47.5181" lon="6.7748">
        <ele>388</ele>
        <time>2016-11-02T15:15:41.000Z</time>
      </trkpt>
      <trkpt lat="47.51809" lon="6.77485">
        <ele>388</ele>
        <time>2016-11-02T15:16:08.000Z</time>
      </trkpt>
      <trkpt lat="47.51809" lon="6.77487">
        <ele>388</ele>
        <time>2016-11-02T15:16:09.000Z</time>
      </trkpt>
      <trkpt lat="47.5181" lon="6.77491">
        <ele>388</ele>
        <time>2016-11-02T15:16:11.000Z</time>
      </trkpt>
      <trkpt lat="47.5181" lon="6.77494">
        <ele>388</ele>
        <time>2016-11-02T15:16:12.000Z</time>
      </trkpt>
      <trkpt lat="47.5181" lon="6.77499">
        <ele>388</ele>
        <time>2016-11-02T15:16:14.000Z</time>
      </trkpt>
      <trkpt lat="47.51808" lon="6.77501">
        <ele>389</ele>
        <time>2016-11-02T15:16:15.000Z</time>
      </trkpt>
      <trkpt lat="47.51803" lon="6.77502">
        <ele>389</ele>
        <time>2016-11-02T15:16:17.000Z</time>
      </trkpt>
      <trkpt lat="47.51801" lon="6.77501">
        <ele>389</ele>
        <time>2016-11-02T15:16:18.000Z</time>
      </trkpt>
      <trkpt lat="47.51798" lon="6.775">
        <ele>389</ele>
        <time>2016-11-02T15:16:19.000Z</time>
      </trkpt>
      <trkpt lat="47.51796" lon="6.77499">
        <ele>388</ele>
        <time>2016-11-02T15:16:20.000Z</time>
      </trkpt>
      <trkpt lat="47.51799" lon="6.77502">
        <ele>389</ele>
        <time>2016-11-02T15:16:25.000Z</time>
      </trkpt>
      <trkpt lat="47.51803" lon="6.77502">
        <ele>389</ele>
        <time>2016-11-02T15:16:26.000Z</time>
      </trkpt>
      <trkpt lat="47.51806" lon="6.77501">
        <ele>389</ele>
        <time>2016-11-02T15:16:27.000Z</time>
      </trkpt>
      <trkpt lat="47.51809" lon="6.77498">
        <ele>388</ele>
        <time>2016-11-02T15:16:28.000Z</time>
      </trkpt>
      <trkpt lat="47.51812" lon="6.77493">
        <ele>388</ele>
        <time>2016-11-02T15:16:29.000Z</time>
      </trkpt>
      <trkpt lat="47.51812" lon="6.77488">
        <ele>388</ele>
        <time>2016-11-02T15:16:30.000Z</time>
      </trkpt>
      <trkpt lat="47.51812" lon="6.77484">
        <ele>388</ele>
        <time>2016-11-02T15:16:31.000Z</time>
      </trkpt>
      <trkpt lat="47.51811" lon="6.7748">
        <ele>388</ele>
        <time>2016-11-02T15:16:32.000Z</time>
      </trkpt>
      <trkpt lat="47.5181" lon="6.77476">
        <ele>388</ele>
        <time>2016-11-02T15:16:33.000Z</time>
      </trkpt>
      <trkpt lat="47.51808" lon="6.77474">
        <ele>388</ele>
        <time>2016-11-02T15:16:34.000Z</time>
      </trkpt>
      <trkpt lat="47.51807" lon="6.7748">
        <ele>388</ele>
        <time>2016-11-02T15:16:46.000Z</time>
      </trkpt>
      <trkpt lat="47.51807" lon="6.77481">
        <ele>388</ele>
        <time>2016-11-02T15:16:47.000Z</time>
      </trkpt>
      <trkpt lat="47.51808" lon="6.77486">
        <ele>388</ele>
        <time>2016-11-02T15:17:21.000Z</time>
      </trkpt>
      <trkpt lat="47.51811" lon="6.77486">
        <ele>388</ele>
        <time>2016-11-02T15:17:22.000Z</time>
      </trkpt>
      <trkpt lat="47.51808" lon="6.77485">
        <ele>388</ele>
        <time>2016-11-02T15:17:30.000Z</time>
      </trkpt>
      <trkpt lat="47.51806" lon="6.77485">
        <ele>388</ele>
        <time>2016-11-02T15:17:31.000Z</time>
      </trkpt>
      <trkpt lat="47.51803" lon="6.77484">
        <ele>388</ele>
        <time>2016-11-02T15:17:56.000Z</time>
      </trkpt>
      <trkpt lat="47.51802" lon="6.77483">
        <ele>388</ele>
        <time>2016-11-02T15:17:57.000Z</time>
      </trkpt>
      <trkpt lat="47.51806" lon="6.77479">
        <ele>388</ele>
        <time>2016-11-02T15:18:11.000Z</time>
      </trkpt>
      <trkpt lat="47.51806" lon="6.7748">
        <ele>388</ele>
        <time>2016-11-02T15:18:12.000Z</time>
      </trkpt>
      <trkpt lat="47.51809" lon="6.77485">
        <ele>388</ele>
        <time>2016-11-02T15:18:35.000Z</time>
      </trkpt>
      <trkpt lat="47.51809" lon="6.77485">
        <ele>388</ele>
        <time>2016-11-02T15:18:36.000Z</time>
      </trkpt>
      <trkpt lat="47.51809" lon="6.77492">
        <ele>388</ele>
        <time>2016-11-02T15:19:02.000Z</time>
      </trkpt>
      <trkpt lat="47.51809" lon="6.77493">
        <ele>388</ele>
        <time>2016-11-02T15:19:03.000Z</time>
      </trkpt>
      <trkpt lat="47.51807" lon="6.77497">
        <ele>388</ele>
        <time>2016-11-02T15:19:08.000Z</time>
      </trkpt>
      <trkpt lat="47.51805" lon="6.77499">
        <ele>388</ele>
        <time>2016-11-02T15:19:09.000Z</time>
      </trkpt>
      <trkpt lat="47.51803" lon="6.775">
        <ele>388</ele>
        <time>2016-11-02T15:19:10.000Z</time>
      </trkpt>
      <trkpt lat="47.518" lon="6.775">
        <ele>388</ele>
        <time>2016-11-02T15:19:11.000Z</time>
      </trkpt>
      <trkpt lat="47.51797" lon="6.77499">
        <ele>388</ele>
        <time>2016-11-02T15:19:12.000Z</time>
      </trkpt>
      <trkpt lat="47.51795" lon="6.77498">
        <ele>388</ele>
        <time>2016-11-02T15:19:13.000Z</time>
      </trkpt>
      <trkpt lat="47.51799" lon="6.77499">
        <ele>388</ele>
        <time>2016-11-02T15:19:19.000Z</time>
      </trkpt>
      <trkpt lat="47.51803" lon="6.77496">
        <ele>388</ele>
        <time>2016-11-02T15:19:20.000Z</time>
      </trkpt>
      <trkpt lat="47.51806" lon="6.77493">
        <ele>388</ele>
        <time>2016-11-02T15:19:21.000Z</time>
      </trkpt>
      <trkpt lat="47.51809" lon="6.77488">
        <ele>388</ele>
        <time>2016-11-02T15:19:22.000Z</time>
      </trkpt>
      <trkpt lat="47.5181" lon="6.77482">
        <ele>388</ele>
        <time>2016-11-02T15:19:23.000Z</time>
      </trkpt>
      <trkpt lat="47.5181" lon="6.77478">
        <ele>388</ele>
        <time>2016-11-02T15:19:24.000Z</time>
      </trkpt>
      <trkpt lat="47.51809" lon="6.77483">
        <ele>388</ele>
        <time>2016-11-02T15:19:48.000Z</time>
      </trkpt>
      <trkpt lat="47.51808" lon="6.77485">
        <ele>388</ele>
        <time>2016-11-02T15:19:49.000Z</time>
      </trkpt>
      <trkpt lat="47.51807" lon="6.7749">
        <ele>388</ele>
        <time>2016-11-02T15:19:51.000Z</time>
      </trkpt>
      <trkpt lat="47.51805" lon="6.77492">
        <ele>388</ele>
        <time>2016-11-02T15:19:52.000Z</time>
      </trkpt>
      <trkpt lat="47.51803" lon="6.77494">
        <ele>388</ele>
        <time>2016-11-02T15:19:53.000Z</time>
      </trkpt>
      <trkpt lat="47.518" lon="6.77495">
        <ele>388</ele>
        <time>2016-11-02T15:19:54.000Z</time>
      </trkpt>
      <trkpt lat="47.51797" lon="6.77494">
        <ele>388</ele>
        <time>2016-11-02T15:19:55.000Z</time>
      </trkpt>
      <trkpt lat="47.51794" lon="6.77494">
        <ele>388</ele>
        <time>2016-11-02T15:19:56.000Z</time>
      </trkpt>
      <trkpt lat="47.51798" lon="6.77496">
        <ele>388</ele>
        <time>2016-11-02T15:20:00.000Z</time>
      </trkpt>
      <trkpt lat="47.51803" lon="6.77494">
        <ele>388</ele>
        <time>2016-11-02T15:20:01.000Z</time>
      </trkpt>
      <trkpt lat="47.51807" lon="6.7749">
        <ele>388</ele>
        <time>2016-11-02T15:20:02.000Z</time>
      </trkpt>
      <trkpt lat="47.5181" lon="6.77485">
        <ele>388</ele>
        <time>2016-11-02T15:20:03.000Z</time>
      </trkpt>
      <trkpt lat="47.51812" lon="6.7748">
        <ele>388</ele>
        <time>2016-11-02T15:20:04.000Z</time>
      </trkpt>
      <trkpt lat="47.51813" lon="6.77477">
        <ele>388</ele>
        <time>2016-11-02T15:20:05.000Z</time>
      </trkpt>
      <trkpt lat="47.51812" lon="6.77483">
        <ele>388</ele>
        <time>2016-11-02T15:20:21.000Z</time>
      </trkpt>
      <trkpt lat="47.51812" lon="6.77484">
        <ele>388</ele>
        <time>2016-11-02T15:20:22.000Z</time>
      </trkpt>
      <trkpt lat="47.51808" lon="6.77482">
        <ele>388</ele>
        <time>2016-11-02T15:21:41.000Z</time>
      </trkpt>
      <trkpt lat="47.51808" lon="6.77482">
        <ele>388</ele>
        <time>2016-11-02T15:21:42.000Z</time>
      </trkpt>
    </trkseg>
  </trk>
</gpx>